<?xml version="1.0" encoding="UTF-8" standalone="no" ?>
<gpx xmlns="http://www.topografix.com/GPX/1/1" xmlns:xsi="http://www.w3.org/2001/XMLSchema-instance" xsi:schemaLocation="http://www.topografix.com/GPX/1/1 http://www.topografix.com/GPX/1/1/gpx.xsd" version="1.1" creator="VisuGPX - https://www.visugpx.com">
  <metadata>
    <name>PD-Etape_3_Clermont-Ferrand-Amilly</name>
  </metadata>
  <trk>
    <name><![CDATA[Perpignan-Dunkerque_Komoot-V2]]></name>
    <trkseg>
      <trkpt lat="45.75666" lon="3.14236">
        <ele>350.931742</ele>
        <time>2022-07-10T14:31:39.644Z</time>
      </trkpt>
      <trkpt lat="45.75666" lon="3.1424">
        <ele>350.92356</ele>
        <time>2022-07-10T14:31:43.151Z</time>
      </trkpt>
      <trkpt lat="45.75672" lon="3.14238">
        <ele>350.90782</ele>
        <time>2022-07-10T14:31:49.716Z</time>
      </trkpt>
      <trkpt lat="45.75674" lon="3.14251">
        <ele>350.883468</ele>
        <time>2022-07-10T14:31:59.872Z</time>
      </trkpt>
      <trkpt lat="45.75718" lon="3.14236">
        <ele>350.765891</ele>
        <time>2022-07-10T14:32:06.257Z</time>
      </trkpt>
      <trkpt lat="45.75749" lon="3.14237">
        <ele>350.685575</ele>
        <time>2022-07-10T14:32:10.798Z</time>
      </trkpt>
      <trkpt lat="45.75769" lon="3.1425">
        <ele>350.627595</ele>
        <time>2022-07-10T14:32:14.099Z</time>
      </trkpt>
      <trkpt lat="45.75765" lon="3.1427">
        <ele>350.589913</ele>
        <time>2022-07-10T14:32:16.030Z</time>
      </trkpt>
      <trkpt lat="45.75767" lon="3.14276">
        <ele>350.579911</ele>
        <time>2022-07-10T14:32:16.550Z</time>
      </trkpt>
      <trkpt lat="45.75776" lon="3.14287">
        <ele>350.543285</ele>
        <time>2022-07-10T14:32:18.336Z</time>
      </trkpt>
      <trkpt lat="45.75784" lon="3.14287">
        <ele>350.488656</ele>
        <time>2022-07-10T14:32:19.394Z</time>
      </trkpt>
      <trkpt lat="45.75785" lon="3.14348">
        <ele>350.187567</ele>
        <time>2022-07-10T14:32:25.004Z</time>
      </trkpt>
      <trkpt lat="45.75784" lon="3.14375">
        <ele>350.057339</ele>
        <time>2022-07-10T14:32:27.475Z</time>
      </trkpt>
      <trkpt lat="45.75783" lon="3.14404">
        <ele>349.913211</ele>
        <time>2022-07-10T14:32:30.069Z</time>
      </trkpt>
      <trkpt lat="45.75782" lon="3.14413">
        <ele>349.871471</ele>
        <time>2022-07-10T14:32:30.837Z</time>
      </trkpt>
      <trkpt lat="45.75831" lon="3.14423">
        <ele>349.526686</ele>
        <time>2022-07-10T14:32:36.832Z</time>
      </trkpt>
      <trkpt lat="45.75835" lon="3.14424">
        <ele>349.49549</ele>
        <time>2022-07-10T14:32:37.383Z</time>
      </trkpt>
      <trkpt lat="45.75879" lon="3.14433">
        <ele>349.218563</ele>
        <time>2022-07-10T14:32:42.877Z</time>
      </trkpt>
      <trkpt lat="45.75887" lon="3.14431">
        <ele>349.178947</ele>
        <time>2022-07-10T14:32:43.925Z</time>
      </trkpt>
      <trkpt lat="45.75895" lon="3.14437">
        <ele>349.134407</ele>
        <time>2022-07-10T14:32:45.057Z</time>
      </trkpt>
      <trkpt lat="45.75903" lon="3.14442">
        <ele>349.093371</ele>
        <time>2022-07-10T14:32:46.139Z</time>
      </trkpt>
      <trkpt lat="45.75911" lon="3.14447">
        <ele>349.046609</ele>
        <time>2022-07-10T14:32:47.346Z</time>
      </trkpt>
      <trkpt lat="45.75958" lon="3.14479">
        <ele>348.79638</ele>
        <time>2022-07-10T14:32:53.988Z</time>
      </trkpt>
      <trkpt lat="45.75973" lon="3.14497">
        <ele>348.700504</ele>
        <time>2022-07-10T14:32:57.685Z</time>
      </trkpt>
      <trkpt lat="45.75977" lon="3.1451">
        <ele>348.652606</ele>
        <time>2022-07-10T14:32:59.690Z</time>
      </trkpt>
      <trkpt lat="45.75979" lon="3.14513">
        <ele>348.636765</ele>
        <time>2022-07-10T14:33:00.286Z</time>
      </trkpt>
      <trkpt lat="45.75986" lon="3.14515">
        <ele>348.604542</ele>
        <time>2022-07-10T14:33:01.495Z</time>
      </trkpt>
      <trkpt lat="45.75996" lon="3.14507">
        <ele>348.545709</ele>
        <time>2022-07-10T14:33:03.859Z</time>
      </trkpt>
      <trkpt lat="45.76005" lon="3.14516">
        <ele>348.492061</ele>
        <time>2022-07-10T14:33:08.011Z</time>
      </trkpt>
      <trkpt lat="45.76072" lon="3.14513">
        <ele>348.397794</ele>
        <time>2022-07-10T14:33:32.762Z</time>
      </trkpt>
      <trkpt lat="45.76077" lon="3.14503">
        <ele>348.395126</ele>
        <time>2022-07-10T14:33:35.820Z</time>
      </trkpt>
      <trkpt lat="45.76087" lon="3.14515">
        <ele>348.390658</ele>
        <time>2022-07-10T14:33:39.452Z</time>
      </trkpt>
      <trkpt lat="45.76096" lon="3.14525">
        <ele>348.38681</ele>
        <time>2022-07-10T14:33:42.766Z</time>
      </trkpt>
      <trkpt lat="45.76102" lon="3.14536">
        <ele>348.383525</ele>
        <time>2022-07-10T14:33:45.669Z</time>
      </trkpt>
      <trkpt lat="45.76137" lon="3.14508">
        <ele>348.370211</ele>
        <time>2022-07-10T14:33:53.947Z</time>
      </trkpt>
      <trkpt lat="45.76154" lon="3.14485">
        <ele>348.362453</ele>
        <time>2022-07-10T14:33:58.489Z</time>
      </trkpt>
      <trkpt lat="45.76192" lon="3.14404">
        <ele>348.215783</ele>
        <time>2022-07-10T14:34:11.754Z</time>
      </trkpt>
      <trkpt lat="45.76232" lon="3.14296">
        <ele>347.955189</ele>
        <time>2022-07-10T14:34:28.124Z</time>
      </trkpt>
      <trkpt lat="45.76277" lon="3.14297">
        <ele>347.819585</ele>
        <time>2022-07-10T14:34:36.590Z</time>
      </trkpt>
      <trkpt lat="45.76322" lon="3.14317">
        <ele>347.38151</ele>
        <time>2022-07-10T14:34:45.345Z</time>
      </trkpt>
      <trkpt lat="45.76433" lon="3.14386">
        <ele>346.17507</ele>
        <time>2022-07-10T14:35:06.375Z</time>
      </trkpt>
      <trkpt lat="45.76628" lon="3.1457">
        <ele>342.39355</ele>
        <time>2022-07-10T14:35:43.796Z</time>
      </trkpt>
      <trkpt lat="45.76701" lon="3.14648">
        <ele>341.016724</ele>
        <time>2022-07-10T14:35:58.531Z</time>
      </trkpt>
      <trkpt lat="45.76787" lon="3.1475">
        <ele>339.915391</ele>
        <time>2022-07-10T14:36:17.938Z</time>
      </trkpt>
      <trkpt lat="45.76794" lon="3.14745">
        <ele>339.872087</ele>
        <time>2022-07-10T14:36:19.020Z</time>
      </trkpt>
      <trkpt lat="45.76872" lon="3.147">
        <ele>339.409801</ele>
        <time>2022-07-10T14:36:30.541Z</time>
      </trkpt>
      <trkpt lat="45.7694" lon="3.14678">
        <ele>339.071904</ele>
        <time>2022-07-10T14:36:40.349Z</time>
      </trkpt>
      <trkpt lat="45.7705" lon="3.14671">
        <ele>338.582981</ele>
        <time>2022-07-10T14:36:55.029Z</time>
      </trkpt>
      <trkpt lat="45.77105" lon="3.14671">
        <ele>338.332301</ele>
        <time>2022-07-10T14:37:02.326Z</time>
      </trkpt>
      <trkpt lat="45.77194" lon="3.14684">
        <ele>337.917999</ele>
        <time>2022-07-10T14:37:14.093Z</time>
      </trkpt>
      <trkpt lat="45.77236" lon="3.14692">
        <ele>337.720744</ele>
        <time>2022-07-10T14:37:19.741Z</time>
      </trkpt>
      <trkpt lat="45.77335" lon="3.1471">
        <ele>337.206472</ele>
        <time>2022-07-10T14:37:33.300Z</time>
      </trkpt>
      <trkpt lat="45.77528" lon="3.14722">
        <ele>335.971172</ele>
        <time>2022-07-10T14:37:58.372Z</time>
      </trkpt>
      <trkpt lat="45.77575" lon="3.14731">
        <ele>335.611587</ele>
        <time>2022-07-10T14:38:04.132Z</time>
      </trkpt>
      <trkpt lat="45.77721" lon="3.14799">
        <ele>334.581029</ele>
        <time>2022-07-10T14:38:23.414Z</time>
      </trkpt>
      <trkpt lat="45.77778" lon="3.14799">
        <ele>334.215862</ele>
        <time>2022-07-10T14:38:31.089Z</time>
      </trkpt>
      <trkpt lat="45.7783" lon="3.14781">
        <ele>334.220119</ele>
        <time>2022-07-10T14:38:38.409Z</time>
      </trkpt>
      <trkpt lat="45.77881" lon="3.14766">
        <ele>334.291698</ele>
        <time>2022-07-10T14:38:46.531Z</time>
      </trkpt>
      <trkpt lat="45.77893" lon="3.14764">
        <ele>334.307822</ele>
        <time>2022-07-10T14:38:48.385Z</time>
      </trkpt>
      <trkpt lat="45.77907" lon="3.14776">
        <ele>334.329511</ele>
        <time>2022-07-10T14:38:51.054Z</time>
      </trkpt>
      <trkpt lat="45.77924" lon="3.14773">
        <ele>334.353437</ele>
        <time>2022-07-10T14:38:53.940Z</time>
      </trkpt>
      <trkpt lat="45.77938" lon="3.14753">
        <ele>334.379841</ele>
        <time>2022-07-10T14:38:57.284Z</time>
      </trkpt>
      <trkpt lat="45.7794" lon="3.14735">
        <ele>334.397626</ele>
        <time>2022-07-10T14:38:59.487Z</time>
      </trkpt>
      <trkpt lat="45.77947" lon="3.14728">
        <ele>334.419915</ele>
        <time>2022-07-10T14:39:00.875Z</time>
      </trkpt>
      <trkpt lat="45.7803" lon="3.14671">
        <ele>334.848366</ele>
        <time>2022-07-10T14:39:16.355Z</time>
      </trkpt>
      <trkpt lat="45.78123" lon="3.14621">
        <ele>335.212473</ele>
        <time>2022-07-10T14:39:33.127Z</time>
      </trkpt>
      <trkpt lat="45.78184" lon="3.14572">
        <ele>335.05818</ele>
        <time>2022-07-10T14:39:43.305Z</time>
      </trkpt>
      <trkpt lat="45.7828" lon="3.14469">
        <ele>334.690305</ele>
        <time>2022-07-10T14:39:58.952Z</time>
      </trkpt>
      <trkpt lat="45.78332" lon="3.14399">
        <ele>334.238495</ele>
        <time>2022-07-10T14:40:08.347Z</time>
      </trkpt>
      <trkpt lat="45.7835" lon="3.14409">
        <ele>334.117903</ele>
        <time>2022-07-10T14:40:10.867Z</time>
      </trkpt>
      <trkpt lat="45.78366" lon="3.14396">
        <ele>333.997877</ele>
        <time>2022-07-10T14:40:13.220Z</time>
      </trkpt>
      <trkpt lat="45.7837" lon="3.14377">
        <ele>333.909123</ele>
        <time>2022-07-10T14:40:15.046Z</time>
      </trkpt>
      <trkpt lat="45.78368" lon="3.14363">
        <ele>333.849389</ele>
        <time>2022-07-10T14:40:16.201Z</time>
      </trkpt>
      <trkpt lat="45.78386" lon="3.14331">
        <ele>333.665988</ele>
        <time>2022-07-10T14:40:19.966Z</time>
      </trkpt>
      <trkpt lat="45.78413" lon="3.14297">
        <ele>333.421614</ele>
        <time>2022-07-10T14:40:24.605Z</time>
      </trkpt>
      <trkpt lat="45.7845" lon="3.14254">
        <ele>333.098701</ele>
        <time>2022-07-10T14:40:30.790Z</time>
      </trkpt>
      <trkpt lat="45.78477" lon="3.14224">
        <ele>332.869112</ele>
        <time>2022-07-10T14:40:35.163Z</time>
      </trkpt>
      <trkpt lat="45.78492" lon="3.14229">
        <ele>332.770109</ele>
        <time>2022-07-10T14:40:37.052Z</time>
      </trkpt>
      <trkpt lat="45.78501" lon="3.14217">
        <ele>332.681622</ele>
        <time>2022-07-10T14:40:38.770Z</time>
      </trkpt>
      <trkpt lat="45.78503" lon="3.14207">
        <ele>332.633822</ele>
        <time>2022-07-10T14:40:39.621Z</time>
      </trkpt>
      <trkpt lat="45.78513" lon="3.14188">
        <ele>332.516882</ele>
        <time>2022-07-10T14:40:41.795Z</time>
      </trkpt>
      <trkpt lat="45.78575" lon="3.14135">
        <ele>332.069785</ele>
        <time>2022-07-10T14:40:50.925Z</time>
      </trkpt>
      <trkpt lat="45.78716" lon="3.14028">
        <ele>331.231917</ele>
        <time>2022-07-10T14:41:11.868Z</time>
      </trkpt>
      <trkpt lat="45.78783" lon="3.13974">
        <ele>330.984397</ele>
        <time>2022-07-10T14:41:22.448Z</time>
      </trkpt>
      <trkpt lat="45.78807" lon="3.1397">
        <ele>330.906231</ele>
        <time>2022-07-10T14:41:25.823Z</time>
      </trkpt>
      <trkpt lat="45.78811" lon="3.13971">
        <ele>330.892594</ele>
        <time>2022-07-10T14:41:26.442Z</time>
      </trkpt>
      <trkpt lat="45.7892" lon="3.14085">
        <ele>330.788974</ele>
        <time>2022-07-10T14:41:45.922Z</time>
      </trkpt>
      <trkpt lat="45.78953" lon="3.14133">
        <ele>330.781508</ele>
        <time>2022-07-10T14:41:53.290Z</time>
      </trkpt>
      <trkpt lat="45.79049" lon="3.14298">
        <ele>330.72067</ele>
        <time>2022-07-10T14:42:15.606Z</time>
      </trkpt>
      <trkpt lat="45.79075" lon="3.14352">
        <ele>330.699785</ele>
        <time>2022-07-10T14:42:22.156Z</time>
      </trkpt>
      <trkpt lat="45.79166" lon="3.14521">
        <ele>330.446219</ele>
        <time>2022-07-10T14:42:43.448Z</time>
      </trkpt>
      <trkpt lat="45.79186" lon="3.14548">
        <ele>330.397082</ele>
        <time>2022-07-10T14:42:47.454Z</time>
      </trkpt>
      <trkpt lat="45.79244" lon="3.14604">
        <ele>329.922722</ele>
        <time>2022-07-10T14:42:56.886Z</time>
      </trkpt>
      <trkpt lat="45.79256" lon="3.14639">
        <ele>329.708519</ele>
        <time>2022-07-10T14:43:00.340Z</time>
      </trkpt>
      <trkpt lat="45.79252" lon="3.14692">
        <ele>329.418518</ele>
        <time>2022-07-10T14:43:04.853Z</time>
      </trkpt>
      <trkpt lat="45.79251" lon="3.14713">
        <ele>329.301003</ele>
        <time>2022-07-10T14:43:06.671Z</time>
      </trkpt>
      <trkpt lat="45.79242" lon="3.149">
        <ele>327.991537</ele>
        <time>2022-07-10T14:43:22.097Z</time>
      </trkpt>
      <trkpt lat="45.79223" lon="3.15238">
        <ele>325.883315</ele>
        <time>2022-07-10T14:43:50.969Z</time>
      </trkpt>
      <trkpt lat="45.79225" lon="3.15298">
        <ele>325.642119</ele>
        <time>2022-07-10T14:43:57.140Z</time>
      </trkpt>
      <trkpt lat="45.79231" lon="3.15312">
        <ele>325.704085</ele>
        <time>2022-07-10T14:43:58.861Z</time>
      </trkpt>
      <trkpt lat="45.79245" lon="3.1532">
        <ele>325.785645</ele>
        <time>2022-07-10T14:44:01.203Z</time>
      </trkpt>
      <trkpt lat="45.79268" lon="3.15322">
        <ele>325.915543</ele>
        <time>2022-07-10T14:44:05.057Z</time>
      </trkpt>
      <trkpt lat="45.79299" lon="3.15345">
        <ele>326.109783</ele>
        <time>2022-07-10T14:44:11.096Z</time>
      </trkpt>
      <trkpt lat="45.79346" lon="3.15558">
        <ele>327.023925</ele>
        <time>2022-07-10T14:44:39.782Z</time>
      </trkpt>
      <trkpt lat="45.79366" lon="3.15654">
        <ele>327.471721</ele>
        <time>2022-07-10T14:44:52.002Z</time>
      </trkpt>
      <trkpt lat="45.79366" lon="3.15657">
        <ele>327.485007</ele>
        <time>2022-07-10T14:44:52.347Z</time>
      </trkpt>
      <trkpt lat="45.79378" lon="3.15764">
        <ele>327.705521</ele>
        <time>2022-07-10T14:45:04.462Z</time>
      </trkpt>
      <trkpt lat="45.79386" lon="3.15895">
        <ele>327.570249</ele>
        <time>2022-07-10T14:45:17.500Z</time>
      </trkpt>
      <trkpt lat="45.79388" lon="3.15939">
        <ele>327.525004</ele>
        <time>2022-07-10T14:45:21.668Z</time>
      </trkpt>
      <trkpt lat="45.794" lon="3.16121">
        <ele>326.94749</ele>
        <time>2022-07-10T14:45:38.457Z</time>
      </trkpt>
      <trkpt lat="45.79428" lon="3.16259">
        <ele>326.493239</ele>
        <time>2022-07-10T14:45:51.516Z</time>
      </trkpt>
      <trkpt lat="45.79436" lon="3.1629">
        <ele>326.443975</ele>
        <time>2022-07-10T14:45:54.538Z</time>
      </trkpt>
      <trkpt lat="45.79438" lon="3.16314">
        <ele>326.40824</ele>
        <time>2022-07-10T14:45:56.741Z</time>
      </trkpt>
      <trkpt lat="45.7944" lon="3.16342">
        <ele>326.366006</ele>
        <time>2022-07-10T14:45:59.401Z</time>
      </trkpt>
      <trkpt lat="45.79444" lon="3.16436">
        <ele>325</ele>
        <extensions>
          <visugpx:TrkExtension xmlns:visugpx="https://www.visugpx.com/editgpx/">
            <visugpx:node>1</visugpx:node>
            </visugpx:TrkExtension>
        </extensions>
      </trkpt>
      <trkpt lat="45.79445" lon="3.16436">
        <ele>325</ele>
      </trkpt>
      <trkpt lat="45.79446" lon="3.16469">
        <ele>325.9</ele>
      </trkpt>
      <trkpt lat="45.79467" lon="3.16526">
        <ele>326</ele>
      </trkpt>
      <trkpt lat="45.79469" lon="3.16531">
        <ele>326</ele>
      </trkpt>
      <trkpt lat="45.79472" lon="3.16535">
        <ele>326</ele>
      </trkpt>
      <trkpt lat="45.79474" lon="3.16549">
        <ele>326</ele>
      </trkpt>
      <trkpt lat="45.79482" lon="3.16577">
        <ele>326</ele>
      </trkpt>
      <trkpt lat="45.79492" lon="3.16621">
        <ele>326</ele>
      </trkpt>
      <trkpt lat="45.79493" lon="3.1663">
        <ele>326</ele>
      </trkpt>
      <trkpt lat="45.79496" lon="3.16646">
        <ele>326</ele>
      </trkpt>
      <trkpt lat="45.79497" lon="3.1665">
        <ele>326</ele>
      </trkpt>
      <trkpt lat="45.7951" lon="3.1672">
        <ele>326</ele>
      </trkpt>
      <trkpt lat="45.79521" lon="3.16784">
        <ele>326</ele>
      </trkpt>
      <trkpt lat="45.79523" lon="3.16794">
        <ele>326</ele>
      </trkpt>
      <trkpt lat="45.79525" lon="3.16804">
        <ele>326</ele>
      </trkpt>
      <trkpt lat="45.79533" lon="3.16869">
        <ele>325.8</ele>
      </trkpt>
      <trkpt lat="45.79548" lon="3.17071">
        <ele>325</ele>
      </trkpt>
      <trkpt lat="45.79549" lon="3.17095">
        <ele>325</ele>
        <extensions>
          <visugpx:TrkExtension xmlns:visugpx="https://www.visugpx.com/editgpx/">
            <visugpx:node>2</visugpx:node>
            </visugpx:TrkExtension>
        </extensions>
      </trkpt>
      <trkpt lat="45.79549" lon="3.17101">
        <ele>325</ele>
      </trkpt>
      <trkpt lat="45.79546" lon="3.17117">
        <ele>325.1</ele>
      </trkpt>
      <trkpt lat="45.79536" lon="3.17141">
        <ele>325.7</ele>
      </trkpt>
      <trkpt lat="45.79534" lon="3.17159">
        <ele>325.2</ele>
      </trkpt>
      <trkpt lat="45.79525" lon="3.17161">
        <ele>325.3</ele>
      </trkpt>
      <trkpt lat="45.79518" lon="3.17168">
        <ele>325.4</ele>
      </trkpt>
      <trkpt lat="45.79513" lon="3.17178">
        <ele>325.5</ele>
      </trkpt>
      <trkpt lat="45.79512" lon="3.17191">
        <ele>325.4</ele>
      </trkpt>
      <trkpt lat="45.79513" lon="3.17201">
        <ele>325.4</ele>
      </trkpt>
      <trkpt lat="45.79516" lon="3.1721">
        <ele>325.3</ele>
      </trkpt>
      <trkpt lat="45.79521" lon="3.17217">
        <ele>325.1</ele>
      </trkpt>
      <trkpt lat="45.79528" lon="3.17222">
        <ele>325</ele>
      </trkpt>
      <trkpt lat="45.79535" lon="3.17223">
        <ele>324.7</ele>
      </trkpt>
      <trkpt lat="45.79542" lon="3.17221">
        <ele>324.5</ele>
      </trkpt>
      <trkpt lat="45.79548" lon="3.17216">
        <ele>324.5</ele>
      </trkpt>
      <trkpt lat="45.79554" lon="3.17206">
        <ele>324.6</ele>
      </trkpt>
      <trkpt lat="45.7957" lon="3.17204">
        <ele>324.8</ele>
      </trkpt>
      <trkpt lat="45.79577" lon="3.17203">
        <ele>324.9</ele>
      </trkpt>
      <trkpt lat="45.79591" lon="3.17202">
        <ele>325</ele>
      </trkpt>
      <trkpt lat="45.79604" lon="3.172">
        <ele>325</ele>
      </trkpt>
      <trkpt lat="45.79648" lon="3.17193">
        <ele>325</ele>
      </trkpt>
      <trkpt lat="45.79679" lon="3.17185">
        <ele>324.7</ele>
      </trkpt>
      <trkpt lat="45.79692" lon="3.1718">
        <ele>324.6</ele>
      </trkpt>
      <trkpt lat="45.79694" lon="3.17179">
        <ele>324.6</ele>
      </trkpt>
      <trkpt lat="45.79698" lon="3.17178">
        <ele>324.6</ele>
      </trkpt>
      <trkpt lat="45.79758" lon="3.17158">
        <ele>325</ele>
      </trkpt>
      <trkpt lat="45.79863" lon="3.17124">
        <ele>325</ele>
        <extensions>
          <visugpx:TrkExtension xmlns:visugpx="https://www.visugpx.com/editgpx/">
            <visugpx:node>3</visugpx:node>
            </visugpx:TrkExtension>
        </extensions>
      </trkpt>
      <trkpt lat="45.79862" lon="3.17124">
        <ele>325</ele>
      </trkpt>
      <trkpt lat="45.79869" lon="3.17122">
        <ele>325</ele>
      </trkpt>
      <trkpt lat="45.79909" lon="3.17111">
        <ele>325</ele>
      </trkpt>
      <trkpt lat="45.79911" lon="3.17114">
        <ele>325</ele>
      </trkpt>
      <trkpt lat="45.79918" lon="3.17119">
        <ele>325</ele>
      </trkpt>
      <trkpt lat="45.79925" lon="3.17114">
        <ele>325</ele>
      </trkpt>
      <trkpt lat="45.7993" lon="3.17129">
        <ele>325</ele>
      </trkpt>
      <trkpt lat="45.79963" lon="3.17197">
        <ele>325</ele>
      </trkpt>
      <trkpt lat="45.79982" lon="3.17237">
        <ele>325</ele>
      </trkpt>
      <trkpt lat="45.79963" lon="3.17197">
        <ele>323.949692</ele>
        <time>2022-07-10T14:48:20.895Z</time>
      </trkpt>
      <trkpt lat="45.79982" lon="3.17237">
        <ele>325</ele>
        <extensions>
          <visugpx:TrkExtension xmlns:visugpx="https://www.visugpx.com/editgpx/">
            <visugpx:node>4</visugpx:node>
            </visugpx:TrkExtension>
        </extensions>
      </trkpt>
      <trkpt lat="45.8003" lon="3.17338">
        <ele>323.4153</ele>
        <time>2022-07-10T14:48:36.516Z</time>
      </trkpt>
      <trkpt lat="45.80084" lon="3.17459">
        <ele>322.928848</ele>
        <time>2022-07-10T14:48:50.115Z</time>
      </trkpt>
      <trkpt lat="45.80106" lon="3.17463">
        <ele>322.817421</ele>
        <time>2022-07-10T14:48:53.032Z</time>
      </trkpt>
      <trkpt lat="45.8011" lon="3.175">
        <ele>322.69121</ele>
        <time>2022-07-10T14:48:56.521Z</time>
      </trkpt>
      <trkpt lat="45.80137" lon="3.17565">
        <ele>322.455943</ele>
        <time>2022-07-10T14:49:03.314Z</time>
      </trkpt>
      <trkpt lat="45.80145" lon="3.17581">
        <ele>322.392264</ele>
        <time>2022-07-10T14:49:05.207Z</time>
      </trkpt>
      <trkpt lat="45.80203" lon="3.17726">
        <ele>321.873692</ele>
        <time>2022-07-10T14:49:20.910Z</time>
      </trkpt>
      <trkpt lat="45.80261" lon="3.17922">
        <ele>321.407586</ele>
        <time>2022-07-10T14:49:40.726Z</time>
      </trkpt>
      <trkpt lat="45.80358" lon="3.18219">
        <ele>321.501811</ele>
        <time>2022-07-10T14:50:16.329Z</time>
      </trkpt>
      <trkpt lat="45.80392" lon="3.18349">
        <ele>321.374081</ele>
        <time>2022-07-10T14:50:30.536Z</time>
      </trkpt>
      <trkpt lat="45.80448" lon="3.18506">
        <ele>321.194186</ele>
        <time>2022-07-10T14:50:47.400Z</time>
      </trkpt>
      <trkpt lat="45.80469" lon="3.18545">
        <ele>321.138974</ele>
        <time>2022-07-10T14:50:52.091Z</time>
      </trkpt>
      <trkpt lat="45.8064" lon="3.18732">
        <ele>321.110328</ele>
        <time>2022-07-10T14:51:23.917Z</time>
      </trkpt>
      <trkpt lat="45.80649" lon="3.18742">
        <ele>321.120272</ele>
        <time>2022-07-10T14:51:25.751Z</time>
      </trkpt>
      <trkpt lat="45.80696" lon="3.18793">
        <ele>321.189441</ele>
        <time>2022-07-10T14:51:34.940Z</time>
      </trkpt>
      <trkpt lat="45.80794" lon="3.18891">
        <ele>321.409499</ele>
        <time>2022-07-10T14:51:53.733Z</time>
      </trkpt>
      <trkpt lat="45.80824" lon="3.1891">
        <ele>321.469907</ele>
        <time>2022-07-10T14:51:58.892Z</time>
      </trkpt>
      <trkpt lat="45.8098" lon="3.18986">
        <ele>321.596703</ele>
        <time>2022-07-10T14:52:24.252Z</time>
      </trkpt>
      <trkpt lat="45.81043" lon="3.19012">
        <ele>321.532041</ele>
        <time>2022-07-10T14:52:33.363Z</time>
      </trkpt>
      <trkpt lat="45.81047" lon="3.19021">
        <ele>321.517697</ele>
        <time>2022-07-10T14:52:34.390Z</time>
      </trkpt>
      <trkpt lat="45.81063" lon="3.19033">
        <ele>321.483226</ele>
        <time>2022-07-10T14:52:36.900Z</time>
      </trkpt>
      <trkpt lat="45.81072" lon="3.19033">
        <ele>321.465804</ele>
        <time>2022-07-10T14:52:38.200Z</time>
      </trkpt>
      <trkpt lat="45.81087" lon="3.19021">
        <ele>321.433831</ele>
        <time>2022-07-10T14:52:40.468Z</time>
      </trkpt>
      <trkpt lat="45.81093" lon="3.18999">
        <ele>321.401877</ele>
        <time>2022-07-10T14:52:42.900Z</time>
      </trkpt>
      <trkpt lat="45.81084" lon="3.18967">
        <ele>321.354833</ele>
        <time>2022-07-10T14:52:46.288Z</time>
      </trkpt>
      <trkpt lat="45.81109" lon="3.18939">
        <ele>321.293278</ele>
        <time>2022-07-10T14:52:50.793Z</time>
      </trkpt>
      <trkpt lat="45.81127" lon="3.18909">
        <ele>321.276797</ele>
        <time>2022-07-10T14:52:54.727Z</time>
      </trkpt>
      <trkpt lat="45.81174" lon="3.18831">
        <ele>321.315783</ele>
        <time>2022-07-10T14:53:05.287Z</time>
      </trkpt>
      <trkpt lat="45.81195" lon="3.18811">
        <ele>321.329356</ele>
        <time>2022-07-10T14:53:09.143Z</time>
      </trkpt>
      <trkpt lat="45.81205" lon="3.18802">
        <ele>321.336147</ele>
        <time>2022-07-10T14:53:11.047Z</time>
      </trkpt>
      <trkpt lat="45.81273" lon="3.18743">
        <ele>321.414246</ele>
        <time>2022-07-10T14:53:23.299Z</time>
      </trkpt>
      <trkpt lat="45.81318" lon="3.18704">
        <ele>321.527413</ele>
        <time>2022-07-10T14:53:31.456Z</time>
      </trkpt>
      <trkpt lat="45.81339" lon="3.18686">
        <ele>321.578919</ele>
        <time>2022-07-10T14:53:35.139Z</time>
      </trkpt>
      <trkpt lat="45.81421" lon="3.18622">
        <ele>321.802096</ele>
        <time>2022-07-10T14:53:49.952Z</time>
      </trkpt>
      <trkpt lat="45.81436" lon="3.18615">
        <ele>321.869473</ele>
        <time>2022-07-10T14:53:52.715Z</time>
      </trkpt>
      <trkpt lat="45.81482" lon="3.18604">
        <ele>322.059209</ele>
        <time>2022-07-10T14:54:00.300Z</time>
      </trkpt>
      <trkpt lat="45.81488" lon="3.18607">
        <ele>322.085012</ele>
        <time>2022-07-10T14:54:01.289Z</time>
      </trkpt>
      <trkpt lat="45.81508" lon="3.18629">
        <ele>322.190557</ele>
        <time>2022-07-10T14:54:05.423Z</time>
      </trkpt>
      <trkpt lat="45.81561" lon="3.18705">
        <ele>322.487755</ele>
        <time>2022-07-10T14:54:18.259Z</time>
      </trkpt>
      <trkpt lat="45.81595" lon="3.18739">
        <ele>322.466194</ele>
        <time>2022-07-10T14:54:25.024Z</time>
      </trkpt>
      <trkpt lat="45.816" lon="3.18745">
        <ele>322.462923</ele>
        <time>2022-07-10T14:54:25.941Z</time>
      </trkpt>
      <trkpt lat="45.81613" lon="3.18753">
        <ele>322.45573</ele>
        <time>2022-07-10T14:54:28.119Z</time>
      </trkpt>
      <trkpt lat="45.81624" lon="3.18779">
        <ele>322.444725</ele>
        <time>2022-07-10T14:54:31.392Z</time>
      </trkpt>
      <trkpt lat="45.81628" lon="3.18801">
        <ele>322.436248</ele>
        <time>2022-07-10T14:54:33.876Z</time>
      </trkpt>
      <trkpt lat="45.81633" lon="3.18835">
        <ele>322.424019</ele>
        <time>2022-07-10T14:54:37.186Z</time>
      </trkpt>
      <trkpt lat="45.81634" lon="3.18867">
        <ele>322.412321</ele>
        <time>2022-07-10T14:54:40.427Z</time>
      </trkpt>
      <trkpt lat="45.81633" lon="3.18875">
        <ele>322.409517</ele>
        <time>2022-07-10T14:54:41.092Z</time>
      </trkpt>
      <trkpt lat="45.81641" lon="3.18893">
        <ele>322.40198</ele>
        <time>2022-07-10T14:54:42.955Z</time>
      </trkpt>
      <trkpt lat="45.81647" lon="3.18892">
        <ele>322.398675</ele>
        <time>2022-07-10T14:54:43.825Z</time>
      </trkpt>
      <trkpt lat="45.81669" lon="3.18907">
        <ele>322.268262</ele>
        <time>2022-07-10T14:54:46.881Z</time>
      </trkpt>
      <trkpt lat="45.81798" lon="3.19096">
        <ele>321.015565</ele>
        <time>2022-07-10T14:55:10.378Z</time>
      </trkpt>
      <trkpt lat="45.81824" lon="3.19158">
        <ele>320.66413</ele>
        <time>2022-07-10T14:55:16.918Z</time>
      </trkpt>
      <trkpt lat="45.81847" lon="3.19235">
        <ele>320.259497</ele>
        <time>2022-07-10T14:55:24.381Z</time>
      </trkpt>
      <trkpt lat="45.81871" lon="3.1935">
        <ele>319.749943</ele>
        <time>2022-07-10T14:55:34.992Z</time>
      </trkpt>
      <trkpt lat="45.8192" lon="3.19545">
        <ele>319.040616</ele>
        <time>2022-07-10T14:55:54.202Z</time>
      </trkpt>
      <trkpt lat="45.8202" lon="3.19739">
        <ele>318.65406</ele>
        <time>2022-07-10T14:56:17.871Z</time>
      </trkpt>
      <trkpt lat="45.82047" lon="3.1977">
        <ele>318.649542</ele>
        <time>2022-07-10T14:56:22.802Z</time>
      </trkpt>
      <trkpt lat="45.82138" lon="3.19823">
        <ele>318.737732</ele>
        <time>2022-07-10T14:56:37.356Z</time>
      </trkpt>
      <trkpt lat="45.82188" lon="3.19849">
        <ele>318.785593</ele>
        <time>2022-07-10T14:56:45.778Z</time>
      </trkpt>
      <trkpt lat="45.82256" lon="3.19874">
        <ele>319.251952</ele>
        <time>2022-07-10T14:56:57.912Z</time>
      </trkpt>
      <trkpt lat="45.82327" lon="3.1989">
        <ele>319.765444</ele>
        <time>2022-07-10T14:57:11.544Z</time>
      </trkpt>
      <trkpt lat="45.8242" lon="3.19898">
        <ele>319.903436</ele>
        <time>2022-07-10T14:57:27.665Z</time>
      </trkpt>
      <trkpt lat="45.82465" lon="3.19899">
        <ele>319.758124</ele>
        <time>2022-07-10T14:57:34.047Z</time>
      </trkpt>
      <trkpt lat="45.82649" lon="3.19901">
        <ele>318.480073</ele>
        <time>2022-07-10T14:57:56.406Z</time>
      </trkpt>
      <trkpt lat="45.82679" lon="3.19906">
        <ele>318.177516</ele>
        <time>2022-07-10T14:57:59.996Z</time>
      </trkpt>
      <trkpt lat="45.82709" lon="3.19921">
        <ele>317.852002</ele>
        <time>2022-07-10T14:58:03.926Z</time>
      </trkpt>
      <trkpt lat="45.82748" lon="3.19953">
        <ele>317.558974</ele>
        <time>2022-07-10T14:58:09.494Z</time>
      </trkpt>
      <trkpt lat="45.82815" lon="3.2003">
        <ele>317.18262</ele>
        <time>2022-07-10T14:58:21.128Z</time>
      </trkpt>
      <trkpt lat="45.82901" lon="3.20129">
        <ele>316.85507</ele>
        <time>2022-07-10T14:58:36.746Z</time>
      </trkpt>
      <trkpt lat="45.83103" lon="3.20295">
        <ele>316.568153</ele>
        <time>2022-07-10T14:59:10.693Z</time>
      </trkpt>
      <trkpt lat="45.83129" lon="3.20316">
        <ele>316.513874</ele>
        <time>2022-07-10T14:59:14.889Z</time>
      </trkpt>
      <trkpt lat="45.83163" lon="3.20331">
        <ele>316.450781</ele>
        <time>2022-07-10T14:59:19.680Z</time>
      </trkpt>
      <trkpt lat="45.83316" lon="3.20385">
        <ele>315.955422</ele>
        <time>2022-07-10T14:59:41.144Z</time>
      </trkpt>
      <trkpt lat="45.83343" lon="3.20384">
        <ele>315.867428</ele>
        <time>2022-07-10T14:59:44.824Z</time>
      </trkpt>
      <trkpt lat="45.83387" lon="3.20366">
        <ele>315.850107</ele>
        <time>2022-07-10T14:59:51.375Z</time>
      </trkpt>
      <trkpt lat="45.83413" lon="3.20363">
        <ele>315.87265</ele>
        <time>2022-07-10T14:59:55.125Z</time>
      </trkpt>
      <trkpt lat="45.83558" lon="3.20373">
        <ele>316.028156</ele>
        <time>2022-07-10T15:00:18.062Z</time>
      </trkpt>
      <trkpt lat="45.83624" lon="3.20399">
        <ele>316.167234</ele>
        <time>2022-07-10T15:00:29.000Z</time>
      </trkpt>
      <trkpt lat="45.83801" lon="3.20489">
        <ele>316.199569</ele>
        <time>2022-07-10T15:00:57.547Z</time>
      </trkpt>
      <trkpt lat="45.83817" lon="3.20505">
        <ele>316.170229</ele>
        <time>2022-07-10T15:01:00.201Z</time>
      </trkpt>
      <trkpt lat="45.8383" lon="3.20529">
        <ele>316.139016</ele>
        <time>2022-07-10T15:01:03.090Z</time>
      </trkpt>
      <trkpt lat="45.83872" lon="3.20649">
        <ele>315.846825</ele>
        <time>2022-07-10T15:01:15.523Z</time>
      </trkpt>
      <trkpt lat="45.83874" lon="3.20693">
        <ele>315.712079</ele>
        <time>2022-07-10T15:01:19.604Z</time>
      </trkpt>
      <trkpt lat="45.83861" lon="3.20841">
        <ele>315.290151</ele>
        <time>2022-07-10T15:01:33.632Z</time>
      </trkpt>
      <trkpt lat="45.83864" lon="3.20877">
        <ele>315.256807</ele>
        <time>2022-07-10T15:01:37.076Z</time>
      </trkpt>
      <trkpt lat="45.83874" lon="3.20916">
        <ele>315.218488</ele>
        <time>2022-07-10T15:01:41.109Z</time>
      </trkpt>
      <trkpt lat="45.83894" lon="3.20952">
        <ele>315.176038</ele>
        <time>2022-07-10T15:01:45.692Z</time>
      </trkpt>
      <trkpt lat="45.83919" lon="3.20972">
        <ele>315.139096</ele>
        <time>2022-07-10T15:01:49.802Z</time>
      </trkpt>
      <trkpt lat="45.84013" lon="3.21029">
        <ele>315.170293</ele>
        <time>2022-07-10T15:02:05.126Z</time>
      </trkpt>
      <trkpt lat="45.84136" lon="3.21151">
        <ele>315.607477</ele>
        <time>2022-07-10T15:02:28.873Z</time>
      </trkpt>
      <trkpt lat="45.84134" lon="3.21158">
        <ele>315.650519</ele>
        <time>2022-07-10T15:02:29.798Z</time>
      </trkpt>
      <trkpt lat="45.84135" lon="3.2118">
        <ele>315.775792</ele>
        <time>2022-07-10T15:02:32.625Z</time>
      </trkpt>
      <trkpt lat="45.84144" lon="3.21192">
        <ele>315.872179</ele>
        <time>2022-07-10T15:02:34.837Z</time>
      </trkpt>
      <trkpt lat="45.84156" lon="3.21193">
        <ele>315.968223</ele>
        <time>2022-07-10T15:02:36.989Z</time>
      </trkpt>
      <trkpt lat="45.84179" lon="3.21334">
        <ele>316.779257</ele>
        <time>2022-07-10T15:02:55.796Z</time>
      </trkpt>
      <trkpt lat="45.84197" lon="3.21452">
        <ele>317.179005</ele>
        <time>2022-07-10T15:03:11.101Z</time>
      </trkpt>
      <trkpt lat="45.842" lon="3.2147">
        <ele>317.228656</ele>
        <time>2022-07-10T15:03:13.315Z</time>
      </trkpt>
      <trkpt lat="45.84295" lon="3.21497">
        <ele>317.602603</ele>
        <time>2022-07-10T15:03:28.387Z</time>
      </trkpt>
      <trkpt lat="45.84476" lon="3.21605">
        <ele>317.337207</ele>
        <time>2022-07-10T15:03:55.576Z</time>
      </trkpt>
      <trkpt lat="45.84479" lon="3.21607">
        <ele>317.346869</ele>
        <time>2022-07-10T15:03:56.060Z</time>
      </trkpt>
      <trkpt lat="45.84537" lon="3.21637">
        <ele>317.538843</ele>
        <time>2022-07-10T15:04:05.627Z</time>
      </trkpt>
      <trkpt lat="45.847" lon="3.2169">
        <ele>318.261922</ele>
        <time>2022-07-10T15:04:34.163Z</time>
      </trkpt>
      <trkpt lat="45.84872" lon="3.21729">
        <ele>319.269941</ele>
        <time>2022-07-10T15:05:04.567Z</time>
      </trkpt>
      <trkpt lat="45.84996" lon="3.2178">
        <ele>319.824925</ele>
        <time>2022-07-10T15:05:26.167Z</time>
      </trkpt>
      <trkpt lat="45.85035" lon="3.21791">
        <ele>319.694358</ele>
        <time>2022-07-10T15:05:32.236Z</time>
      </trkpt>
      <trkpt lat="45.85358" lon="3.21769">
        <ele>318.301863</ele>
        <time>2022-07-10T15:06:14.605Z</time>
      </trkpt>
      <trkpt lat="45.85415" lon="3.21771">
        <ele>318.169238</ele>
        <time>2022-07-10T15:06:22.466Z</time>
      </trkpt>
      <trkpt lat="45.85592" lon="3.21814">
        <ele>317.660971</ele>
        <time>2022-07-10T15:06:48.153Z</time>
      </trkpt>
      <trkpt lat="45.85727" lon="3.2184">
        <ele>317.065368</ele>
        <time>2022-07-10T15:07:06.229Z</time>
      </trkpt>
      <trkpt lat="45.85829" lon="3.21844">
        <ele>316.263531</ele>
        <time>2022-07-10T15:07:18.997Z</time>
      </trkpt>
      <trkpt lat="45.85921" lon="3.21837">
        <ele>315.598625</ele>
        <time>2022-07-10T15:07:30.560Z</time>
      </trkpt>
      <trkpt lat="45.85944" lon="3.21835">
        <ele>315.454789</ele>
        <time>2022-07-10T15:07:33.474Z</time>
      </trkpt>
      <trkpt lat="45.86143" lon="3.21818">
        <ele>314.381523</ele>
        <time>2022-07-10T15:07:59.619Z</time>
      </trkpt>
      <trkpt lat="45.8626" lon="3.21798">
        <ele>313.981456</ele>
        <time>2022-07-10T15:08:15.876Z</time>
      </trkpt>
      <trkpt lat="45.863" lon="3.218">
        <ele>313.977664</ele>
        <time>2022-07-10T15:08:21.626Z</time>
      </trkpt>
      <trkpt lat="45.86346" lon="3.21813">
        <ele>313.973244</ele>
        <time>2022-07-10T15:08:28.503Z</time>
      </trkpt>
      <trkpt lat="45.86361" lon="3.21817">
        <ele>313.971852</ele>
        <time>2022-07-10T15:08:30.748Z</time>
      </trkpt>
      <trkpt lat="45.86389" lon="3.21838">
        <ele>313.968854</ele>
        <time>2022-07-10T15:08:35.496Z</time>
      </trkpt>
      <trkpt lat="45.86485" lon="3.21927">
        <ele>314.264432</ele>
        <time>2022-07-10T15:08:54.134Z</time>
      </trkpt>
      <trkpt lat="45.86505" lon="3.21949">
        <ele>314.350607</ele>
        <time>2022-07-10T15:08:58.288Z</time>
      </trkpt>
      <trkpt lat="45.8651" lon="3.21955">
        <ele>314.372718</ele>
        <time>2022-07-10T15:08:59.333Z</time>
      </trkpt>
      <trkpt lat="45.86516" lon="3.21951">
        <ele>314.394826</ele>
        <time>2022-07-10T15:09:00.390Z</time>
      </trkpt>
      <trkpt lat="45.86518" lon="3.21945">
        <ele>314.409993</ele>
        <time>2022-07-10T15:09:01.124Z</time>
      </trkpt>
      <trkpt lat="45.86529" lon="3.21919">
        <ele>314.483663</ele>
        <time>2022-07-10T15:09:04.688Z</time>
      </trkpt>
      <trkpt lat="45.86596" lon="3.21749">
        <ele>314.690204</ele>
        <time>2022-07-10T15:09:26.533Z</time>
      </trkpt>
      <trkpt lat="45.86607" lon="3.21734">
        <ele>314.705668</ele>
        <time>2022-07-10T15:09:28.819Z</time>
      </trkpt>
      <trkpt lat="45.86609" lon="3.21738">
        <ele>314.709273</ele>
        <time>2022-07-10T15:09:29.363Z</time>
      </trkpt>
      <trkpt lat="45.86619" lon="3.21742">
        <ele>314.719645</ele>
        <time>2022-07-10T15:09:30.870Z</time>
      </trkpt>
      <trkpt lat="45.86626" lon="3.21733">
        <ele>314.729994</ele>
        <time>2022-07-10T15:09:32.317Z</time>
      </trkpt>
      <trkpt lat="45.8665" lon="3.21754">
        <ele>314.758701</ele>
        <time>2022-07-10T15:09:36.283Z</time>
      </trkpt>
      <trkpt lat="45.8672" lon="3.21792">
        <ele>314.389237</ele>
        <time>2022-07-10T15:09:46.164Z</time>
      </trkpt>
      <trkpt lat="45.86742" lon="3.21805">
        <ele>314.260836</ele>
        <time>2022-07-10T15:09:49.226Z</time>
      </trkpt>
      <trkpt lat="45.86746" lon="3.21808">
        <ele>314.238389</ele>
        <time>2022-07-10T15:09:49.759Z</time>
      </trkpt>
      <trkpt lat="45.86806" lon="3.2186">
        <ele>313.855459</ele>
        <time>2022-07-10T15:09:58.839Z</time>
      </trkpt>
      <trkpt lat="45.86873" lon="3.21941">
        <ele>313.565039</ele>
        <time>2022-07-10T15:10:10.259Z</time>
      </trkpt>
      <trkpt lat="45.86932" lon="3.21998">
        <ele>313.350879</ele>
        <time>2022-07-10T15:10:20.592Z</time>
      </trkpt>
      <trkpt lat="45.86955" lon="3.22029">
        <ele>313.257512</ele>
        <time>2022-07-10T15:10:25.192Z</time>
      </trkpt>
      <trkpt lat="45.86961" lon="3.22042">
        <ele>313.206044</ele>
        <time>2022-07-10T15:10:26.775Z</time>
      </trkpt>
      <trkpt lat="45.86984" lon="3.22088">
        <ele>313.00347</ele>
        <time>2022-07-10T15:10:32.211Z</time>
      </trkpt>
      <trkpt lat="45.87003" lon="3.221">
        <ele>312.896259</ele>
        <time>2022-07-10T15:10:34.955Z</time>
      </trkpt>
      <trkpt lat="45.87049" lon="3.22072">
        <ele>312.638501</ele>
        <time>2022-07-10T15:10:41.435Z</time>
      </trkpt>
      <trkpt lat="45.87071" lon="3.22055">
        <ele>312.509439</ele>
        <time>2022-07-10T15:10:44.680Z</time>
      </trkpt>
      <trkpt lat="45.87155" lon="3.21989">
        <ele>311.862248</ele>
        <time>2022-07-10T15:10:57.100Z</time>
      </trkpt>
      <trkpt lat="45.8717" lon="3.21977">
        <ele>311.733217</ele>
        <time>2022-07-10T15:10:59.251Z</time>
      </trkpt>
      <trkpt lat="45.8718" lon="3.21969">
        <ele>311.647651</ele>
        <time>2022-07-10T15:11:00.635Z</time>
      </trkpt>
      <trkpt lat="45.872" lon="3.21955">
        <ele>311.478479</ele>
        <time>2022-07-10T15:11:03.368Z</time>
      </trkpt>
      <trkpt lat="45.87226" lon="3.21939">
        <ele>311.260676</ele>
        <time>2022-07-10T15:11:06.919Z</time>
      </trkpt>
      <trkpt lat="45.87292" lon="3.21913">
        <ele>310.772309</ele>
        <time>2022-07-10T15:11:15.635Z</time>
      </trkpt>
      <trkpt lat="45.87316" lon="3.21891">
        <ele>310.592263</ele>
        <time>2022-07-10T15:11:19.279Z</time>
      </trkpt>
      <trkpt lat="45.87329" lon="3.21895">
        <ele>310.507594</ele>
        <time>2022-07-10T15:11:21.009Z</time>
      </trkpt>
      <trkpt lat="45.87396" lon="3.21899">
        <ele>310.076537</ele>
        <time>2022-07-10T15:11:29.578Z</time>
      </trkpt>
      <trkpt lat="45.87463" lon="3.21892">
        <ele>309.807931</ele>
        <time>2022-07-10T15:11:38.290Z</time>
      </trkpt>
      <trkpt lat="45.87501" lon="3.2189">
        <ele>309.817942</ele>
        <time>2022-07-10T15:11:43.626Z</time>
      </trkpt>
      <trkpt lat="45.87558" lon="3.21888">
        <ele>309.833011</ele>
        <time>2022-07-10T15:11:52.315Z</time>
      </trkpt>
      <trkpt lat="45.87679" lon="3.21884">
        <ele>310.065908</ele>
        <time>2022-07-10T15:12:12.243Z</time>
      </trkpt>
      <trkpt lat="45.87689" lon="3.21884">
        <ele>310.100448</ele>
        <time>2022-07-10T15:12:13.877Z</time>
      </trkpt>
      <trkpt lat="45.87692" lon="3.21884">
        <ele>310.112688</ele>
        <time>2022-07-10T15:12:14.470Z</time>
      </trkpt>
      <trkpt lat="45.87907" lon="3.21876">
        <ele>310.798208</ele>
        <time>2022-07-10T15:12:49.357Z</time>
      </trkpt>
      <trkpt lat="45.87922" lon="3.21875">
        <ele>310.840205</ele>
        <time>2022-07-10T15:12:51.852Z</time>
      </trkpt>
      <trkpt lat="45.88004" lon="3.21876">
        <ele>310.948959</ele>
        <time>2022-07-10T15:13:04.506Z</time>
      </trkpt>
      <trkpt lat="45.8807" lon="3.21887">
        <ele>310.826995</ele>
        <time>2022-07-10T15:13:14.067Z</time>
      </trkpt>
      <trkpt lat="45.88134" lon="3.21905">
        <ele>310.706098</ele>
        <time>2022-07-10T15:13:23.083Z</time>
      </trkpt>
      <trkpt lat="45.8819" lon="3.2193">
        <ele>310.608325</ele>
        <time>2022-07-10T15:13:30.897Z</time>
      </trkpt>
      <trkpt lat="45.88231" lon="3.21951">
        <ele>310.540092</ele>
        <time>2022-07-10T15:13:36.680Z</time>
      </trkpt>
      <trkpt lat="45.88567" lon="3.22134">
        <ele>310.49819</ele>
        <time>2022-07-10T15:14:30.870Z</time>
      </trkpt>
      <trkpt lat="45.88676" lon="3.22193">
        <ele>310.454106</ele>
        <time>2022-07-10T15:14:47.756Z</time>
      </trkpt>
      <trkpt lat="45.88754" lon="3.22236">
        <ele>310.459381</ele>
        <time>2022-07-10T15:15:00.011Z</time>
      </trkpt>
      <trkpt lat="45.88805" lon="3.22273">
        <ele>310.462939</ele>
        <time>2022-07-10T15:15:08.436Z</time>
      </trkpt>
      <trkpt lat="45.88833" lon="3.22294">
        <ele>310.47541</ele>
        <time>2022-07-10T15:15:13.316Z</time>
      </trkpt>
      <trkpt lat="45.88854" lon="3.2231">
        <ele>310.507797</ele>
        <time>2022-07-10T15:15:16.970Z</time>
      </trkpt>
      <trkpt lat="45.88884" lon="3.22318">
        <ele>310.549769</ele>
        <time>2022-07-10T15:15:21.688Z</time>
      </trkpt>
      <trkpt lat="45.88899" lon="3.22335">
        <ele>310.576155</ele>
        <time>2022-07-10T15:15:24.662Z</time>
      </trkpt>
      <trkpt lat="45.88908" lon="3.22358">
        <ele>310.601158</ele>
        <time>2022-07-10T15:15:27.469Z</time>
      </trkpt>
      <trkpt lat="45.88926" lon="3.22366">
        <ele>310.627658</ele>
        <time>2022-07-10T15:15:30.402Z</time>
      </trkpt>
      <trkpt lat="45.88944" lon="3.22354">
        <ele>310.654658</ele>
        <time>2022-07-10T15:15:33.416Z</time>
      </trkpt>
      <trkpt lat="45.88977" lon="3.22357">
        <ele>310.69981</ele>
        <time>2022-07-10T15:15:38.382Z</time>
      </trkpt>
      <trkpt lat="45.89082" lon="3.22415">
        <ele>311.246122</ele>
        <time>2022-07-10T15:15:56.020Z</time>
      </trkpt>
      <trkpt lat="45.89105" lon="3.22426">
        <ele>311.36561</ele>
        <time>2022-07-10T15:16:00.057Z</time>
      </trkpt>
      <trkpt lat="45.8912" lon="3.22433">
        <ele>311.447715</ele>
        <time>2022-07-10T15:16:02.865Z</time>
      </trkpt>
      <trkpt lat="45.89137" lon="3.2244">
        <ele>311.53777</ele>
        <time>2022-07-10T15:16:06.128Z</time>
      </trkpt>
      <trkpt lat="45.89187" lon="3.22455">
        <ele>312.197803</ele>
        <time>2022-07-10T15:16:16.179Z</time>
      </trkpt>
      <trkpt lat="45.89261" lon="3.22464">
        <ele>313.471778</ele>
        <time>2022-07-10T15:16:32.718Z</time>
      </trkpt>
      <trkpt lat="45.894" lon="3.22462">
        <ele>315.763163</ele>
        <time>2022-07-10T15:17:04.105Z</time>
      </trkpt>
      <trkpt lat="45.89413" lon="3.22462">
        <ele>315.974689</ele>
        <time>2022-07-10T15:17:06.955Z</time>
      </trkpt>
      <trkpt lat="45.89424" lon="3.22461">
        <ele>316.147875</ele>
        <time>2022-07-10T15:17:09.282Z</time>
      </trkpt>
      <trkpt lat="45.89467" lon="3.22459">
        <ele>316.838937</ele>
        <time>2022-07-10T15:17:18.330Z</time>
      </trkpt>
      <trkpt lat="45.89472" lon="3.22458">
        <ele>316.91438</ele>
        <time>2022-07-10T15:17:19.333Z</time>
      </trkpt>
      <trkpt lat="45.89545" lon="3.22452">
        <ele>317.870175</ele>
        <time>2022-07-10T15:17:33.797Z</time>
      </trkpt>
      <trkpt lat="45.89553" lon="3.22451">
        <ele>317.935051</ele>
        <time>2022-07-10T15:17:35.137Z</time>
      </trkpt>
      <trkpt lat="45.89575" lon="3.22448">
        <ele>318.133137</ele>
        <time>2022-07-10T15:17:39.202Z</time>
      </trkpt>
      <trkpt lat="45.89654" lon="3.22442">
        <ele>318.849731</ele>
        <time>2022-07-10T15:17:54.055Z</time>
      </trkpt>
      <trkpt lat="45.89715" lon="3.22437">
        <ele>319.187424</ele>
        <time>2022-07-10T15:18:04.691Z</time>
      </trkpt>
      <trkpt lat="45.89778" lon="3.22431">
        <ele>319.174748</ele>
        <time>2022-07-10T15:18:14.782Z</time>
      </trkpt>
      <trkpt lat="45.89878" lon="3.22454">
        <ele>319.110096</ele>
        <time>2022-07-10T15:18:28.370Z</time>
      </trkpt>
      <trkpt lat="45.89944" lon="3.22454">
        <ele>318.677732</ele>
        <time>2022-07-10T15:18:36.778Z</time>
      </trkpt>
      <trkpt lat="45.89951" lon="3.22454">
        <ele>318.628581</ele>
        <time>2022-07-10T15:18:37.740Z</time>
      </trkpt>
      <trkpt lat="45.89968" lon="3.22465">
        <ele>318.510009</ele>
        <time>2022-07-10T15:18:40.036Z</time>
      </trkpt>
      <trkpt lat="45.89978" lon="3.22462">
        <ele>318.442584</ele>
        <time>2022-07-10T15:18:41.358Z</time>
      </trkpt>
      <trkpt lat="45.89985" lon="3.2245">
        <ele>318.367498</ele>
        <time>2022-07-10T15:18:42.821Z</time>
      </trkpt>
      <trkpt lat="45.90156" lon="3.22408">
        <ele>317.321964</ele>
        <time>2022-07-10T15:19:05.056Z</time>
      </trkpt>
      <trkpt lat="45.90193" lon="3.22395">
        <ele>317.100154</ele>
        <time>2022-07-10T15:19:10.090Z</time>
      </trkpt>
      <trkpt lat="45.90311" lon="3.22325">
        <ele>317.181516</ele>
        <time>2022-07-10T15:19:27.724Z</time>
      </trkpt>
      <trkpt lat="45.90447" lon="3.22241">
        <ele>318.603607</ele>
        <time>2022-07-10T15:19:55.081Z</time>
      </trkpt>
      <trkpt lat="45.90496" lon="3.22211">
        <ele>319.580646</ele>
        <time>2022-07-10T15:20:07.651Z</time>
      </trkpt>
      <trkpt lat="45.90566" lon="3.22167">
        <ele>321.059922</ele>
        <time>2022-07-10T15:20:26.822Z</time>
      </trkpt>
      <trkpt lat="45.90721" lon="3.22091">
        <ele>325.063971</ele>
        <time>2022-07-10T15:21:07.691Z</time>
      </trkpt>
      <trkpt lat="45.90745" lon="3.22075">
        <ele>325.363578</ele>
        <time>2022-07-10T15:21:13.751Z</time>
      </trkpt>
      <trkpt lat="45.90758" lon="3.22065">
        <ele>325.535498</ele>
        <time>2022-07-10T15:21:17.157Z</time>
      </trkpt>
      <trkpt lat="45.90802" lon="3.22071">
        <ele>326.037008</ele>
        <time>2022-07-10T15:21:26.258Z</time>
      </trkpt>
      <trkpt lat="45.90823" lon="3.22058">
        <ele>326.297845</ele>
        <time>2022-07-10T15:21:30.677Z</time>
      </trkpt>
      <trkpt lat="45.90851" lon="3.2204">
        <ele>326.651662</ele>
        <time>2022-07-10T15:21:35.998Z</time>
      </trkpt>
      <trkpt lat="45.90892" lon="3.22014">
        <ele>327.081922</ele>
        <time>2022-07-10T15:21:42.730Z</time>
      </trkpt>
      <trkpt lat="45.90945" lon="3.21979">
        <ele>326.794608</ele>
        <time>2022-07-10T15:21:51.246Z</time>
      </trkpt>
      <trkpt lat="45.91039" lon="3.21929">
        <ele>326.309742</ele>
        <time>2022-07-10T15:22:04.089Z</time>
      </trkpt>
      <trkpt lat="45.91107" lon="3.2191">
        <ele>325.652363</ele>
        <time>2022-07-10T15:22:12.455Z</time>
      </trkpt>
      <trkpt lat="45.91227" lon="3.21878">
        <ele>324.327864</ele>
        <time>2022-07-10T15:22:27.194Z</time>
      </trkpt>
      <trkpt lat="45.91243" lon="3.21876">
        <ele>324.145327</ele>
        <time>2022-07-10T15:22:29.104Z</time>
      </trkpt>
      <trkpt lat="45.91271" lon="3.21882">
        <ele>323.81818</ele>
        <time>2022-07-10T15:22:32.509Z</time>
      </trkpt>
      <trkpt lat="45.91289" lon="3.21894">
        <ele>323.584777</ele>
        <time>2022-07-10T15:22:34.887Z</time>
      </trkpt>
      <trkpt lat="45.91383" lon="3.22013">
        <ele>322.149461</ele>
        <time>2022-07-10T15:22:49.716Z</time>
      </trkpt>
      <trkpt lat="45.91396" lon="3.22028">
        <ele>322.009347</ele>
        <time>2022-07-10T15:22:51.662Z</time>
      </trkpt>
      <trkpt lat="45.91504" lon="3.22168">
        <ele>320.785427</ele>
        <time>2022-07-10T15:23:09.744Z</time>
      </trkpt>
      <trkpt lat="45.91715" lon="3.22432">
        <ele>321.295516</ele>
        <time>2022-07-10T15:23:51.972Z</time>
      </trkpt>
      <trkpt lat="45.9175" lon="3.22463">
        <ele>321.610497</ele>
        <time>2022-07-10T15:23:59.822Z</time>
      </trkpt>
      <trkpt lat="45.91837" lon="3.22518">
        <ele>322.745789</ele>
        <time>2022-07-10T15:24:19.517Z</time>
      </trkpt>
      <trkpt lat="45.91916" lon="3.2257">
        <ele>324.248749</ele>
        <time>2022-07-10T15:24:39.453Z</time>
      </trkpt>
      <trkpt lat="45.91949" lon="3.22578">
        <ele>324.812621</ele>
        <time>2022-07-10T15:24:46.709Z</time>
      </trkpt>
      <trkpt lat="45.91982" lon="3.22571">
        <ele>325.225888</ele>
        <time>2022-07-10T15:24:53.921Z</time>
      </trkpt>
      <trkpt lat="45.91997" lon="3.2256">
        <ele>325.350432</ele>
        <time>2022-07-10T15:24:57.374Z</time>
      </trkpt>
      <trkpt lat="45.92025" lon="3.22523">
        <ele>325.635647</ele>
        <time>2022-07-10T15:25:04.868Z</time>
      </trkpt>
      <trkpt lat="45.92046" lon="3.22452">
        <ele>326.032141</ele>
        <time>2022-07-10T15:25:13.959Z</time>
      </trkpt>
      <trkpt lat="45.92066" lon="3.2233">
        <ele>326.373721</ele>
        <time>2022-07-10T15:25:27.002Z</time>
      </trkpt>
      <trkpt lat="45.92069" lon="3.22304">
        <ele>326.339941</ele>
        <time>2022-07-10T15:25:29.378Z</time>
      </trkpt>
      <trkpt lat="45.92072" lon="3.22273">
        <ele>326.299452</ele>
        <time>2022-07-10T15:25:32.190Z</time>
      </trkpt>
      <trkpt lat="45.92085" lon="3.22134">
        <ele>326.117229</ele>
        <time>2022-07-10T15:25:45.788Z</time>
      </trkpt>
      <trkpt lat="45.92094" lon="3.22086">
        <ele>326.16093</ele>
        <time>2022-07-10T15:25:51.050Z</time>
      </trkpt>
      <trkpt lat="45.92145" lon="3.21872">
        <ele>326.531206</ele>
        <time>2022-07-10T15:26:16.420Z</time>
      </trkpt>
      <trkpt lat="45.92151" lon="3.21849">
        <ele>326.508021</ele>
        <time>2022-07-10T15:26:19.210Z</time>
      </trkpt>
      <trkpt lat="45.9216" lon="3.21815">
        <ele>326.474639</ele>
        <time>2022-07-10T15:26:23.216Z</time>
      </trkpt>
      <trkpt lat="45.92254" lon="3.21776">
        <ele>326.3461</ele>
        <time>2022-07-10T15:26:37.381Z</time>
      </trkpt>
      <trkpt lat="45.92437" lon="3.21716">
        <ele>325.187704</ele>
        <time>2022-07-10T15:27:01.556Z</time>
      </trkpt>
      <trkpt lat="45.92448" lon="3.21712">
        <ele>325.101482</ele>
        <time>2022-07-10T15:27:02.968Z</time>
      </trkpt>
      <trkpt lat="45.92589" lon="3.21594">
        <ele>323.463433</ele>
        <time>2022-07-10T15:27:22.716Z</time>
      </trkpt>
      <trkpt lat="45.92696" lon="3.2153">
        <ele>322.045681</ele>
        <time>2022-07-10T15:27:36.663Z</time>
      </trkpt>
      <trkpt lat="45.92745" lon="3.21513">
        <ele>321.380774</ele>
        <time>2022-07-10T15:27:42.646Z</time>
      </trkpt>
      <trkpt lat="45.92952" lon="3.21473">
        <ele>318.41376</ele>
        <time>2022-07-10T15:28:06.432Z</time>
      </trkpt>
      <trkpt lat="45.93166" lon="3.21427">
        <ele>315.83307</ele>
        <time>2022-07-10T15:28:32.441Z</time>
      </trkpt>
      <trkpt lat="45.93264" lon="3.21421">
        <ele>314.783796</ele>
        <time>2022-07-10T15:28:44.354Z</time>
      </trkpt>
      <trkpt lat="45.93338" lon="3.21424">
        <ele>314.013881</ele>
        <time>2022-07-10T15:28:53.296Z</time>
      </trkpt>
      <trkpt lat="45.9343" lon="3.21472">
        <ele>313.18681</ele>
        <time>2022-07-10T15:29:05.157Z</time>
      </trkpt>
      <trkpt lat="45.93571" lon="3.21548">
        <ele>312.727648</ele>
        <time>2022-07-10T15:29:25.026Z</time>
      </trkpt>
      <trkpt lat="45.93735" lon="3.21659">
        <ele>313.815448</ele>
        <time>2022-07-10T15:29:57.452Z</time>
      </trkpt>
      <trkpt lat="45.93794" lon="3.21714">
        <ele>314.592746</ele>
        <time>2022-07-10T15:30:12.238Z</time>
      </trkpt>
      <trkpt lat="45.93805" lon="3.21728">
        <ele>314.752158</ele>
        <time>2022-07-10T15:30:15.203Z</time>
      </trkpt>
      <trkpt lat="45.93816" lon="3.21744">
        <ele>314.924403</ele>
        <time>2022-07-10T15:30:18.345Z</time>
      </trkpt>
      <trkpt lat="45.93834" lon="3.21768">
        <ele>315.056009</ele>
        <time>2022-07-10T15:30:23.102Z</time>
      </trkpt>
      <trkpt lat="45.93879" lon="3.21825">
        <ele>315.378705</ele>
        <time>2022-07-10T15:30:34.125Z</time>
      </trkpt>
      <trkpt lat="45.94022" lon="3.21731">
        <ele>315.856113</ele>
        <time>2022-07-10T15:30:57.804Z</time>
      </trkpt>
      <trkpt lat="45.9409" lon="3.21686">
        <ele>315.81032</ele>
        <time>2022-07-10T15:31:08.023Z</time>
      </trkpt>
      <trkpt lat="45.94126" lon="3.21664">
        <ele>315.786311</ele>
        <time>2022-07-10T15:31:13.705Z</time>
      </trkpt>
      <trkpt lat="45.94343" lon="3.2168">
        <ele>316.482934</ele>
        <time>2022-07-10T15:31:48.665Z</time>
      </trkpt>
      <trkpt lat="45.94492" lon="3.21655">
        <ele>317.509995</ele>
        <time>2022-07-10T15:32:15.458Z</time>
      </trkpt>
      <trkpt lat="45.94538" lon="3.21658">
        <ele>317.871378</ele>
        <time>2022-07-10T15:32:24.034Z</time>
      </trkpt>
      <trkpt lat="45.9462" lon="3.21666">
        <ele>318.505048</ele>
        <time>2022-07-10T15:32:38.900Z</time>
      </trkpt>
      <trkpt lat="45.94972" lon="3.21661">
        <ele>320.891758</ele>
        <time>2022-07-10T15:33:39.340Z</time>
      </trkpt>
      <trkpt lat="45.95063" lon="3.21658">
        <ele>321.851719</ele>
        <time>2022-07-10T15:33:56.528Z</time>
      </trkpt>
      <trkpt lat="45.95224" lon="3.2167">
        <ele>324.392168</ele>
        <time>2022-07-10T15:34:30.811Z</time>
      </trkpt>
      <trkpt lat="45.95277" lon="3.21684">
        <ele>325.589398</ele>
        <time>2022-07-10T15:34:43.827Z</time>
      </trkpt>
      <trkpt lat="45.95467" lon="3.21825">
        <ele>330.147754</ele>
        <time>2022-07-10T15:35:36.027Z</time>
      </trkpt>
      <trkpt lat="45.95596" lon="3.21858">
        <ele>332.458937</ele>
        <time>2022-07-10T15:36:03.579Z</time>
      </trkpt>
      <trkpt lat="45.95849" lon="3.21852">
        <ele>336.058415</ele>
        <time>2022-07-10T15:36:53.971Z</time>
      </trkpt>
      <trkpt lat="45.95904" lon="3.21952">
        <ele>337.482207</ele>
        <time>2022-07-10T15:37:14.038Z</time>
      </trkpt>
      <trkpt lat="45.95908" lon="3.21958">
        <ele>337.575894</ele>
        <time>2022-07-10T15:37:15.240Z</time>
      </trkpt>
      <trkpt lat="45.95945" lon="3.22016">
        <ele>338.555833</ele>
        <time>2022-07-10T15:37:27.915Z</time>
      </trkpt>
      <trkpt lat="45.9603" lon="3.22119">
        <ele>340.121399</ele>
        <time>2022-07-10T15:37:51.932Z</time>
      </trkpt>
      <trkpt lat="45.96076" lon="3.22176">
        <ele>340.375687</ele>
        <time>2022-07-10T15:38:02.898Z</time>
      </trkpt>
      <trkpt lat="45.96094" lon="3.22199">
        <ele>340.475575</ele>
        <time>2022-07-10T15:38:06.669Z</time>
      </trkpt>
      <trkpt lat="45.9611" lon="3.22219">
        <ele>340.565504</ele>
        <time>2022-07-10T15:38:09.901Z</time>
      </trkpt>
      <trkpt lat="45.9611" lon="3.22223">
        <ele>340.57831</ele>
        <time>2022-07-10T15:38:10.330Z</time>
      </trkpt>
      <trkpt lat="45.96113" lon="3.2223">
        <ele>340.60327</ele>
        <time>2022-07-10T15:38:11.152Z</time>
      </trkpt>
      <trkpt lat="45.96121" lon="3.22227">
        <ele>340.638328</ele>
        <time>2022-07-10T15:38:12.339Z</time>
      </trkpt>
      <trkpt lat="45.96121" lon="3.22221">
        <ele>340.657434</ele>
        <time>2022-07-10T15:38:12.970Z</time>
      </trkpt>
      <trkpt lat="45.96119" lon="3.22215">
        <ele>340.676345</ele>
        <time>2022-07-10T15:38:13.588Z</time>
      </trkpt>
      <trkpt lat="45.9626" lon="3.22006">
        <ele>338.578085</ele>
        <time>2022-07-10T15:38:37.911Z</time>
      </trkpt>
      <trkpt lat="45.9631" lon="3.2191">
        <ele>337.30601</ele>
        <time>2022-07-10T15:38:47.274Z</time>
      </trkpt>
      <trkpt lat="45.96315" lon="3.21902">
        <ele>337.185388</ele>
        <time>2022-07-10T15:38:48.148Z</time>
      </trkpt>
      <trkpt lat="45.96474" lon="3.21622">
        <ele>333.492219</ele>
        <time>2022-07-10T15:39:16.874Z</time>
      </trkpt>
      <trkpt lat="45.9648" lon="3.21611">
        <ele>333.341894</ele>
        <time>2022-07-10T15:39:18.150Z</time>
      </trkpt>
      <trkpt lat="45.96509" lon="3.21563">
        <ele>333.15626</ele>
        <time>2022-07-10T15:39:23.492Z</time>
      </trkpt>
      <trkpt lat="45.96539" lon="3.21536">
        <ele>333.014052</ele>
        <time>2022-07-10T15:39:28.194Z</time>
      </trkpt>
      <trkpt lat="45.96646" lon="3.21496">
        <ele>332.651701</ele>
        <time>2022-07-10T15:39:44.258Z</time>
      </trkpt>
      <trkpt lat="45.96787" lon="3.21474">
        <ele>333.25912</ele>
        <time>2022-07-10T15:40:08.056Z</time>
      </trkpt>
      <trkpt lat="45.96888" lon="3.21474">
        <ele>333.826428</ele>
        <time>2022-07-10T15:40:25.491Z</time>
      </trkpt>
      <trkpt lat="45.97042" lon="3.21448">
        <ele>334.802172</ele>
        <time>2022-07-10T15:40:52.445Z</time>
      </trkpt>
      <trkpt lat="45.97079" lon="3.21433">
        <ele>335.054627</ele>
        <time>2022-07-10T15:40:59.073Z</time>
      </trkpt>
      <trkpt lat="45.97158" lon="3.21366">
        <ele>335.659766</ele>
        <time>2022-07-10T15:41:14.985Z</time>
      </trkpt>
      <trkpt lat="45.97169" lon="3.21356">
        <ele>335.810757</ele>
        <time>2022-07-10T15:41:17.349Z</time>
      </trkpt>
      <trkpt lat="45.9725" lon="3.21287">
        <ele>337.008432</ele>
        <time>2022-07-10T15:41:34.732Z</time>
      </trkpt>
      <trkpt lat="45.97284" lon="3.21271">
        <ele>337.470186</ele>
        <time>2022-07-10T15:41:42.174Z</time>
      </trkpt>
      <trkpt lat="45.97365" lon="3.21267">
        <ele>339.061399</ele>
        <time>2022-07-10T15:42:00.508Z</time>
      </trkpt>
      <trkpt lat="45.97427" lon="3.2127">
        <ele>340.687963</ele>
        <time>2022-07-10T15:42:16.351Z</time>
      </trkpt>
      <trkpt lat="45.97724" lon="3.21294">
        <ele>348.781619</ele>
        <time>2022-07-10T15:43:36.097Z</time>
      </trkpt>
      <trkpt lat="45.97908" lon="3.21256">
        <ele>351.909434</ele>
        <time>2022-07-10T15:44:15.854Z</time>
      </trkpt>
      <trkpt lat="45.98036" lon="3.21237">
        <ele>353.037805</ele>
        <time>2022-07-10T15:44:38.534Z</time>
      </trkpt>
      <trkpt lat="45.98171" lon="3.21231">
        <ele>353.269577</ele>
        <time>2022-07-10T15:44:58.712Z</time>
      </trkpt>
      <trkpt lat="45.98267" lon="3.21252">
        <ele>353.666143</ele>
        <time>2022-07-10T15:45:13.495Z</time>
      </trkpt>
      <trkpt lat="45.98509" lon="3.21308">
        <ele>358.7</ele>
        <extensions>
          <visugpx:TrkExtension xmlns:visugpx="https://www.visugpx.com/editgpx/">
            <visugpx:node>5</visugpx:node>
            </visugpx:TrkExtension>
        </extensions>
      </trkpt>
      <trkpt lat="45.98508" lon="3.2131">
        <ele>358.7</ele>
      </trkpt>
      <trkpt lat="45.98558" lon="3.21321">
        <ele>358</ele>
      </trkpt>
      <trkpt lat="45.98588" lon="3.21329">
        <ele>358</ele>
      </trkpt>
      <trkpt lat="45.98698" lon="3.21356">
        <ele>356.8</ele>
      </trkpt>
      <trkpt lat="45.98763" lon="3.21379">
        <ele>356.8</ele>
      </trkpt>
      <trkpt lat="45.98821" lon="3.21401">
        <ele>357</ele>
      </trkpt>
      <trkpt lat="45.98844" lon="3.21414">
        <ele>357.4</ele>
      </trkpt>
      <trkpt lat="45.98863" lon="3.2143">
        <ele>358</ele>
      </trkpt>
      <trkpt lat="45.98938" lon="3.21507">
        <ele>360.8</ele>
      </trkpt>
      <trkpt lat="45.98941" lon="3.21511">
        <ele>360.9</ele>
      </trkpt>
      <trkpt lat="45.98977" lon="3.2154">
        <ele>362</ele>
      </trkpt>
      <trkpt lat="45.98995" lon="3.2155">
        <ele>362</ele>
      </trkpt>
      <trkpt lat="45.99018" lon="3.2156">
        <ele>362.1</ele>
      </trkpt>
      <trkpt lat="45.99045" lon="3.21568">
        <ele>362.8</ele>
      </trkpt>
      <trkpt lat="45.9909" lon="3.21576">
        <ele>363</ele>
      </trkpt>
      <trkpt lat="45.99153" lon="3.21591">
        <ele>364</ele>
      </trkpt>
      <trkpt lat="45.99203" lon="3.21601">
        <ele>364.2</ele>
      </trkpt>
      <trkpt lat="45.9928" lon="3.21619">
        <ele>362.9</ele>
      </trkpt>
      <trkpt lat="45.99301" lon="3.21621">
        <ele>362.2</ele>
      </trkpt>
      <trkpt lat="45.99425" lon="3.21614">
        <ele>357.8</ele>
      </trkpt>
      <trkpt lat="45.99438" lon="3.21611">
        <ele>357.2</ele>
      </trkpt>
      <trkpt lat="45.99462" lon="3.21603">
        <ele>356.4</ele>
      </trkpt>
      <trkpt lat="45.99469" lon="3.2165">
        <ele>357</ele>
      </trkpt>
      <trkpt lat="45.99486" lon="3.21712">
        <ele>357.3</ele>
      </trkpt>
      <trkpt lat="45.99501" lon="3.21787">
        <ele>357.2</ele>
      </trkpt>
      <trkpt lat="45.99511" lon="3.21828">
        <ele>357.1</ele>
      </trkpt>
      <trkpt lat="45.99514" lon="3.21842">
        <ele>357</ele>
      </trkpt>
      <trkpt lat="45.99535" lon="3.21912">
        <ele>356.5</ele>
      </trkpt>
      <trkpt lat="45.9966" lon="3.22215">
        <ele>354</ele>
      </trkpt>
      <trkpt lat="45.99721" lon="3.22335">
        <ele>353</ele>
      </trkpt>
      <trkpt lat="45.99737" lon="3.22366">
        <ele>352.6</ele>
      </trkpt>
      <trkpt lat="45.99752" lon="3.22385">
        <ele>352.7</ele>
      </trkpt>
      <trkpt lat="45.99773" lon="3.22408">
        <ele>351.8</ele>
      </trkpt>
      <trkpt lat="45.99795" lon="3.22422">
        <ele>351.3</ele>
      </trkpt>
      <trkpt lat="45.99817" lon="3.22431">
        <ele>350.6</ele>
      </trkpt>
      <trkpt lat="45.99835" lon="3.22434">
        <ele>349.9</ele>
      </trkpt>
      <trkpt lat="45.9984" lon="3.22435">
        <ele>349.8</ele>
      </trkpt>
      <trkpt lat="45.99908" lon="3.22435">
        <ele>348.3</ele>
      </trkpt>
      <trkpt lat="45.9993" lon="3.22437">
        <ele>347.9</ele>
      </trkpt>
      <trkpt lat="45.99958" lon="3.22444">
        <ele>347.5</ele>
      </trkpt>
      <trkpt lat="45.99975" lon="3.22454">
        <ele>346.8</ele>
      </trkpt>
      <trkpt lat="45.99983" lon="3.22459">
        <ele>346.4</ele>
      </trkpt>
      <trkpt lat="46.00029" lon="3.22522">
        <ele>345.7</ele>
      </trkpt>
      <trkpt lat="46.00124" lon="3.22674">
        <ele>342.7</ele>
      </trkpt>
      <trkpt lat="46.00133" lon="3.22687">
        <ele>342.8</ele>
      </trkpt>
      <trkpt lat="46.00155" lon="3.22719">
        <ele>342</ele>
      </trkpt>
      <trkpt lat="46.00189" lon="3.22759">
        <ele>341.2</ele>
      </trkpt>
      <trkpt lat="46.00341" lon="3.2292">
        <ele>338.6</ele>
      </trkpt>
      <trkpt lat="46.00381" lon="3.22968">
        <ele>337.9</ele>
      </trkpt>
      <trkpt lat="46.00385" lon="3.22973">
        <ele>338</ele>
      </trkpt>
      <trkpt lat="46.00396" lon="3.22993">
        <ele>337.7</ele>
      </trkpt>
      <trkpt lat="46.00404" lon="3.23015">
        <ele>337.2</ele>
      </trkpt>
      <trkpt lat="46.00416" lon="3.23056">
        <ele>337</ele>
      </trkpt>
      <trkpt lat="46.00421" lon="3.23085">
        <ele>336.8</ele>
      </trkpt>
      <trkpt lat="46.00423" lon="3.23114">
        <ele>336</ele>
      </trkpt>
      <trkpt lat="46.00425" lon="3.23189">
        <ele>335.7</ele>
      </trkpt>
      <trkpt lat="46.00428" lon="3.23214">
        <ele>335.2</ele>
      </trkpt>
      <trkpt lat="46.00431" lon="3.23228">
        <ele>335</ele>
      </trkpt>
      <trkpt lat="46.0044" lon="3.23239">
        <ele>335</ele>
      </trkpt>
      <trkpt lat="46.00451" lon="3.23246">
        <ele>335</ele>
      </trkpt>
      <trkpt lat="46.00483" lon="3.23251">
        <ele>335</ele>
      </trkpt>
      <trkpt lat="46.00517" lon="3.23248">
        <ele>335.6</ele>
      </trkpt>
      <trkpt lat="46.00547" lon="3.23238">
        <ele>336.3</ele>
      </trkpt>
      <trkpt lat="46.00553" lon="3.23236">
        <ele>336.5</ele>
      </trkpt>
      <trkpt lat="46.00573" lon="3.23237">
        <ele>337.4</ele>
      </trkpt>
      <trkpt lat="46.00593" lon="3.23242">
        <ele>338</ele>
      </trkpt>
      <trkpt lat="46.00632" lon="3.23251">
        <ele>338.8</ele>
      </trkpt>
      <trkpt lat="46.00642" lon="3.23245">
        <ele>339</ele>
      </trkpt>
      <trkpt lat="46.00656" lon="3.23246">
        <ele>339</ele>
      </trkpt>
      <trkpt lat="46.00664" lon="3.23244">
        <ele>339</ele>
      </trkpt>
      <trkpt lat="46.00672" lon="3.23251">
        <ele>339.2</ele>
      </trkpt>
      <trkpt lat="46.00691" lon="3.23257">
        <ele>339.9</ele>
      </trkpt>
      <trkpt lat="46.00827" lon="3.23285">
        <ele>341.9</ele>
      </trkpt>
      <trkpt lat="46.0085" lon="3.23293">
        <ele>342.3</ele>
      </trkpt>
      <trkpt lat="46.00923" lon="3.23322">
        <ele>343.1</ele>
      </trkpt>
      <trkpt lat="46.01038" lon="3.23376">
        <ele>344.7</ele>
      </trkpt>
      <trkpt lat="46.01052" lon="3.23382">
        <ele>344.9</ele>
      </trkpt>
      <trkpt lat="46.01058" lon="3.23385">
        <ele>345.1</ele>
      </trkpt>
      <trkpt lat="46.01113" lon="3.23395">
        <ele>345.8</ele>
      </trkpt>
      <trkpt lat="46.01147" lon="3.234">
        <ele>346</ele>
      </trkpt>
      <trkpt lat="46.01244" lon="3.23417">
        <ele>347</ele>
      </trkpt>
      <trkpt lat="46.01441" lon="3.23495">
        <ele>346.7</ele>
      </trkpt>
      <trkpt lat="46.01488" lon="3.23551">
        <ele>346.6</ele>
      </trkpt>
      <trkpt lat="46.01504" lon="3.2358">
        <ele>347</ele>
      </trkpt>
      <trkpt lat="46.01518" lon="3.23616">
        <ele>346.6</ele>
      </trkpt>
      <trkpt lat="46.01528" lon="3.23658">
        <ele>347</ele>
      </trkpt>
      <trkpt lat="46.01541" lon="3.23809">
        <ele>346.5</ele>
      </trkpt>
      <trkpt lat="46.01549" lon="3.23854">
        <ele>346.6</ele>
      </trkpt>
      <trkpt lat="46.01563" lon="3.23923">
        <ele>345.7</ele>
      </trkpt>
      <trkpt lat="46.01579" lon="3.23998">
        <ele>345.2</ele>
      </trkpt>
      <trkpt lat="46.0159" lon="3.24045">
        <ele>344.9</ele>
      </trkpt>
      <trkpt lat="46.01601" lon="3.24078">
        <ele>344.4</ele>
      </trkpt>
      <trkpt lat="46.01614" lon="3.24102">
        <ele>343.8</ele>
      </trkpt>
      <trkpt lat="46.01628" lon="3.24121">
        <ele>343</ele>
      </trkpt>
      <trkpt lat="46.0166" lon="3.24148">
        <ele>342.2</ele>
      </trkpt>
      <trkpt lat="46.01729" lon="3.24194">
        <ele>341.5</ele>
      </trkpt>
      <trkpt lat="46.01737" lon="3.24198">
        <ele>340.8</ele>
      </trkpt>
      <trkpt lat="46.01843" lon="3.24261">
        <ele>343.6</ele>
      </trkpt>
      <trkpt lat="46.01854" lon="3.24262">
        <ele>343.9</ele>
      </trkpt>
      <trkpt lat="46.01866" lon="3.24264">
        <ele>344.2</ele>
      </trkpt>
      <trkpt lat="46.01891" lon="3.24259">
        <ele>345</ele>
      </trkpt>
      <trkpt lat="46.01895" lon="3.24259">
        <ele>345.1</ele>
      </trkpt>
      <trkpt lat="46.01939" lon="3.24263">
        <ele>345.9</ele>
      </trkpt>
      <trkpt lat="46.01982" lon="3.24278">
        <ele>346</ele>
      </trkpt>
      <trkpt lat="46.02032" lon="3.24295">
        <ele>346.1</ele>
      </trkpt>
      <trkpt lat="46.02082" lon="3.24323">
        <ele>347</ele>
      </trkpt>
      <trkpt lat="46.0213" lon="3.24367">
        <ele>347</ele>
      </trkpt>
      <trkpt lat="46.02175" lon="3.24417">
        <ele>347</ele>
      </trkpt>
      <trkpt lat="46.02533" lon="3.24745">
        <ele>345</ele>
      </trkpt>
      <trkpt lat="46.02574" lon="3.24796">
        <ele>345.7</ele>
      </trkpt>
      <trkpt lat="46.02599" lon="3.2484">
        <ele>346</ele>
      </trkpt>
      <trkpt lat="46.02706" lon="3.25064">
        <ele>344</ele>
      </trkpt>
      <trkpt lat="46.02716" lon="3.25086">
        <ele>343.9</ele>
      </trkpt>
      <trkpt lat="46.02754" lon="3.25154">
        <ele>342.9</ele>
      </trkpt>
      <trkpt lat="46.02769" lon="3.25107">
        <ele>343.1</ele>
      </trkpt>
      <trkpt lat="46.02836" lon="3.24882">
        <ele>347.2</ele>
      </trkpt>
      <trkpt lat="46.02855" lon="3.24838">
        <ele>347</ele>
      </trkpt>
      <trkpt lat="46.03092" lon="3.249">
        <ele>346.9</ele>
      </trkpt>
      <trkpt lat="46.03264" lon="3.24953">
        <ele>343.3</ele>
      </trkpt>
      <trkpt lat="46.03407" lon="3.25051">
        <ele>340.1</ele>
      </trkpt>
      <trkpt lat="46.03561" lon="3.25137">
        <ele>340</ele>
      </trkpt>
      <trkpt lat="46.03635" lon="3.25178">
        <ele>339.6</ele>
      </trkpt>
      <trkpt lat="46.03893" lon="3.25328">
        <ele>343.1</ele>
      </trkpt>
      <trkpt lat="46.03939" lon="3.2535">
        <ele>344</ele>
      </trkpt>
      <trkpt lat="46.04017" lon="3.25381">
        <ele>346</ele>
      </trkpt>
      <trkpt lat="46.04026" lon="3.25384">
        <ele>346</ele>
      </trkpt>
      <trkpt lat="46.04157" lon="3.25434">
        <ele>348.8</ele>
      </trkpt>
      <trkpt lat="46.0417" lon="3.25438">
        <ele>349</ele>
      </trkpt>
      <trkpt lat="46.04181" lon="3.25447">
        <ele>349</ele>
      </trkpt>
      <trkpt lat="46.04185" lon="3.2545">
        <ele>349</ele>
      </trkpt>
      <trkpt lat="46.04211" lon="3.25487">
        <ele>349.3</ele>
      </trkpt>
      <trkpt lat="46.0422" lon="3.255">
        <ele>349.9</ele>
      </trkpt>
      <trkpt lat="46.04252" lon="3.25543">
        <ele>350</ele>
      </trkpt>
      <trkpt lat="46.0426" lon="3.25555">
        <ele>350</ele>
      </trkpt>
      <trkpt lat="46.04305" lon="3.2562">
        <ele>349</ele>
      </trkpt>
      <trkpt lat="46.0431" lon="3.25626">
        <ele>349</ele>
      </trkpt>
      <trkpt lat="46.04384" lon="3.25728">
        <ele>347.8</ele>
      </trkpt>
      <trkpt lat="46.04397" lon="3.25747">
        <ele>347.1</ele>
      </trkpt>
      <trkpt lat="46.04541" lon="3.2595">
        <ele>347.3</ele>
      </trkpt>
      <trkpt lat="46.04544" lon="3.25945">
        <ele>347.6</ele>
      </trkpt>
      <trkpt lat="46.04576" lon="3.25913">
        <ele>348.7</ele>
      </trkpt>
      <trkpt lat="46.04592" lon="3.25905">
        <ele>349</ele>
      </trkpt>
      <trkpt lat="46.04609" lon="3.25903">
        <ele>349</ele>
      </trkpt>
      <trkpt lat="46.04615" lon="3.25906">
        <ele>349</ele>
      </trkpt>
      <trkpt lat="46.04776" lon="3.26055">
        <ele>349.9</ele>
      </trkpt>
      <trkpt lat="46.04785" lon="3.26062">
        <ele>349.8</ele>
      </trkpt>
      <trkpt lat="46.04796" lon="3.26064">
        <ele>349.9</ele>
      </trkpt>
      <trkpt lat="46.04819" lon="3.2606">
        <ele>350.4</ele>
      </trkpt>
      <trkpt lat="46.05222" lon="3.25937">
        <ele>361</ele>
      </trkpt>
      <trkpt lat="46.05245" lon="3.25933">
        <ele>361.3</ele>
      </trkpt>
      <trkpt lat="46.05261" lon="3.25935">
        <ele>361.7</ele>
      </trkpt>
      <trkpt lat="46.05273" lon="3.25943">
        <ele>361.9</ele>
      </trkpt>
      <trkpt lat="46.05285" lon="3.25956">
        <ele>362.2</ele>
      </trkpt>
      <trkpt lat="46.05319" lon="3.26021">
        <ele>361.6</ele>
      </trkpt>
      <trkpt lat="46.0533" lon="3.26037">
        <ele>361.6</ele>
      </trkpt>
      <trkpt lat="46.05344" lon="3.26052">
        <ele>361.5</ele>
      </trkpt>
      <trkpt lat="46.05418" lon="3.26107">
        <ele>361.2</ele>
      </trkpt>
      <trkpt lat="46.05431" lon="3.26112">
        <ele>361.5</ele>
      </trkpt>
      <trkpt lat="46.05481" lon="3.26136">
        <ele>363</ele>
      </trkpt>
      <trkpt lat="46.05499" lon="3.26143">
        <ele>362.9</ele>
      </trkpt>
      <trkpt lat="46.05509" lon="3.26147">
        <ele>362.8</ele>
      </trkpt>
      <trkpt lat="46.05518" lon="3.26151">
        <ele>362.8</ele>
      </trkpt>
      <trkpt lat="46.0553" lon="3.26156">
        <ele>363.2</ele>
      </trkpt>
      <trkpt lat="46.05555" lon="3.2617">
        <ele>364.8</ele>
      </trkpt>
      <trkpt lat="46.05579" lon="3.26186">
        <ele>365.1</ele>
      </trkpt>
      <trkpt lat="46.05683" lon="3.26266">
        <ele>366</ele>
      </trkpt>
      <trkpt lat="46.05715" lon="3.26288">
        <ele>366.4</ele>
      </trkpt>
      <trkpt lat="46.05776" lon="3.2633">
        <ele>367.1</ele>
      </trkpt>
      <trkpt lat="46.05781" lon="3.26334">
        <ele>367.1</ele>
      </trkpt>
      <trkpt lat="46.05838" lon="3.2637">
        <ele>367.8</ele>
      </trkpt>
      <trkpt lat="46.05912" lon="3.26414">
        <ele>368.9</ele>
      </trkpt>
      <trkpt lat="46.05938" lon="3.26426">
        <ele>368.9</ele>
      </trkpt>
      <trkpt lat="46.05979" lon="3.26449">
        <ele>369.1</ele>
        <extensions>
          <visugpx:TrkExtension xmlns:visugpx="https://www.visugpx.com/editgpx/">
            <visugpx:node>6</visugpx:node>
            </visugpx:TrkExtension>
        </extensions>
      </trkpt>
      <trkpt lat="46.06009" lon="3.26466">
        <ele>369.5</ele>
      </trkpt>
      <trkpt lat="46.06038" lon="3.26476">
        <ele>370.6</ele>
      </trkpt>
      <trkpt lat="46.06062" lon="3.26481">
        <ele>372</ele>
      </trkpt>
      <trkpt lat="46.06038" lon="3.26476">
        <ele>370.6</ele>
      </trkpt>
      <trkpt lat="46.06062" lon="3.26481">
        <ele>372</ele>
        <extensions>
          <visugpx:TrkExtension xmlns:visugpx="https://www.visugpx.com/editgpx/">
            <visugpx:node>7</visugpx:node>
            </visugpx:TrkExtension>
        </extensions>
      </trkpt>
      <trkpt lat="46.06076" lon="3.26484">
        <ele>372.6</ele>
      </trkpt>
      <trkpt lat="46.06118" lon="3.26488">
        <ele>373.7</ele>
      </trkpt>
      <trkpt lat="46.06161" lon="3.2649">
        <ele>375.4</ele>
      </trkpt>
      <trkpt lat="46.0619" lon="3.26497">
        <ele>376.1</ele>
      </trkpt>
      <trkpt lat="46.06307" lon="3.26543">
        <ele>378</ele>
      </trkpt>
      <trkpt lat="46.0634" lon="3.26563">
        <ele>378.2</ele>
      </trkpt>
      <trkpt lat="46.06414" lon="3.26618">
        <ele>379.6</ele>
      </trkpt>
      <trkpt lat="46.06428" lon="3.26628">
        <ele>380</ele>
      </trkpt>
      <trkpt lat="46.06448" lon="3.2664">
        <ele>380.9</ele>
      </trkpt>
      <trkpt lat="46.06481" lon="3.26654">
        <ele>380.8</ele>
      </trkpt>
      <trkpt lat="46.06626" lon="3.26696">
        <ele>381.4</ele>
      </trkpt>
      <trkpt lat="46.06725" lon="3.26724">
        <ele>380.9</ele>
      </trkpt>
      <trkpt lat="46.0698" lon="3.26762">
        <ele>379.6</ele>
      </trkpt>
      <trkpt lat="46.07057" lon="3.26771">
        <ele>379</ele>
      </trkpt>
      <trkpt lat="46.07177" lon="3.26788">
        <ele>376.6</ele>
      </trkpt>
      <trkpt lat="46.07354" lon="3.26817">
        <ele>373.2</ele>
      </trkpt>
      <trkpt lat="46.07477" lon="3.26837">
        <ele>370.7</ele>
      </trkpt>
      <trkpt lat="46.07504" lon="3.26838">
        <ele>369.9</ele>
      </trkpt>
      <trkpt lat="46.0753" lon="3.26828">
        <ele>369.2</ele>
      </trkpt>
      <trkpt lat="46.07637" lon="3.26777">
        <ele>367.1</ele>
      </trkpt>
      <trkpt lat="46.07645" lon="3.26773">
        <ele>366.8</ele>
      </trkpt>
      <trkpt lat="46.07655" lon="3.26774">
        <ele>366.4</ele>
      </trkpt>
      <trkpt lat="46.07695" lon="3.26786">
        <ele>365.7</ele>
      </trkpt>
      <trkpt lat="46.07717" lon="3.26798">
        <ele>364.5</ele>
      </trkpt>
      <trkpt lat="46.07783" lon="3.26858">
        <ele>362.8</ele>
      </trkpt>
      <trkpt lat="46.07798" lon="3.26868">
        <ele>362.3</ele>
      </trkpt>
      <trkpt lat="46.07816" lon="3.26877">
        <ele>362</ele>
      </trkpt>
      <trkpt lat="46.07856" lon="3.269">
        <ele>361.1</ele>
      </trkpt>
      <trkpt lat="46.07854" lon="3.26925">
        <ele>360.8</ele>
      </trkpt>
      <trkpt lat="46.07852" lon="3.26945">
        <ele>360.3</ele>
      </trkpt>
      <trkpt lat="46.07856" lon="3.2697">
        <ele>360.2</ele>
      </trkpt>
      <trkpt lat="46.07882" lon="3.27081">
        <ele>359</ele>
      </trkpt>
      <trkpt lat="46.07893" lon="3.27112">
        <ele>357.9</ele>
      </trkpt>
      <trkpt lat="46.07908" lon="3.27103">
        <ele>357.3</ele>
      </trkpt>
      <trkpt lat="46.07929" lon="3.27098">
        <ele>356.6</ele>
      </trkpt>
      <trkpt lat="46.0798" lon="3.27092">
        <ele>355.9</ele>
      </trkpt>
      <trkpt lat="46.08015" lon="3.27084">
        <ele>355.4</ele>
      </trkpt>
      <trkpt lat="46.08042" lon="3.27072">
        <ele>355</ele>
      </trkpt>
      <trkpt lat="46.08086" lon="3.27055">
        <ele>355</ele>
      </trkpt>
      <trkpt lat="46.08108" lon="3.2705">
        <ele>355.2</ele>
      </trkpt>
      <trkpt lat="46.0813" lon="3.27048">
        <ele>355.8</ele>
      </trkpt>
      <trkpt lat="46.08258" lon="3.27058">
        <ele>356.9</ele>
      </trkpt>
      <trkpt lat="46.08278" lon="3.27057">
        <ele>356.9</ele>
      </trkpt>
      <trkpt lat="46.08296" lon="3.27052">
        <ele>357</ele>
      </trkpt>
      <trkpt lat="46.0838" lon="3.27008">
        <ele>356</ele>
      </trkpt>
      <trkpt lat="46.084" lon="3.26997">
        <ele>355.6</ele>
      </trkpt>
      <trkpt lat="46.08606" lon="3.26891">
        <ele>353.8</ele>
      </trkpt>
      <trkpt lat="46.08706" lon="3.26838">
        <ele>353.8</ele>
      </trkpt>
      <trkpt lat="46.08725" lon="3.26825">
        <ele>354.3</ele>
      </trkpt>
      <trkpt lat="46.08743" lon="3.26808">
        <ele>354.9</ele>
      </trkpt>
      <trkpt lat="46.08861" lon="3.26654">
        <ele>358</ele>
      </trkpt>
      <trkpt lat="46.08877" lon="3.26633">
        <ele>358.7</ele>
      </trkpt>
      <trkpt lat="46.08928" lon="3.26567">
        <ele>360</ele>
      </trkpt>
      <trkpt lat="46.08963" lon="3.26529">
        <ele>360.6</ele>
      </trkpt>
      <trkpt lat="46.09002" lon="3.26498">
        <ele>360.9</ele>
      </trkpt>
      <trkpt lat="46.09245" lon="3.26328">
        <ele>359.1</ele>
      </trkpt>
      <trkpt lat="46.0927" lon="3.26305">
        <ele>359</ele>
      </trkpt>
      <trkpt lat="46.09335" lon="3.26232">
        <ele>356.9</ele>
      </trkpt>
      <trkpt lat="46.0937" lon="3.26203">
        <ele>355.7</ele>
      </trkpt>
      <trkpt lat="46.09503" lon="3.26159">
        <ele>351.5</ele>
      </trkpt>
      <trkpt lat="46.09639" lon="3.26115">
        <ele>347</ele>
      </trkpt>
      <trkpt lat="46.09813" lon="3.2606">
        <ele>344.1</ele>
      </trkpt>
      <trkpt lat="46.09944" lon="3.26063">
        <ele>343</ele>
      </trkpt>
      <trkpt lat="46.10309" lon="3.26061">
        <ele>339</ele>
      </trkpt>
      <trkpt lat="46.10344" lon="3.26071">
        <ele>339</ele>
      </trkpt>
      <trkpt lat="46.10352" lon="3.26071">
        <ele>339</ele>
      </trkpt>
      <trkpt lat="46.10399" lon="3.2606">
        <ele>338.1</ele>
      </trkpt>
      <trkpt lat="46.10485" lon="3.2606">
        <ele>338</ele>
      </trkpt>
      <trkpt lat="46.10543" lon="3.26058">
        <ele>337</ele>
      </trkpt>
      <trkpt lat="46.10573" lon="3.26049">
        <ele>336.9</ele>
      </trkpt>
      <trkpt lat="46.10593" lon="3.2604">
        <ele>336.4</ele>
      </trkpt>
      <trkpt lat="46.10628" lon="3.26023">
        <ele>331.9</ele>
      </trkpt>
      <trkpt lat="46.10659" lon="3.26007">
        <ele>332.7</ele>
      </trkpt>
      <trkpt lat="46.10679" lon="3.25996">
        <ele>335</ele>
      </trkpt>
      <trkpt lat="46.10715" lon="3.25981">
        <ele>335</ele>
      </trkpt>
      <trkpt lat="46.10732" lon="3.25976">
        <ele>335</ele>
      </trkpt>
      <trkpt lat="46.10758" lon="3.25974">
        <ele>335</ele>
      </trkpt>
      <trkpt lat="46.10779" lon="3.25975">
        <ele>335</ele>
      </trkpt>
      <trkpt lat="46.10816" lon="3.25984">
        <ele>334.8</ele>
      </trkpt>
      <trkpt lat="46.10854" lon="3.26003">
        <ele>335</ele>
      </trkpt>
      <trkpt lat="46.10911" lon="3.26039">
        <ele>334.2</ele>
      </trkpt>
      <trkpt lat="46.10929" lon="3.26047">
        <ele>333.9</ele>
      </trkpt>
      <trkpt lat="46.10963" lon="3.26056">
        <ele>334</ele>
      </trkpt>
      <trkpt lat="46.11004" lon="3.2606">
        <ele>332.9</ele>
      </trkpt>
      <trkpt lat="46.11267" lon="3.26059">
        <ele>331</ele>
      </trkpt>
      <trkpt lat="46.11645" lon="3.26059">
        <ele>328.9</ele>
      </trkpt>
      <trkpt lat="46.11712" lon="3.26059">
        <ele>328.3</ele>
      </trkpt>
      <trkpt lat="46.1174" lon="3.26057">
        <ele>328.6</ele>
      </trkpt>
      <trkpt lat="46.11764" lon="3.26052">
        <ele>326.7</ele>
      </trkpt>
      <trkpt lat="46.11767" lon="3.26051">
        <ele>326.2</ele>
      </trkpt>
      <trkpt lat="46.11772" lon="3.26049">
        <ele>325.4</ele>
      </trkpt>
      <trkpt lat="46.11794" lon="3.26043">
        <ele>325.2</ele>
      </trkpt>
      <trkpt lat="46.11802" lon="3.2604">
        <ele>325.7</ele>
      </trkpt>
      <trkpt lat="46.11815" lon="3.26038">
        <ele>326</ele>
      </trkpt>
      <trkpt lat="46.11833" lon="3.26038">
        <ele>326</ele>
      </trkpt>
      <trkpt lat="46.1185" lon="3.26043">
        <ele>325.7</ele>
      </trkpt>
      <trkpt lat="46.12087" lon="3.26134">
        <ele>323.7</ele>
      </trkpt>
      <trkpt lat="46.12092" lon="3.26097">
        <ele>322.8</ele>
      </trkpt>
      <trkpt lat="46.12111" lon="3.26">
        <ele>321</ele>
      </trkpt>
      <trkpt lat="46.12128" lon="3.25935">
        <ele>319.4</ele>
      </trkpt>
      <trkpt lat="46.12182" lon="3.25764">
        <ele>315.7</ele>
      </trkpt>
      <trkpt lat="46.1219" lon="3.25752">
        <ele>315.2</ele>
      </trkpt>
      <trkpt lat="46.12199" lon="3.2574">
        <ele>314.9</ele>
      </trkpt>
      <trkpt lat="46.12207" lon="3.25726">
        <ele>314.6</ele>
      </trkpt>
      <trkpt lat="46.1221" lon="3.25707">
        <ele>314</ele>
      </trkpt>
      <trkpt lat="46.12213" lon="3.25688">
        <ele>313.6</ele>
      </trkpt>
      <trkpt lat="46.12203" lon="3.25647">
        <ele>311.6</ele>
      </trkpt>
      <trkpt lat="46.1219" lon="3.25607">
        <ele>309</ele>
      </trkpt>
      <trkpt lat="46.12177" lon="3.25565">
        <ele>306.7</ele>
      </trkpt>
      <trkpt lat="46.12147" lon="3.25488">
        <ele>306.3</ele>
      </trkpt>
      <trkpt lat="46.12144" lon="3.25476">
        <ele>306.7</ele>
      </trkpt>
      <trkpt lat="46.12143" lon="3.25461">
        <ele>306.5</ele>
      </trkpt>
      <trkpt lat="46.12139" lon="3.25411">
        <ele>306.2</ele>
      </trkpt>
      <trkpt lat="46.1214" lon="3.2537">
        <ele>307</ele>
      </trkpt>
      <trkpt lat="46.12144" lon="3.25339">
        <ele>307</ele>
      </trkpt>
      <trkpt lat="46.12154" lon="3.25317">
        <ele>308.1</ele>
      </trkpt>
      <trkpt lat="46.12177" lon="3.25283">
        <ele>308.8</ele>
      </trkpt>
      <trkpt lat="46.12229" lon="3.2521">
        <ele>309.2</ele>
      </trkpt>
      <trkpt lat="46.12282" lon="3.25133">
        <ele>311.1</ele>
      </trkpt>
      <trkpt lat="46.12298" lon="3.25088">
        <ele>312.7</ele>
      </trkpt>
      <trkpt lat="46.12333" lon="3.24972">
        <ele>314</ele>
      </trkpt>
      <trkpt lat="46.12422" lon="3.24654">
        <ele>311</ele>
      </trkpt>
      <trkpt lat="46.12434" lon="3.24555">
        <ele>311</ele>
      </trkpt>
      <trkpt lat="46.12442" lon="3.2452">
        <ele>311</ele>
      </trkpt>
      <trkpt lat="46.1258" lon="3.24069">
        <ele>310</ele>
      </trkpt>
      <trkpt lat="46.12583" lon="3.24059">
        <ele>310</ele>
      </trkpt>
      <trkpt lat="46.12666" lon="3.23806">
        <ele>312</ele>
      </trkpt>
      <trkpt lat="46.127" lon="3.23703">
        <ele>312</ele>
      </trkpt>
      <trkpt lat="46.12711" lon="3.23654">
        <ele>312</ele>
      </trkpt>
      <trkpt lat="46.12726" lon="3.2353">
        <ele>312.9</ele>
      </trkpt>
      <trkpt lat="46.12732" lon="3.23495">
        <ele>312.6</ele>
      </trkpt>
      <trkpt lat="46.12749" lon="3.23402">
        <ele>313</ele>
      </trkpt>
      <trkpt lat="46.12784" lon="3.23276">
        <ele>313.8</ele>
      </trkpt>
      <trkpt lat="46.12815" lon="3.23177">
        <ele>313.2</ele>
      </trkpt>
      <trkpt lat="46.12825" lon="3.23132">
        <ele>313</ele>
      </trkpt>
      <trkpt lat="46.12829" lon="3.23084">
        <ele>313</ele>
      </trkpt>
      <trkpt lat="46.12824" lon="3.22921">
        <ele>312.3</ele>
      </trkpt>
      <trkpt lat="46.12826" lon="3.22703">
        <ele>312</ele>
      </trkpt>
      <trkpt lat="46.12829" lon="3.22673">
        <ele>312</ele>
      </trkpt>
      <trkpt lat="46.12841" lon="3.22655">
        <ele>312</ele>
      </trkpt>
      <trkpt lat="46.12903" lon="3.22589">
        <ele>312</ele>
      </trkpt>
      <trkpt lat="46.12922" lon="3.22574">
        <ele>312</ele>
      </trkpt>
      <trkpt lat="46.13058" lon="3.22484">
        <ele>313</ele>
      </trkpt>
      <trkpt lat="46.13106" lon="3.22448">
        <ele>313.2</ele>
      </trkpt>
      <trkpt lat="46.13228" lon="3.22287">
        <ele>312.7</ele>
      </trkpt>
      <trkpt lat="46.13253" lon="3.22251">
        <ele>313</ele>
      </trkpt>
      <trkpt lat="46.13257" lon="3.22245">
        <ele>313</ele>
      </trkpt>
      <trkpt lat="46.13304" lon="3.22168">
        <ele>313</ele>
      </trkpt>
      <trkpt lat="46.13319" lon="3.22129">
        <ele>313</ele>
      </trkpt>
      <trkpt lat="46.13343" lon="3.21926">
        <ele>315.4</ele>
      </trkpt>
      <trkpt lat="46.13363" lon="3.21891">
        <ele>314.9</ele>
      </trkpt>
      <trkpt lat="46.13372" lon="3.21883">
        <ele>314.6</ele>
      </trkpt>
      <trkpt lat="46.13381" lon="3.21881">
        <ele>314.3</ele>
      </trkpt>
      <trkpt lat="46.1339" lon="3.21886">
        <ele>314</ele>
      </trkpt>
      <trkpt lat="46.13463" lon="3.21946">
        <ele>312.4</ele>
      </trkpt>
      <trkpt lat="46.13467" lon="3.21938">
        <ele>312.4</ele>
      </trkpt>
      <trkpt lat="46.13471" lon="3.21932">
        <ele>312.5</ele>
      </trkpt>
      <trkpt lat="46.13476" lon="3.21928">
        <ele>312.5</ele>
      </trkpt>
      <trkpt lat="46.135" lon="3.21911">
        <ele>312.2</ele>
      </trkpt>
      <trkpt lat="46.13519" lon="3.21897">
        <ele>312.7</ele>
      </trkpt>
      <trkpt lat="46.13539" lon="3.21889">
        <ele>312.6</ele>
      </trkpt>
      <trkpt lat="46.13601" lon="3.21879">
        <ele>311.1</ele>
      </trkpt>
      <trkpt lat="46.13618" lon="3.2187">
        <ele>310.8</ele>
      </trkpt>
      <trkpt lat="46.1364" lon="3.21853">
        <ele>310.9</ele>
      </trkpt>
      <trkpt lat="46.13688" lon="3.2179">
        <ele>313.2</ele>
      </trkpt>
      <trkpt lat="46.13699" lon="3.21773">
        <ele>314.2</ele>
      </trkpt>
      <trkpt lat="46.13705" lon="3.21764">
        <ele>314.6</ele>
      </trkpt>
      <trkpt lat="46.13713" lon="3.21748">
        <ele>315.4</ele>
      </trkpt>
      <trkpt lat="46.13721" lon="3.21724">
        <ele>316</ele>
      </trkpt>
      <trkpt lat="46.13753" lon="3.21606">
        <ele>318</ele>
      </trkpt>
      <trkpt lat="46.13758" lon="3.21591">
        <ele>318</ele>
      </trkpt>
      <trkpt lat="46.13768" lon="3.21574">
        <ele>317.9</ele>
      </trkpt>
      <trkpt lat="46.13877" lon="3.21431">
        <ele>316.7</ele>
      </trkpt>
      <trkpt lat="46.13882" lon="3.21428">
        <ele>316.7</ele>
      </trkpt>
      <trkpt lat="46.13886" lon="3.21427">
        <ele>316.7</ele>
      </trkpt>
      <trkpt lat="46.13891" lon="3.21428">
        <ele>316.5</ele>
      </trkpt>
      <trkpt lat="46.13893" lon="3.2143">
        <ele>316.4</ele>
      </trkpt>
      <trkpt lat="46.13899" lon="3.21431">
        <ele>316.3</ele>
      </trkpt>
      <trkpt lat="46.13902" lon="3.2143">
        <ele>316.3</ele>
      </trkpt>
      <trkpt lat="46.13905" lon="3.21427">
        <ele>316.3</ele>
      </trkpt>
      <trkpt lat="46.13907" lon="3.21423">
        <ele>316.3</ele>
      </trkpt>
      <trkpt lat="46.13908" lon="3.21419">
        <ele>316.3</ele>
      </trkpt>
      <trkpt lat="46.13908" lon="3.21415">
        <ele>316.4</ele>
      </trkpt>
      <trkpt lat="46.13909" lon="3.21406">
        <ele>316.6</ele>
      </trkpt>
      <trkpt lat="46.13911" lon="3.214">
        <ele>316.7</ele>
      </trkpt>
      <trkpt lat="46.13915" lon="3.21392">
        <ele>316.9</ele>
      </trkpt>
      <trkpt lat="46.13975" lon="3.2135">
        <ele>319</ele>
      </trkpt>
      <trkpt lat="46.14033" lon="3.21312">
        <ele>320.8</ele>
      </trkpt>
      <trkpt lat="46.14088" lon="3.21284">
        <ele>320.8</ele>
      </trkpt>
      <trkpt lat="46.14122" lon="3.21272">
        <ele>320.7</ele>
      </trkpt>
      <trkpt lat="46.14147" lon="3.21265">
        <ele>320.5</ele>
      </trkpt>
      <trkpt lat="46.14172" lon="3.21263">
        <ele>320.5</ele>
      </trkpt>
      <trkpt lat="46.14344" lon="3.21264">
        <ele>320.9</ele>
      </trkpt>
      <trkpt lat="46.14365" lon="3.21262">
        <ele>321.6</ele>
      </trkpt>
      <trkpt lat="46.14385" lon="3.21254">
        <ele>321.9</ele>
      </trkpt>
      <trkpt lat="46.14685" lon="3.21035">
        <ele>326.7</ele>
      </trkpt>
      <trkpt lat="46.14874" lon="3.20868">
        <ele>330.6</ele>
      </trkpt>
      <trkpt lat="46.14887" lon="3.20856">
        <ele>331.2</ele>
      </trkpt>
      <trkpt lat="46.14916" lon="3.20821">
        <ele>330.5</ele>
      </trkpt>
      <trkpt lat="46.15023" lon="3.20673">
        <ele>330.9</ele>
      </trkpt>
      <trkpt lat="46.15107" lon="3.20572">
        <ele>334</ele>
      </trkpt>
      <trkpt lat="46.15139" lon="3.20537">
        <ele>334.7</ele>
      </trkpt>
      <trkpt lat="46.15187" lon="3.20484">
        <ele>335</ele>
      </trkpt>
      <trkpt lat="46.15226" lon="3.20441">
        <ele>334.9</ele>
      </trkpt>
      <trkpt lat="46.15298" lon="3.20368">
        <ele>333.5</ele>
      </trkpt>
      <trkpt lat="46.153" lon="3.20366">
        <ele>333.4</ele>
      </trkpt>
      <trkpt lat="46.1543" lon="3.20262">
        <ele>328.1</ele>
      </trkpt>
      <trkpt lat="46.15462" lon="3.20231">
        <ele>326.2</ele>
      </trkpt>
      <trkpt lat="46.15508" lon="3.2017">
        <ele>323.1</ele>
      </trkpt>
      <trkpt lat="46.15587" lon="3.20039">
        <ele>315.7</ele>
      </trkpt>
      <trkpt lat="46.15593" lon="3.20032">
        <ele>315.3</ele>
      </trkpt>
      <trkpt lat="46.15601" lon="3.20023">
        <ele>314.6</ele>
      </trkpt>
      <trkpt lat="46.15606" lon="3.2002">
        <ele>313.9</ele>
      </trkpt>
      <trkpt lat="46.15617" lon="3.20011">
        <ele>312.3</ele>
      </trkpt>
      <trkpt lat="46.15767" lon="3.19913">
        <ele>301</ele>
      </trkpt>
      <trkpt lat="46.15899" lon="3.19831">
        <ele>293.7</ele>
      </trkpt>
      <trkpt lat="46.1594" lon="3.19793">
        <ele>292.7</ele>
      </trkpt>
      <trkpt lat="46.15959" lon="3.19768">
        <ele>291.8</ele>
      </trkpt>
      <trkpt lat="46.15974" lon="3.19754">
        <ele>290.9</ele>
      </trkpt>
      <trkpt lat="46.15987" lon="3.19745">
        <ele>290.4</ele>
      </trkpt>
      <trkpt lat="46.15999" lon="3.19682">
        <ele>289</ele>
      </trkpt>
      <trkpt lat="46.16003" lon="3.19659">
        <ele>288.6</ele>
      </trkpt>
      <trkpt lat="46.1602" lon="3.19582">
        <ele>287</ele>
      </trkpt>
      <trkpt lat="46.16023" lon="3.19564">
        <ele>287</ele>
      </trkpt>
      <trkpt lat="46.16021" lon="3.19548">
        <ele>286.7</ele>
      </trkpt>
      <trkpt lat="46.16002" lon="3.19476">
        <ele>286</ele>
      </trkpt>
      <trkpt lat="46.15998" lon="3.19454">
        <ele>286.3</ele>
      </trkpt>
      <trkpt lat="46.15998" lon="3.19436">
        <ele>286.6</ele>
      </trkpt>
      <trkpt lat="46.16" lon="3.19418">
        <ele>287</ele>
      </trkpt>
      <trkpt lat="46.16005" lon="3.19403">
        <ele>287.9</ele>
      </trkpt>
      <trkpt lat="46.16013" lon="3.19386">
        <ele>288.3</ele>
      </trkpt>
      <trkpt lat="46.16064" lon="3.19309">
        <ele>287.9</ele>
      </trkpt>
      <trkpt lat="46.161" lon="3.19261">
        <ele>287.6</ele>
      </trkpt>
      <trkpt lat="46.16109" lon="3.19251">
        <ele>287.2</ele>
      </trkpt>
      <trkpt lat="46.16155" lon="3.19231">
        <ele>285.8</ele>
      </trkpt>
      <trkpt lat="46.16216" lon="3.19216">
        <ele>284.2</ele>
      </trkpt>
      <trkpt lat="46.16253" lon="3.19202">
        <ele>284</ele>
        <extensions>
          <visugpx:TrkExtension xmlns:visugpx="https://www.visugpx.com/editgpx/">
            <visugpx:node>8</visugpx:node>
            </visugpx:TrkExtension>
        </extensions>
      </trkpt>
      <trkpt lat="46.16254" lon="3.19201">
        <ele>284</ele>
      </trkpt>
      <trkpt lat="46.16257" lon="3.192">
        <ele>284</ele>
      </trkpt>
      <trkpt lat="46.1628" lon="3.19187">
        <ele>284</ele>
      </trkpt>
      <trkpt lat="46.16294" lon="3.19175">
        <ele>284</ele>
      </trkpt>
      <trkpt lat="46.16308" lon="3.19162">
        <ele>284</ele>
      </trkpt>
      <trkpt lat="46.16294" lon="3.19175">
        <ele>284.811576</ele>
        <time>2022-07-10T16:38:33.531Z</time>
      </trkpt>
      <trkpt lat="46.16415" lon="3.19068">
        <ele>284.1</ele>
        <extensions>
          <visugpx:TrkExtension xmlns:visugpx="https://www.visugpx.com/editgpx/">
            <visugpx:node>9</visugpx:node>
            </visugpx:TrkExtension>
        </extensions>
      </trkpt>
      <trkpt lat="46.16459" lon="3.19022">
        <ele>284.5</ele>
        <extensions>
          <visugpx:TrkExtension xmlns:visugpx="https://www.visugpx.com/editgpx/">
            <visugpx:node>10</visugpx:node>
            </visugpx:TrkExtension>
        </extensions>
      </trkpt>
      <trkpt lat="46.16463" lon="3.19018">
        <ele>281.825265</ele>
        <time>2022-07-10T16:38:56.260Z</time>
      </trkpt>
      <trkpt lat="46.16466" lon="3.19016">
        <ele>281.778375</ele>
        <time>2022-07-10T16:38:56.724Z</time>
      </trkpt>
      <trkpt lat="46.16536" lon="3.18951">
        <ele>281.451505</ele>
        <time>2022-07-10T16:39:07.550Z</time>
      </trkpt>
      <trkpt lat="46.1654" lon="3.18947">
        <ele>281.497631</ele>
        <time>2022-07-10T16:39:08.293Z</time>
      </trkpt>
      <trkpt lat="46.16572" lon="3.18918">
        <ele>281.819228</ele>
        <time>2022-07-10T16:39:14.928Z</time>
      </trkpt>
      <trkpt lat="46.16662" lon="3.18835">
        <ele>282.828352</ele>
        <time>2022-07-10T16:39:36.360Z</time>
      </trkpt>
      <trkpt lat="46.16681" lon="3.18825">
        <ele>283.40721</ele>
        <time>2022-07-10T16:39:41.450Z</time>
      </trkpt>
      <trkpt lat="46.16702" lon="3.18826">
        <ele>284.022745</ele>
        <time>2022-07-10T16:39:46.337Z</time>
      </trkpt>
      <trkpt lat="46.16722" lon="3.18836">
        <ele>284.643172</ele>
        <time>2022-07-10T16:39:51.864Z</time>
      </trkpt>
      <trkpt lat="46.16762" lon="3.18885">
        <ele>286.205244</ele>
        <time>2022-07-10T16:40:06.353Z</time>
      </trkpt>
      <trkpt lat="46.16804" lon="3.18919">
        <ele>287.61394</ele>
        <time>2022-07-10T16:40:20.765Z</time>
      </trkpt>
      <trkpt lat="46.16811" lon="3.18924">
        <ele>287.839279</ele>
        <time>2022-07-10T16:40:22.865Z</time>
      </trkpt>
      <trkpt lat="46.16917" lon="3.18924">
        <ele>291.932382</ele>
        <time>2022-07-10T16:40:54.269Z</time>
      </trkpt>
      <trkpt lat="46.16923" lon="3.18924">
        <ele>292.160179</ele>
        <time>2022-07-10T16:40:56.334Z</time>
      </trkpt>
      <trkpt lat="46.17052" lon="3.18925">
        <ele>297.038008</ele>
        <time>2022-07-10T16:41:37.247Z</time>
      </trkpt>
      <trkpt lat="46.17079" lon="3.18938">
        <ele>298.057689</ele>
        <time>2022-07-10T16:41:45.260Z</time>
      </trkpt>
      <trkpt lat="46.17166" lon="3.19018">
        <ele>301.749882</ele>
        <time>2022-07-10T16:42:13.783Z</time>
      </trkpt>
      <trkpt lat="46.17199" lon="3.19033">
        <ele>302.946628</ele>
        <time>2022-07-10T16:42:23.511Z</time>
      </trkpt>
      <trkpt lat="46.17469" lon="3.19115">
        <ele>312.280301</ele>
        <time>2022-07-10T16:43:43.741Z</time>
      </trkpt>
      <trkpt lat="46.17553" lon="3.19123">
        <ele>314.64128</ele>
        <time>2022-07-10T16:44:04.764Z</time>
      </trkpt>
      <trkpt lat="46.17756" lon="3.19101">
        <ele>319.280071</ele>
        <time>2022-07-10T16:44:52.947Z</time>
      </trkpt>
      <trkpt lat="46.17896" lon="3.1909">
        <ele>321.962343</ele>
        <time>2022-07-10T16:45:26.664Z</time>
      </trkpt>
      <trkpt lat="46.17976" lon="3.19084">
        <ele>322.607219</ele>
        <time>2022-07-10T16:45:41.599Z</time>
      </trkpt>
      <trkpt lat="46.18137" lon="3.19073">
        <ele>324.087773</ele>
        <time>2022-07-10T16:46:04.709Z</time>
      </trkpt>
      <trkpt lat="46.18259" lon="3.19058">
        <ele>326.053329</ele>
        <time>2022-07-10T16:46:32.169Z</time>
      </trkpt>
      <trkpt lat="46.18564" lon="3.18886">
        <ele>337.384044</ele>
        <time>2022-07-10T16:48:10.733Z</time>
      </trkpt>
      <trkpt lat="46.18603" lon="3.1885">
        <ele>337.596343</ele>
        <time>2022-07-10T16:48:21.035Z</time>
      </trkpt>
      <trkpt lat="46.18647" lon="3.18771">
        <ele>337.852813</ele>
        <time>2022-07-10T16:48:32.876Z</time>
      </trkpt>
      <trkpt lat="46.1873" lon="3.18618">
        <ele>336.683485</ele>
        <time>2022-07-10T16:48:48.376Z</time>
      </trkpt>
      <trkpt lat="46.18746" lon="3.18597">
        <ele>336.247916</ele>
        <time>2022-07-10T16:48:50.603Z</time>
      </trkpt>
      <trkpt lat="46.18775" lon="3.18569">
        <ele>335.542146</ele>
        <time>2022-07-10T16:48:54.266Z</time>
      </trkpt>
      <trkpt lat="46.1885" lon="3.18524">
        <ele>334.40818</ele>
        <time>2022-07-10T16:49:03.000Z</time>
      </trkpt>
      <trkpt lat="46.18866" lon="3.1856">
        <ele>334.338732</ele>
        <time>2022-07-10T16:49:06.435Z</time>
      </trkpt>
      <trkpt lat="46.18886" lon="3.18575">
        <ele>334.286684</ele>
        <time>2022-07-10T16:49:09.460Z</time>
      </trkpt>
      <trkpt lat="46.1891" lon="3.18576">
        <ele>334.230267</ele>
        <time>2022-07-10T16:49:12.988Z</time>
      </trkpt>
      <trkpt lat="46.18977" lon="3.18564">
        <ele>334.069749</ele>
        <time>2022-07-10T16:49:25.065Z</time>
      </trkpt>
      <trkpt lat="46.1898" lon="3.18562">
        <ele>334.06186</ele>
        <time>2022-07-10T16:49:25.731Z</time>
      </trkpt>
      <trkpt lat="46.1904" lon="3.18542">
        <ele>334.927709</ele>
        <time>2022-07-10T16:49:38.368Z</time>
      </trkpt>
      <trkpt lat="46.19084" lon="3.18531">
        <ele>335.624372</ele>
        <time>2022-07-10T16:49:48.425Z</time>
      </trkpt>
      <trkpt lat="46.19153" lon="3.1856">
        <ele>336.742874</ele>
        <time>2022-07-10T16:50:04.908Z</time>
      </trkpt>
      <trkpt lat="46.19294" lon="3.18711">
        <ele>338.393736</ele>
        <time>2022-07-10T16:50:37.748Z</time>
      </trkpt>
      <trkpt lat="46.19336" lon="3.18747">
        <ele>338.122896</ele>
        <time>2022-07-10T16:50:44.921Z</time>
      </trkpt>
      <trkpt lat="46.19376" lon="3.18774">
        <ele>337.672231</ele>
        <time>2022-07-10T16:50:50.878Z</time>
      </trkpt>
      <trkpt lat="46.1941" lon="3.18788">
        <ele>337.31272</ele>
        <time>2022-07-10T16:50:55.182Z</time>
      </trkpt>
      <trkpt lat="46.19536" lon="3.18817">
        <ele>335.069862</ele>
        <time>2022-07-10T16:51:08.939Z</time>
      </trkpt>
      <trkpt lat="46.19574" lon="3.18819">
        <ele>334.112808</ele>
        <time>2022-07-10T16:51:12.810Z</time>
      </trkpt>
      <trkpt lat="46.19712" lon="3.18796">
        <ele>331.630735</ele>
        <time>2022-07-10T16:51:27.553Z</time>
      </trkpt>
      <trkpt lat="46.19738" lon="3.18778">
        <ele>331.364379</ele>
        <time>2022-07-10T16:51:31.078Z</time>
      </trkpt>
      <trkpt lat="46.19776" lon="3.18727">
        <ele>330.883904</ele>
        <time>2022-07-10T16:51:38.249Z</time>
      </trkpt>
      <trkpt lat="46.19803" lon="3.18707">
        <ele>330.600979</ele>
        <time>2022-07-10T16:51:43.060Z</time>
      </trkpt>
      <trkpt lat="46.19887" lon="3.18701">
        <ele>330.637229</ele>
        <time>2022-07-10T16:51:58.694Z</time>
      </trkpt>
      <trkpt lat="46.20015" lon="3.18755">
        <ele>330.166849</ele>
        <time>2022-07-10T16:52:18.105Z</time>
      </trkpt>
      <trkpt lat="46.20383" lon="3.18784">
        <ele>321.796922</ele>
        <time>2022-07-10T16:52:56.868Z</time>
      </trkpt>
      <trkpt lat="46.20412" lon="3.18799">
        <ele>321.217829</ele>
        <time>2022-07-10T16:53:00.157Z</time>
      </trkpt>
      <trkpt lat="46.20577" lon="3.18922">
        <ele>318.000146</ele>
        <time>2022-07-10T16:53:21.457Z</time>
      </trkpt>
      <trkpt lat="46.20679" lon="3.18978">
        <ele>316.320242</ele>
        <time>2022-07-10T16:53:33.953Z</time>
      </trkpt>
      <trkpt lat="46.20732" lon="3.19003">
        <ele>315.028705</ele>
        <time>2022-07-10T16:53:40.679Z</time>
      </trkpt>
      <trkpt lat="46.20778" lon="3.19024">
        <ele>313.913466</ele>
        <time>2022-07-10T16:53:46.080Z</time>
      </trkpt>
      <trkpt lat="46.20796" lon="3.19042">
        <ele>313.414392</ele>
        <time>2022-07-10T16:53:48.476Z</time>
      </trkpt>
      <trkpt lat="46.2082" lon="3.19096">
        <ele>312.411765</ele>
        <time>2022-07-10T16:53:52.900Z</time>
      </trkpt>
      <trkpt lat="46.20843" lon="3.191">
        <ele>311.435393</ele>
        <time>2022-07-10T16:53:55.171Z</time>
      </trkpt>
      <trkpt lat="46.20872" lon="3.19086">
        <ele>310.046692</ele>
        <time>2022-07-10T16:53:57.996Z</time>
      </trkpt>
      <trkpt lat="46.20888" lon="3.19083">
        <ele>309.261715</ele>
        <time>2022-07-10T16:53:59.650Z</time>
      </trkpt>
      <trkpt lat="46.20941" lon="3.19087">
        <ele>306.812433</ele>
        <time>2022-07-10T16:54:04.710Z</time>
      </trkpt>
      <trkpt lat="46.20953" lon="3.19082">
        <ele>306.242816</ele>
        <time>2022-07-10T16:54:05.956Z</time>
      </trkpt>
      <trkpt lat="46.20966" lon="3.19059">
        <ele>305.287293</ele>
        <time>2022-07-10T16:54:07.824Z</time>
      </trkpt>
      <trkpt lat="46.21037" lon="3.18975">
        <ele>300.157149</ele>
        <time>2022-07-10T16:54:16.369Z</time>
      </trkpt>
      <trkpt lat="46.21163" lon="3.18866">
        <ele>291.481579</ele>
        <time>2022-07-10T16:54:29.742Z</time>
      </trkpt>
      <trkpt lat="46.21181" lon="3.18836">
        <ele>289.951445</ele>
        <time>2022-07-10T16:54:32.286Z</time>
      </trkpt>
      <trkpt lat="46.21185" lon="3.18832">
        <ele>289.696877</ele>
        <time>2022-07-10T16:54:32.727Z</time>
      </trkpt>
      <trkpt lat="46.21196" lon="3.18821">
        <ele>288.969523</ele>
        <time>2022-07-10T16:54:33.923Z</time>
      </trkpt>
      <trkpt lat="46.21243" lon="3.18808">
        <ele>286.310484</ele>
        <time>2022-07-10T16:54:38.401Z</time>
      </trkpt>
      <trkpt lat="46.21351" lon="3.18709">
        <ele>280.497463</ele>
        <time>2022-07-10T16:54:50.579Z</time>
      </trkpt>
      <trkpt lat="46.21584" lon="3.18613">
        <ele>272.926346</ele>
        <time>2022-07-10T16:55:15.236Z</time>
      </trkpt>
      <trkpt lat="46.21642" lon="3.18609">
        <ele>271.65268</ele>
        <time>2022-07-10T16:55:21.927Z</time>
      </trkpt>
      <trkpt lat="46.21825" lon="3.18629">
        <ele>270.215001</ele>
        <time>2022-07-10T16:55:45.908Z</time>
      </trkpt>
      <trkpt lat="46.21837" lon="3.18633">
        <ele>270.103953</ele>
        <time>2022-07-10T16:55:47.548Z</time>
      </trkpt>
      <trkpt lat="46.21901" lon="3.1865">
        <ele>269.538785</ele>
        <time>2022-07-10T16:55:55.813Z</time>
      </trkpt>
      <trkpt lat="46.21921" lon="3.18665">
        <ele>269.346254</ele>
        <time>2022-07-10T16:55:58.587Z</time>
      </trkpt>
      <trkpt lat="46.21982" lon="3.18742">
        <ele>268.678698</ele>
        <time>2022-07-10T16:56:08.248Z</time>
      </trkpt>
      <trkpt lat="46.22017" lon="3.18782">
        <ele>268.36368</ele>
        <time>2022-07-10T16:56:13.725Z</time>
      </trkpt>
      <trkpt lat="46.22104" lon="3.18794">
        <ele>267.7566</ele>
        <time>2022-07-10T16:56:24.937Z</time>
      </trkpt>
      <trkpt lat="46.22159" lon="3.18806">
        <ele>267.612403</ele>
        <time>2022-07-10T16:56:32.907Z</time>
      </trkpt>
      <trkpt lat="46.22172" lon="3.18813">
        <ele>267.648418</ele>
        <time>2022-07-10T16:56:34.987Z</time>
      </trkpt>
      <trkpt lat="46.22231" lon="3.1887">
        <ele>267.831978</ele>
        <time>2022-07-10T16:56:46.473Z</time>
      </trkpt>
      <trkpt lat="46.22276" lon="3.18903">
        <ele>267.962498</ele>
        <time>2022-07-10T16:56:55.343Z</time>
      </trkpt>
      <trkpt lat="46.22395" lon="3.19016">
        <ele>267.958255</ele>
        <time>2022-07-10T16:57:18.144Z</time>
      </trkpt>
      <trkpt lat="46.22428" lon="3.19047">
        <ele>267.941425</ele>
        <time>2022-07-10T16:57:23.202Z</time>
      </trkpt>
      <trkpt lat="46.22497" lon="3.19113">
        <ele>267.230396</ele>
        <time>2022-07-10T16:57:33.350Z</time>
      </trkpt>
      <trkpt lat="46.22621" lon="3.1915">
        <ele>265.857926</ele>
        <time>2022-07-10T16:57:48.273Z</time>
      </trkpt>
      <trkpt lat="46.22736" lon="3.1916">
        <ele>264.61053</ele>
        <time>2022-07-10T16:58:02.298Z</time>
      </trkpt>
      <trkpt lat="46.22756" lon="3.19167">
        <ele>264.386983</ele>
        <time>2022-07-10T16:58:04.803Z</time>
      </trkpt>
      <trkpt lat="46.22905" lon="3.19265">
        <ele>262.713864</ele>
        <time>2022-07-10T16:58:24.560Z</time>
      </trkpt>
      <trkpt lat="46.22992" lon="3.19303">
        <ele>262.310563</ele>
        <time>2022-07-10T16:58:36.015Z</time>
      </trkpt>
      <trkpt lat="46.23041" lon="3.19317">
        <ele>262.407089</ele>
        <time>2022-07-10T16:58:42.746Z</time>
      </trkpt>
      <trkpt lat="46.23597" lon="3.19406">
        <ele>266.081089</ele>
        <time>2022-07-10T17:00:28.394Z</time>
      </trkpt>
      <trkpt lat="46.23697" lon="3.19422">
        <ele>265.208149</ele>
        <time>2022-07-10T17:00:39.742Z</time>
      </trkpt>
      <trkpt lat="46.2374" lon="3.19429">
        <ele>264.155421</ele>
        <time>2022-07-10T17:00:44.189Z</time>
      </trkpt>
      <trkpt lat="46.23954" lon="3.19463">
        <ele>259.401558</ele>
        <time>2022-07-10T17:01:06.666Z</time>
      </trkpt>
      <trkpt lat="46.2396" lon="3.19464">
        <ele>259.282356</ele>
        <time>2022-07-10T17:01:07.389Z</time>
      </trkpt>
      <trkpt lat="46.23973" lon="3.19466">
        <ele>259.01815</ele>
        <time>2022-07-10T17:01:09.027Z</time>
      </trkpt>
      <trkpt lat="46.23983" lon="3.19467">
        <ele>258.827579</ele>
        <time>2022-07-10T17:01:10.221Z</time>
      </trkpt>
      <trkpt lat="46.24053" lon="3.19479">
        <ele>257.89392</ele>
        <time>2022-07-10T17:01:19.147Z</time>
      </trkpt>
      <trkpt lat="46.24126" lon="3.19491">
        <ele>257.514022</ele>
        <time>2022-07-10T17:01:29.184Z</time>
      </trkpt>
      <trkpt lat="46.24244" lon="3.19555">
        <ele>256.793281</ele>
        <time>2022-07-10T17:01:46.156Z</time>
      </trkpt>
      <trkpt lat="46.24255" lon="3.19571">
        <ele>256.68757</ele>
        <time>2022-07-10T17:01:48.166Z</time>
      </trkpt>
      <trkpt lat="46.24265" lon="3.1961">
        <ele>256.500845</ele>
        <time>2022-07-10T17:01:51.680Z</time>
      </trkpt>
      <trkpt lat="46.24303" lon="3.19737">
        <ele>255.934261</ele>
        <time>2022-07-10T17:02:03.897Z</time>
      </trkpt>
      <trkpt lat="46.2431" lon="3.19763">
        <ele>255.91422</ele>
        <time>2022-07-10T17:02:06.339Z</time>
      </trkpt>
      <trkpt lat="46.24319" lon="3.19794">
        <ele>255.889632</ele>
        <time>2022-07-10T17:02:09.535Z</time>
      </trkpt>
      <trkpt lat="46.24341" lon="3.19786">
        <ele>255.865355</ele>
        <time>2022-07-10T17:02:12.812Z</time>
      </trkpt>
      <trkpt lat="46.2447" lon="3.1972">
        <ele>255.771781</ele>
        <time>2022-07-10T17:02:33.951Z</time>
      </trkpt>
      <trkpt lat="46.24549" lon="3.19768">
        <ele>255.807414</ele>
        <time>2022-07-10T17:02:47.409Z</time>
      </trkpt>
      <trkpt lat="46.24566" lon="3.19779">
        <ele>255.81534</ele>
        <time>2022-07-10T17:02:50.238Z</time>
      </trkpt>
      <trkpt lat="46.24613" lon="3.19836">
        <ele>255.702282</ele>
        <time>2022-07-10T17:02:59.119Z</time>
      </trkpt>
      <trkpt lat="46.24769" lon="3.20029">
        <ele>254.42864</ele>
        <time>2022-07-10T17:03:25.049Z</time>
      </trkpt>
      <trkpt lat="46.24795" lon="3.20051">
        <ele>254.275125</ele>
        <time>2022-07-10T17:03:28.850Z</time>
      </trkpt>
      <trkpt lat="46.24894" lon="3.20092">
        <ele>253.748188</ele>
        <time>2022-07-10T17:03:42.581Z</time>
      </trkpt>
      <trkpt lat="46.2529" lon="3.2016">
        <ele>254.242085</ele>
        <time>2022-07-10T17:04:44.100Z</time>
      </trkpt>
      <trkpt lat="46.25321" lon="3.20164">
        <ele>254.332848</ele>
        <time>2022-07-10T17:04:48.734Z</time>
      </trkpt>
      <trkpt lat="46.25349" lon="3.20156">
        <ele>254.415637</ele>
        <time>2022-07-10T17:04:52.908Z</time>
      </trkpt>
      <trkpt lat="46.25384" lon="3.20123">
        <ele>254.5371</ele>
        <time>2022-07-10T17:04:59.564Z</time>
      </trkpt>
      <trkpt lat="46.25409" lon="3.20117">
        <ele>254.611832</ele>
        <time>2022-07-10T17:05:03.759Z</time>
      </trkpt>
      <trkpt lat="46.25477" lon="3.20143">
        <ele>255.563999</ele>
        <time>2022-07-10T17:05:16.358Z</time>
      </trkpt>
      <trkpt lat="46.2581" lon="3.20281">
        <ele>261.777785</ele>
        <time>2022-07-10T17:06:36.894Z</time>
      </trkpt>
      <trkpt lat="46.25871" lon="3.20297">
        <ele>262.375009</ele>
        <time>2022-07-10T17:06:49.900Z</time>
      </trkpt>
      <trkpt lat="46.25926" lon="3.20287">
        <ele>262.896303</ele>
        <time>2022-07-10T17:06:59.252Z</time>
      </trkpt>
      <trkpt lat="46.2609" lon="3.20243">
        <ele>261.555279</ele>
        <time>2022-07-10T17:07:19.745Z</time>
      </trkpt>
      <trkpt lat="46.26284" lon="3.20143">
        <ele>258.045206</ele>
        <time>2022-07-10T17:07:42.686Z</time>
      </trkpt>
      <trkpt lat="46.2631" lon="3.20193">
        <ele>257.412551</ele>
        <time>2022-07-10T17:07:47.325Z</time>
      </trkpt>
      <trkpt lat="46.26316" lon="3.20203">
        <ele>257.282307</ele>
        <time>2022-07-10T17:07:48.348Z</time>
      </trkpt>
      <trkpt lat="46.26329" lon="3.20228">
        <ele>256.983461</ele>
        <time>2022-07-10T17:07:50.719Z</time>
      </trkpt>
      <trkpt lat="46.26331" lon="3.20231">
        <ele>256.938841</ele>
        <time>2022-07-10T17:07:51.066Z</time>
      </trkpt>
      <trkpt lat="46.2634" lon="3.20249">
        <ele>256.728461</ele>
        <time>2022-07-10T17:07:52.736Z</time>
      </trkpt>
      <trkpt lat="46.26362" lon="3.20291">
        <ele>256.214317</ele>
        <time>2022-07-10T17:07:56.924Z</time>
      </trkpt>
      <trkpt lat="46.26399" lon="3.20362">
        <ele>255.407084</ele>
        <time>2022-07-10T17:08:04.211Z</time>
      </trkpt>
      <trkpt lat="46.26504" lon="3.20563">
        <ele>256.749905</ele>
        <time>2022-07-10T17:08:35.659Z</time>
      </trkpt>
      <trkpt lat="46.26838" lon="3.20454">
        <ele>265.391285</ele>
        <time>2022-07-10T17:10:02.576Z</time>
      </trkpt>
      <trkpt lat="46.27239" lon="3.20323">
        <ele>276.467983</ele>
        <time>2022-07-10T17:11:46.909Z</time>
      </trkpt>
      <trkpt lat="46.27277" lon="3.20288">
        <ele>277.983777</ele>
        <time>2022-07-10T17:11:59.286Z</time>
      </trkpt>
      <trkpt lat="46.27338" lon="3.20148">
        <ele>281.847939</ele>
        <time>2022-07-10T17:12:32.608Z</time>
      </trkpt>
      <trkpt lat="46.27367" lon="3.20076">
        <ele>284.094243</ele>
        <time>2022-07-10T17:12:50.977Z</time>
      </trkpt>
      <trkpt lat="46.27439" lon="3.19901">
        <ele>289.398954</ele>
        <time>2022-07-10T17:13:33.431Z</time>
      </trkpt>
      <trkpt lat="46.27518" lon="3.19752">
        <ele>293.735058</ele>
        <time>2022-07-10T17:14:09.409Z</time>
      </trkpt>
      <trkpt lat="46.27667" lon="3.19469">
        <ele>301.626033</ele>
        <time>2022-07-10T17:15:16.777Z</time>
      </trkpt>
      <trkpt lat="46.27824" lon="3.19173">
        <ele>310.896205</ele>
        <time>2022-07-10T17:16:30.656Z</time>
      </trkpt>
      <trkpt lat="46.27948" lon="3.18939">
        <ele>320.44995</ele>
        <time>2022-07-10T17:17:38.850Z</time>
      </trkpt>
      <trkpt lat="46.28014" lon="3.18746">
        <ele>329.3036</ele>
        <time>2022-07-10T17:18:38.343Z</time>
      </trkpt>
      <trkpt lat="46.28044" lon="3.18629">
        <ele>334.564167</ele>
        <time>2022-07-10T17:19:13.533Z</time>
      </trkpt>
      <trkpt lat="46.28094" lon="3.18375">
        <ele>345.22609</ele>
        <time>2022-07-10T17:20:22.586Z</time>
      </trkpt>
      <trkpt lat="46.28151" lon="3.18204">
        <ele>352.477905</ele>
        <time>2022-07-10T17:21:11.252Z</time>
      </trkpt>
      <trkpt lat="46.28195" lon="3.18049">
        <ele>358.005161</ele>
        <time>2022-07-10T17:21:52.336Z</time>
      </trkpt>
      <trkpt lat="46.28245" lon="3.1798">
        <ele>361.179063</ele>
        <time>2022-07-10T17:22:14.519Z</time>
      </trkpt>
      <trkpt lat="46.2827" lon="3.17939">
        <ele>362.424545</ele>
        <time>2022-07-10T17:22:26.009Z</time>
      </trkpt>
      <trkpt lat="46.28314" lon="3.17841">
        <ele>363.967127</ele>
        <time>2022-07-10T17:22:46.346Z</time>
      </trkpt>
      <trkpt lat="46.28328" lon="3.17707">
        <ele>365.442059</ele>
        <time>2022-07-10T17:23:02.778Z</time>
      </trkpt>
      <trkpt lat="46.28342" lon="3.17609">
        <ele>365.109187</ele>
        <time>2022-07-10T17:23:12.326Z</time>
      </trkpt>
      <trkpt lat="46.2837" lon="3.17558">
        <ele>364.893906</ele>
        <time>2022-07-10T17:23:17.933Z</time>
      </trkpt>
      <trkpt lat="46.2865" lon="3.17143">
        <ele>362.022621</ele>
        <time>2022-07-10T17:24:07.702Z</time>
      </trkpt>
      <trkpt lat="46.2869" lon="3.17083">
        <ele>362.728462</ele>
        <time>2022-07-10T17:24:17.388Z</time>
      </trkpt>
      <trkpt lat="46.28832" lon="3.1687">
        <ele>367.381822</ele>
        <time>2022-07-10T17:25:06.618Z</time>
      </trkpt>
      <trkpt lat="46.29042" lon="3.16561">
        <ele>378.244311</ele>
        <time>2022-07-10T17:26:40.833Z</time>
      </trkpt>
      <trkpt lat="46.29374" lon="3.16183">
        <ele>383.520506</ele>
        <time>2022-07-10T17:28:05.186Z</time>
      </trkpt>
      <trkpt lat="46.29517" lon="3.16019">
        <ele>383.473412</ele>
        <time>2022-07-10T17:28:27.698Z</time>
      </trkpt>
      <trkpt lat="46.2958" lon="3.15961">
        <ele>383.435465</ele>
        <time>2022-07-10T17:28:38.605Z</time>
      </trkpt>
      <trkpt lat="46.30277" lon="3.15394">
        <ele>397.172562</ele>
        <time>2022-07-10T17:31:34.753Z</time>
      </trkpt>
      <trkpt lat="46.30551" lon="3.15174">
        <ele>403.235641</ele>
        <time>2022-07-10T17:32:45.840Z</time>
      </trkpt>
      <trkpt lat="46.30579" lon="3.15143">
        <ele>403.877628</ele>
        <time>2022-07-10T17:32:53.843Z</time>
      </trkpt>
      <trkpt lat="46.30857" lon="3.14695">
        <ele>411.250014</ele>
        <time>2022-07-10T17:34:24.966Z</time>
      </trkpt>
      <trkpt lat="46.30957" lon="3.14532">
        <ele>413.961595</ele>
        <time>2022-07-10T17:34:57.026Z</time>
      </trkpt>
      <trkpt lat="46.31126" lon="3.14257">
        <ele>418.799561</ele>
        <time>2022-07-10T17:35:55.624Z</time>
      </trkpt>
      <trkpt lat="46.31296" lon="3.13968">
        <ele>423.141306</ele>
        <time>2022-07-10T17:36:50.227Z</time>
      </trkpt>
      <trkpt lat="46.31321" lon="3.13926">
        <ele>423.897535</ele>
        <time>2022-07-10T17:36:58.188Z</time>
      </trkpt>
      <trkpt lat="46.31565" lon="3.13514">
        <ele>431.870373</ele>
        <time>2022-07-10T17:38:26.371Z</time>
      </trkpt>
      <trkpt lat="46.31599" lon="3.1348">
        <ele>432.873189</ele>
        <time>2022-07-10T17:38:36.708Z</time>
      </trkpt>
      <trkpt lat="46.31711" lon="3.13431">
        <ele>435.794347</ele>
        <time>2022-07-10T17:39:07.227Z</time>
      </trkpt>
      <trkpt lat="46.31717" lon="3.13429">
        <ele>435.957302</ele>
        <time>2022-07-10T17:39:08.903Z</time>
      </trkpt>
      <trkpt lat="46.31764" lon="3.13416">
        <ele>437.161845</ele>
        <time>2022-07-10T17:39:20.999Z</time>
      </trkpt>
      <trkpt lat="46.31853" lon="3.13383">
        <ele>438.59324</ele>
        <time>2022-07-10T17:39:42.505Z</time>
      </trkpt>
      <trkpt lat="46.31888" lon="3.13377">
        <ele>438.716932</ele>
        <time>2022-07-10T17:39:50.198Z</time>
      </trkpt>
      <trkpt lat="46.32817" lon="3.13343">
        <ele>441.218933</ele>
        <time>2022-07-10T17:42:15.208Z</time>
      </trkpt>
      <trkpt lat="46.3283" lon="3.13343">
        <ele>441.174245</ele>
        <time>2022-07-10T17:42:16.813Z</time>
      </trkpt>
      <trkpt lat="46.32949" lon="3.13339">
        <ele>440.058422</ele>
        <time>2022-07-10T17:42:30.985Z</time>
      </trkpt>
      <trkpt lat="46.32976" lon="3.13338">
        <ele>439.63811</ele>
        <time>2022-07-10T17:42:34.071Z</time>
      </trkpt>
      <trkpt lat="46.33516" lon="3.13318">
        <ele>431.344983</ele>
        <time>2022-07-10T17:43:35.428Z</time>
      </trkpt>
      <trkpt lat="46.33801" lon="3.13307">
        <ele>429.008669</ele>
        <time>2022-07-10T17:44:10.854Z</time>
      </trkpt>
      <trkpt lat="46.34272" lon="3.13289">
        <ele>433.715585</ele>
        <time>2022-07-10T17:45:38.755Z</time>
      </trkpt>
      <trkpt lat="46.34656" lon="3.13274">
        <ele>442.663683</ele>
        <time>2022-07-10T17:47:17.341Z</time>
      </trkpt>
      <trkpt lat="46.35111" lon="3.13258">
        <ele>446.337881</ele>
        <time>2022-07-10T17:48:34.498Z</time>
      </trkpt>
      <trkpt lat="46.35238" lon="3.13253">
        <ele>448.037566</ele>
        <time>2022-07-10T17:49:02.364Z</time>
      </trkpt>
      <trkpt lat="46.35305" lon="3.13254">
        <ele>448.863856</ele>
        <time>2022-07-10T17:49:17.257Z</time>
      </trkpt>
      <trkpt lat="46.35337" lon="3.13267">
        <ele>449.279834</ele>
        <time>2022-07-10T17:49:24.059Z</time>
      </trkpt>
      <trkpt lat="46.35351" lon="3.13276">
        <ele>449.460822</ele>
        <time>2022-07-10T17:49:26.728Z</time>
      </trkpt>
      <trkpt lat="46.35357" lon="3.1328">
        <ele>449.545747</ele>
        <time>2022-07-10T17:49:27.984Z</time>
      </trkpt>
      <trkpt lat="46.3537" lon="3.13291">
        <ele>449.73913</ele>
        <time>2022-07-10T17:49:30.760Z</time>
      </trkpt>
      <trkpt lat="46.35393" lon="3.13307">
        <ele>450.056052</ele>
        <time>2022-07-10T17:49:34.840Z</time>
      </trkpt>
      <trkpt lat="46.35403" lon="3.13314">
        <ele>450.075488</ele>
        <time>2022-07-10T17:49:36.676Z</time>
      </trkpt>
      <trkpt lat="46.35433" lon="3.13337">
        <ele>449.627106</ele>
        <time>2022-07-10T17:49:42.323Z</time>
      </trkpt>
      <trkpt lat="46.35467" lon="3.13378">
        <ele>449.033977</ele>
        <time>2022-07-10T17:49:48.775Z</time>
      </trkpt>
      <trkpt lat="46.35508" lon="3.13442">
        <ele>448.237071</ele>
        <time>2022-07-10T17:49:55.388Z</time>
      </trkpt>
      <trkpt lat="46.35521" lon="3.13432">
        <ele>448.044936</ele>
        <time>2022-07-10T17:49:57.621Z</time>
      </trkpt>
      <trkpt lat="46.35533" lon="3.13421">
        <ele>447.859066</ele>
        <time>2022-07-10T17:49:59.649Z</time>
      </trkpt>
      <trkpt lat="46.35538" lon="3.13416">
        <ele>447.773718</ele>
        <time>2022-07-10T17:50:00.563Z</time>
      </trkpt>
      <trkpt lat="46.35549" lon="3.13408">
        <ele>447.179691</ele>
        <time>2022-07-10T17:50:02.394Z</time>
      </trkpt>
      <trkpt lat="46.35553" lon="3.13407">
        <ele>446.982982</ele>
        <time>2022-07-10T17:50:02.896Z</time>
      </trkpt>
      <trkpt lat="46.35562" lon="3.13409">
        <ele>446.441566</ele>
        <time>2022-07-10T17:50:04.254Z</time>
      </trkpt>
      <trkpt lat="46.35585" lon="3.134">
        <ele>445.100894</ele>
        <time>2022-07-10T17:50:07.592Z</time>
      </trkpt>
      <trkpt lat="46.35697" lon="3.13345">
        <ele>438.481272</ele>
        <time>2022-07-10T17:50:23.097Z</time>
      </trkpt>
      <trkpt lat="46.35834" lon="3.13214">
        <ele>425.539815</ele>
        <time>2022-07-10T17:50:43.563Z</time>
      </trkpt>
      <trkpt lat="46.35848" lon="3.13182">
        <ele>423.45539</ele>
        <time>2022-07-10T17:50:45.859Z</time>
      </trkpt>
      <trkpt lat="46.35865" lon="3.13164">
        <ele>422.325513</ele>
        <time>2022-07-10T17:50:47.722Z</time>
      </trkpt>
      <trkpt lat="46.35954" lon="3.13105">
        <ele>417.749055</ele>
        <time>2022-07-10T17:50:56.778Z</time>
      </trkpt>
      <trkpt lat="46.35999" lon="3.13079">
        <ele>415.478722</ele>
        <time>2022-07-10T17:51:01.657Z</time>
      </trkpt>
      <trkpt lat="46.36033" lon="3.13076">
        <ele>414.826246</ele>
        <time>2022-07-10T17:51:05.660Z</time>
      </trkpt>
      <trkpt lat="46.36038" lon="3.13076">
        <ele>414.869745</ele>
        <time>2022-07-10T17:51:06.324Z</time>
      </trkpt>
      <trkpt lat="46.36163" lon="3.13106">
        <ele>415.889078</ele>
        <time>2022-07-10T17:51:29.705Z</time>
      </trkpt>
      <trkpt lat="46.3632" lon="3.13143">
        <ele>420.060067</ele>
        <time>2022-07-10T17:52:13.937Z</time>
      </trkpt>
      <trkpt lat="46.3638" lon="3.13157">
        <ele>421.842988</ele>
        <time>2022-07-10T17:52:31.388Z</time>
      </trkpt>
      <trkpt lat="46.36649" lon="3.13223">
        <ele>426.547119</ele>
        <time>2022-07-10T17:53:34.042Z</time>
      </trkpt>
      <trkpt lat="46.36937" lon="3.13476">
        <ele>424.701142</ele>
        <time>2022-07-10T17:54:16.612Z</time>
      </trkpt>
      <trkpt lat="46.36965" lon="3.13501">
        <ele>424.248792</ele>
        <time>2022-07-10T17:54:20.322Z</time>
      </trkpt>
      <trkpt lat="46.37381" lon="3.13868">
        <ele>414.666287</ele>
        <time>2022-07-10T17:55:13.681Z</time>
      </trkpt>
      <trkpt lat="46.37442" lon="3.13922">
        <ele>413.165554</ele>
        <time>2022-07-10T17:55:21.516Z</time>
      </trkpt>
      <trkpt lat="46.37495" lon="3.13968">
        <ele>411.735197</ele>
        <time>2022-07-10T17:55:28.208Z</time>
      </trkpt>
      <trkpt lat="46.37533" lon="3.14013">
        <ele>410.211981</ele>
        <time>2022-07-10T17:55:33.359Z</time>
      </trkpt>
      <trkpt lat="46.3756" lon="3.14065">
        <ele>408.822016</ele>
        <time>2022-07-10T17:55:37.935Z</time>
      </trkpt>
      <trkpt lat="46.37594" lon="3.1416">
        <ele>406.514886</ele>
        <time>2022-07-10T17:55:45.291Z</time>
      </trkpt>
      <trkpt lat="46.37679" lon="3.14398">
        <ele>399.224793</ele>
        <time>2022-07-10T17:56:03.358Z</time>
      </trkpt>
      <trkpt lat="46.37703" lon="3.14445">
        <ele>397.680905</ele>
        <time>2022-07-10T17:56:07.299Z</time>
      </trkpt>
      <trkpt lat="46.37733" lon="3.14472">
        <ele>396.315826</ele>
        <time>2022-07-10T17:56:10.787Z</time>
      </trkpt>
      <trkpt lat="46.37942" lon="3.14587">
        <ele>387.049899</ele>
        <time>2022-07-10T17:56:32.797Z</time>
      </trkpt>
      <trkpt lat="46.37971" lon="3.14611">
        <ele>385.59538</ele>
        <time>2022-07-10T17:56:35.931Z</time>
      </trkpt>
      <trkpt lat="46.37997" lon="3.14657">
        <ele>383.486902</ele>
        <time>2022-07-10T17:56:39.707Z</time>
      </trkpt>
      <trkpt lat="46.38108" lon="3.14943">
        <ele>369.944357</ele>
        <time>2022-07-10T17:57:00.339Z</time>
      </trkpt>
      <trkpt lat="46.38123" lon="3.14998">
        <ele>367.594944</ele>
        <time>2022-07-10T17:57:04.101Z</time>
      </trkpt>
      <trkpt lat="46.38129" lon="3.15055">
        <ele>365.293271</ele>
        <time>2022-07-10T17:57:07.805Z</time>
      </trkpt>
      <trkpt lat="46.38132" lon="3.15205">
        <ele>359.825561</ele>
        <time>2022-07-10T17:57:17.568Z</time>
      </trkpt>
      <trkpt lat="46.38121" lon="3.15379">
        <ele>353.958348</ele>
        <time>2022-07-10T17:57:28.894Z</time>
      </trkpt>
      <trkpt lat="46.3813" lon="3.15441">
        <ele>352.54838</ele>
        <time>2022-07-10T17:57:33.044Z</time>
      </trkpt>
      <trkpt lat="46.38147" lon="3.15485">
        <ele>351.445361</ele>
        <time>2022-07-10T17:57:36.424Z</time>
      </trkpt>
      <trkpt lat="46.3816" lon="3.15501">
        <ele>350.891934</ele>
        <time>2022-07-10T17:57:38.178Z</time>
      </trkpt>
      <trkpt lat="46.38223" lon="3.15547">
        <ele>348.628299</ele>
        <time>2022-07-10T17:57:45.864Z</time>
      </trkpt>
      <trkpt lat="46.38226" lon="3.1555">
        <ele>348.556294</ele>
        <time>2022-07-10T17:57:46.337Z</time>
      </trkpt>
      <trkpt lat="46.38242" lon="3.15561">
        <ele>348.736701</ele>
        <time>2022-07-10T17:57:48.455Z</time>
      </trkpt>
      <trkpt lat="46.38264" lon="3.15575">
        <ele>348.986162</ele>
        <time>2022-07-10T17:57:52.092Z</time>
      </trkpt>
      <trkpt lat="46.3829" lon="3.15606">
        <ele>349.32837</ele>
        <time>2022-07-10T17:57:57.330Z</time>
      </trkpt>
      <trkpt lat="46.38343" lon="3.15732">
        <ele>350.374935</ele>
        <time>2022-07-10T17:58:20.416Z</time>
      </trkpt>
      <trkpt lat="46.38403" lon="3.15884">
        <ele>354.179914</ele>
        <time>2022-07-10T17:58:55.181Z</time>
      </trkpt>
      <trkpt lat="46.38421" lon="3.15929">
        <ele>355.331232</ele>
        <time>2022-07-10T17:59:05.531Z</time>
      </trkpt>
      <trkpt lat="46.3845" lon="3.15977">
        <ele>356.5216</ele>
        <time>2022-07-10T17:59:17.717Z</time>
      </trkpt>
      <trkpt lat="46.3856" lon="3.16108">
        <ele>359.583338</ele>
        <time>2022-07-10T17:59:51.527Z</time>
      </trkpt>
      <trkpt lat="46.38589" lon="3.16127">
        <ele>360.008023</ele>
        <time>2022-07-10T17:59:57.407Z</time>
      </trkpt>
      <trkpt lat="46.38658" lon="3.1614">
        <ele>360.140201</ele>
        <time>2022-07-10T18:00:08.888Z</time>
      </trkpt>
      <trkpt lat="46.38739" lon="3.16157">
        <ele>360.293149</ele>
        <time>2022-07-10T18:00:20.322Z</time>
      </trkpt>
      <trkpt lat="46.38778" lon="3.16156">
        <ele>360.069466</ele>
        <time>2022-07-10T18:00:25.541Z</time>
      </trkpt>
      <trkpt lat="46.38795" lon="3.16146">
        <ele>359.869295</ele>
        <time>2022-07-10T18:00:27.930Z</time>
      </trkpt>
      <trkpt lat="46.3883" lon="3.16105">
        <ele>359.388357</ele>
        <time>2022-07-10T18:00:33.422Z</time>
      </trkpt>
      <trkpt lat="46.38847" lon="3.16096">
        <ele>359.202077</ele>
        <time>2022-07-10T18:00:35.535Z</time>
      </trkpt>
      <trkpt lat="46.3888" lon="3.16099">
        <ele>358.846622</ele>
        <time>2022-07-10T18:00:39.496Z</time>
      </trkpt>
      <trkpt lat="46.38896" lon="3.16109">
        <ele>358.661523</ele>
        <time>2022-07-10T18:00:41.510Z</time>
      </trkpt>
      <trkpt lat="46.38912" lon="3.16132">
        <ele>358.421391</ele>
        <time>2022-07-10T18:00:44.107Z</time>
      </trkpt>
      <trkpt lat="46.38953" lon="3.16268">
        <ele>356.564401</ele>
        <time>2022-07-10T18:00:55.590Z</time>
      </trkpt>
      <trkpt lat="46.38973" lon="3.1629">
        <ele>356.122297</ele>
        <time>2022-07-10T18:00:58.230Z</time>
      </trkpt>
      <trkpt lat="46.38999" lon="3.16296">
        <ele>355.642653</ele>
        <time>2022-07-10T18:01:01.103Z</time>
      </trkpt>
      <trkpt lat="46.39053" lon="3.16277">
        <ele>354.765502</ele>
        <time>2022-07-10T18:01:07.291Z</time>
      </trkpt>
      <trkpt lat="46.3911" lon="3.16237">
        <ele>353.924555</ele>
        <time>2022-07-10T18:01:14.626Z</time>
      </trkpt>
      <trkpt lat="46.39131" lon="3.16228">
        <ele>353.638914</ele>
        <time>2022-07-10T18:01:17.200Z</time>
      </trkpt>
      <trkpt lat="46.3915" lon="3.1623">
        <ele>353.387421</ele>
        <time>2022-07-10T18:01:19.536Z</time>
      </trkpt>
      <trkpt lat="46.39237" lon="3.16291">
        <ele>352.240068</ele>
        <time>2022-07-10T18:01:31.851Z</time>
      </trkpt>
      <trkpt lat="46.39303" lon="3.16326">
        <ele>351.492704</ele>
        <time>2022-07-10T18:01:40.402Z</time>
      </trkpt>
      <trkpt lat="46.39334" lon="3.16321">
        <ele>351.157545</ele>
        <time>2022-07-10T18:01:44.049Z</time>
      </trkpt>
      <trkpt lat="46.39365" lon="3.16284">
        <ele>350.80112</ele>
        <time>2022-07-10T18:01:48.673Z</time>
      </trkpt>
      <trkpt lat="46.39387" lon="3.1628">
        <ele>350.708533</ele>
        <time>2022-07-10T18:01:51.239Z</time>
      </trkpt>
      <trkpt lat="46.39396" lon="3.16289">
        <ele>350.664384</ele>
        <time>2022-07-10T18:01:52.446Z</time>
      </trkpt>
      <trkpt lat="46.3945" lon="3.16375">
        <ele>350.325826</ele>
        <time>2022-07-10T18:02:03.236Z</time>
      </trkpt>
      <trkpt lat="46.39465" lon="3.16389">
        <ele>350.250878</ele>
        <time>2022-07-10T18:02:06.090Z</time>
      </trkpt>
      <trkpt lat="46.39507" lon="3.16408">
        <ele>350.120199</ele>
        <time>2022-07-10T18:02:12.909Z</time>
      </trkpt>
      <trkpt lat="46.39519" lon="3.16427">
        <ele>350.217319</ele>
        <time>2022-07-10T18:02:16.014Z</time>
      </trkpt>
      <trkpt lat="46.39562" lon="3.16519">
        <ele>350.631801</ele>
        <time>2022-07-10T18:02:29.859Z</time>
      </trkpt>
      <trkpt lat="46.39589" lon="3.16544">
        <ele>350.810087</ele>
        <time>2022-07-10T18:02:36.349Z</time>
      </trkpt>
      <trkpt lat="46.39944" lon="3.16691">
        <ele>351.123174</ele>
        <time>2022-07-10T18:03:31.775Z</time>
      </trkpt>
      <trkpt lat="46.4009" lon="3.16786">
        <ele>350.644034</ele>
        <time>2022-07-10T18:03:53.270Z</time>
      </trkpt>
      <trkpt lat="46.40197" lon="3.16857">
        <ele>350.959117</ele>
        <time>2022-07-10T18:04:09.405Z</time>
      </trkpt>
      <trkpt lat="46.40252" lon="3.16878">
        <ele>351.46359</ele>
        <time>2022-07-10T18:04:18.715Z</time>
      </trkpt>
      <trkpt lat="46.40287" lon="3.16871">
        <ele>351.78143</ele>
        <time>2022-07-10T18:04:26.404Z</time>
      </trkpt>
      <trkpt lat="46.40372" lon="3.16838">
        <ele>354.15962</ele>
        <time>2022-07-10T18:04:49.111Z</time>
      </trkpt>
      <trkpt lat="46.40404" lon="3.16941">
        <ele>356.919516</ele>
        <time>2022-07-10T18:05:12.995Z</time>
      </trkpt>
      <trkpt lat="46.40414" lon="3.16999">
        <ele>358.394657</ele>
        <time>2022-07-10T18:05:26.099Z</time>
      </trkpt>
      <trkpt lat="46.40409" lon="3.17042">
        <ele>359.805198</ele>
        <time>2022-07-10T18:05:35.826Z</time>
      </trkpt>
      <trkpt lat="46.40371" lon="3.17121">
        <ele>362.948978</ele>
        <time>2022-07-10T18:05:57.947Z</time>
      </trkpt>
      <trkpt lat="46.40353" lon="3.17172">
        <ele>364.796496</ele>
        <time>2022-07-10T18:06:10.845Z</time>
      </trkpt>
      <trkpt lat="46.40357" lon="3.17226">
        <ele>366.545812</ele>
        <time>2022-07-10T18:06:24.163Z</time>
      </trkpt>
      <trkpt lat="46.40359" lon="3.17236">
        <ele>366.877362</ele>
        <time>2022-07-10T18:06:26.750Z</time>
      </trkpt>
      <trkpt lat="46.40373" lon="3.1729">
        <ele>368.768922</ele>
        <time>2022-07-10T18:06:41.481Z</time>
      </trkpt>
      <trkpt lat="46.40388" lon="3.17314">
        <ele>369.836111</ele>
        <time>2022-07-10T18:06:49.571Z</time>
      </trkpt>
      <trkpt lat="46.40412" lon="3.17341">
        <ele>371.255292</ele>
        <time>2022-07-10T18:06:59.966Z</time>
      </trkpt>
      <trkpt lat="46.40434" lon="3.1737">
        <ele>372.683115</ele>
        <time>2022-07-10T18:07:10.487Z</time>
      </trkpt>
      <trkpt lat="46.40455" lon="3.17429">
        <ele>374.836386</ele>
        <time>2022-07-10T18:07:25.342Z</time>
      </trkpt>
      <trkpt lat="46.40477" lon="3.17427">
        <ele>375.568258</ele>
        <time>2022-07-10T18:07:32.356Z</time>
      </trkpt>
      <trkpt lat="46.40498" lon="3.17413">
        <ele>375.961678</ele>
        <time>2022-07-10T18:07:38.959Z</time>
      </trkpt>
      <trkpt lat="46.40508" lon="3.17399">
        <ele>376.202357</ele>
        <time>2022-07-10T18:07:42.915Z</time>
      </trkpt>
      <trkpt lat="46.40581" lon="3.17252">
        <ele>378.344366</ele>
        <time>2022-07-10T18:08:07.102Z</time>
      </trkpt>
      <trkpt lat="46.40647" lon="3.17145">
        <ele>377.672042</ele>
        <time>2022-07-10T18:08:20.469Z</time>
      </trkpt>
      <trkpt lat="46.40728" lon="3.17024">
        <ele>376.341868</ele>
        <time>2022-07-10T18:08:33.676Z</time>
      </trkpt>
      <trkpt lat="46.4086" lon="3.16855">
        <ele>373.187655</ele>
        <time>2022-07-10T18:08:52.639Z</time>
      </trkpt>
      <trkpt lat="46.4096" lon="3.16746">
        <ele>372.539764</ele>
        <time>2022-07-10T18:09:08.645Z</time>
      </trkpt>
      <trkpt lat="46.40992" lon="3.16722">
        <ele>372.491655</ele>
        <time>2022-07-10T18:09:15.371Z</time>
      </trkpt>
      <trkpt lat="46.41295" lon="3.16558">
        <ele>379.09161</ele>
        <time>2022-07-10T18:10:31.804Z</time>
      </trkpt>
      <trkpt lat="46.41329" lon="3.16549">
        <ele>379.829434</ele>
        <time>2022-07-10T18:10:39.886Z</time>
      </trkpt>
      <trkpt lat="46.41356" lon="3.16552">
        <ele>380.318621</ele>
        <time>2022-07-10T18:10:46.056Z</time>
      </trkpt>
      <trkpt lat="46.41585" lon="3.16613">
        <ele>384.76826</ele>
        <time>2022-07-10T18:11:37.019Z</time>
      </trkpt>
      <trkpt lat="46.41635" lon="3.1662">
        <ele>385.816304</ele>
        <time>2022-07-10T18:11:48.399Z</time>
      </trkpt>
      <trkpt lat="46.42156" lon="3.16609">
        <ele>399.43801</ele>
        <time>2022-07-10T18:14:01.569Z</time>
      </trkpt>
      <trkpt lat="46.42612" lon="3.16405">
        <ele>411.594522</ele>
        <time>2022-07-10T18:16:00.685Z</time>
      </trkpt>
      <trkpt lat="46.42832" lon="3.16153">
        <ele>418.118309</ele>
        <time>2022-07-10T18:17:10.916Z</time>
      </trkpt>
      <trkpt lat="46.42946" lon="3.16072">
        <ele>418.28665</ele>
        <time>2022-07-10T18:17:33.121Z</time>
      </trkpt>
      <trkpt lat="46.42989" lon="3.16061">
        <ele>418.113634</ele>
        <time>2022-07-10T18:17:38.477Z</time>
      </trkpt>
      <trkpt lat="46.43235" lon="3.16101">
        <ele>412.062847</ele>
        <time>2022-07-10T18:18:03.975Z</time>
      </trkpt>
      <trkpt lat="46.43334" lon="3.16118">
        <ele>409.609755</ele>
        <time>2022-07-10T18:18:14.245Z</time>
      </trkpt>
      <trkpt lat="46.43413" lon="3.16127">
        <ele>408.432718</ele>
        <time>2022-07-10T18:18:23.187Z</time>
      </trkpt>
      <trkpt lat="46.43482" lon="3.16126">
        <ele>408.485932</ele>
        <time>2022-07-10T18:18:32.343Z</time>
      </trkpt>
      <trkpt lat="46.43616" lon="3.16122">
        <ele>409.814981</ele>
        <time>2022-07-10T18:18:59.748Z</time>
      </trkpt>
      <trkpt lat="46.43672" lon="3.16119">
        <ele>411.150745</ele>
        <time>2022-07-10T18:19:14.125Z</time>
      </trkpt>
      <trkpt lat="46.43711" lon="3.16109">
        <ele>412.090959</ele>
        <time>2022-07-10T18:19:24.421Z</time>
      </trkpt>
      <trkpt lat="46.43794" lon="3.16076">
        <ele>414.122846</ele>
        <time>2022-07-10T18:19:47.700Z</time>
      </trkpt>
      <trkpt lat="46.43879" lon="3.16046">
        <ele>416.153431</ele>
        <time>2022-07-10T18:20:08.637Z</time>
      </trkpt>
      <trkpt lat="46.44003" lon="3.16044">
        <ele>417.949872</ele>
        <time>2022-07-10T18:20:34.685Z</time>
      </trkpt>
      <trkpt lat="46.44033" lon="3.16055">
        <ele>418.286333</ele>
        <time>2022-07-10T18:20:40.344Z</time>
      </trkpt>
      <trkpt lat="46.44039" lon="3.16065">
        <ele>418.391248</ele>
        <time>2022-07-10T18:20:42.039Z</time>
      </trkpt>
      <trkpt lat="46.4404" lon="3.16067">
        <ele>418.408898</ele>
        <time>2022-07-10T18:20:42.322Z</time>
      </trkpt>
      <trkpt lat="46.4405" lon="3.16071">
        <ele>418.52247</ele>
        <time>2022-07-10T18:20:44.099Z</time>
      </trkpt>
      <trkpt lat="46.4406" lon="3.16066">
        <ele>418.631424</ele>
        <time>2022-07-10T18:20:45.807Z</time>
      </trkpt>
      <trkpt lat="46.44066" lon="3.16055">
        <ele>418.740738</ele>
        <time>2022-07-10T18:20:47.509Z</time>
      </trkpt>
      <trkpt lat="46.44089" lon="3.16046">
        <ele>418.989935</ele>
        <time>2022-07-10T18:20:51.377Z</time>
      </trkpt>
      <trkpt lat="46.44105" lon="3.16046">
        <ele>419.126917</ele>
        <time>2022-07-10T18:20:54.007Z</time>
      </trkpt>
      <trkpt lat="46.44148" lon="3.16046">
        <ele>419.495085</ele>
        <time>2022-07-10T18:21:00.813Z</time>
      </trkpt>
      <trkpt lat="46.44163" lon="3.16056">
        <ele>419.637441</ele>
        <time>2022-07-10T18:21:03.450Z</time>
      </trkpt>
      <trkpt lat="46.44165" lon="3.16062">
        <ele>419.677294</ele>
        <time>2022-07-10T18:21:04.270Z</time>
      </trkpt>
      <trkpt lat="46.44176" lon="3.16073">
        <ele>419.792677</ele>
        <time>2022-07-10T18:21:06.661Z</time>
      </trkpt>
      <trkpt lat="46.44189" lon="3.1607">
        <ele>419.905956</ele>
        <time>2022-07-10T18:21:08.932Z</time>
      </trkpt>
      <trkpt lat="46.44197" lon="3.16059">
        <ele>419.998515</ele>
        <time>2022-07-10T18:21:11.060Z</time>
      </trkpt>
      <trkpt lat="46.44228" lon="3.1605">
        <ele>420.266175</ele>
        <time>2022-07-10T18:21:17.290Z</time>
      </trkpt>
      <trkpt lat="46.44294" lon="3.1605">
        <ele>421.34732</ele>
        <time>2022-07-10T18:21:31.247Z</time>
      </trkpt>
      <trkpt lat="46.44389" lon="3.16058">
        <ele>423.433689</ele>
        <time>2022-07-10T18:21:54.326Z</time>
      </trkpt>
      <trkpt lat="46.4439" lon="3.16064">
        <ele>423.523873</ele>
        <time>2022-07-10T18:21:55.222Z</time>
      </trkpt>
      <trkpt lat="46.44398" lon="3.1607">
        <ele>423.726861</ele>
        <time>2022-07-10T18:21:57.799Z</time>
      </trkpt>
      <trkpt lat="46.44454" lon="3.16116">
        <ele>424.80668</ele>
        <time>2022-07-10T18:22:14.152Z</time>
      </trkpt>
      <trkpt lat="46.4446" lon="3.16116">
        <ele>424.889254</ele>
        <time>2022-07-10T18:22:16.079Z</time>
      </trkpt>
      <trkpt lat="46.44487" lon="3.16111">
        <ele>425.21065</ele>
        <time>2022-07-10T18:22:22.059Z</time>
      </trkpt>
      <trkpt lat="46.44559" lon="3.16097">
        <ele>426.097949</ele>
        <time>2022-07-10T18:22:35.969Z</time>
      </trkpt>
      <trkpt lat="46.44614" lon="3.16071">
        <ele>426.345887</ele>
        <time>2022-07-10T18:22:44.604Z</time>
      </trkpt>
      <trkpt lat="46.44618" lon="3.16081">
        <ele>426.21754</ele>
        <time>2022-07-10T18:22:45.600Z</time>
      </trkpt>
      <trkpt lat="46.44668" lon="3.16115">
        <ele>425.320528</ele>
        <time>2022-07-10T18:22:52.234Z</time>
      </trkpt>
      <trkpt lat="46.44688" lon="3.16129">
        <ele>424.954662</ele>
        <time>2022-07-10T18:22:54.771Z</time>
      </trkpt>
      <trkpt lat="46.44798" lon="3.16204">
        <ele>422.534091</ele>
        <time>2022-07-10T18:23:07.537Z</time>
      </trkpt>
      <trkpt lat="46.45038" lon="3.16307">
        <ele>416.391104</ele>
        <time>2022-07-10T18:23:33.526Z</time>
      </trkpt>
      <trkpt lat="46.45066" lon="3.16325">
        <ele>415.71185</ele>
        <time>2022-07-10T18:23:36.998Z</time>
      </trkpt>
      <trkpt lat="46.4509" lon="3.16351">
        <ele>415.046379</ele>
        <time>2022-07-10T18:23:40.514Z</time>
      </trkpt>
      <trkpt lat="46.45145" lon="3.16427">
        <ele>414.255539</ele>
        <time>2022-07-10T18:23:50.030Z</time>
      </trkpt>
      <trkpt lat="46.45263" lon="3.16528">
        <ele>412.561281</ele>
        <time>2022-07-10T18:24:07.428Z</time>
      </trkpt>
      <trkpt lat="46.4541" lon="3.16599">
        <ele>408.862098</ele>
        <time>2022-07-10T18:24:23.778Z</time>
      </trkpt>
      <trkpt lat="46.45573" lon="3.167">
        <ele>401.072199</ele>
        <time>2022-07-10T18:24:40.640Z</time>
      </trkpt>
      <trkpt lat="46.45925" lon="3.16798">
        <ele>387.225191</ele>
        <time>2022-07-10T18:25:15.603Z</time>
      </trkpt>
      <trkpt lat="46.46045" lon="3.16823">
        <ele>386.393274</ele>
        <time>2022-07-10T18:25:30.729Z</time>
      </trkpt>
      <trkpt lat="46.46203" lon="3.16796">
        <ele>386.93056</ele>
        <time>2022-07-10T18:26:00.096Z</time>
      </trkpt>
      <trkpt lat="46.46408" lon="3.16747">
        <ele>388.603157</ele>
        <time>2022-07-10T18:26:39.029Z</time>
      </trkpt>
      <trkpt lat="46.46506" lon="3.16782">
        <ele>388.202213</ele>
        <time>2022-07-10T18:26:55.664Z</time>
      </trkpt>
      <trkpt lat="46.46614" lon="3.16788">
        <ele>386.436164</ele>
        <time>2022-07-10T18:27:07.942Z</time>
      </trkpt>
      <trkpt lat="46.46831" lon="3.16801">
        <ele>376.824143</ele>
        <time>2022-07-10T18:27:28.461Z</time>
      </trkpt>
      <trkpt lat="46.47061" lon="3.16736">
        <ele>365.121562</ele>
        <time>2022-07-10T18:27:50.128Z</time>
      </trkpt>
      <trkpt lat="46.47163" lon="3.16764">
        <ele>361.733749</ele>
        <time>2022-07-10T18:28:01.266Z</time>
      </trkpt>
      <trkpt lat="46.47433" lon="3.16773">
        <ele>360.854222</ele>
        <time>2022-07-10T18:28:43.920Z</time>
      </trkpt>
      <trkpt lat="46.47535" lon="3.16757">
        <ele>360.05717</ele>
        <time>2022-07-10T18:28:56.338Z</time>
      </trkpt>
      <trkpt lat="46.4781" lon="3.16684">
        <ele>352.792379</ele>
        <time>2022-07-10T18:29:25.114Z</time>
      </trkpt>
      <trkpt lat="46.48113" lon="3.1652">
        <ele>345.762747</ele>
        <time>2022-07-10T18:30:00.670Z</time>
      </trkpt>
      <trkpt lat="46.48252" lon="3.16474">
        <ele>342.515132</ele>
        <time>2022-07-10T18:30:15.955Z</time>
      </trkpt>
      <trkpt lat="46.4833" lon="3.16455">
        <ele>340.523204</ele>
        <time>2022-07-10T18:30:24.292Z</time>
      </trkpt>
      <trkpt lat="46.48417" lon="3.16452">
        <ele>338.425395</ele>
        <time>2022-07-10T18:30:33.326Z</time>
      </trkpt>
      <trkpt lat="46.48427" lon="3.1645">
        <ele>338.211543</ele>
        <time>2022-07-10T18:30:34.416Z</time>
      </trkpt>
      <trkpt lat="46.48569" lon="3.16462">
        <ele>335.305965</ele>
        <time>2022-07-10T18:30:49.854Z</time>
      </trkpt>
      <trkpt lat="46.48954" lon="3.1655">
        <ele>330.640867</ele>
        <time>2022-07-10T18:31:37.585Z</time>
      </trkpt>
      <trkpt lat="46.48991" lon="3.1655">
        <ele>329.706683</ele>
        <time>2022-07-10T18:31:41.657Z</time>
      </trkpt>
      <trkpt lat="46.49273" lon="3.1651">
        <ele>321.616133</ele>
        <time>2022-07-10T18:32:10.593Z</time>
      </trkpt>
      <trkpt lat="46.49419" lon="3.16543">
        <ele>317.249858</ele>
        <time>2022-07-10T18:32:25.675Z</time>
      </trkpt>
      <trkpt lat="46.49465" lon="3.16571">
        <ele>315.784649</ele>
        <time>2022-07-10T18:32:30.877Z</time>
      </trkpt>
      <trkpt lat="46.49506" lon="3.16605">
        <ele>314.78199</ele>
        <time>2022-07-10T18:32:35.835Z</time>
      </trkpt>
      <trkpt lat="46.49534" lon="3.16637">
        <ele>314.036601</ele>
        <time>2022-07-10T18:32:39.629Z</time>
      </trkpt>
      <trkpt lat="46.49983" lon="3.17231">
        <ele>301.461964</ele>
        <time>2022-07-10T18:33:46.143Z</time>
      </trkpt>
      <trkpt lat="46.50053" lon="3.17314">
        <ele>299.825146</ele>
        <time>2022-07-10T18:33:56.464Z</time>
      </trkpt>
      <trkpt lat="46.50131" lon="3.17395">
        <ele>298.145206</ele>
        <time>2022-07-10T18:34:07.240Z</time>
      </trkpt>
      <trkpt lat="46.50213" lon="3.17465">
        <ele>295.586204</ele>
        <time>2022-07-10T18:34:17.665Z</time>
      </trkpt>
      <trkpt lat="46.50396" lon="3.17568">
        <ele>287.947989</ele>
        <time>2022-07-10T18:34:37.055Z</time>
      </trkpt>
      <trkpt lat="46.5055" lon="3.17715">
        <ele>279.074425</ele>
        <time>2022-07-10T18:34:53.883Z</time>
      </trkpt>
      <trkpt lat="46.50618" lon="3.17788">
        <ele>275.177205</ele>
        <time>2022-07-10T18:35:02.180Z</time>
      </trkpt>
      <trkpt lat="46.50796" lon="3.18011">
        <ele>273.015974</ele>
        <time>2022-07-10T18:35:33.262Z</time>
      </trkpt>
      <trkpt lat="46.50907" lon="3.18127">
        <ele>272.054833</ele>
        <time>2022-07-10T18:35:51.022Z</time>
      </trkpt>
      <trkpt lat="46.50938" lon="3.18191">
        <ele>271.368813</ele>
        <time>2022-07-10T18:35:57.221Z</time>
      </trkpt>
      <trkpt lat="46.51031" lon="3.18396">
        <ele>269.910287</ele>
        <time>2022-07-10T18:36:16.892Z</time>
      </trkpt>
      <trkpt lat="46.51157" lon="3.18578">
        <ele>269.85467</ele>
        <time>2022-07-10T18:36:48.737Z</time>
      </trkpt>
      <trkpt lat="46.51271" lon="3.18642">
        <ele>269.503968</ele>
        <time>2022-07-10T18:37:05.367Z</time>
      </trkpt>
      <trkpt lat="46.5136" lon="3.18764">
        <ele>267.849449</ele>
        <time>2022-07-10T18:37:18.690Z</time>
      </trkpt>
      <trkpt lat="46.51381" lon="3.18806">
        <ele>267.342066</ele>
        <time>2022-07-10T18:37:22.762Z</time>
      </trkpt>
      <trkpt lat="46.514" lon="3.18831">
        <ele>266.966409</ele>
        <time>2022-07-10T18:37:26.023Z</time>
      </trkpt>
      <trkpt lat="46.51419" lon="3.18843">
        <ele>266.977293</ele>
        <time>2022-07-10T18:37:28.541Z</time>
      </trkpt>
      <trkpt lat="46.51462" lon="3.18828">
        <ele>267.245944</ele>
        <time>2022-07-10T18:37:35.589Z</time>
      </trkpt>
      <trkpt lat="46.51584" lon="3.18821">
        <ele>267.970653</ele>
        <time>2022-07-10T18:37:59.360Z</time>
      </trkpt>
      <trkpt lat="46.51647" lon="3.18855">
        <ele>267.992372</ele>
        <time>2022-07-10T18:38:12.340Z</time>
      </trkpt>
      <trkpt lat="46.51758" lon="3.18897">
        <ele>267.977682</ele>
        <time>2022-07-10T18:38:27.511Z</time>
      </trkpt>
      <trkpt lat="46.5182" lon="3.18899">
        <ele>267.133719</ele>
        <time>2022-07-10T18:38:34.710Z</time>
      </trkpt>
      <trkpt lat="46.51902" lon="3.18917">
        <ele>266.010578</ele>
        <time>2022-07-10T18:38:44.293Z</time>
      </trkpt>
      <trkpt lat="46.52018" lon="3.18985">
        <ele>263.87313</ele>
        <time>2022-07-10T18:38:58.567Z</time>
      </trkpt>
      <trkpt lat="46.52201" lon="3.19065">
        <ele>260.018812</ele>
        <time>2022-07-10T18:39:19.434Z</time>
      </trkpt>
      <trkpt lat="46.52512" lon="3.19275">
        <ele>251.484544</ele>
        <time>2022-07-10T18:39:56.271Z</time>
      </trkpt>
      <trkpt lat="46.52608" lon="3.19289">
        <ele>248.305313</ele>
        <time>2022-07-10T18:40:05.784Z</time>
      </trkpt>
      <trkpt lat="46.52675" lon="3.19265">
        <ele>244.910013</ele>
        <time>2022-07-10T18:40:12.201Z</time>
      </trkpt>
      <trkpt lat="46.52746" lon="3.19248">
        <ele>241.31273</ele>
        <time>2022-07-10T18:40:18.941Z</time>
      </trkpt>
      <trkpt lat="46.52775" lon="3.19247">
        <ele>239.86732</ele>
        <time>2022-07-10T18:40:21.632Z</time>
      </trkpt>
      <trkpt lat="46.52866" lon="3.19254">
        <ele>236.737859</ele>
        <time>2022-07-10T18:40:30.332Z</time>
      </trkpt>
      <trkpt lat="46.52952" lon="3.19233">
        <ele>233.832152</ele>
        <time>2022-07-10T18:40:39.620Z</time>
      </trkpt>
      <trkpt lat="46.53058" lon="3.19229">
        <ele>233.867156</ele>
        <time>2022-07-10T18:40:53.504Z</time>
      </trkpt>
      <trkpt lat="46.53069" lon="3.19228">
        <ele>233.893398</ele>
        <time>2022-07-10T18:40:55.366Z</time>
      </trkpt>
      <trkpt lat="46.53089" lon="3.19228">
        <ele>233.943661</ele>
        <time>2022-07-10T18:40:59.161Z</time>
      </trkpt>
      <trkpt lat="46.53124" lon="3.19226">
        <ele>234.028068</ele>
        <time>2022-07-10T18:41:06.481Z</time>
      </trkpt>
      <trkpt lat="46.53129" lon="3.19226">
        <ele>234.040576</ele>
        <time>2022-07-10T18:41:07.612Z</time>
      </trkpt>
      <trkpt lat="46.53208" lon="3.19221">
        <ele>236.338485</ele>
        <time>2022-07-10T18:41:27.239Z</time>
      </trkpt>
      <trkpt lat="46.53268" lon="3.19216">
        <ele>238.328247</ele>
        <time>2022-07-10T18:41:44.938Z</time>
      </trkpt>
      <trkpt lat="46.53325" lon="3.1923">
        <ele>240.403292</ele>
        <time>2022-07-10T18:42:02.618Z</time>
      </trkpt>
      <trkpt lat="46.53343" lon="3.19233">
        <ele>241.427342</ele>
        <time>2022-07-10T18:42:08.734Z</time>
      </trkpt>
      <trkpt lat="46.53385" lon="3.19248">
        <ele>243.784323</ele>
        <time>2022-07-10T18:42:23.795Z</time>
      </trkpt>
      <trkpt lat="46.5341" lon="3.19253">
        <ele>245.19523</ele>
        <time>2022-07-10T18:42:33.042Z</time>
      </trkpt>
      <trkpt lat="46.53418" lon="3.19253">
        <ele>245.655636</ele>
        <time>2022-07-10T18:42:36.135Z</time>
      </trkpt>
      <trkpt lat="46.53452" lon="3.19253">
        <ele>247.524454</ele>
        <time>2022-07-10T18:42:48.958Z</time>
      </trkpt>
      <trkpt lat="46.53478" lon="3.19255">
        <ele>248.978463</ele>
        <time>2022-07-10T18:42:59.509Z</time>
      </trkpt>
      <trkpt lat="46.5351" lon="3.19238">
        <ele>251.21634</ele>
        <time>2022-07-10T18:43:15.713Z</time>
      </trkpt>
      <trkpt lat="46.53555" lon="3.19215">
        <ele>254.949607</ele>
        <time>2022-07-10T18:43:39.394Z</time>
      </trkpt>
      <trkpt lat="46.5358" lon="3.19177">
        <ele>257.722303</ele>
        <time>2022-07-10T18:43:57.979Z</time>
      </trkpt>
      <trkpt lat="46.53597" lon="3.19139">
        <ele>260.090661</ele>
        <time>2022-07-10T18:44:14.609Z</time>
      </trkpt>
      <trkpt lat="46.53615" lon="3.1911">
        <ele>262.169056</ele>
        <time>2022-07-10T18:44:29.332Z</time>
      </trkpt>
      <trkpt lat="46.53634" lon="3.19092">
        <ele>263.974428</ele>
        <time>2022-07-10T18:44:42.133Z</time>
      </trkpt>
      <trkpt lat="46.53687" lon="3.19059">
        <ele>267.827513</ele>
        <time>2022-07-10T18:45:12.393Z</time>
      </trkpt>
      <trkpt lat="46.53714" lon="3.19037">
        <ele>269.854909</ele>
        <time>2022-07-10T18:45:27.234Z</time>
      </trkpt>
      <trkpt lat="46.53722" lon="3.1904">
        <ele>270.437074</ele>
        <time>2022-07-10T18:45:31.503Z</time>
      </trkpt>
      <trkpt lat="46.53734" lon="3.1901">
        <ele>272.04612</ele>
        <time>2022-07-10T18:45:41.232Z</time>
      </trkpt>
      <trkpt lat="46.53766" lon="3.18965">
        <ele>275.040723</ele>
        <time>2022-07-10T18:45:58.085Z</time>
      </trkpt>
      <trkpt lat="46.53827" lon="3.18876">
        <ele>277.788098</ele>
        <time>2022-07-10T18:46:24.990Z</time>
      </trkpt>
      <trkpt lat="46.53838" lon="3.18861">
        <ele>278.175258</ele>
        <time>2022-07-10T18:46:28.970Z</time>
      </trkpt>
      <trkpt lat="46.53857" lon="3.18833">
        <ele>278.86624</ele>
        <time>2022-07-10T18:46:35.184Z</time>
      </trkpt>
      <trkpt lat="46.53876" lon="3.18807">
        <ele>279.537586</ele>
        <time>2022-07-10T18:46:40.480Z</time>
      </trkpt>
      <trkpt lat="46.53937" lon="3.18717">
        <ele>280.358267</ele>
        <time>2022-07-10T18:46:54.507Z</time>
      </trkpt>
      <trkpt lat="46.53973" lon="3.18669">
        <ele>280.200927</ele>
        <time>2022-07-10T18:47:00.961Z</time>
      </trkpt>
      <trkpt lat="46.53977" lon="3.18664">
        <ele>280.184466</ele>
        <time>2022-07-10T18:47:01.598Z</time>
      </trkpt>
      <trkpt lat="46.54008" lon="3.18627">
        <ele>280.052076</ele>
        <time>2022-07-10T18:47:06.693Z</time>
      </trkpt>
      <trkpt lat="46.54072" lon="3.18575">
        <ele>279.739428</ele>
        <time>2022-07-10T18:47:15.815Z</time>
      </trkpt>
      <trkpt lat="46.54161" lon="3.18503">
        <ele>279.190858</ele>
        <time>2022-07-10T18:47:29.415Z</time>
      </trkpt>
      <trkpt lat="46.54209" lon="3.18471">
        <ele>278.886607</ele>
        <time>2022-07-10T18:47:36.747Z</time>
      </trkpt>
      <trkpt lat="46.54304" lon="3.18434">
        <ele>278.184372</ele>
        <time>2022-07-10T18:47:49.562Z</time>
      </trkpt>
      <trkpt lat="46.54484" lon="3.18366">
        <ele>276.517372</ele>
        <time>2022-07-10T18:48:12.257Z</time>
      </trkpt>
      <trkpt lat="46.54552" lon="3.18357">
        <ele>275.849318</ele>
        <time>2022-07-10T18:48:20.440Z</time>
      </trkpt>
      <trkpt lat="46.54708" lon="3.18354">
        <ele>274.551071</ele>
        <time>2022-07-10T18:48:39.998Z</time>
      </trkpt>
      <trkpt lat="46.55221" lon="3.18397">
        <ele>270.721774</ele>
        <time>2022-07-10T18:49:46.141Z</time>
      </trkpt>
      <trkpt lat="46.55506" lon="3.18313">
        <ele>267.127115</ele>
        <time>2022-07-10T18:50:19.884Z</time>
      </trkpt>
      <trkpt lat="46.55539" lon="3.18294">
        <ele>266.752069</ele>
        <time>2022-07-10T18:50:24.175Z</time>
      </trkpt>
      <trkpt lat="46.55644" lon="3.18211">
        <ele>265.591483</ele>
        <time>2022-07-10T18:50:39.364Z</time>
      </trkpt>
      <trkpt lat="46.56105" lon="3.17834">
        <ele>261.656233</ele>
        <time>2022-07-10T18:51:46.269Z</time>
      </trkpt>
      <trkpt lat="46.56168" lon="3.1779">
        <ele>261.436108</ele>
        <time>2022-07-10T18:51:55.209Z</time>
      </trkpt>
      <trkpt lat="46.56767" lon="3.17525">
        <ele>261.567195</ele>
        <time>2022-07-10T18:53:30.474Z</time>
      </trkpt>
      <trkpt lat="46.569" lon="3.17336">
        <ele>260.761367</ele>
        <time>2022-07-10T18:53:55.381Z</time>
      </trkpt>
      <trkpt lat="46.57014" lon="3.17208">
        <ele>259.566773</ele>
        <time>2022-07-10T18:54:13.109Z</time>
      </trkpt>
      <trkpt lat="46.57371" lon="3.16973">
        <ele>256.942362</ele>
        <time>2022-07-10T18:55:03.316Z</time>
      </trkpt>
      <trkpt lat="46.5778" lon="3.16626">
        <ele>256.116052</ele>
        <time>2022-07-10T18:56:11.189Z</time>
      </trkpt>
      <trkpt lat="46.5782" lon="3.16592">
        <ele>256.053821</ele>
        <time>2022-07-10T18:56:17.848Z</time>
      </trkpt>
      <trkpt lat="46.58344" lon="3.16147">
        <ele>254.184504</ele>
        <time>2022-07-10T18:57:42.980Z</time>
      </trkpt>
      <trkpt lat="46.58352" lon="3.16154">
        <ele>254.082399</ele>
        <time>2022-07-10T18:57:44.087Z</time>
      </trkpt>
      <trkpt lat="46.58354" lon="3.16153">
        <ele>254.059706</ele>
        <time>2022-07-10T18:57:44.340Z</time>
      </trkpt>
      <trkpt lat="46.58357" lon="3.16142">
        <ele>253.973802</ele>
        <time>2022-07-10T18:57:45.293Z</time>
      </trkpt>
      <trkpt lat="46.58353" lon="3.16136">
        <ele>253.906858</ele>
        <time>2022-07-10T18:57:46.011Z</time>
      </trkpt>
      <trkpt lat="46.58367" lon="3.16099">
        <ele>253.581497</ele>
        <time>2022-07-10T18:57:49.467Z</time>
      </trkpt>
      <trkpt lat="46.58469" lon="3.16188">
        <ele>251.809575</ele>
        <time>2022-07-10T18:58:02.821Z</time>
      </trkpt>
      <trkpt lat="46.58586" lon="3.16285">
        <ele>249.107214</ele>
        <time>2022-07-10T18:58:17.585Z</time>
      </trkpt>
      <trkpt lat="46.58605" lon="3.163">
        <ele>248.563428</ele>
        <time>2022-07-10T18:58:19.883Z</time>
      </trkpt>
      <trkpt lat="46.58641" lon="3.16311">
        <ele>247.597791</ele>
        <time>2022-07-10T18:58:23.793Z</time>
      </trkpt>
      <trkpt lat="46.58711" lon="3.16287">
        <ele>245.752726</ele>
        <time>2022-07-10T18:58:31.253Z</time>
      </trkpt>
      <trkpt lat="46.58737" lon="3.16281">
        <ele>245.062848</ele>
        <time>2022-07-10T18:58:34.088Z</time>
      </trkpt>
      <trkpt lat="46.58782" lon="3.16279">
        <ele>243.71659</ele>
        <time>2022-07-10T18:58:38.668Z</time>
      </trkpt>
      <trkpt lat="46.58837" lon="3.16307">
        <ele>241.743341</ele>
        <time>2022-07-10T18:58:44.628Z</time>
      </trkpt>
      <trkpt lat="46.58866" lon="3.16333">
        <ele>240.605192</ele>
        <time>2022-07-10T18:58:47.967Z</time>
      </trkpt>
      <trkpt lat="46.58889" lon="3.16384">
        <ele>239.207048</ele>
        <time>2022-07-10T18:58:52.016Z</time>
      </trkpt>
      <trkpt lat="46.58908" lon="3.16409">
        <ele>238.512735</ele>
        <time>2022-07-10T18:58:54.569Z</time>
      </trkpt>
      <trkpt lat="46.58929" lon="3.16425">
        <ele>238.29402</ele>
        <time>2022-07-10T18:58:56.982Z</time>
      </trkpt>
      <trkpt lat="46.59049" lon="3.16479">
        <ele>237.089481</ele>
        <time>2022-07-10T18:59:12.365Z</time>
      </trkpt>
      <trkpt lat="46.59088" lon="3.16448">
        <ele>237.475286</ele>
        <time>2022-07-10T18:59:20.806Z</time>
      </trkpt>
      <trkpt lat="46.59197" lon="3.16331">
        <ele>241.52259</ele>
        <time>2022-07-10T19:00:00.520Z</time>
      </trkpt>
      <trkpt lat="46.59233" lon="3.16321">
        <ele>242.551604</ele>
        <time>2022-07-10T19:00:11.651Z</time>
      </trkpt>
      <trkpt lat="46.59304" lon="3.16333">
        <ele>244.322523</ele>
        <time>2022-07-10T19:00:31.382Z</time>
      </trkpt>
      <trkpt lat="46.59359" lon="3.16359">
        <ele>245.752178</ele>
        <time>2022-07-10T19:00:45.442Z</time>
      </trkpt>
      <trkpt lat="46.59464" lon="3.16384">
        <ele>246.926672</ele>
        <time>2022-07-10T19:01:05.651Z</time>
      </trkpt>
      <trkpt lat="46.59551" lon="3.16383">
        <ele>247.232371</ele>
        <time>2022-07-10T19:01:18.344Z</time>
      </trkpt>
      <trkpt lat="46.59707" lon="3.16433">
        <ele>246.520689</ele>
        <time>2022-07-10T19:01:39.536Z</time>
      </trkpt>
      <trkpt lat="46.59994" lon="3.16312">
        <ele>244.035549</ele>
        <time>2022-07-10T19:02:16.505Z</time>
      </trkpt>
      <trkpt lat="46.60023" lon="3.1632">
        <ele>243.806876</ele>
        <time>2022-07-10T19:02:20.488Z</time>
      </trkpt>
      <trkpt lat="46.60047" lon="3.1635">
        <ele>243.568246</ele>
        <time>2022-07-10T19:02:24.682Z</time>
      </trkpt>
      <trkpt lat="46.60062" lon="3.16358">
        <ele>243.450854</ele>
        <time>2022-07-10T19:02:26.675Z</time>
      </trkpt>
      <trkpt lat="46.60075" lon="3.16357">
        <ele>243.345095</ele>
        <time>2022-07-10T19:02:28.496Z</time>
      </trkpt>
      <trkpt lat="46.6009" lon="3.16347">
        <ele>243.215279</ele>
        <time>2022-07-10T19:02:30.527Z</time>
      </trkpt>
      <trkpt lat="46.60145" lon="3.16231">
        <ele>242.201007</ele>
        <time>2022-07-10T19:02:42.229Z</time>
      </trkpt>
      <trkpt lat="46.603" lon="3.15951">
        <ele>240.005764</ele>
        <time>2022-07-10T19:03:11.778Z</time>
      </trkpt>
      <trkpt lat="46.60353" lon="3.15856">
        <ele>240.62852</ele>
        <time>2022-07-10T19:03:27.580Z</time>
      </trkpt>
      <trkpt lat="46.60364" lon="3.15844">
        <ele>240.77321</ele>
        <time>2022-07-10T19:03:31.078Z</time>
      </trkpt>
      <trkpt lat="46.60531" lon="3.15859">
        <ele>241.32429</ele>
        <time>2022-07-10T19:04:04.385Z</time>
      </trkpt>
      <trkpt lat="46.60581" lon="3.15857">
        <ele>240.999853</ele>
        <time>2022-07-10T19:04:10.413Z</time>
      </trkpt>
      <trkpt lat="46.60585" lon="3.15873">
        <ele>240.927088</ele>
        <time>2022-07-10T19:04:11.664Z</time>
      </trkpt>
      <trkpt lat="46.60674" lon="3.15872">
        <ele>239.303499</ele>
        <time>2022-07-10T19:04:20.963Z</time>
      </trkpt>
      <trkpt lat="46.60741" lon="3.15872">
        <ele>237.161055</ele>
        <time>2022-07-10T19:04:27.794Z</time>
      </trkpt>
      <trkpt lat="46.60796" lon="3.15898">
        <ele>235.33504</ele>
        <time>2022-07-10T19:04:33.537Z</time>
      </trkpt>
      <trkpt lat="46.60866" lon="3.15966">
        <ele>232.524774</ele>
        <time>2022-07-10T19:04:41.907Z</time>
      </trkpt>
      <trkpt lat="46.61062" lon="3.16143">
        <ele>225.303187</ele>
        <time>2022-07-10T19:05:05.154Z</time>
      </trkpt>
      <trkpt lat="46.61095" lon="3.16175">
        <ele>224.122463</ele>
        <time>2022-07-10T19:05:09.350Z</time>
      </trkpt>
      <trkpt lat="46.61174" lon="3.16248">
        <ele>223.277971</ele>
        <time>2022-07-10T19:05:19.632Z</time>
      </trkpt>
      <trkpt lat="46.61279" lon="3.16356">
        <ele>223.494396</ele>
        <time>2022-07-10T19:05:41.340Z</time>
      </trkpt>
      <trkpt lat="46.61293" lon="3.16377">
        <ele>224.061327</ele>
        <time>2022-07-10T19:05:46.146Z</time>
      </trkpt>
      <trkpt lat="46.61366" lon="3.16592">
        <ele>228.957268</ele>
        <time>2022-07-10T19:06:33.088Z</time>
      </trkpt>
      <trkpt lat="46.61408" lon="3.16672">
        <ele>231.567232</ele>
        <time>2022-07-10T19:06:54.869Z</time>
      </trkpt>
      <trkpt lat="46.61447" lon="3.16725">
        <ele>233.615583</ele>
        <time>2022-07-10T19:07:11.756Z</time>
      </trkpt>
      <trkpt lat="46.61455" lon="3.16734">
        <ele>233.998286</ele>
        <time>2022-07-10T19:07:14.959Z</time>
      </trkpt>
      <trkpt lat="46.61721" lon="3.16813">
        <ele>240.871357</ele>
        <time>2022-07-10T19:08:28.102Z</time>
      </trkpt>
      <trkpt lat="46.61954" lon="3.16813">
        <ele>240.807987</ele>
        <time>2022-07-10T19:08:57.883Z</time>
      </trkpt>
      <trkpt lat="46.62" lon="3.16813">
        <ele>240.455711</ele>
        <time>2022-07-10T19:09:03.471Z</time>
      </trkpt>
      <trkpt lat="46.62165" lon="3.16791">
        <ele>239.208624</ele>
        <time>2022-07-10T19:09:24.670Z</time>
      </trkpt>
      <trkpt lat="46.62291" lon="3.16774">
        <ele>237.930074</ele>
        <time>2022-07-10T19:09:40.814Z</time>
      </trkpt>
      <trkpt lat="46.62346" lon="3.16753">
        <ele>237.317315</ele>
        <time>2022-07-10T19:09:47.437Z</time>
      </trkpt>
      <trkpt lat="46.62382" lon="3.16723">
        <ele>236.805419</ele>
        <time>2022-07-10T19:09:52.057Z</time>
      </trkpt>
      <trkpt lat="46.62491" lon="3.16583">
        <ele>234.841087</ele>
        <time>2022-07-10T19:10:08.727Z</time>
      </trkpt>
      <trkpt lat="46.62526" lon="3.16551">
        <ele>234.896051</ele>
        <time>2022-07-10T19:10:13.780Z</time>
      </trkpt>
      <trkpt lat="46.627" lon="3.16446">
        <ele>236.680603</ele>
        <time>2022-07-10T19:10:50.061Z</time>
      </trkpt>
      <trkpt lat="46.62764" lon="3.16423">
        <ele>238.029289</ele>
        <time>2022-07-10T19:11:07.171Z</time>
      </trkpt>
      <trkpt lat="46.62915" lon="3.16399">
        <ele>239.186667</ele>
        <time>2022-07-10T19:11:42.298Z</time>
      </trkpt>
      <trkpt lat="46.63403" lon="3.16258">
        <ele>235.390625</ele>
        <time>2022-07-10T19:12:41.602Z</time>
      </trkpt>
      <trkpt lat="46.63746" lon="3.1616">
        <ele>233.061529</ele>
        <time>2022-07-10T19:13:26.653Z</time>
      </trkpt>
      <trkpt lat="46.63779" lon="3.16156">
        <ele>232.997931</ele>
        <time>2022-07-10T19:13:31.184Z</time>
      </trkpt>
      <trkpt lat="46.63847" lon="3.16163">
        <ele>232.867996</ele>
        <time>2022-07-10T19:13:40.996Z</time>
      </trkpt>
      <trkpt lat="46.63918" lon="3.1618">
        <ele>232.709086</ele>
        <time>2022-07-10T19:13:51.919Z</time>
      </trkpt>
      <trkpt lat="46.63998" lon="3.16198">
        <ele>232.461393</ele>
        <time>2022-07-10T19:14:04.129Z</time>
      </trkpt>
      <trkpt lat="46.6414" lon="3.16232">
        <ele>231.177935</ele>
        <time>2022-07-10T19:14:22.358Z</time>
      </trkpt>
      <trkpt lat="46.64138" lon="3.16244">
        <ele>231.037531</ele>
        <time>2022-07-10T19:14:23.385Z</time>
      </trkpt>
      <trkpt lat="46.64301" lon="3.16421">
        <ele>227.74822</ele>
        <time>2022-07-10T19:14:45.245Z</time>
      </trkpt>
      <trkpt lat="46.64331" lon="3.16446">
        <ele>227.205951</ele>
        <time>2022-07-10T19:14:49.108Z</time>
      </trkpt>
      <trkpt lat="46.646" lon="3.1658">
        <ele>225.820189</ele>
        <time>2022-07-10T19:15:28.321Z</time>
      </trkpt>
      <trkpt lat="46.64769" lon="3.16635">
        <ele>225.965275</ele>
        <time>2022-07-10T19:15:55.401Z</time>
      </trkpt>
      <trkpt lat="46.6481" lon="3.16643">
        <ele>226.029999</ele>
        <time>2022-07-10T19:16:01.812Z</time>
      </trkpt>
      <trkpt lat="46.64848" lon="3.16637">
        <ele>226.089505</ele>
        <time>2022-07-10T19:16:07.627Z</time>
      </trkpt>
      <trkpt lat="46.64896" lon="3.16619">
        <ele>226.1659</ele>
        <time>2022-07-10T19:16:14.959Z</time>
      </trkpt>
      <trkpt lat="46.65452" lon="3.16388">
        <ele>229.397089</ele>
        <time>2022-07-10T19:17:47.189Z</time>
      </trkpt>
      <trkpt lat="46.65529" lon="3.16355">
        <ele>232.630112</ele>
        <time>2022-07-10T19:18:12.635Z</time>
      </trkpt>
      <trkpt lat="46.65708" lon="3.16277">
        <ele>242.694497</ele>
        <time>2022-07-10T19:19:27.637Z</time>
      </trkpt>
      <trkpt lat="46.65808" lon="3.16242">
        <ele>248.282683</ele>
        <time>2022-07-10T19:20:06.630Z</time>
      </trkpt>
      <trkpt lat="46.65855" lon="3.16238">
        <ele>250.421658</ele>
        <time>2022-07-10T19:20:23.142Z</time>
      </trkpt>
      <trkpt lat="46.65944" lon="3.16257">
        <ele>254.506769</ele>
        <time>2022-07-10T19:20:50.177Z</time>
      </trkpt>
      <trkpt lat="46.65988" lon="3.16259">
        <ele>255.23882</ele>
        <time>2022-07-10T19:21:03.175Z</time>
      </trkpt>
      <trkpt lat="46.66126" lon="3.16245">
        <ele>257.430957</ele>
        <time>2022-07-10T19:21:30.324Z</time>
      </trkpt>
      <trkpt lat="46.66731" lon="3.16132">
        <ele>251.424056</ele>
        <time>2022-07-10T19:22:43.849Z</time>
      </trkpt>
      <trkpt lat="46.6675" lon="3.1612">
        <ele>251.253747</ele>
        <time>2022-07-10T19:22:46.462Z</time>
      </trkpt>
      <trkpt lat="46.66803" lon="3.16059">
        <ele>250.700201</ele>
        <time>2022-07-10T19:22:55.045Z</time>
      </trkpt>
      <trkpt lat="46.66907" lon="3.15903">
        <ele>249.775449</ele>
        <time>2022-07-10T19:23:15.016Z</time>
      </trkpt>
      <trkpt lat="46.66969" lon="3.15835">
        <ele>248.939469</ele>
        <time>2022-07-10T19:23:24.982Z</time>
      </trkpt>
      <trkpt lat="46.67007" lon="3.15807">
        <ele>248.150172</ele>
        <time>2022-07-10T19:23:30.179Z</time>
      </trkpt>
      <trkpt lat="46.67464" lon="3.15548">
        <ele>238.801853</ele>
        <time>2022-07-10T19:24:23.619Z</time>
      </trkpt>
      <trkpt lat="46.67503" lon="3.15535">
        <ele>238.239542</ele>
        <time>2022-07-10T19:24:27.953Z</time>
      </trkpt>
      <trkpt lat="46.67576" lon="3.15522">
        <ele>237.177456</ele>
        <time>2022-07-10T19:24:36.503Z</time>
      </trkpt>
      <trkpt lat="46.67588" lon="3.1552">
        <ele>237.010083</ele>
        <time>2022-07-10T19:24:37.895Z</time>
      </trkpt>
      <trkpt lat="46.67697" lon="3.15502">
        <ele>236.225188</ele>
        <time>2022-07-10T19:24:52.210Z</time>
      </trkpt>
      <trkpt lat="46.67784" lon="3.15487">
        <ele>235.848879</ele>
        <time>2022-07-10T19:25:04.916Z</time>
      </trkpt>
      <trkpt lat="46.67835" lon="3.1549">
        <ele>235.407175</ele>
        <time>2022-07-10T19:25:12.045Z</time>
      </trkpt>
      <trkpt lat="46.67972" lon="3.15538">
        <ele>233.985496</ele>
        <time>2022-07-10T19:25:28.961Z</time>
      </trkpt>
      <trkpt lat="46.68021" lon="3.15556">
        <ele>232.92023</ele>
        <time>2022-07-10T19:25:34.486Z</time>
      </trkpt>
      <trkpt lat="46.68127" lon="3.15592">
        <ele>230.574746</ele>
        <time>2022-07-10T19:25:46.192Z</time>
      </trkpt>
      <trkpt lat="46.68182" lon="3.15237">
        <ele>223.939918</ele>
        <time>2022-07-10T19:26:12.443Z</time>
      </trkpt>
      <trkpt lat="46.68216" lon="3.15033">
        <ele>219.239411</ele>
        <time>2022-07-10T19:26:26.886Z</time>
      </trkpt>
      <trkpt lat="46.68232" lon="3.14981">
        <ele>217.876311</ele>
        <time>2022-07-10T19:26:30.703Z</time>
      </trkpt>
      <trkpt lat="46.68268" lon="3.14917">
        <ele>215.862079</ele>
        <time>2022-07-10T19:26:36.381Z</time>
      </trkpt>
      <trkpt lat="46.6831" lon="3.1486">
        <ele>213.843535</ele>
        <time>2022-07-10T19:26:42.118Z</time>
      </trkpt>
      <trkpt lat="46.68351" lon="3.14848">
        <ele>212.61324</ele>
        <time>2022-07-10T19:26:46.218Z</time>
      </trkpt>
      <trkpt lat="46.68418" lon="3.14849">
        <ele>210.79721</ele>
        <time>2022-07-10T19:26:52.989Z</time>
      </trkpt>
      <trkpt lat="46.68456" lon="3.14833">
        <ele>209.728664</ele>
        <time>2022-07-10T19:26:57.088Z</time>
      </trkpt>
      <trkpt lat="46.68474" lon="3.14803">
        <ele>208.981336</ele>
        <time>2022-07-10T19:27:00.122Z</time>
      </trkpt>
      <trkpt lat="46.6848" lon="3.14784">
        <ele>208.586739</ele>
        <time>2022-07-10T19:27:01.613Z</time>
      </trkpt>
      <trkpt lat="46.68485" lon="3.14766">
        <ele>208.457831</ele>
        <time>2022-07-10T19:27:03.085Z</time>
      </trkpt>
      <trkpt lat="46.68698" lon="3.14056">
        <ele>208.712186</ele>
        <time>2022-07-10T19:28:24.089Z</time>
      </trkpt>
      <trkpt lat="46.68748" lon="3.13896">
        <ele>210.498817</ele>
        <time>2022-07-10T19:28:49.267Z</time>
      </trkpt>
      <trkpt lat="46.68779" lon="3.13829">
        <ele>211.317069</ele>
        <time>2022-07-10T19:29:01.558Z</time>
      </trkpt>
      <trkpt lat="46.68822" lon="3.1376">
        <ele>212.688474</ele>
        <time>2022-07-10T19:29:16.450Z</time>
      </trkpt>
      <trkpt lat="46.68869" lon="3.1371">
        <ele>213.955922</ele>
        <time>2022-07-10T19:29:30.769Z</time>
      </trkpt>
      <trkpt lat="46.68918" lon="3.13688">
        <ele>215.083257</ele>
        <time>2022-07-10T19:29:42.768Z</time>
      </trkpt>
      <trkpt lat="46.68967" lon="3.13679">
        <ele>216.075996</ele>
        <time>2022-07-10T19:29:54.374Z</time>
      </trkpt>
      <trkpt lat="46.6897" lon="3.13678">
        <ele>216.14628</ele>
        <time>2022-07-10T19:29:55.199Z</time>
      </trkpt>
      <trkpt lat="46.69204" lon="3.1365">
        <ele>220.423764</ele>
        <time>2022-07-10T19:30:48.073Z</time>
      </trkpt>
      <trkpt lat="46.69239" lon="3.13647">
        <ele>220.968257</ele>
        <time>2022-07-10T19:30:55.215Z</time>
      </trkpt>
      <trkpt lat="46.69289" lon="3.13641">
        <ele>221.713544</ele>
        <time>2022-07-10T19:31:05.040Z</time>
      </trkpt>
      <trkpt lat="46.6932" lon="3.1363">
        <ele>221.702391</ele>
        <time>2022-07-10T19:31:10.816Z</time>
      </trkpt>
      <trkpt lat="46.69348" lon="3.1361">
        <ele>221.691301</ele>
        <time>2022-07-10T19:31:16.257Z</time>
      </trkpt>
      <trkpt lat="46.69509" lon="3.13456">
        <ele>221.467384</ele>
        <time>2022-07-10T19:31:41.319Z</time>
      </trkpt>
      <trkpt lat="46.69554" lon="3.13409">
        <ele>221.338848</ele>
        <time>2022-07-10T19:31:48.756Z</time>
      </trkpt>
      <trkpt lat="46.6981" lon="3.13088">
        <ele>222.608777</ele>
        <time>2022-07-10T19:32:46.765Z</time>
      </trkpt>
      <trkpt lat="46.69864" lon="3.1303">
        <ele>222.832054</ele>
        <time>2022-07-10T19:32:57.175Z</time>
      </trkpt>
      <trkpt lat="46.70297" lon="3.12643">
        <ele>219.974393</ele>
        <time>2022-07-10T19:34:03.686Z</time>
      </trkpt>
      <trkpt lat="46.70341" lon="3.12599">
        <ele>219.464043</ele>
        <time>2022-07-10T19:34:10.176Z</time>
      </trkpt>
      <trkpt lat="46.70493" lon="3.12417">
        <ele>217.012378</ele>
        <time>2022-07-10T19:34:33.057Z</time>
      </trkpt>
      <trkpt lat="46.70589" lon="3.123">
        <ele>215.820999</ele>
        <time>2022-07-10T19:34:48.194Z</time>
      </trkpt>
      <trkpt lat="46.70616" lon="3.12258">
        <ele>215.750678</ele>
        <time>2022-07-10T19:34:53.380Z</time>
      </trkpt>
      <trkpt lat="46.70707" lon="3.12082">
        <ele>216.42159</ele>
        <time>2022-07-10T19:35:18.731Z</time>
      </trkpt>
      <trkpt lat="46.70949" lon="3.1161">
        <ele>223.931454</ele>
        <time>2022-07-10T19:36:52.317Z</time>
      </trkpt>
      <trkpt lat="46.70978" lon="3.11562">
        <ele>224.265512</ele>
        <time>2022-07-10T19:37:01.152Z</time>
      </trkpt>
      <trkpt lat="46.71276" lon="3.11236">
        <ele>226.647197</ele>
        <time>2022-07-10T19:38:03.260Z</time>
      </trkpt>
      <trkpt lat="46.71534" lon="3.10895">
        <ele>227.26934</ele>
        <time>2022-07-10T19:38:56.656Z</time>
      </trkpt>
      <trkpt lat="46.71644" lon="3.10749">
        <ele>227.605939</ele>
        <time>2022-07-10T19:39:20.378Z</time>
      </trkpt>
      <trkpt lat="46.71799" lon="3.10543">
        <ele>227.68522</ele>
        <time>2022-07-10T19:39:53.754Z</time>
      </trkpt>
      <trkpt lat="46.72013" lon="3.1026">
        <ele>225.539627</ele>
        <time>2022-07-10T19:40:29.807Z</time>
      </trkpt>
      <trkpt lat="46.72199" lon="3.10072">
        <ele>222.012095</ele>
        <time>2022-07-10T19:40:55.920Z</time>
      </trkpt>
      <trkpt lat="46.72271" lon="3.09997">
        <ele>220.161208</ele>
        <time>2022-07-10T19:41:05.269Z</time>
      </trkpt>
      <trkpt lat="46.72318" lon="3.09902">
        <ele>218.929671</ele>
        <time>2022-07-10T19:41:13.894Z</time>
      </trkpt>
      <trkpt lat="46.72457" lon="3.09608">
        <ele>217.021933</ele>
        <time>2022-07-10T19:41:45.516Z</time>
      </trkpt>
      <trkpt lat="46.72474" lon="3.09557">
        <ele>216.880093</ele>
        <time>2022-07-10T19:41:51.217Z</time>
      </trkpt>
      <trkpt lat="46.72477" lon="3.09522">
        <ele>216.79276</ele>
        <time>2022-07-10T19:41:54.707Z</time>
      </trkpt>
      <trkpt lat="46.72475" lon="3.09288">
        <ele>217.126779</ele>
        <time>2022-07-10T19:42:20.081Z</time>
      </trkpt>
      <trkpt lat="46.72483" lon="3.09232">
        <ele>217.26873</ele>
        <time>2022-07-10T19:42:26.384Z</time>
      </trkpt>
      <trkpt lat="46.72505" lon="3.0916">
        <ele>217.597356</ele>
        <time>2022-07-10T19:42:35.266Z</time>
      </trkpt>
      <trkpt lat="46.7251" lon="3.09128">
        <ele>217.731259</ele>
        <time>2022-07-10T19:42:39.084Z</time>
      </trkpt>
      <trkpt lat="46.72502" lon="3.08972">
        <ele>218.386715</ele>
        <time>2022-07-10T19:42:58.690Z</time>
      </trkpt>
      <trkpt lat="46.72526" lon="3.08833">
        <ele>219.018896</ele>
        <time>2022-07-10T19:43:15.443Z</time>
      </trkpt>
      <trkpt lat="46.72529" lon="3.08772">
        <ele>219.286707</ele>
        <time>2022-07-10T19:43:22.606Z</time>
      </trkpt>
      <trkpt lat="46.72522" lon="3.08492">
        <ele>220.75596</ele>
        <time>2022-07-10T19:43:57.232Z</time>
      </trkpt>
      <trkpt lat="46.72526" lon="3.08381">
        <ele>221.068193</ele>
        <time>2022-07-10T19:44:10.766Z</time>
      </trkpt>
      <trkpt lat="46.72535" lon="3.08314">
        <ele>221.233303</ele>
        <time>2022-07-10T19:44:18.615Z</time>
      </trkpt>
      <trkpt lat="46.7257" lon="3.08146">
        <ele>220.72827</ele>
        <time>2022-07-10T19:44:36.194Z</time>
      </trkpt>
      <trkpt lat="46.7265" lon="3.0799">
        <ele>218.809653</ele>
        <time>2022-07-10T19:44:51.079Z</time>
      </trkpt>
      <trkpt lat="46.72715" lon="3.07803">
        <ele>215.345707</ele>
        <time>2022-07-10T19:45:06.069Z</time>
      </trkpt>
      <trkpt lat="46.72729" lon="3.07778">
        <ele>214.807769</ele>
        <time>2022-07-10T19:45:08.367Z</time>
      </trkpt>
      <trkpt lat="46.7284" lon="3.07624">
        <ele>212.656808</ele>
        <time>2022-07-10T19:45:25.848Z</time>
      </trkpt>
      <trkpt lat="46.72874" lon="3.07591">
        <ele>212.174307</ele>
        <time>2022-07-10T19:45:31.801Z</time>
      </trkpt>
      <trkpt lat="46.72935" lon="3.07572">
        <ele>211.882972</ele>
        <time>2022-07-10T19:45:40.630Z</time>
      </trkpt>
      <trkpt lat="46.73009" lon="3.0757">
        <ele>211.539732</ele>
        <time>2022-07-10T19:45:50.841Z</time>
      </trkpt>
      <trkpt lat="46.73072" lon="3.07567">
        <ele>210.961547</ele>
        <time>2022-07-10T19:45:58.860Z</time>
      </trkpt>
      <trkpt lat="46.73137" lon="3.07576">
        <ele>210.002681</ele>
        <time>2022-07-10T19:46:06.462Z</time>
      </trkpt>
      <trkpt lat="46.73412" lon="3.07705">
        <ele>204.796703</ele>
        <time>2022-07-10T19:46:38.281Z</time>
      </trkpt>
      <trkpt lat="46.73441" lon="3.07705">
        <ele>204.185051</ele>
        <time>2022-07-10T19:46:41.589Z</time>
      </trkpt>
      <trkpt lat="46.73464" lon="3.07696">
        <ele>203.688511</ele>
        <time>2022-07-10T19:46:44.237Z</time>
      </trkpt>
      <trkpt lat="46.73501" lon="3.07666">
        <ele>202.796296</ele>
        <time>2022-07-10T19:46:48.952Z</time>
      </trkpt>
      <trkpt lat="46.73534" lon="3.07616">
        <ele>201.813813</ele>
        <time>2022-07-10T19:46:54.051Z</time>
      </trkpt>
      <trkpt lat="46.73745" lon="3.07263">
        <ele>194.143113</ele>
        <time>2022-07-10T19:47:27.533Z</time>
      </trkpt>
      <trkpt lat="46.73814" lon="3.07148">
        <ele>193.180405</ele>
        <time>2022-07-10T19:47:41.024Z</time>
      </trkpt>
      <trkpt lat="46.7383" lon="3.07112">
        <ele>193.25864</ele>
        <time>2022-07-10T19:47:45.585Z</time>
      </trkpt>
      <trkpt lat="46.74081" lon="3.06384">
        <ele>194.200722</ele>
        <time>2022-07-10T19:49:17.335Z</time>
      </trkpt>
      <trkpt lat="46.7445" lon="3.05797">
        <ele>188.881912</ele>
        <time>2022-07-10T19:50:22.706Z</time>
      </trkpt>
      <trkpt lat="46.74659" lon="3.05463">
        <ele>187.124404</ele>
        <time>2022-07-10T19:51:03.655Z</time>
      </trkpt>
      <trkpt lat="46.74781" lon="3.05245">
        <ele>186.487831</ele>
        <time>2022-07-10T19:51:30.832Z</time>
      </trkpt>
      <trkpt lat="46.74827" lon="3.05187">
        <ele>186.267248</ele>
        <time>2022-07-10T19:51:38.998Z</time>
      </trkpt>
      <trkpt lat="46.74923" lon="3.05042">
        <ele>185.897717</ele>
        <time>2022-07-10T19:51:57.587Z</time>
      </trkpt>
      <trkpt lat="46.74973" lon="3.04998">
        <ele>185.772947</ele>
        <time>2022-07-10T19:52:05.760Z</time>
      </trkpt>
      <trkpt lat="46.75053" lon="3.04892">
        <ele>186.371888</ele>
        <time>2022-07-10T19:52:22.797Z</time>
      </trkpt>
      <trkpt lat="46.75198" lon="3.04621">
        <ele>189.610526</ele>
        <time>2022-07-10T19:53:11.055Z</time>
      </trkpt>
      <trkpt lat="46.75222" lon="3.04599">
        <ele>190.096117</ele>
        <time>2022-07-10T19:53:18.234Z</time>
      </trkpt>
      <trkpt lat="46.7527" lon="3.04572">
        <ele>190.99318</ele>
        <time>2022-07-10T19:53:30.606Z</time>
      </trkpt>
      <trkpt lat="46.75273" lon="3.04565">
        <ele>191.096567</ele>
        <time>2022-07-10T19:53:32.755Z</time>
      </trkpt>
      <trkpt lat="46.75301" lon="3.04509">
        <ele>191.918997</ele>
        <time>2022-07-10T19:53:44.234Z</time>
      </trkpt>
      <trkpt lat="46.75375" lon="3.04457">
        <ele>193.332286</ele>
        <time>2022-07-10T19:54:00.692Z</time>
      </trkpt>
      <trkpt lat="46.75392" lon="3.04437">
        <ele>193.583809</ele>
        <time>2022-07-10T19:54:05.531Z</time>
      </trkpt>
      <trkpt lat="46.75403" lon="3.04418">
        <ele>193.579755</ele>
        <time>2022-07-10T19:54:08.035Z</time>
      </trkpt>
      <trkpt lat="46.75453" lon="3.0429">
        <ele>193.555869</ele>
        <time>2022-07-10T19:54:22.576Z</time>
      </trkpt>
      <trkpt lat="46.75481" lon="3.04208">
        <ele>193.508169</ele>
        <time>2022-07-10T19:54:30.762Z</time>
      </trkpt>
      <trkpt lat="46.75488" lon="3.04188">
        <ele>193.44187</ele>
        <time>2022-07-10T19:54:32.672Z</time>
      </trkpt>
      <trkpt lat="46.75512" lon="3.04149">
        <ele>193.283872</ele>
        <time>2022-07-10T19:54:37.422Z</time>
      </trkpt>
      <trkpt lat="46.75528" lon="3.04142">
        <ele>193.213038</ele>
        <time>2022-07-10T19:54:39.668Z</time>
      </trkpt>
      <trkpt lat="46.75574" lon="3.04152">
        <ele>193.010047</ele>
        <time>2022-07-10T19:54:46.011Z</time>
      </trkpt>
      <trkpt lat="46.75611" lon="3.04165">
        <ele>192.848457</ele>
        <time>2022-07-10T19:54:51.080Z</time>
      </trkpt>
      <trkpt lat="46.75633" lon="3.04191">
        <ele>192.698105</ele>
        <time>2022-07-10T19:54:55.195Z</time>
      </trkpt>
      <trkpt lat="46.75635" lon="3.0413">
        <ele>192.400476</ele>
        <time>2022-07-10T19:55:00.869Z</time>
      </trkpt>
      <trkpt lat="46.75628" lon="3.04059">
        <ele>192.050294</ele>
        <time>2022-07-10T19:55:07.076Z</time>
      </trkpt>
      <trkpt lat="46.7563" lon="3.03992">
        <ele>191.724791</ele>
        <time>2022-07-10T19:55:12.772Z</time>
      </trkpt>
      <trkpt lat="46.75634" lon="3.03983">
        <ele>191.673914</ele>
        <time>2022-07-10T19:55:13.763Z</time>
      </trkpt>
      <trkpt lat="46.75661" lon="3.03947">
        <ele>191.360585</ele>
        <time>2022-07-10T19:55:18.263Z</time>
      </trkpt>
      <trkpt lat="46.75683" lon="3.03881">
        <ele>190.729789</ele>
        <time>2022-07-10T19:55:24.296Z</time>
      </trkpt>
      <trkpt lat="46.75685" lon="3.03878">
        <ele>190.697178</ele>
        <time>2022-07-10T19:55:24.603Z</time>
      </trkpt>
      <trkpt lat="46.75757" lon="3.03724">
        <ele>189.118687</ele>
        <time>2022-07-10T19:55:39.505Z</time>
      </trkpt>
      <trkpt lat="46.7585" lon="3.03566">
        <ele>187.703965</ele>
        <time>2022-07-10T19:55:56.858Z</time>
      </trkpt>
      <trkpt lat="46.75853" lon="3.03562">
        <ele>187.66169</ele>
        <time>2022-07-10T19:55:57.415Z</time>
      </trkpt>
      <trkpt lat="46.75864" lon="3.03563">
        <ele>187.55131</ele>
        <time>2022-07-10T19:55:58.799Z</time>
      </trkpt>
      <trkpt lat="46.75872" lon="3.03569">
        <ele>187.461379</ele>
        <time>2022-07-10T19:55:59.930Z</time>
      </trkpt>
      <trkpt lat="46.75879" lon="3.03566">
        <ele>187.42077</ele>
        <time>2022-07-10T19:56:00.780Z</time>
      </trkpt>
      <trkpt lat="46.75883" lon="3.03554">
        <ele>187.379779</ele>
        <time>2022-07-10T19:56:01.933Z</time>
      </trkpt>
      <trkpt lat="46.75879" lon="3.03543">
        <ele>187.338927</ele>
        <time>2022-07-10T19:56:03.064Z</time>
      </trkpt>
      <trkpt lat="46.75877" lon="3.03523">
        <ele>187.278441</ele>
        <time>2022-07-10T19:56:04.746Z</time>
      </trkpt>
      <trkpt lat="46.76011" lon="3.033">
        <ele>186.770201</ele>
        <time>2022-07-10T19:56:32.511Z</time>
      </trkpt>
      <trkpt lat="46.76047" lon="3.0326">
        <ele>186.88494</ele>
        <time>2022-07-10T19:56:39.598Z</time>
      </trkpt>
      <trkpt lat="46.76091" lon="3.03227">
        <ele>187.011414</ele>
        <time>2022-07-10T19:56:48.052Z</time>
      </trkpt>
      <trkpt lat="46.76118" lon="3.03207">
        <ele>187.12302</ele>
        <time>2022-07-10T19:56:53.423Z</time>
      </trkpt>
      <trkpt lat="46.76175" lon="3.03168">
        <ele>187.810347</ele>
        <time>2022-07-10T19:57:05.590Z</time>
      </trkpt>
      <trkpt lat="46.76242" lon="3.03134">
        <ele>188.582472</ele>
        <time>2022-07-10T19:57:20.651Z</time>
      </trkpt>
      <trkpt lat="46.76304" lon="3.03098">
        <ele>189.575324</ele>
        <time>2022-07-10T19:57:32.165Z</time>
      </trkpt>
      <trkpt lat="46.76319" lon="3.03078">
        <ele>189.995388</ele>
        <time>2022-07-10T19:57:35.512Z</time>
      </trkpt>
      <trkpt lat="46.7633" lon="3.03049">
        <ele>190.486302</ele>
        <time>2022-07-10T19:57:39.991Z</time>
      </trkpt>
      <trkpt lat="46.76429" lon="3.03088">
        <ele>192.673035</ele>
        <time>2022-07-10T19:58:04.539Z</time>
      </trkpt>
      <trkpt lat="46.76496" lon="3.03107">
        <ele>196.188307</ele>
        <time>2022-07-10T19:58:28.146Z</time>
      </trkpt>
      <trkpt lat="46.76522" lon="3.03098">
        <ele>197.695276</ele>
        <time>2022-07-10T19:58:37.747Z</time>
      </trkpt>
      <trkpt lat="46.76535" lon="3.03085">
        <ele>198.605042</ele>
        <time>2022-07-10T19:58:44.222Z</time>
      </trkpt>
      <trkpt lat="46.76546" lon="3.03052">
        <ele>199.997784</ele>
        <time>2022-07-10T19:58:54.286Z</time>
      </trkpt>
      <trkpt lat="46.76551" lon="3.02965">
        <ele>203.320185</ele>
        <time>2022-07-10T19:59:19.964Z</time>
      </trkpt>
      <trkpt lat="46.76572" lon="3.02868">
        <ele>206.383814</ele>
        <time>2022-07-10T19:59:47.972Z</time>
      </trkpt>
      <trkpt lat="46.76573" lon="3.0286">
        <ele>206.66177</ele>
        <time>2022-07-10T19:59:50.287Z</time>
      </trkpt>
      <trkpt lat="46.7659" lon="3.02798">
        <ele>208.668933</ele>
        <time>2022-07-10T20:00:04.114Z</time>
      </trkpt>
      <trkpt lat="46.76602" lon="3.02766">
        <ele>209.786355</ele>
        <time>2022-07-10T20:00:10.512Z</time>
      </trkpt>
      <trkpt lat="46.76649" lon="3.0272">
        <ele>211.203701</ele>
        <time>2022-07-10T20:00:22.778Z</time>
      </trkpt>
      <trkpt lat="46.76674" lon="3.02699">
        <ele>211.412047</ele>
        <time>2022-07-10T20:00:28.298Z</time>
      </trkpt>
      <trkpt lat="46.76717" lon="3.02663">
        <ele>211.769574</ele>
        <time>2022-07-10T20:00:36.692Z</time>
      </trkpt>
      <trkpt lat="46.76752" lon="3.02653">
        <ele>212.027004</ele>
        <time>2022-07-10T20:00:42.286Z</time>
      </trkpt>
      <trkpt lat="46.76817" lon="3.02645">
        <ele>212.256793</ele>
        <time>2022-07-10T20:00:51.460Z</time>
      </trkpt>
      <trkpt lat="46.76858" lon="3.02627">
        <ele>212.193391</ele>
        <time>2022-07-10T20:00:57.496Z</time>
      </trkpt>
      <trkpt lat="46.76891" lon="3.02608">
        <ele>212.141713</ele>
        <time>2022-07-10T20:01:02.463Z</time>
      </trkpt>
      <trkpt lat="46.7692" lon="3.02577">
        <ele>212.088933</ele>
        <time>2022-07-10T20:01:07.444Z</time>
      </trkpt>
      <trkpt lat="46.76973" lon="3.02511">
        <ele>212.061976</ele>
        <time>2022-07-10T20:01:17.738Z</time>
      </trkpt>
      <trkpt lat="46.76983" lon="3.02499">
        <ele>212.073329</ele>
        <time>2022-07-10T20:01:19.766Z</time>
      </trkpt>
      <trkpt lat="46.77111" lon="3.02521">
        <ele>212.183957</ele>
        <time>2022-07-10T20:01:40.126Z</time>
      </trkpt>
      <trkpt lat="46.77385" lon="3.02526">
        <ele>211.36692</ele>
        <time>2022-07-10T20:02:18.200Z</time>
      </trkpt>
      <trkpt lat="46.77468" lon="3.025">
        <ele>210.922418</ele>
        <time>2022-07-10T20:02:28.829Z</time>
      </trkpt>
      <trkpt lat="46.77517" lon="3.02469">
        <ele>210.793268</ele>
        <time>2022-07-10T20:02:35.880Z</time>
      </trkpt>
      <trkpt lat="46.7754" lon="3.0246">
        <ele>210.743457</ele>
        <time>2022-07-10T20:02:39.259Z</time>
      </trkpt>
      <trkpt lat="46.77578" lon="3.02448">
        <ele>210.663449</ele>
        <time>2022-07-10T20:02:45.058Z</time>
      </trkpt>
      <trkpt lat="46.77616" lon="3.02415">
        <ele>210.569963</ele>
        <time>2022-07-10T20:02:51.784Z</time>
      </trkpt>
      <trkpt lat="46.77692" lon="3.02324">
        <ele>209.559127</ele>
        <time>2022-07-10T20:03:05.693Z</time>
      </trkpt>
      <trkpt lat="46.77704" lon="3.02318">
        <ele>209.392092</ele>
        <time>2022-07-10T20:03:07.292Z</time>
      </trkpt>
      <trkpt lat="46.77718" lon="3.02317">
        <ele>209.207671</ele>
        <time>2022-07-10T20:03:08.937Z</time>
      </trkpt>
      <trkpt lat="46.77769" lon="3.02338">
        <ele>208.516442</ele>
        <time>2022-07-10T20:03:14.792Z</time>
      </trkpt>
      <trkpt lat="46.77944" lon="3.02387">
        <ele>203.905988</ele>
        <time>2022-07-10T20:03:32.917Z</time>
      </trkpt>
      <trkpt lat="46.77996" lon="3.02396">
        <ele>202.943982</ele>
        <time>2022-07-10T20:03:38.469Z</time>
      </trkpt>
      <trkpt lat="46.78077" lon="3.0239">
        <ele>202.455368</ele>
        <time>2022-07-10T20:03:48.427Z</time>
      </trkpt>
      <trkpt lat="46.78293" lon="3.02368">
        <ele>202.830219</ele>
        <time>2022-07-10T20:04:26.113Z</time>
      </trkpt>
      <trkpt lat="46.78322" lon="3.02362">
        <ele>203.008158</ele>
        <time>2022-07-10T20:04:31.426Z</time>
      </trkpt>
      <trkpt lat="46.78449" lon="3.02304">
        <ele>203.301718</ele>
        <time>2022-07-10T20:04:52.803Z</time>
      </trkpt>
      <trkpt lat="46.78497" lon="3.02295">
        <ele>203.394765</ele>
        <time>2022-07-10T20:04:59.763Z</time>
      </trkpt>
      <trkpt lat="46.78633" lon="3.02312">
        <ele>203.007229</ele>
        <time>2022-07-10T20:05:18.617Z</time>
      </trkpt>
      <trkpt lat="46.78841" lon="3.02308">
        <ele>201.82152</ele>
        <time>2022-07-10T20:05:46.348Z</time>
      </trkpt>
      <trkpt lat="46.78864" lon="3.02311">
        <ele>201.669993</ele>
        <time>2022-07-10T20:05:49.292Z</time>
      </trkpt>
      <trkpt lat="46.7919" lon="3.02436">
        <ele>195.847835</ele>
        <time>2022-07-10T20:06:27.416Z</time>
      </trkpt>
      <trkpt lat="46.79395" lon="3.02513">
        <ele>191.065714</ele>
        <time>2022-07-10T20:06:48.955Z</time>
      </trkpt>
      <trkpt lat="46.79598" lon="3.02591">
        <ele>194.57956</ele>
        <time>2022-07-10T20:07:38.753Z</time>
      </trkpt>
      <trkpt lat="46.79759" lon="3.0262">
        <ele>198.598017</ele>
        <time>2022-07-10T20:08:23.646Z</time>
      </trkpt>
      <trkpt lat="46.80028" lon="3.02674">
        <ele>199.872075</ele>
        <time>2022-07-10T20:09:06.009Z</time>
      </trkpt>
      <trkpt lat="46.80378" lon="3.0258">
        <ele>198.938012</ele>
        <time>2022-07-10T20:09:55.091Z</time>
      </trkpt>
      <trkpt lat="46.8048" lon="3.02561">
        <ele>198.436967</ele>
        <time>2022-07-10T20:10:09.001Z</time>
      </trkpt>
      <trkpt lat="46.80579" lon="3.02595">
        <ele>197.678719</ele>
        <time>2022-07-10T20:10:21.676Z</time>
      </trkpt>
      <trkpt lat="46.80669" lon="3.02602">
        <ele>197.504786</ele>
        <time>2022-07-10T20:10:32.898Z</time>
      </trkpt>
      <trkpt lat="46.80732" lon="3.02594">
        <ele>197.753305</ele>
        <time>2022-07-10T20:10:41.808Z</time>
      </trkpt>
      <trkpt lat="46.80786" lon="3.02609">
        <ele>197.972522</ele>
        <time>2022-07-10T20:10:52.266Z</time>
      </trkpt>
      <trkpt lat="46.80826" lon="3.02578">
        <ele>198.842791</ele>
        <time>2022-07-10T20:11:03.064Z</time>
      </trkpt>
      <trkpt lat="46.80849" lon="3.02523">
        <ele>200.097028</ele>
        <time>2022-07-10T20:11:14.699Z</time>
      </trkpt>
      <trkpt lat="46.8088" lon="3.02374">
        <ele>203.132962</ele>
        <time>2022-07-10T20:11:44.845Z</time>
      </trkpt>
      <trkpt lat="46.80916" lon="3.02269">
        <ele>204.721286</ele>
        <time>2022-07-10T20:12:06.211Z</time>
      </trkpt>
      <trkpt lat="46.80942" lon="3.02115">
        <ele>206.583507</ele>
        <time>2022-07-10T20:12:28.952Z</time>
      </trkpt>
      <trkpt lat="46.81004" lon="3.02052">
        <ele>205.263307</ele>
        <time>2022-07-10T20:12:38.382Z</time>
      </trkpt>
      <trkpt lat="46.81074" lon="3.02052">
        <ele>204.042675</ele>
        <time>2022-07-10T20:12:45.578Z</time>
      </trkpt>
      <trkpt lat="46.81217" lon="3.02082">
        <ele>199.779072</ele>
        <time>2022-07-10T20:12:59.966Z</time>
      </trkpt>
      <trkpt lat="46.81343" lon="3.02121">
        <ele>197.289832</ele>
        <time>2022-07-10T20:13:13.223Z</time>
      </trkpt>
      <trkpt lat="46.81431" lon="3.022">
        <ele>196.552417</ele>
        <time>2022-07-10T20:13:29.273Z</time>
      </trkpt>
      <trkpt lat="46.81489" lon="3.02335">
        <ele>199.117509</ele>
        <time>2022-07-10T20:13:54.253Z</time>
      </trkpt>
      <trkpt lat="46.81685" lon="3.02522">
        <ele>206.223196</ele>
        <time>2022-07-10T20:15:04.647Z</time>
      </trkpt>
      <trkpt lat="46.81802" lon="3.02754">
        <ele>208.936576</ele>
        <time>2022-07-10T20:15:42.772Z</time>
      </trkpt>
      <trkpt lat="46.81851" lon="3.02866">
        <ele>208.789961</ele>
        <time>2022-07-10T20:15:55.574Z</time>
      </trkpt>
      <trkpt lat="46.81871" lon="3.02894">
        <ele>208.704173</ele>
        <time>2022-07-10T20:15:59.400Z</time>
      </trkpt>
      <trkpt lat="46.81903" lon="3.02956">
        <ele>208.54066</ele>
        <time>2022-07-10T20:16:06.491Z</time>
      </trkpt>
      <trkpt lat="46.81949" lon="3.03007">
        <ele>207.937932</ele>
        <time>2022-07-10T20:16:13.616Z</time>
      </trkpt>
      <trkpt lat="46.82022" lon="3.03052">
        <ele>206.850463</ele>
        <time>2022-07-10T20:16:22.689Z</time>
      </trkpt>
      <trkpt lat="46.82025" lon="3.03054">
        <ele>206.813313</ele>
        <time>2022-07-10T20:16:22.990Z</time>
      </trkpt>
      <trkpt lat="46.82066" lon="3.03079">
        <ele>206.198849</ele>
        <time>2022-07-10T20:16:28.048Z</time>
      </trkpt>
      <trkpt lat="46.82104" lon="3.03088">
        <ele>205.830783</ele>
        <time>2022-07-10T20:16:32.379Z</time>
      </trkpt>
      <trkpt lat="46.82181" lon="3.03094">
        <ele>205.250341</ele>
        <time>2022-07-10T20:16:41.396Z</time>
      </trkpt>
      <trkpt lat="46.82214" lon="3.03124">
        <ele>204.958686</ele>
        <time>2022-07-10T20:16:46.631Z</time>
      </trkpt>
      <trkpt lat="46.82255" lon="3.03141">
        <ele>204.724841</ele>
        <time>2022-07-10T20:16:53.636Z</time>
      </trkpt>
      <trkpt lat="46.82306" lon="3.03144">
        <ele>205.318728</ele>
        <time>2022-07-10T20:17:03.237Z</time>
      </trkpt>
      <trkpt lat="46.82353" lon="3.03178">
        <ele>205.921998</ele>
        <time>2022-07-10T20:17:13.951Z</time>
      </trkpt>
      <trkpt lat="46.82413" lon="3.03136">
        <ele>206.699587</ele>
        <time>2022-07-10T20:17:27.936Z</time>
      </trkpt>
      <trkpt lat="46.82448" lon="3.03144">
        <ele>206.873114</ele>
        <time>2022-07-10T20:17:35.250Z</time>
      </trkpt>
      <trkpt lat="46.82498" lon="3.03175">
        <ele>207.061521</ele>
        <time>2022-07-10T20:17:45.135Z</time>
      </trkpt>
      <trkpt lat="46.82539" lon="3.03181">
        <ele>207.205156</ele>
        <time>2022-07-10T20:17:51.253Z</time>
      </trkpt>
      <trkpt lat="46.82614" lon="3.03203">
        <ele>207.266962</ele>
        <time>2022-07-10T20:18:01.282Z</time>
      </trkpt>
      <trkpt lat="46.82708" lon="3.03211">
        <ele>206.724755</ele>
        <time>2022-07-10T20:18:13.630Z</time>
      </trkpt>
      <trkpt lat="46.82879" lon="3.03322">
        <ele>204.847427</ele>
        <time>2022-07-10T20:18:37.648Z</time>
      </trkpt>
      <trkpt lat="46.8314" lon="3.03501">
        <ele>198.932829</ele>
        <time>2022-07-10T20:19:08.662Z</time>
      </trkpt>
      <trkpt lat="46.83251" lon="3.03514">
        <ele>196.487875</ele>
        <time>2022-07-10T20:19:20.327Z</time>
      </trkpt>
      <trkpt lat="46.8331" lon="3.03491">
        <ele>196.301295</ele>
        <time>2022-07-10T20:19:27.659Z</time>
      </trkpt>
      <trkpt lat="46.83314" lon="3.03488">
        <ele>196.322037</ele>
        <time>2022-07-10T20:19:28.337Z</time>
      </trkpt>
      <trkpt lat="46.83352" lon="3.03474">
        <ele>196.477774</ele>
        <time>2022-07-10T20:19:33.963Z</time>
      </trkpt>
      <trkpt lat="46.834" lon="3.03455">
        <ele>196.675261</ele>
        <time>2022-07-10T20:19:42.602Z</time>
      </trkpt>
      <trkpt lat="46.83568" lon="3.03414">
        <ele>199.711896</ele>
        <time>2022-07-10T20:20:24.704Z</time>
      </trkpt>
      <trkpt lat="46.83675" lon="3.03303">
        <ele>201.667269</ele>
        <time>2022-07-10T20:20:54.074Z</time>
      </trkpt>
      <trkpt lat="46.83684" lon="3.03296">
        <ele>201.7792</ele>
        <time>2022-07-10T20:20:56.182Z</time>
      </trkpt>
      <trkpt lat="46.83694" lon="3.03297">
        <ele>201.875539</ele>
        <time>2022-07-10T20:20:57.866Z</time>
      </trkpt>
      <trkpt lat="46.8371" lon="3.03317">
        <ele>202.092415</ele>
        <time>2022-07-10T20:21:01.413Z</time>
      </trkpt>
      <trkpt lat="46.83723" lon="3.03358">
        <ele>202.406505</ele>
        <time>2022-07-10T20:21:06.318Z</time>
      </trkpt>
      <trkpt lat="46.83753" lon="3.03496">
        <ele>202.367346</ele>
        <time>2022-07-10T20:21:21.231Z</time>
      </trkpt>
      <trkpt lat="46.8378" lon="3.03547">
        <ele>202.160918</ele>
        <time>2022-07-10T20:21:27.128Z</time>
      </trkpt>
      <trkpt lat="46.83865" lon="3.03648">
        <ele>200.988578</ele>
        <time>2022-07-10T20:21:40.443Z</time>
      </trkpt>
      <trkpt lat="46.84113" lon="3.041">
        <ele>191.20496</ele>
        <time>2022-07-10T20:22:22.840Z</time>
      </trkpt>
      <trkpt lat="46.84234" lon="3.04232">
        <ele>185.710635</ele>
        <time>2022-07-10T20:22:37.284Z</time>
      </trkpt>
      <trkpt lat="46.84254" lon="3.04291">
        <ele>184.012519</ele>
        <time>2022-07-10T20:22:41.586Z</time>
      </trkpt>
      <trkpt lat="46.84268" lon="3.04426">
        <ele>180.898097</ele>
        <time>2022-07-10T20:22:51.051Z</time>
      </trkpt>
      <trkpt lat="46.84304" lon="3.04494">
        <ele>180.89694</ele>
        <time>2022-07-10T20:22:57.923Z</time>
      </trkpt>
      <trkpt lat="46.8432" lon="3.04549">
        <ele>180.896148</ele>
        <time>2022-07-10T20:23:04.839Z</time>
      </trkpt>
      <trkpt lat="46.84332" lon="3.04557">
        <ele>180.895891</ele>
        <time>2022-07-10T20:23:07.303Z</time>
      </trkpt>
      <trkpt lat="46.84426" lon="3.04542">
        <ele>182.024331</ele>
        <time>2022-07-10T20:23:28.376Z</time>
      </trkpt>
      <trkpt lat="46.84459" lon="3.04523">
        <ele>183.089642</ele>
        <time>2022-07-10T20:23:38.233Z</time>
      </trkpt>
      <trkpt lat="46.84481" lon="3.04451">
        <ele>184.667085</ele>
        <time>2022-07-10T20:23:53.390Z</time>
      </trkpt>
      <trkpt lat="46.84507" lon="3.0442">
        <ele>185.666262</ele>
        <time>2022-07-10T20:24:02.971Z</time>
      </trkpt>
      <trkpt lat="46.84546" lon="3.04401">
        <ele>186.806506</ele>
        <time>2022-07-10T20:24:15.081Z</time>
      </trkpt>
      <trkpt lat="46.84586" lon="3.04381">
        <ele>187.938504</ele>
        <time>2022-07-10T20:24:26.655Z</time>
      </trkpt>
      <trkpt lat="46.84658" lon="3.04317">
        <ele>190.179027</ele>
        <time>2022-07-10T20:24:47.411Z</time>
      </trkpt>
      <trkpt lat="46.84681" lon="3.04303">
        <ele>190.830027</ele>
        <time>2022-07-10T20:24:53.555Z</time>
      </trkpt>
      <trkpt lat="46.84771" lon="3.04304">
        <ele>192.131215</ele>
        <time>2022-07-10T20:25:12.548Z</time>
      </trkpt>
      <trkpt lat="46.8504" lon="3.04216">
        <ele>194.658231</ele>
        <time>2022-07-10T20:26:04.337Z</time>
      </trkpt>
      <trkpt lat="46.85082" lon="3.04204">
        <ele>193.833799</ele>
        <time>2022-07-10T20:26:09.394Z</time>
      </trkpt>
      <trkpt lat="46.8511" lon="3.04219">
        <ele>193.256711</ele>
        <time>2022-07-10T20:26:12.763Z</time>
      </trkpt>
      <trkpt lat="46.85205" lon="3.04366">
        <ele>190.653929</ele>
        <time>2022-07-10T20:26:27.148Z</time>
      </trkpt>
      <trkpt lat="46.85234" lon="3.04447">
        <ele>189.599184</ele>
        <time>2022-07-10T20:26:33.541Z</time>
      </trkpt>
      <trkpt lat="46.8525" lon="3.04473">
        <ele>189.195157</ele>
        <time>2022-07-10T20:26:36.173Z</time>
      </trkpt>
      <trkpt lat="46.85275" lon="3.04477">
        <ele>188.780245</ele>
        <time>2022-07-10T20:26:39.015Z</time>
      </trkpt>
      <trkpt lat="46.85332" lon="3.04444">
        <ele>188.782344</ele>
        <time>2022-07-10T20:26:48.958Z</time>
      </trkpt>
      <trkpt lat="46.85344" lon="3.04422">
        <ele>189.301008</ele>
        <time>2022-07-10T20:26:53.143Z</time>
      </trkpt>
      <trkpt lat="46.85349" lon="3.04382">
        <ele>190.025519</ele>
        <time>2022-07-10T20:26:59.626Z</time>
      </trkpt>
      <trkpt lat="46.85354" lon="3.04341">
        <ele>190.766998</ele>
        <time>2022-07-10T20:27:07.503Z</time>
      </trkpt>
      <trkpt lat="46.8537" lon="3.04317">
        <ele>191.360079</ele>
        <time>2022-07-10T20:27:13.973Z</time>
      </trkpt>
      <trkpt lat="46.85477" lon="3.04266">
        <ele>194.732604</ele>
        <time>2022-07-10T20:27:48.902Z</time>
      </trkpt>
      <trkpt lat="46.85499" lon="3.0425">
        <ele>195.585145</ele>
        <time>2022-07-10T20:27:56.727Z</time>
      </trkpt>
      <trkpt lat="46.85524" lon="3.04237">
        <ele>196.47618</ele>
        <time>2022-07-10T20:28:04.730Z</time>
      </trkpt>
      <trkpt lat="46.85623" lon="3.0421">
        <ele>199.314251</ele>
        <time>2022-07-10T20:28:30.692Z</time>
      </trkpt>
      <trkpt lat="46.85672" lon="3.04185">
        <ele>199.966221</ele>
        <time>2022-07-10T20:28:41.528Z</time>
      </trkpt>
      <trkpt lat="46.85782" lon="3.04149">
        <ele>201.21129</ele>
        <time>2022-07-10T20:29:01.416Z</time>
      </trkpt>
      <trkpt lat="46.8583" lon="3.04122">
        <ele>201.189367</ele>
        <time>2022-07-10T20:29:09.417Z</time>
      </trkpt>
      <trkpt lat="46.85992" lon="3.04041">
        <ele>200.692519</ele>
        <time>2022-07-10T20:29:32.847Z</time>
      </trkpt>
      <trkpt lat="46.86041" lon="3.04001">
        <ele>200.22972</ele>
        <time>2022-07-10T20:29:39.912Z</time>
      </trkpt>
      <trkpt lat="46.86098" lon="3.03968">
        <ele>199.731766</ele>
        <time>2022-07-10T20:29:47.235Z</time>
      </trkpt>
      <trkpt lat="46.86147" lon="3.03954">
        <ele>199.25483</ele>
        <time>2022-07-10T20:29:53.045Z</time>
      </trkpt>
      <trkpt lat="46.86302" lon="3.03977">
        <ele>198.068593</ele>
        <time>2022-07-10T20:30:12.179Z</time>
      </trkpt>
      <trkpt lat="46.86329" lon="3.03968">
        <ele>198.315775</ele>
        <time>2022-07-10T20:30:16.141Z</time>
      </trkpt>
      <trkpt lat="46.86353" lon="3.03935">
        <ele>198.608527</ele>
        <time>2022-07-10T20:30:21.454Z</time>
      </trkpt>
      <trkpt lat="46.86379" lon="3.03851">
        <ele>199.168653</ele>
        <time>2022-07-10T20:30:34.329Z</time>
      </trkpt>
      <trkpt lat="46.86423" lon="3.03778">
        <ele>200.100201</ele>
        <time>2022-07-10T20:30:50.592Z</time>
      </trkpt>
      <trkpt lat="46.8644" lon="3.03705">
        <ele>201.178492</ele>
        <time>2022-07-10T20:31:04.073Z</time>
      </trkpt>
      <trkpt lat="46.86472" lon="3.03727">
        <ele>201.909219</ele>
        <time>2022-07-10T20:31:12.606Z</time>
      </trkpt>
      <trkpt lat="46.86498" lon="3.03732">
        <ele>202.440249</ele>
        <time>2022-07-10T20:31:18.307Z</time>
      </trkpt>
      <trkpt lat="46.86554" lon="3.03872">
        <ele>203.386262</ele>
        <time>2022-07-10T20:31:40.240Z</time>
      </trkpt>
      <trkpt lat="46.8679" lon="3.03858">
        <ele>203.107767</ele>
        <time>2022-07-10T20:32:11.529Z</time>
      </trkpt>
      <trkpt lat="46.86825" lon="3.03861">
        <ele>202.959902</ele>
        <time>2022-07-10T20:32:16.265Z</time>
      </trkpt>
      <trkpt lat="46.86849" lon="3.03873">
        <ele>202.884072</ele>
        <time>2022-07-10T20:32:19.903Z</time>
      </trkpt>
      <trkpt lat="46.87042" lon="3.04007">
        <ele>202.611646</ele>
        <time>2022-07-10T20:32:50.924Z</time>
      </trkpt>
      <trkpt lat="46.87067" lon="3.04046">
        <ele>202.531575</ele>
        <time>2022-07-10T20:32:56.076Z</time>
      </trkpt>
      <trkpt lat="46.87119" lon="3.04128">
        <ele>202.364731</ele>
        <time>2022-07-10T20:33:06.801Z</time>
      </trkpt>
      <trkpt lat="46.8722" lon="3.0429">
        <ele>201.837557</ele>
        <time>2022-07-10T20:33:27.296Z</time>
      </trkpt>
      <trkpt lat="46.87307" lon="3.04381">
        <ele>201.286538</ele>
        <time>2022-07-10T20:33:41.548Z</time>
      </trkpt>
      <trkpt lat="46.87427" lon="3.04509">
        <ele>200.34488</ele>
        <time>2022-07-10T20:34:00.328Z</time>
      </trkpt>
      <trkpt lat="46.87486" lon="3.04562">
        <ele>199.959177</ele>
        <time>2022-07-10T20:34:09.308Z</time>
      </trkpt>
      <trkpt lat="46.87511" lon="3.04575">
        <ele>199.81295</ele>
        <time>2022-07-10T20:34:12.817Z</time>
      </trkpt>
      <trkpt lat="46.87577" lon="3.04585">
        <ele>199.428382</ele>
        <time>2022-07-10T20:34:21.841Z</time>
      </trkpt>
      <trkpt lat="46.87689" lon="3.04563">
        <ele>198.494545</ele>
        <time>2022-07-10T20:34:36.855Z</time>
      </trkpt>
      <trkpt lat="46.87822" lon="3.04569">
        <ele>196.32126</ele>
        <time>2022-07-10T20:34:52.222Z</time>
      </trkpt>
      <trkpt lat="46.87929" lon="3.04634">
        <ele>193.575452</ele>
        <time>2022-07-10T20:35:04.159Z</time>
      </trkpt>
      <trkpt lat="46.88021" lon="3.04738">
        <ele>190.050702</ele>
        <time>2022-07-10T20:35:15.819Z</time>
      </trkpt>
      <trkpt lat="46.88062" lon="3.04868">
        <ele>187.904419</ele>
        <time>2022-07-10T20:35:26.119Z</time>
      </trkpt>
      <trkpt lat="46.88074" lon="3.04893">
        <ele>187.689075</ele>
        <time>2022-07-10T20:35:28.399Z</time>
      </trkpt>
      <trkpt lat="46.88167" lon="3.04944">
        <ele>186.651625</ele>
        <time>2022-07-10T20:35:41.328Z</time>
      </trkpt>
      <trkpt lat="46.88414" lon="3.04921">
        <ele>187.699487</ele>
        <time>2022-07-10T20:36:26.618Z</time>
      </trkpt>
      <trkpt lat="46.88455" lon="3.04927">
        <ele>187.59378</ele>
        <time>2022-07-10T20:36:33.128Z</time>
      </trkpt>
      <trkpt lat="46.88466" lon="3.04929">
        <ele>187.563797</ele>
        <time>2022-07-10T20:36:34.847Z</time>
      </trkpt>
      <trkpt lat="46.88776" lon="3.05126">
        <ele>183.57169</ele>
        <time>2022-07-10T20:37:14.536Z</time>
      </trkpt>
      <trkpt lat="46.8893" lon="3.05137">
        <ele>180.901213</ele>
        <time>2022-07-10T20:37:31.357Z</time>
      </trkpt>
      <trkpt lat="46.89016" lon="3.05003">
        <ele>178.716663</ele>
        <time>2022-07-10T20:37:45.564Z</time>
      </trkpt>
      <trkpt lat="46.89084" lon="3.04924">
        <ele>177.684779</ele>
        <time>2022-07-10T20:37:55.821Z</time>
      </trkpt>
      <trkpt lat="46.89109" lon="3.04907">
        <ele>177.351998</ele>
        <time>2022-07-10T20:37:59.147Z</time>
      </trkpt>
      <trkpt lat="46.89219" lon="3.04915">
        <ele>176.305707</ele>
        <time>2022-07-10T20:38:12.527Z</time>
      </trkpt>
      <trkpt lat="46.89306" lon="3.04887">
        <ele>175.774018</ele>
        <time>2022-07-10T20:38:23.856Z</time>
      </trkpt>
      <trkpt lat="46.89429" lon="3.04893">
        <ele>175.672114</ele>
        <time>2022-07-10T20:38:42.078Z</time>
      </trkpt>
      <trkpt lat="46.89566" lon="3.04871">
        <ele>176.006776</ele>
        <time>2022-07-10T20:39:05.255Z</time>
      </trkpt>
      <trkpt lat="46.89648" lon="3.04734">
        <ele>176.361149</ele>
        <time>2022-07-10T20:39:24.973Z</time>
      </trkpt>
      <trkpt lat="46.89729" lon="3.04709">
        <ele>176.444955</ele>
        <time>2022-07-10T20:39:37.108Z</time>
      </trkpt>
      <trkpt lat="46.89844" lon="3.04738">
        <ele>176.491716</ele>
        <time>2022-07-10T20:39:54.540Z</time>
      </trkpt>
      <trkpt lat="46.90053" lon="3.04702">
        <ele>176.526565</ele>
        <time>2022-07-10T20:40:26.410Z</time>
      </trkpt>
      <trkpt lat="46.90165" lon="3.0474">
        <ele>176.381942</ele>
        <time>2022-07-10T20:40:42.784Z</time>
      </trkpt>
      <trkpt lat="46.90268" lon="3.04799">
        <ele>176.362243</ele>
        <time>2022-07-10T20:40:58.165Z</time>
      </trkpt>
      <trkpt lat="46.90479" lon="3.04846">
        <ele>176.081522</ele>
        <time>2022-07-10T20:41:31.574Z</time>
      </trkpt>
      <trkpt lat="46.90496" lon="3.04846">
        <ele>176.031636</ele>
        <time>2022-07-10T20:41:33.946Z</time>
      </trkpt>
      <trkpt lat="46.9053" lon="3.04832">
        <ele>175.929506</ele>
        <time>2022-07-10T20:41:38.481Z</time>
      </trkpt>
      <trkpt lat="46.90541" lon="3.0481">
        <ele>175.864677</ele>
        <time>2022-07-10T20:41:40.782Z</time>
      </trkpt>
      <trkpt lat="46.90553" lon="3.04805">
        <ele>175.591422</ele>
        <time>2022-07-10T20:41:42.285Z</time>
      </trkpt>
      <trkpt lat="46.90574" lon="3.04797">
        <ele>175.151181</ele>
        <time>2022-07-10T20:41:44.706Z</time>
      </trkpt>
      <trkpt lat="46.90609" lon="3.04788">
        <ele>174.4138</ele>
        <time>2022-07-10T20:41:48.604Z</time>
      </trkpt>
      <trkpt lat="46.90649" lon="3.04781">
        <ele>173.585469</ele>
        <time>2022-07-10T20:41:52.923Z</time>
      </trkpt>
      <trkpt lat="46.90665" lon="3.04775">
        <ele>173.232735</ele>
        <time>2022-07-10T20:41:54.694Z</time>
      </trkpt>
      <trkpt lat="46.90696" lon="3.04767">
        <ele>172.581965</ele>
        <time>2022-07-10T20:41:57.997Z</time>
      </trkpt>
      <trkpt lat="46.90739" lon="3.0478">
        <ele>171.803956</ele>
        <time>2022-07-10T20:42:02.476Z</time>
      </trkpt>
      <trkpt lat="46.90846" lon="3.04822">
        <ele>170.090613</ele>
        <time>2022-07-10T20:42:14.750Z</time>
      </trkpt>
      <trkpt lat="46.90895" lon="3.04823">
        <ele>169.419331</ele>
        <time>2022-07-10T20:42:21.620Z</time>
      </trkpt>
      <trkpt lat="46.90931" lon="3.04816">
        <ele>169.712177</ele>
        <time>2022-07-10T20:42:27.607Z</time>
      </trkpt>
      <trkpt lat="46.90994" lon="3.04819">
        <ele>170.229234</ele>
        <time>2022-07-10T20:42:39.495Z</time>
      </trkpt>
      <trkpt lat="46.91156" lon="3.04885">
        <ele>171.676235</ele>
        <time>2022-07-10T20:43:13.099Z</time>
      </trkpt>
      <trkpt lat="46.91398" lon="3.04976">
        <ele>173.445214</ele>
        <time>2022-07-10T20:43:55.242Z</time>
      </trkpt>
      <trkpt lat="46.91681" lon="3.05107">
        <ele>175.417004</ele>
        <time>2022-07-10T20:44:51.080Z</time>
      </trkpt>
      <trkpt lat="46.91744" lon="3.05149">
        <ele>175.490058</ele>
        <time>2022-07-10T20:45:00.385Z</time>
      </trkpt>
      <trkpt lat="46.91792" lon="3.05191">
        <ele>174.584855</ele>
        <time>2022-07-10T20:45:06.685Z</time>
      </trkpt>
      <trkpt lat="46.91937" lon="3.0539">
        <ele>171.202708</ele>
        <time>2022-07-10T20:45:27.678Z</time>
      </trkpt>
      <trkpt lat="46.91987" lon="3.05446">
        <ele>170.730701</ele>
        <time>2022-07-10T20:45:35.861Z</time>
      </trkpt>
      <trkpt lat="46.92017" lon="3.05468">
        <ele>170.480483</ele>
        <time>2022-07-10T20:45:41.391Z</time>
      </trkpt>
      <trkpt lat="46.92117" lon="3.05514">
        <ele>171.256277</ele>
        <time>2022-07-10T20:46:03.297Z</time>
      </trkpt>
      <trkpt lat="46.92159" lon="3.05515">
        <ele>171.72425</ele>
        <time>2022-07-10T20:46:11.434Z</time>
      </trkpt>
      <trkpt lat="46.92188" lon="3.05525">
        <ele>172.069151</ele>
        <time>2022-07-10T20:46:17.370Z</time>
      </trkpt>
      <trkpt lat="46.92235" lon="3.05538">
        <ele>172.414023</ele>
        <time>2022-07-10T20:46:25.981Z</time>
      </trkpt>
      <trkpt lat="46.92254" lon="3.05556">
        <ele>172.487571</ele>
        <time>2022-07-10T20:46:29.962Z</time>
      </trkpt>
      <trkpt lat="46.92383" lon="3.05634">
        <ele>172.909021</ele>
        <time>2022-07-10T20:46:50.918Z</time>
      </trkpt>
      <trkpt lat="46.9241" lon="3.05641">
        <ele>172.916637</ele>
        <time>2022-07-10T20:46:55.375Z</time>
      </trkpt>
      <trkpt lat="46.92425" lon="3.05634">
        <ele>172.920764</ele>
        <time>2022-07-10T20:46:57.841Z</time>
      </trkpt>
      <trkpt lat="46.9271" lon="3.05782">
        <ele>172.979224</ele>
        <time>2022-07-10T20:47:42.361Z</time>
      </trkpt>
      <trkpt lat="46.9281" lon="3.05846">
        <ele>173.157141</ele>
        <time>2022-07-10T20:47:59.609Z</time>
      </trkpt>
      <trkpt lat="46.92886" lon="3.05885">
        <ele>173.294458</ele>
        <time>2022-07-10T20:48:12.212Z</time>
      </trkpt>
      <trkpt lat="46.92932" lon="3.05894">
        <ele>173.218049</ele>
        <time>2022-07-10T20:48:19.217Z</time>
      </trkpt>
      <trkpt lat="46.93334" lon="3.05968">
        <ele>172.467967</ele>
        <time>2022-07-10T20:49:16.175Z</time>
      </trkpt>
      <trkpt lat="46.93442" lon="3.05966">
        <ele>172.256932</ele>
        <time>2022-07-10T20:49:30.899Z</time>
      </trkpt>
      <trkpt lat="46.93654" lon="3.05953">
        <ele>172.413652</ele>
        <time>2022-07-10T20:50:03.597Z</time>
      </trkpt>
      <trkpt lat="46.93713" lon="3.05952">
        <ele>172.496162</ele>
        <time>2022-07-10T20:50:13.244Z</time>
      </trkpt>
      <trkpt lat="46.93918" lon="3.05947">
        <ele>172.375853</ele>
        <time>2022-07-10T20:50:42.825Z</time>
      </trkpt>
      <trkpt lat="46.93928" lon="3.05946">
        <ele>172.359992</ele>
        <time>2022-07-10T20:50:44.133Z</time>
      </trkpt>
      <trkpt lat="46.93946" lon="3.05945">
        <ele>172.331414</ele>
        <time>2022-07-10T20:50:46.520Z</time>
      </trkpt>
      <trkpt lat="46.94597" lon="3.0592">
        <ele>171.938662</ele>
        <time>2022-07-10T20:52:20.212Z</time>
      </trkpt>
      <trkpt lat="46.94594" lon="3.05779">
        <ele>172.325092</ele>
        <time>2022-07-10T20:52:37.454Z</time>
      </trkpt>
      <trkpt lat="46.94602" lon="3.05747">
        <ele>172.531146</ele>
        <time>2022-07-10T20:52:41.893Z</time>
      </trkpt>
      <trkpt lat="46.94631" lon="3.05691">
        <ele>172.955419</ele>
        <time>2022-07-10T20:52:50.922Z</time>
      </trkpt>
      <trkpt lat="46.94655" lon="3.0567">
        <ele>173.19896</ele>
        <time>2022-07-10T20:52:56.136Z</time>
      </trkpt>
      <trkpt lat="46.94714" lon="3.05671">
        <ele>173.725759</ele>
        <time>2022-07-10T20:53:06.859Z</time>
      </trkpt>
      <trkpt lat="46.94834" lon="3.05682">
        <ele>174.42238</ele>
        <time>2022-07-10T20:53:27.458Z</time>
      </trkpt>
      <trkpt lat="46.94954" lon="3.05642">
        <ele>175.45706</ele>
        <time>2022-07-10T20:53:47.746Z</time>
      </trkpt>
      <trkpt lat="46.94987" lon="3.05638">
        <ele>175.848474</ele>
        <time>2022-07-10T20:53:54.213Z</time>
      </trkpt>
      <trkpt lat="46.95073" lon="3.05656">
        <ele>176.886084</ele>
        <time>2022-07-10T20:54:12.267Z</time>
      </trkpt>
      <trkpt lat="46.95087" lon="3.05654">
        <ele>177.09929</ele>
        <time>2022-07-10T20:54:15.984Z</time>
      </trkpt>
      <trkpt lat="46.95247" lon="3.05586">
        <ele>179.943998</ele>
        <time>2022-07-10T20:54:53.365Z</time>
      </trkpt>
      <trkpt lat="46.95449" lon="3.0554">
        <ele>181.256439</ele>
        <time>2022-07-10T20:55:27.424Z</time>
      </trkpt>
      <trkpt lat="46.95473" lon="3.05548">
        <ele>181.440981</ele>
        <time>2022-07-10T20:55:31.408Z</time>
      </trkpt>
      <trkpt lat="46.95488" lon="3.05552">
        <ele>181.556216</ele>
        <time>2022-07-10T20:55:33.943Z</time>
      </trkpt>
      <trkpt lat="46.95496" lon="3.05547">
        <ele>181.617371</ele>
        <time>2022-07-10T20:55:35.267Z</time>
      </trkpt>
      <trkpt lat="46.95499" lon="3.05539">
        <ele>181.667228</ele>
        <time>2022-07-10T20:55:36.423Z</time>
      </trkpt>
      <trkpt lat="46.95512" lon="3.05524">
        <ele>181.791774</ele>
        <time>2022-07-10T20:55:39.413Z</time>
      </trkpt>
      <trkpt lat="46.9558" lon="3.05496">
        <ele>182.325665</ele>
        <time>2022-07-10T20:55:52.748Z</time>
      </trkpt>
      <trkpt lat="46.95608" lon="3.05483">
        <ele>182.547456</ele>
        <time>2022-07-10T20:55:58.407Z</time>
      </trkpt>
      <trkpt lat="46.95632" lon="3.05463">
        <ele>182.763709</ele>
        <time>2022-07-10T20:56:03.862Z</time>
      </trkpt>
      <trkpt lat="46.95724" lon="3.05385">
        <ele>183.590579</ele>
        <time>2022-07-10T20:56:23.033Z</time>
      </trkpt>
      <trkpt lat="46.9582" lon="3.05379">
        <ele>184.082425</ele>
        <time>2022-07-10T20:56:38.392Z</time>
      </trkpt>
      <trkpt lat="46.95892" lon="3.0533">
        <ele>184.373477</ele>
        <time>2022-07-10T20:56:50.843Z</time>
      </trkpt>
      <trkpt lat="46.95912" lon="3.05324">
        <ele>184.445481</ele>
        <time>2022-07-10T20:56:54.096Z</time>
      </trkpt>
      <trkpt lat="46.9593" lon="3.0532">
        <ele>184.513608</ele>
        <time>2022-07-10T20:56:57.288Z</time>
      </trkpt>
      <trkpt lat="46.96079" lon="3.05255">
        <ele>185.762735</ele>
        <time>2022-07-10T20:57:26.038Z</time>
      </trkpt>
      <trkpt lat="46.96151" lon="3.05221">
        <ele>186.108055</ele>
        <time>2022-07-10T20:57:39.553Z</time>
      </trkpt>
      <trkpt lat="46.96256" lon="3.05176">
        <ele>186.440523</ele>
        <time>2022-07-10T20:57:56.462Z</time>
      </trkpt>
      <trkpt lat="46.96266" lon="3.05161">
        <ele>186.484427</ele>
        <time>2022-07-10T20:57:58.638Z</time>
      </trkpt>
      <trkpt lat="46.96267" lon="3.05158">
        <ele>186.493375</ele>
        <time>2022-07-10T20:57:59.095Z</time>
      </trkpt>
      <trkpt lat="46.96336" lon="3.05143">
        <ele>186.131877</ele>
        <time>2022-07-10T20:58:08.757Z</time>
      </trkpt>
      <trkpt lat="46.96397" lon="3.05106">
        <ele>185.768057</ele>
        <time>2022-07-10T20:58:17.170Z</time>
      </trkpt>
      <trkpt lat="46.96437" lon="3.05089">
        <ele>185.540059</ele>
        <time>2022-07-10T20:58:22.238Z</time>
      </trkpt>
      <trkpt lat="46.96506" lon="3.05062">
        <ele>185.241866</ele>
        <time>2022-07-10T20:58:31.254Z</time>
      </trkpt>
      <trkpt lat="46.96594" lon="3.0504">
        <ele>184.881148</ele>
        <time>2022-07-10T20:58:43.476Z</time>
      </trkpt>
      <trkpt lat="46.96632" lon="3.05021">
        <ele>184.715191</ele>
        <time>2022-07-10T20:58:49.912Z</time>
      </trkpt>
      <trkpt lat="46.96732" lon="3.04882">
        <ele>184.134017</ele>
        <time>2022-07-10T20:59:10.220Z</time>
      </trkpt>
      <trkpt lat="46.96753" lon="3.04874">
        <ele>184.046144</ele>
        <time>2022-07-10T20:59:12.868Z</time>
      </trkpt>
      <trkpt lat="46.96917" lon="3.04826">
        <ele>180.195065</ele>
        <time>2022-07-10T20:59:30.609Z</time>
      </trkpt>
      <trkpt lat="46.96993" lon="3.04796">
        <ele>179.132253</ele>
        <time>2022-07-10T20:59:38.625Z</time>
      </trkpt>
      <trkpt lat="46.97043" lon="3.04779">
        <ele>178.575134</ele>
        <time>2022-07-10T20:59:44.484Z</time>
      </trkpt>
      <trkpt lat="46.97093" lon="3.04771">
        <ele>178.037332</ele>
        <time>2022-07-10T20:59:52.106Z</time>
      </trkpt>
      <trkpt lat="46.97141" lon="3.04768">
        <ele>178.962549</ele>
        <time>2022-07-10T21:00:02.789Z</time>
      </trkpt>
      <trkpt lat="46.9718" lon="3.04751">
        <ele>180.382881</ele>
        <time>2022-07-10T21:00:13.542Z</time>
      </trkpt>
      <trkpt lat="46.97252" lon="3.04693">
        <ele>183.241486</ele>
        <time>2022-07-10T21:00:40.406Z</time>
      </trkpt>
      <trkpt lat="46.97277" lon="3.04665">
        <ele>184.353723</ele>
        <time>2022-07-10T21:00:51.195Z</time>
      </trkpt>
      <trkpt lat="46.97322" lon="3.04615">
        <ele>186.441111</ele>
        <time>2022-07-10T21:01:10.014Z</time>
      </trkpt>
      <trkpt lat="46.97363" lon="3.04491">
        <ele>189.974244</ele>
        <time>2022-07-10T21:01:38.403Z</time>
      </trkpt>
      <trkpt lat="46.97444" lon="3.04365">
        <ele>192.273351</ele>
        <time>2022-07-10T21:02:04.837Z</time>
      </trkpt>
      <trkpt lat="46.97524" lon="3.04357">
        <ele>193.497994</ele>
        <time>2022-07-10T21:02:19.926Z</time>
      </trkpt>
      <trkpt lat="46.97567" lon="3.04367">
        <ele>193.414373</ele>
        <time>2022-07-10T21:02:27.168Z</time>
      </trkpt>
      <trkpt lat="46.97597" lon="3.04403">
        <ele>193.244198</ele>
        <time>2022-07-10T21:02:32.837Z</time>
      </trkpt>
      <trkpt lat="46.97671" lon="3.04467">
        <ele>192.867169</ele>
        <time>2022-07-10T21:02:43.772Z</time>
      </trkpt>
      <trkpt lat="46.97821" lon="3.04531">
        <ele>190.470628</ele>
        <time>2022-07-10T21:03:01.332Z</time>
      </trkpt>
      <trkpt lat="46.97876" lon="3.04549">
        <ele>189.472436</ele>
        <time>2022-07-10T21:03:07.623Z</time>
      </trkpt>
      <trkpt lat="46.97942" lon="3.04553">
        <ele>188.211246</ele>
        <time>2022-07-10T21:03:14.847Z</time>
      </trkpt>
      <trkpt lat="46.97993" lon="3.04543">
        <ele>187.20381</ele>
        <time>2022-07-10T21:03:20.642Z</time>
      </trkpt>
      <trkpt lat="46.98238" lon="3.04452">
        <ele>182.309705</ele>
        <time>2022-07-10T21:03:48.175Z</time>
      </trkpt>
      <trkpt lat="46.98267" lon="3.0446">
        <ele>181.964512</ele>
        <time>2022-07-10T21:03:51.572Z</time>
      </trkpt>
      <trkpt lat="46.98298" lon="3.04485">
        <ele>181.548259</ele>
        <time>2022-07-10T21:03:55.784Z</time>
      </trkpt>
      <trkpt lat="46.98341" lon="3.04556">
        <ele>180.797652</ele>
        <time>2022-07-10T21:04:03.793Z</time>
      </trkpt>
      <trkpt lat="46.98355" lon="3.04568">
        <ele>180.599458</ele>
        <time>2022-07-10T21:04:06.040Z</time>
      </trkpt>
      <trkpt lat="46.9838" lon="3.04581">
        <ele>180.493961</ele>
        <time>2022-07-10T21:04:09.592Z</time>
      </trkpt>
      <trkpt lat="46.98542" lon="3.04606">
        <ele>180.299901</ele>
        <time>2022-07-10T21:04:34.151Z</time>
      </trkpt>
      <trkpt lat="46.99283" lon="3.04726">
        <ele>177.979378</ele>
        <time>2022-07-10T21:06:15.645Z</time>
      </trkpt>
      <trkpt lat="46.99337" lon="3.04732">
        <ele>178.168274</ele>
        <time>2022-07-10T21:06:24.375Z</time>
      </trkpt>
      <trkpt lat="46.99376" lon="3.04718">
        <ele>178.308898</ele>
        <time>2022-07-10T21:06:31.156Z</time>
      </trkpt>
      <trkpt lat="46.99556" lon="3.04514">
        <ele>179.631084</ele>
        <time>2022-07-10T21:07:11.220Z</time>
      </trkpt>
      <trkpt lat="46.99641" lon="3.04403">
        <ele>180.087503</ele>
        <time>2022-07-10T21:07:29.958Z</time>
      </trkpt>
      <trkpt lat="46.9975" lon="3.04204">
        <ele>180.501541</ele>
        <time>2022-07-10T21:07:57.641Z</time>
      </trkpt>
      <trkpt lat="46.99791" lon="3.04167">
        <ele>180.56422</ele>
        <time>2022-07-10T21:08:05.056Z</time>
      </trkpt>
      <trkpt lat="47.00152" lon="3.03904">
        <ele>179.996803</ele>
        <time>2022-07-10T21:09:02.154Z</time>
      </trkpt>
      <trkpt lat="47.00182" lon="3.03892">
        <ele>179.997978</ele>
        <time>2022-07-10T21:09:06.476Z</time>
      </trkpt>
      <trkpt lat="47.0022" lon="3.03884">
        <ele>179.9994</ele>
        <time>2022-07-10T21:09:11.717Z</time>
      </trkpt>
      <trkpt lat="47.0035" lon="3.03828">
        <ele>180.308731</ele>
        <time>2022-07-10T21:09:32.481Z</time>
      </trkpt>
      <trkpt lat="47.00379" lon="3.03821">
        <ele>180.573827</ele>
        <time>2022-07-10T21:09:37.742Z</time>
      </trkpt>
      <trkpt lat="47.00577" lon="3.03843">
        <ele>182.433378</ele>
        <time>2022-07-10T21:10:16.801Z</time>
      </trkpt>
      <trkpt lat="47.00627" lon="3.03834">
        <ele>182.946654</ele>
        <time>2022-07-10T21:10:26.691Z</time>
      </trkpt>
      <trkpt lat="47.00673" lon="3.03809">
        <ele>183.401057</ele>
        <time>2022-07-10T21:10:35.491Z</time>
      </trkpt>
      <trkpt lat="47.00742" lon="3.03748">
        <ele>183.061898</ele>
        <time>2022-07-10T21:10:48.053Z</time>
      </trkpt>
      <trkpt lat="47.00766" lon="3.03737">
        <ele>182.956784</ele>
        <time>2022-07-10T21:10:51.575Z</time>
      </trkpt>
      <trkpt lat="47.01121" lon="3.03742">
        <ele>178.019952</ele>
        <time>2022-07-10T21:11:32.845Z</time>
      </trkpt>
      <trkpt lat="47.01153" lon="3.03749">
        <ele>177.379902</ele>
        <time>2022-07-10T21:11:36.199Z</time>
      </trkpt>
      <trkpt lat="47.01163" lon="3.03758">
        <ele>177.134997</ele>
        <time>2022-07-10T21:11:37.453Z</time>
      </trkpt>
      <trkpt lat="47.01167" lon="3.03764">
        <ele>177.032154</ele>
        <time>2022-07-10T21:11:38.002Z</time>
      </trkpt>
      <trkpt lat="47.01183" lon="3.03763">
        <ele>176.714686</ele>
        <time>2022-07-10T21:11:39.646Z</time>
      </trkpt>
      <trkpt lat="47.01188" lon="3.03756">
        <ele>176.568112</ele>
        <time>2022-07-10T21:11:40.403Z</time>
      </trkpt>
      <trkpt lat="47.01232" lon="3.03747">
        <ele>175.548662</ele>
        <time>2022-07-10T21:11:44.945Z</time>
      </trkpt>
      <trkpt lat="47.01265" lon="3.03746">
        <ele>174.769475</ele>
        <time>2022-07-10T21:11:48.384Z</time>
      </trkpt>
      <trkpt lat="47.01302" lon="3.03741">
        <ele>173.887623</ele>
        <time>2022-07-10T21:11:52.298Z</time>
      </trkpt>
      <trkpt lat="47.0141" lon="3.03659">
        <ele>171.955909</ele>
        <time>2022-07-10T21:12:05.964Z</time>
      </trkpt>
      <trkpt lat="47.01492" lon="3.03618">
        <ele>171.441451</ele>
        <time>2022-07-10T21:12:17.459Z</time>
      </trkpt>
      <trkpt lat="47.01771" lon="3.03385">
        <ele>173.024929</ele>
        <time>2022-07-10T21:13:12.405Z</time>
      </trkpt>
      <trkpt lat="47.02089" lon="3.03123">
        <ele>176.922418</ele>
        <time>2022-07-10T21:14:25.193Z</time>
      </trkpt>
      <trkpt lat="47.02141" lon="3.03117">
        <ele>177.356039</ele>
        <time>2022-07-10T21:14:33.851Z</time>
      </trkpt>
      <trkpt lat="47.0229" lon="3.0315">
        <ele>177.457305</ele>
        <time>2022-07-10T21:14:56.272Z</time>
      </trkpt>
      <trkpt lat="47.02369" lon="3.03145">
        <ele>177.24642</ele>
        <time>2022-07-10T21:15:07.125Z</time>
      </trkpt>
      <trkpt lat="47.02468" lon="3.03136">
        <ele>176.616237</ele>
        <time>2022-07-10T21:15:20.214Z</time>
      </trkpt>
      <trkpt lat="47.0247" lon="3.03139">
        <ele>176.602295</ele>
        <time>2022-07-10T21:15:20.486Z</time>
      </trkpt>
      <trkpt lat="47.02471" lon="3.0314">
        <ele>176.589597</ele>
        <time>2022-07-10T21:15:20.735Z</time>
      </trkpt>
      <trkpt lat="47.02478" lon="3.03134">
        <ele>176.538696</ele>
        <time>2022-07-10T21:15:21.816Z</time>
      </trkpt>
      <trkpt lat="47.02511" lon="3.03136">
        <ele>176.333334</ele>
        <time>2022-07-10T21:15:25.734Z</time>
      </trkpt>
      <trkpt lat="47.02555" lon="3.03151">
        <ele>175.908154</ele>
        <time>2022-07-10T21:15:31.175Z</time>
      </trkpt>
      <trkpt lat="47.02653" lon="3.0318">
        <ele>174.895838</ele>
        <time>2022-07-10T21:15:43.416Z</time>
      </trkpt>
      <trkpt lat="47.02675" lon="3.03182">
        <ele>174.676718</ele>
        <time>2022-07-10T21:15:46.068Z</time>
      </trkpt>
      <trkpt lat="47.02713" lon="3.03164">
        <ele>174.343039</ele>
        <time>2022-07-10T21:15:50.908Z</time>
      </trkpt>
      <trkpt lat="47.02732" lon="3.03142">
        <ele>174.189547</ele>
        <time>2022-07-10T21:15:53.932Z</time>
      </trkpt>
      <trkpt lat="47.02758" lon="3.03096">
        <ele>173.926389</ele>
        <time>2022-07-10T21:15:59.113Z</time>
      </trkpt>
      <trkpt lat="47.02768" lon="3.03094">
        <ele>173.865302</ele>
        <time>2022-07-10T21:16:00.273Z</time>
      </trkpt>
      <trkpt lat="47.02769" lon="3.0308">
        <ele>173.803938</ele>
        <time>2022-07-10T21:16:01.445Z</time>
      </trkpt>
      <trkpt lat="47.02837" lon="3.02986">
        <ele>173.367656</ele>
        <time>2022-07-10T21:16:14.520Z</time>
      </trkpt>
      <trkpt lat="47.0285" lon="3.03">
        <ele>173.407698</ele>
        <time>2022-07-10T21:16:16.580Z</time>
      </trkpt>
      <trkpt lat="47.02863" lon="3.03003">
        <ele>173.438969</ele>
        <time>2022-07-10T21:16:18.711Z</time>
      </trkpt>
      <trkpt lat="47.03188" lon="3.0298">
        <ele>174.647442</ele>
        <time>2022-07-10T21:17:12.668Z</time>
      </trkpt>
      <trkpt lat="47.03327" lon="3.02973">
        <ele>175.362933</ele>
        <time>2022-07-10T21:17:36.653Z</time>
      </trkpt>
      <trkpt lat="47.03367" lon="3.02978">
        <ele>175.486192</ele>
        <time>2022-07-10T21:17:43.288Z</time>
      </trkpt>
      <trkpt lat="47.03425" lon="3.02996">
        <ele>175.349878</ele>
        <time>2022-07-10T21:17:52.440Z</time>
      </trkpt>
      <trkpt lat="47.03461" lon="3.03015">
        <ele>175.261274</ele>
        <time>2022-07-10T21:17:57.744Z</time>
      </trkpt>
      <trkpt lat="47.03517" lon="3.03055">
        <ele>175.119287</ele>
        <time>2022-07-10T21:18:05.930Z</time>
      </trkpt>
      <trkpt lat="47.03532" lon="3.03068">
        <ele>174.99565</ele>
        <time>2022-07-10T21:18:08.074Z</time>
      </trkpt>
      <trkpt lat="47.03592" lon="3.03117">
        <ele>174.183371</ele>
        <time>2022-07-10T21:18:16.353Z</time>
      </trkpt>
      <trkpt lat="47.03653" lon="3.03155">
        <ele>173.40618</ele>
        <time>2022-07-10T21:18:24.080Z</time>
      </trkpt>
      <trkpt lat="47.03714" lon="3.03174">
        <ele>172.60392</ele>
        <time>2022-07-10T21:18:31.411Z</time>
      </trkpt>
      <trkpt lat="47.03948" lon="3.03194">
        <ele>169.55919</ele>
        <time>2022-07-10T21:18:58.654Z</time>
      </trkpt>
      <trkpt lat="47.04081" lon="3.03152">
        <ele>168.388389</ele>
        <time>2022-07-10T21:19:15.502Z</time>
      </trkpt>
      <trkpt lat="47.042" lon="3.03037">
        <ele>168.013059</ele>
        <time>2022-07-10T21:19:35.923Z</time>
      </trkpt>
      <trkpt lat="47.04245" lon="3.03009">
        <ele>168.092794</ele>
        <time>2022-07-10T21:19:43.940Z</time>
      </trkpt>
      <trkpt lat="47.04368" lon="3.0293">
        <ele>168.321291</ele>
        <time>2022-07-10T21:20:04.611Z</time>
      </trkpt>
      <trkpt lat="47.04413" lon="3.02908">
        <ele>168.475914</ele>
        <time>2022-07-10T21:20:12.056Z</time>
      </trkpt>
      <trkpt lat="47.04482" lon="3.02892">
        <ele>168.705967</ele>
        <time>2022-07-10T21:20:23.533Z</time>
      </trkpt>
      <trkpt lat="47.04545" lon="3.02878">
        <ele>168.922799</ele>
        <time>2022-07-10T21:20:34.239Z</time>
      </trkpt>
      <trkpt lat="47.04813" lon="3.02792">
        <ele>170.329014</ele>
        <time>2022-07-10T21:21:20.745Z</time>
      </trkpt>
      <trkpt lat="47.04852" lon="3.02776">
        <ele>170.518733</ele>
        <time>2022-07-10T21:21:27.495Z</time>
      </trkpt>
      <trkpt lat="47.04911" lon="3.0274">
        <ele>170.671387</ele>
        <time>2022-07-10T21:21:38.101Z</time>
      </trkpt>
      <trkpt lat="47.05031" lon="3.02653">
        <ele>170.436532</ele>
        <time>2022-07-10T21:21:57.143Z</time>
      </trkpt>
      <trkpt lat="47.05162" lon="3.02569">
        <ele>169.326791</ele>
        <time>2022-07-10T21:22:14.880Z</time>
      </trkpt>
      <trkpt lat="47.0521" lon="3.02535">
        <ele>168.845488</ele>
        <time>2022-07-10T21:22:21.420Z</time>
      </trkpt>
      <trkpt lat="47.05236" lon="3.02507">
        <ele>168.613656</ele>
        <time>2022-07-10T21:22:25.380Z</time>
      </trkpt>
      <trkpt lat="47.05271" lon="3.02452">
        <ele>168.263116</ele>
        <time>2022-07-10T21:22:31.850Z</time>
      </trkpt>
      <trkpt lat="47.05346" lon="3.02257">
        <ele>167.292446</ele>
        <time>2022-07-10T21:22:51.960Z</time>
      </trkpt>
      <trkpt lat="47.05394" lon="3.02177">
        <ele>166.903689</ele>
        <time>2022-07-10T21:23:01.458Z</time>
      </trkpt>
      <trkpt lat="47.05452" lon="3.02128">
        <ele>166.582884</ele>
        <time>2022-07-10T21:23:10.123Z</time>
      </trkpt>
      <trkpt lat="47.05579" lon="3.02076">
        <ele>166.414744</ele>
        <time>2022-07-10T21:23:28.181Z</time>
      </trkpt>
      <trkpt lat="47.05653" lon="3.01989">
        <ele>166.733798</ele>
        <time>2022-07-10T21:23:44.862Z</time>
      </trkpt>
      <trkpt lat="47.0567" lon="3.0198">
        <ele>166.850622</ele>
        <time>2022-07-10T21:23:48.078Z</time>
      </trkpt>
      <trkpt lat="47.05677" lon="3.01978">
        <ele>166.898788</ele>
        <time>2022-07-10T21:23:49.408Z</time>
      </trkpt>
      <trkpt lat="47.05657" lon="3.01861">
        <ele>167.437566</ele>
        <time>2022-07-10T21:24:04.792Z</time>
      </trkpt>
      <trkpt lat="47.05975" lon="3.01692">
        <ele>167.446109</ele>
        <time>2022-07-10T21:24:54.321Z</time>
      </trkpt>
      <trkpt lat="47.06012" lon="3.01674">
        <ele>167.391406</ele>
        <time>2022-07-10T21:24:59.536Z</time>
      </trkpt>
      <trkpt lat="47.06054" lon="3.01651">
        <ele>167.276337</ele>
        <time>2022-07-10T21:25:05.649Z</time>
      </trkpt>
      <trkpt lat="47.06089" lon="3.01632">
        <ele>167.181538</ele>
        <time>2022-07-10T21:25:10.737Z</time>
      </trkpt>
      <trkpt lat="47.06132" lon="3.01613">
        <ele>167.068777</ele>
        <time>2022-07-10T21:25:16.975Z</time>
      </trkpt>
      <trkpt lat="47.06156" lon="3.0162">
        <ele>167.006279</ele>
        <time>2022-07-10T21:25:20.440Z</time>
      </trkpt>
      <trkpt lat="47.06219" lon="3.01654">
        <ele>167.002281</ele>
        <time>2022-07-10T21:25:30.206Z</time>
      </trkpt>
      <trkpt lat="47.06262" lon="3.01656">
        <ele>167.072032</ele>
        <time>2022-07-10T21:25:36.599Z</time>
      </trkpt>
      <trkpt lat="47.06289" lon="3.01651">
        <ele>167.116703</ele>
        <time>2022-07-10T21:25:40.754Z</time>
      </trkpt>
      <trkpt lat="47.06357" lon="3.01619">
        <ele>167.238728</ele>
        <time>2022-07-10T21:25:52.466Z</time>
      </trkpt>
      <trkpt lat="47.06404" lon="3.01587">
        <ele>167.496692</ele>
        <time>2022-07-10T21:26:01.194Z</time>
      </trkpt>
      <trkpt lat="47.06492" lon="3.01531">
        <ele>167.977423</ele>
        <time>2022-07-10T21:26:17.611Z</time>
      </trkpt>
      <trkpt lat="47.06637" lon="3.01448">
        <ele>168.216016</ele>
        <time>2022-07-10T21:26:43.317Z</time>
      </trkpt>
      <trkpt lat="47.06677" lon="3.01438">
        <ele>168.243906</ele>
        <time>2022-07-10T21:26:49.022Z</time>
      </trkpt>
      <trkpt lat="47.06705" lon="3.01423">
        <ele>168.056649</ele>
        <time>2022-07-10T21:26:52.630Z</time>
      </trkpt>
      <trkpt lat="47.06739" lon="3.01402">
        <ele>167.585283</ele>
        <time>2022-07-10T21:26:56.995Z</time>
      </trkpt>
      <trkpt lat="47.06808" lon="3.01357">
        <ele>166.612294</ele>
        <time>2022-07-10T21:27:05.729Z</time>
      </trkpt>
      <trkpt lat="47.0682" lon="3.01385">
        <ele>166.326681</ele>
        <time>2022-07-10T21:27:08.233Z</time>
      </trkpt>
      <trkpt lat="47.06829" lon="3.01408">
        <ele>166.094669</ele>
        <time>2022-07-10T21:27:10.358Z</time>
      </trkpt>
      <trkpt lat="47.06832" lon="3.0141">
        <ele>166.049144</ele>
        <time>2022-07-10T21:27:10.745Z</time>
      </trkpt>
      <trkpt lat="47.06844" lon="3.01406">
        <ele>165.921059</ele>
        <time>2022-07-10T21:27:12.106Z</time>
      </trkpt>
      <trkpt lat="47.06907" lon="3.01368">
        <ele>165.458166</ele>
        <time>2022-07-10T21:27:20.174Z</time>
      </trkpt>
      <trkpt lat="47.06916" lon="3.01368">
        <ele>165.390647</ele>
        <time>2022-07-10T21:27:21.383Z</time>
      </trkpt>
      <trkpt lat="47.06941" lon="3.01352">
        <ele>165.205927</ele>
        <time>2022-07-10T21:27:24.811Z</time>
      </trkpt>
      <trkpt lat="47.07003" lon="3.0133">
        <ele>164.771245</ele>
        <time>2022-07-10T21:27:33.966Z</time>
      </trkpt>
      <trkpt lat="47.07021" lon="3.01328">
        <ele>164.764757</ele>
        <time>2022-07-10T21:27:36.813Z</time>
      </trkpt>
      <trkpt lat="47.07059" lon="3.01313">
        <ele>164.912783</ele>
        <time>2022-07-10T21:27:43.390Z</time>
      </trkpt>
      <trkpt lat="47.07234" lon="3.01202">
        <ele>165.197045</ele>
        <time>2022-07-10T21:28:15.297Z</time>
      </trkpt>
      <trkpt lat="47.07239" lon="3.01215">
        <ele>165.162513</ele>
        <time>2022-07-10T21:28:17.443Z</time>
      </trkpt>
      <trkpt lat="47.07263" lon="3.01231">
        <ele>165.07087</ele>
        <time>2022-07-10T21:28:22.398Z</time>
      </trkpt>
      <trkpt lat="47.07747" lon="3.01536">
        <ele>160.755053</ele>
        <time>2022-07-10T21:29:53.918Z</time>
      </trkpt>
      <trkpt lat="47.07986" lon="3.01669">
        <ele>160.078421</ele>
        <time>2022-07-10T21:30:43.588Z</time>
      </trkpt>
      <trkpt lat="47.08112" lon="3.01785">
        <ele>160.617483</ele>
        <time>2022-07-10T21:31:15.823Z</time>
      </trkpt>
      <trkpt lat="47.08158" lon="3.01829">
        <ele>160.860184</ele>
        <time>2022-07-10T21:31:28.571Z</time>
      </trkpt>
      <trkpt lat="47.08383" lon="3.02116">
        <ele>161.745552</ele>
        <time>2022-07-10T21:32:34.779Z</time>
      </trkpt>
      <trkpt lat="47.08473" lon="3.02214">
        <ele>161.108516</ele>
        <time>2022-07-10T21:32:54.149Z</time>
      </trkpt>
      <trkpt lat="47.08578" lon="3.02309">
        <ele>159.717106</ele>
        <time>2022-07-10T21:33:14.620Z</time>
      </trkpt>
      <trkpt lat="47.0875" lon="3.02388">
        <ele>158.824421</ele>
        <time>2022-07-10T21:33:48.463Z</time>
      </trkpt>
      <trkpt lat="47.08857" lon="3.02428">
        <ele>158.898459</ele>
        <time>2022-07-10T21:34:11.362Z</time>
      </trkpt>
      <trkpt lat="47.09137" lon="3.02499">
        <ele>159.282988</ele>
        <time>2022-07-10T21:35:10.902Z</time>
      </trkpt>
      <trkpt lat="47.09181" lon="3.02507">
        <ele>159.270842</ele>
        <time>2022-07-10T21:35:19.895Z</time>
      </trkpt>
      <trkpt lat="47.09273" lon="3.02508">
        <ele>159.246085</ele>
        <time>2022-07-10T21:35:38.093Z</time>
      </trkpt>
      <trkpt lat="47.10656" lon="3.02505">
        <ele>160.311652</ele>
        <time>2022-07-10T21:40:22.456Z</time>
      </trkpt>
      <trkpt lat="47.10823" lon="3.02497">
        <ele>160.289015</ele>
        <time>2022-07-10T21:40:55.314Z</time>
      </trkpt>
      <trkpt lat="47.11779" lon="3.02457">
        <ele>160.925742</ele>
        <time>2022-07-10T21:44:11.618Z</time>
      </trkpt>
      <trkpt lat="47.12913" lon="3.02282">
        <ele>159.161062</ele>
        <time>2022-07-10T21:47:55.602Z</time>
      </trkpt>
      <trkpt lat="47.12939" lon="3.0227">
        <ele>159.099913</ele>
        <time>2022-07-10T21:48:00.824Z</time>
      </trkpt>
      <trkpt lat="47.13044" lon="3.02174">
        <ele>158.832502</ele>
        <time>2022-07-10T21:48:24.625Z</time>
      </trkpt>
      <trkpt lat="47.13595" lon="3.01677">
        <ele>157.878581</ele>
        <time>2022-07-10T21:50:32.436Z</time>
      </trkpt>
      <trkpt lat="47.13632" lon="3.01654">
        <ele>157.786118</ele>
        <time>2022-07-10T21:50:39.997Z</time>
      </trkpt>
      <trkpt lat="47.13746" lon="3.01611">
        <ele>157.711463</ele>
        <time>2022-07-10T21:51:02.249Z</time>
      </trkpt>
      <trkpt lat="47.14142" lon="3.01448">
        <ele>158.747279</ele>
        <time>2022-07-10T21:52:30.992Z</time>
      </trkpt>
      <trkpt lat="47.14177" lon="3.01444">
        <ele>158.849844</ele>
        <time>2022-07-10T21:52:38.258Z</time>
      </trkpt>
      <trkpt lat="47.14397" lon="3.01469">
        <ele>159.141651</ele>
        <time>2022-07-10T21:53:23.645Z</time>
      </trkpt>
      <trkpt lat="47.14586" lon="3.01477">
        <ele>159.347538</ele>
        <time>2022-07-10T21:54:03.516Z</time>
      </trkpt>
      <trkpt lat="47.15134" lon="3.01309">
        <ele>158.605542</ele>
        <time>2022-07-10T21:55:54.383Z</time>
      </trkpt>
      <trkpt lat="47.15261" lon="3.01332">
        <ele>157.922901</ele>
        <time>2022-07-10T21:56:17.291Z</time>
      </trkpt>
      <trkpt lat="47.15311" lon="3.01328">
        <ele>157.594842</ele>
        <time>2022-07-10T21:56:26.122Z</time>
      </trkpt>
      <trkpt lat="47.15351" lon="3.01309">
        <ele>157.319534</ele>
        <time>2022-07-10T21:56:33.650Z</time>
      </trkpt>
      <trkpt lat="47.15478" lon="3.0121">
        <ele>156.713262</ele>
        <time>2022-07-10T21:57:00.448Z</time>
      </trkpt>
      <trkpt lat="47.15537" lon="3.01188">
        <ele>156.583877</ele>
        <time>2022-07-10T21:57:12.520Z</time>
      </trkpt>
      <trkpt lat="47.15596" lon="3.01196">
        <ele>156.547394</ele>
        <time>2022-07-10T21:57:24.713Z</time>
      </trkpt>
      <trkpt lat="47.15625" lon="3.01193">
        <ele>156.646769</ele>
        <time>2022-07-10T21:57:30.839Z</time>
      </trkpt>
      <trkpt lat="47.15886" lon="3.01105">
        <ele>157.513061</ele>
        <time>2022-07-10T21:58:29.491Z</time>
      </trkpt>
      <trkpt lat="47.16153" lon="3.01053">
        <ele>157.45102</ele>
        <time>2022-07-10T21:59:23.604Z</time>
      </trkpt>
      <trkpt lat="47.1638" lon="3.01031">
        <ele>156.706623</ele>
        <time>2022-07-10T22:00:06.117Z</time>
      </trkpt>
      <trkpt lat="47.16529" lon="3.00992">
        <ele>156.258312</ele>
        <time>2022-07-10T22:00:35.608Z</time>
      </trkpt>
      <trkpt lat="47.16829" lon="3.00943">
        <ele>155.488171</ele>
        <time>2022-07-10T22:01:33.512Z</time>
      </trkpt>
      <trkpt lat="47.17288" lon="3.00868">
        <ele>161</ele>
        <extensions>
          <visugpx:TrkExtension xmlns:visugpx="https://www.visugpx.com/editgpx/">
            <visugpx:node>11</visugpx:node>
            </visugpx:TrkExtension>
        </extensions>
      </trkpt>
      <trkpt lat="47.17288" lon="3.00866">
        <ele>161.1</ele>
      </trkpt>
      <trkpt lat="47.17453" lon="3.00838">
        <ele>160.8</ele>
      </trkpt>
      <trkpt lat="47.17467" lon="3.00829">
        <ele>161.7</ele>
      </trkpt>
      <trkpt lat="47.17471" lon="3.00827">
        <ele>161.7</ele>
      </trkpt>
      <trkpt lat="47.17498" lon="3.00814">
        <ele>159.9</ele>
      </trkpt>
      <trkpt lat="47.17519" lon="3.00798">
        <ele>160.5</ele>
      </trkpt>
      <trkpt lat="47.17556" lon="3.00777">
        <ele>160.9</ele>
      </trkpt>
      <trkpt lat="47.17813" lon="3.00612">
        <ele>159.6</ele>
        <extensions>
          <visugpx:TrkExtension xmlns:visugpx="https://www.visugpx.com/editgpx/">
            <visugpx:node>12</visugpx:node>
            </visugpx:TrkExtension>
        </extensions>
      </trkpt>
      <trkpt lat="47.17962" lon="3.00516">
        <ele>158.6</ele>
      </trkpt>
      <trkpt lat="47.18375" lon="3.00251">
        <ele>158.9</ele>
      </trkpt>
      <trkpt lat="47.18543" lon="3.00142">
        <ele>158.4</ele>
        <extensions>
          <visugpx:TrkExtension xmlns:visugpx="https://www.visugpx.com/editgpx/">
            <visugpx:node>13</visugpx:node>
            </visugpx:TrkExtension>
        </extensions>
      </trkpt>
      <trkpt lat="47.18628" lon="3.00088">
        <ele>158.4</ele>
      </trkpt>
      <trkpt lat="47.18825" lon="2.99962">
        <ele>158.2</ele>
      </trkpt>
      <trkpt lat="47.18856" lon="2.99934">
        <ele>158.5</ele>
      </trkpt>
      <trkpt lat="47.18869" lon="2.99919">
        <ele>158.3</ele>
      </trkpt>
      <trkpt lat="47.18877" lon="2.99924">
        <ele>158.4</ele>
      </trkpt>
      <trkpt lat="47.18885" lon="2.99923">
        <ele>158.5</ele>
      </trkpt>
      <trkpt lat="47.18899" lon="2.99916">
        <ele>158.6</ele>
      </trkpt>
      <trkpt lat="47.18933" lon="2.99892">
        <ele>157.6</ele>
      </trkpt>
      <trkpt lat="47.18972" lon="2.99836">
        <ele>157.8</ele>
      </trkpt>
      <trkpt lat="47.19046" lon="2.99736">
        <ele>157.2</ele>
      </trkpt>
      <trkpt lat="47.19086" lon="2.99691">
        <ele>157.8</ele>
      </trkpt>
      <trkpt lat="47.1919" lon="2.99633">
        <ele>156.7</ele>
      </trkpt>
      <trkpt lat="47.19237" lon="2.99613">
        <ele>157.8</ele>
      </trkpt>
      <trkpt lat="47.19271" lon="2.99603">
        <ele>156.9</ele>
      </trkpt>
      <trkpt lat="47.19237" lon="2.99613">
        <ele>153.450684</ele>
        <time>2022-07-10T22:09:33.677Z</time>
      </trkpt>
      <trkpt lat="47.19272" lon="2.99605">
        <ele>156.8</ele>
        <extensions>
          <visugpx:TrkExtension xmlns:visugpx="https://www.visugpx.com/editgpx/">
            <visugpx:node>14</visugpx:node>
            </visugpx:TrkExtension>
        </extensions>
      </trkpt>
      <trkpt lat="47.19338" lon="2.99587">
        <ele>153.019882</ele>
        <time>2022-07-10T22:09:52.373Z</time>
      </trkpt>
      <trkpt lat="47.19421" lon="2.99551">
        <ele>152.657233</ele>
        <time>2022-07-10T22:10:09.071Z</time>
      </trkpt>
      <trkpt lat="47.1944" lon="2.99548">
        <ele>152.619435</ele>
        <time>2022-07-10T22:10:12.568Z</time>
      </trkpt>
      <trkpt lat="47.19469" lon="2.99543">
        <ele>152.58759</ele>
        <time>2022-07-10T22:10:18.322Z</time>
      </trkpt>
      <trkpt lat="47.19515" lon="2.99518">
        <ele>152.533522</ele>
        <time>2022-07-10T22:10:27.981Z</time>
      </trkpt>
      <trkpt lat="47.19535" lon="2.99506">
        <ele>152.509754</ele>
        <time>2022-07-10T22:10:32.299Z</time>
      </trkpt>
      <trkpt lat="47.19749" lon="2.99386">
        <ele>152.50498</ele>
        <time>2022-07-10T22:11:19.119Z</time>
      </trkpt>
      <trkpt lat="47.19912" lon="2.99304">
        <ele>152.502703</ele>
        <time>2022-07-10T22:11:54.135Z</time>
      </trkpt>
      <trkpt lat="47.20287" lon="2.99087">
        <ele>151.599761</ele>
        <time>2022-07-10T22:12:50.150Z</time>
      </trkpt>
      <trkpt lat="47.20389" lon="2.99034">
        <ele>151.352425</ele>
        <time>2022-07-10T22:13:05.391Z</time>
      </trkpt>
      <trkpt lat="47.20464" lon="2.99012">
        <ele>151.275572</ele>
        <time>2022-07-10T22:13:16.202Z</time>
      </trkpt>
      <trkpt lat="47.20515" lon="2.98974">
        <ele>151.385292</ele>
        <time>2022-07-10T22:13:24.590Z</time>
      </trkpt>
      <trkpt lat="47.20595" lon="2.98904">
        <ele>151.561751</ele>
        <time>2022-07-10T22:13:39.322Z</time>
      </trkpt>
      <trkpt lat="47.20668" lon="2.9883">
        <ele>152.434949</ele>
        <time>2022-07-10T22:13:55.765Z</time>
      </trkpt>
      <trkpt lat="47.20739" lon="2.98728">
        <ele>153.480265</ele>
        <time>2022-07-10T22:14:15.727Z</time>
      </trkpt>
      <trkpt lat="47.20794" lon="2.98663">
        <ele>154.083058</ele>
        <time>2022-07-10T22:14:29.797Z</time>
      </trkpt>
      <trkpt lat="47.20946" lon="2.98526">
        <ele>155.128069</ele>
        <time>2022-07-10T22:15:00.303Z</time>
      </trkpt>
      <trkpt lat="47.21016" lon="2.98448">
        <ele>155.287581</ele>
        <time>2022-07-10T22:15:13.149Z</time>
      </trkpt>
      <trkpt lat="47.21177" lon="2.98285">
        <ele>155.01564</ele>
        <time>2022-07-10T22:15:40.546Z</time>
      </trkpt>
      <trkpt lat="47.21408" lon="2.98026">
        <ele>154.916618</ele>
        <time>2022-07-10T22:16:22.311Z</time>
      </trkpt>
      <trkpt lat="47.2157" lon="2.97835">
        <ele>155.696703</ele>
        <time>2022-07-10T22:16:57.600Z</time>
      </trkpt>
      <trkpt lat="47.21925" lon="2.97509">
        <ele>156.88363</ele>
        <time>2022-07-10T22:18:05.010Z</time>
      </trkpt>
      <trkpt lat="47.21958" lon="2.97497">
        <ele>156.716814</ele>
        <time>2022-07-10T22:18:09.588Z</time>
      </trkpt>
      <trkpt lat="47.22168" lon="2.97476">
        <ele>155.737076</ele>
        <time>2022-07-10T22:18:36.706Z</time>
      </trkpt>
      <trkpt lat="47.22322" lon="2.97452">
        <ele>155.397714</ele>
        <time>2022-07-10T22:18:58.480Z</time>
      </trkpt>
      <trkpt lat="47.2251" lon="2.97407">
        <ele>155.614799</ele>
        <time>2022-07-10T22:19:28.756Z</time>
      </trkpt>
      <trkpt lat="47.22688" lon="2.97405">
        <ele>155.247263</ele>
        <time>2022-07-10T22:19:54.664Z</time>
      </trkpt>
      <trkpt lat="47.22767" lon="2.97378">
        <ele>154.694161</ele>
        <time>2022-07-10T22:20:04.719Z</time>
      </trkpt>
      <trkpt lat="47.22802" lon="2.97378">
        <ele>154.458683</ele>
        <time>2022-07-10T22:20:08.788Z</time>
      </trkpt>
      <trkpt lat="47.2298" lon="2.97415">
        <ele>153.317161</ele>
        <time>2022-07-10T22:20:30.999Z</time>
      </trkpt>
      <trkpt lat="47.23019" lon="2.97417">
        <ele>153.682737</ele>
        <time>2022-07-10T22:20:38.547Z</time>
      </trkpt>
      <trkpt lat="47.2316" lon="2.97368">
        <ele>155.375143</ele>
        <time>2022-07-10T22:21:09.198Z</time>
      </trkpt>
      <trkpt lat="47.23178" lon="2.97361">
        <ele>155.507279</ele>
        <time>2022-07-10T22:21:13.400Z</time>
      </trkpt>
      <trkpt lat="47.23319" lon="2.97319">
        <ele>156.476814</ele>
        <time>2022-07-10T22:21:38.608Z</time>
      </trkpt>
      <trkpt lat="47.23966" lon="2.97284">
        <ele>154.60717</ele>
        <time>2022-07-10T22:23:07.616Z</time>
      </trkpt>
      <trkpt lat="47.24009" lon="2.9729">
        <ele>154.381347</ele>
        <time>2022-07-10T22:23:13.335Z</time>
      </trkpt>
      <trkpt lat="47.24411" lon="2.97453">
        <ele>151.364646</ele>
        <time>2022-07-10T22:24:06.047Z</time>
      </trkpt>
      <trkpt lat="47.24446" lon="2.97466">
        <ele>151.195361</ele>
        <time>2022-07-10T22:24:10.721Z</time>
      </trkpt>
      <trkpt lat="47.24478" lon="2.97467">
        <ele>151.04161</ele>
        <time>2022-07-10T22:24:14.999Z</time>
      </trkpt>
      <trkpt lat="47.24625" lon="2.97446">
        <ele>150.465316</ele>
        <time>2022-07-10T22:24:34.941Z</time>
      </trkpt>
      <trkpt lat="47.25141" lon="2.97488">
        <ele>149.692452</ele>
        <time>2022-07-10T22:25:48.200Z</time>
      </trkpt>
      <trkpt lat="47.25394" lon="2.97482">
        <ele>151.359285</ele>
        <time>2022-07-10T22:26:33.052Z</time>
      </trkpt>
      <trkpt lat="47.25595" lon="2.97438">
        <ele>152.707252</ele>
        <time>2022-07-10T22:27:10.450Z</time>
      </trkpt>
      <trkpt lat="47.25765" lon="2.97376">
        <ele>152.897202</ele>
        <time>2022-07-10T22:27:36.172Z</time>
      </trkpt>
      <trkpt lat="47.25866" lon="2.97332">
        <ele>152.734503</ele>
        <time>2022-07-10T22:27:50.481Z</time>
      </trkpt>
      <trkpt lat="47.25952" lon="2.97285">
        <ele>152.549478</ele>
        <time>2022-07-10T22:28:03.403Z</time>
      </trkpt>
      <trkpt lat="47.26118" lon="2.97175">
        <ele>152.302062</ele>
        <time>2022-07-10T22:28:29.734Z</time>
      </trkpt>
      <trkpt lat="47.26202" lon="2.97109">
        <ele>152.185813</ele>
        <time>2022-07-10T22:28:43.749Z</time>
      </trkpt>
      <trkpt lat="47.26436" lon="2.96873">
        <ele>151.823352</ele>
        <time>2022-07-10T22:29:24.107Z</time>
      </trkpt>
      <trkpt lat="47.26759" lon="2.96437">
        <ele>151.447991</ele>
        <time>2022-07-10T22:30:27.946Z</time>
      </trkpt>
      <trkpt lat="47.27317" lon="2.95661">
        <ele>150.240857</ele>
        <time>2022-07-10T22:32:17.050Z</time>
      </trkpt>
      <trkpt lat="47.27326" lon="2.95628">
        <ele>150.209948</ele>
        <time>2022-07-10T22:32:20.577Z</time>
      </trkpt>
      <trkpt lat="47.27287" lon="2.95479">
        <ele>150.060667</ele>
        <time>2022-07-10T22:32:35.968Z</time>
      </trkpt>
      <trkpt lat="47.27278" lon="2.95429">
        <ele>150.009131</ele>
        <time>2022-07-10T22:32:40.982Z</time>
      </trkpt>
      <trkpt lat="47.27272" lon="2.95376">
        <ele>149.955241</ele>
        <time>2022-07-10T22:32:46.329Z</time>
      </trkpt>
      <trkpt lat="47.27272" lon="2.95328">
        <ele>149.906073</ele>
        <time>2022-07-10T22:32:51.100Z</time>
      </trkpt>
      <trkpt lat="47.27279" lon="2.95278">
        <ele>149.863577</ele>
        <time>2022-07-10T22:32:55.887Z</time>
      </trkpt>
      <trkpt lat="47.27297" lon="2.95208">
        <ele>149.830184</ele>
        <time>2022-07-10T22:33:02.674Z</time>
      </trkpt>
      <trkpt lat="47.27296" lon="2.95189">
        <ele>149.821738</ele>
        <time>2022-07-10T22:33:04.363Z</time>
      </trkpt>
      <trkpt lat="47.27278" lon="2.95163">
        <ele>149.80505</ele>
        <time>2022-07-10T22:33:07.852Z</time>
      </trkpt>
      <trkpt lat="47.27171" lon="2.95049">
        <ele>149.96918</ele>
        <time>2022-07-10T22:33:28.848Z</time>
      </trkpt>
      <trkpt lat="47.27254" lon="2.94988">
        <ele>150.361247</ele>
        <time>2022-07-10T22:33:44.240Z</time>
      </trkpt>
      <trkpt lat="47.27309" lon="2.94932">
        <ele>150.546419</ele>
        <time>2022-07-10T22:33:59.431Z</time>
      </trkpt>
      <trkpt lat="47.27338" lon="2.9489">
        <ele>150.590143</ele>
        <time>2022-07-10T22:34:08.504Z</time>
      </trkpt>
      <trkpt lat="47.27377" lon="2.94809">
        <ele>150.661939</ele>
        <time>2022-07-10T22:34:21.944Z</time>
      </trkpt>
      <trkpt lat="47.27452" lon="2.94666">
        <ele>150.419166</ele>
        <time>2022-07-10T22:34:38.684Z</time>
      </trkpt>
      <trkpt lat="47.27508" lon="2.94578">
        <ele>150.135</ele>
        <time>2022-07-10T22:34:49.556Z</time>
      </trkpt>
      <trkpt lat="47.27621" lon="2.94409">
        <ele>149.795537</ele>
        <time>2022-07-10T22:35:12.157Z</time>
      </trkpt>
      <trkpt lat="47.27668" lon="2.94354">
        <ele>149.730314</ele>
        <time>2022-07-10T22:35:21.082Z</time>
      </trkpt>
      <trkpt lat="47.27827" lon="2.94249">
        <ele>149.713128</ele>
        <time>2022-07-10T22:35:47.178Z</time>
      </trkpt>
      <trkpt lat="47.28005" lon="2.9409">
        <ele>149.432481</ele>
        <time>2022-07-10T22:36:16.460Z</time>
      </trkpt>
      <trkpt lat="47.2806" lon="2.94076">
        <ele>149.43913</ele>
        <time>2022-07-10T22:36:24.377Z</time>
      </trkpt>
      <trkpt lat="47.28158" lon="2.93994">
        <ele>149.521604</ele>
        <time>2022-07-10T22:36:42.118Z</time>
      </trkpt>
      <trkpt lat="47.28302" lon="2.93913">
        <ele>149.757872</ele>
        <time>2022-07-10T22:37:06.825Z</time>
      </trkpt>
      <trkpt lat="47.28448" lon="2.93816">
        <ele>148.950248</ele>
        <time>2022-07-10T22:37:28.044Z</time>
      </trkpt>
      <trkpt lat="47.28555" lon="2.93632">
        <ele>147.519244</ele>
        <time>2022-07-10T22:37:47.910Z</time>
      </trkpt>
      <trkpt lat="47.28585" lon="2.93596">
        <ele>147.265912</ele>
        <time>2022-07-10T22:37:52.832Z</time>
      </trkpt>
      <trkpt lat="47.28709" lon="2.93485">
        <ele>146.877185</ele>
        <time>2022-07-10T22:38:13.562Z</time>
      </trkpt>
      <trkpt lat="47.28791" lon="2.93387">
        <ele>146.542111</ele>
        <time>2022-07-10T22:38:28.283Z</time>
      </trkpt>
      <trkpt lat="47.28855" lon="2.93292">
        <ele>146.243786</ele>
        <time>2022-07-10T22:38:40.318Z</time>
      </trkpt>
      <trkpt lat="47.28899" lon="2.93194">
        <ele>146.128744</ele>
        <time>2022-07-10T22:38:51.485Z</time>
      </trkpt>
      <trkpt lat="47.2901" lon="2.93022">
        <ele>145.841749</ele>
        <time>2022-07-10T22:39:15.461Z</time>
      </trkpt>
      <trkpt lat="47.29032" lon="2.92993">
        <ele>145.765932</ele>
        <time>2022-07-10T22:39:21.186Z</time>
      </trkpt>
      <trkpt lat="47.29206" lon="2.92853">
        <ele>145.542931</ele>
        <time>2022-07-10T22:39:58.426Z</time>
      </trkpt>
      <trkpt lat="47.29461" lon="2.92538">
        <ele>146.801878</ele>
        <time>2022-07-10T22:41:13.788Z</time>
      </trkpt>
      <trkpt lat="47.29506" lon="2.92509">
        <ele>146.909471</ele>
        <time>2022-07-10T22:41:24.034Z</time>
      </trkpt>
      <trkpt lat="47.29562" lon="2.92424">
        <ele>146.927045</ele>
        <time>2022-07-10T22:41:39.388Z</time>
      </trkpt>
      <trkpt lat="47.2971" lon="2.92243">
        <ele>146.526157</ele>
        <time>2022-07-10T22:42:15.429Z</time>
      </trkpt>
      <trkpt lat="47.29808" lon="2.92058">
        <ele>147.213112</ele>
        <time>2022-07-10T22:42:51.853Z</time>
      </trkpt>
      <trkpt lat="47.29861" lon="2.91996">
        <ele>147.62237</ele>
        <time>2022-07-10T22:43:07.891Z</time>
      </trkpt>
      <trkpt lat="47.30153" lon="2.91692">
        <ele>149.068977</ele>
        <time>2022-07-10T22:44:26.034Z</time>
      </trkpt>
      <trkpt lat="47.30309" lon="2.91487">
        <ele>149.092367</ele>
        <time>2022-07-10T22:45:07.578Z</time>
      </trkpt>
      <trkpt lat="47.30447" lon="2.91326">
        <ele>148.956428</ele>
        <time>2022-07-10T22:45:42.484Z</time>
      </trkpt>
      <trkpt lat="47.30513" lon="2.91258">
        <ele>148.913941</ele>
        <time>2022-07-10T22:45:58.836Z</time>
      </trkpt>
      <trkpt lat="47.30649" lon="2.91157">
        <ele>148.92992</ele>
        <time>2022-07-10T22:46:29.957Z</time>
      </trkpt>
      <trkpt lat="47.30697" lon="2.91089">
        <ele>148.83705</ele>
        <time>2022-07-10T22:46:42.975Z</time>
      </trkpt>
      <trkpt lat="47.30715" lon="2.91014">
        <ele>148.731442</ele>
        <time>2022-07-10T22:46:53.444Z</time>
      </trkpt>
      <trkpt lat="47.30718" lon="2.90987">
        <ele>148.695992</ele>
        <time>2022-07-10T22:46:56.955Z</time>
      </trkpt>
      <trkpt lat="47.30454" lon="2.90338">
        <ele>147.786547</ele>
        <time>2022-07-10T22:48:37.073Z</time>
      </trkpt>
      <trkpt lat="47.30439" lon="2.90312">
        <ele>147.762091</ele>
        <time>2022-07-10T22:48:41.859Z</time>
      </trkpt>
      <trkpt lat="47.30433" lon="2.90286">
        <ele>147.742757</ele>
        <time>2022-07-10T22:48:45.674Z</time>
      </trkpt>
      <trkpt lat="47.30431" lon="2.90274">
        <ele>147.734225</ele>
        <time>2022-07-10T22:48:47.331Z</time>
      </trkpt>
      <trkpt lat="47.30433" lon="2.90264">
        <ele>147.727049</ele>
        <time>2022-07-10T22:48:48.718Z</time>
      </trkpt>
      <trkpt lat="47.30465" lon="2.90249">
        <ele>147.691075</ele>
        <time>2022-07-10T22:48:55.589Z</time>
      </trkpt>
      <trkpt lat="47.30479" lon="2.90233">
        <ele>147.670214</ele>
        <time>2022-07-10T22:48:59.207Z</time>
      </trkpt>
      <trkpt lat="47.30604" lon="2.89959">
        <ele>147.318451</ele>
        <time>2022-07-10T22:49:43.054Z</time>
      </trkpt>
      <trkpt lat="47.30725" lon="2.89694">
        <ele>146.778684</ele>
        <time>2022-07-10T22:50:24.406Z</time>
      </trkpt>
      <trkpt lat="47.30743" lon="2.89622">
        <ele>146.648622</ele>
        <time>2022-07-10T22:50:34.609Z</time>
      </trkpt>
      <trkpt lat="47.30803" lon="2.89493">
        <ele>146.634167</ele>
        <time>2022-07-10T22:50:55.746Z</time>
      </trkpt>
      <trkpt lat="47.30902" lon="2.89359">
        <ele>146.875738</ele>
        <time>2022-07-10T22:51:23.618Z</time>
      </trkpt>
      <trkpt lat="47.3099" lon="2.89174">
        <ele>147.655029</ele>
        <time>2022-07-10T22:51:58.315Z</time>
      </trkpt>
      <trkpt lat="47.31064" lon="2.88996">
        <ele>148.181687</ele>
        <time>2022-07-10T22:52:30.244Z</time>
      </trkpt>
      <trkpt lat="47.311" lon="2.88823">
        <ele>147.679936</ele>
        <time>2022-07-10T22:52:53.580Z</time>
      </trkpt>
      <trkpt lat="47.31129" lon="2.88475">
        <ele>145.979954</ele>
        <time>2022-07-10T22:53:34.596Z</time>
      </trkpt>
      <trkpt lat="47.31168" lon="2.88487">
        <ele>145.843746</ele>
        <time>2022-07-10T22:53:42.597Z</time>
      </trkpt>
      <trkpt lat="47.31192" lon="2.88441">
        <ele>146.060084</ele>
        <time>2022-07-10T22:53:51.188Z</time>
      </trkpt>
      <trkpt lat="47.31268" lon="2.88253">
        <ele>146.851255</ele>
        <time>2022-07-10T22:54:26.016Z</time>
      </trkpt>
      <trkpt lat="47.31311" lon="2.88166">
        <ele>147.207688</ele>
        <time>2022-07-10T22:54:43.481Z</time>
      </trkpt>
      <trkpt lat="47.31376" lon="2.88015">
        <ele>147.501506</ele>
        <time>2022-07-10T22:55:08.328Z</time>
      </trkpt>
      <trkpt lat="47.3143" lon="2.87843">
        <ele>147.053676</ele>
        <time>2022-07-10T22:55:32.189Z</time>
      </trkpt>
      <trkpt lat="47.31505" lon="2.87694">
        <ele>146.670576</ele>
        <time>2022-07-10T22:55:55.512Z</time>
      </trkpt>
      <trkpt lat="47.31545" lon="2.87647">
        <ele>146.519496</ele>
        <time>2022-07-10T22:56:05.797Z</time>
      </trkpt>
      <trkpt lat="47.316" lon="2.875">
        <ele>146.521021</ele>
        <time>2022-07-10T22:56:29.769Z</time>
      </trkpt>
      <trkpt lat="47.31622" lon="2.87459">
        <ele>146.542513</ele>
        <time>2022-07-10T22:56:37.214Z</time>
      </trkpt>
      <trkpt lat="47.31658" lon="2.87354">
        <ele>146.428826</ele>
        <time>2022-07-10T22:56:52.977Z</time>
      </trkpt>
      <trkpt lat="47.31782" lon="2.87124">
        <ele>145.559717</ele>
        <time>2022-07-10T22:57:29.498Z</time>
      </trkpt>
      <trkpt lat="47.31834" lon="2.87068">
        <ele>145.362966</ele>
        <time>2022-07-10T22:57:41.613Z</time>
      </trkpt>
      <trkpt lat="47.31859" lon="2.87041">
        <ele>145.269099</ele>
        <time>2022-07-10T22:57:47.672Z</time>
      </trkpt>
      <trkpt lat="47.31919" lon="2.87015">
        <ele>145.191838</ele>
        <time>2022-07-10T22:58:00.545Z</time>
      </trkpt>
      <trkpt lat="47.3199" lon="2.8693">
        <ele>145.288407</ele>
        <time>2022-07-10T22:58:19.975Z</time>
      </trkpt>
      <trkpt lat="47.32017" lon="2.86904">
        <ele>145.322236</ele>
        <time>2022-07-10T22:58:26.651Z</time>
      </trkpt>
      <trkpt lat="47.32193" lon="2.86783">
        <ele>145.205837</ele>
        <time>2022-07-10T22:59:05.022Z</time>
      </trkpt>
      <trkpt lat="47.32208" lon="2.86765">
        <ele>145.189009</ele>
        <time>2022-07-10T22:59:08.745Z</time>
      </trkpt>
      <trkpt lat="47.32374" lon="2.86691">
        <ele>145.036296</ele>
        <time>2022-07-10T22:59:43.250Z</time>
      </trkpt>
      <trkpt lat="47.32577" lon="2.86545">
        <ele>145.162941</ele>
        <time>2022-07-10T23:00:29.016Z</time>
      </trkpt>
      <trkpt lat="47.32695" lon="2.8633">
        <ele>145.504771</ele>
        <time>2022-07-10T23:01:08.677Z</time>
      </trkpt>
      <trkpt lat="47.32701" lon="2.86323">
        <ele>145.52045</ele>
        <time>2022-07-10T23:01:11.406Z</time>
      </trkpt>
      <trkpt lat="47.32765" lon="2.86252">
        <ele>145.701952</ele>
        <time>2022-07-10T23:01:42.257Z</time>
      </trkpt>
      <trkpt lat="47.32818" lon="2.86322">
        <ele>145.798372</ele>
        <time>2022-07-10T23:02:09.243Z</time>
      </trkpt>
      <trkpt lat="47.32851" lon="2.86332">
        <ele>145.806493</ele>
        <time>2022-07-10T23:02:21.760Z</time>
      </trkpt>
      <trkpt lat="47.32896" lon="2.86333">
        <ele>145.817474</ele>
        <time>2022-07-10T23:02:38.509Z</time>
      </trkpt>
      <trkpt lat="47.32986" lon="2.86317">
        <ele>145.796016</ele>
        <time>2022-07-10T23:03:11.425Z</time>
      </trkpt>
      <trkpt lat="47.33099" lon="2.86306">
        <ele>145.581816</ele>
        <time>2022-07-10T23:03:52.212Z</time>
      </trkpt>
      <trkpt lat="47.33152" lon="2.86312">
        <ele>145.515612</ele>
        <time>2022-07-10T23:04:02.839Z</time>
      </trkpt>
      <trkpt lat="47.33204" lon="2.86301">
        <ele>145.666099</ele>
        <time>2022-07-10T23:04:13.861Z</time>
      </trkpt>
      <trkpt lat="47.33273" lon="2.86272">
        <ele>145.869271</ele>
        <time>2022-07-10T23:04:29.229Z</time>
      </trkpt>
      <trkpt lat="47.3336" lon="2.86256">
        <ele>146.088567</ele>
        <time>2022-07-10T23:04:48.691Z</time>
      </trkpt>
      <trkpt lat="47.33441" lon="2.86267">
        <ele>146.25683</ele>
        <time>2022-07-10T23:05:06.238Z</time>
      </trkpt>
      <trkpt lat="47.33516" lon="2.8632">
        <ele>146.31729</ele>
        <time>2022-07-10T23:05:22.961Z</time>
      </trkpt>
      <trkpt lat="47.33509" lon="2.86299">
        <ele>146.277112</ele>
        <time>2022-07-10T23:05:26.039Z</time>
      </trkpt>
      <trkpt lat="47.33491" lon="2.86236">
        <ele>146.160105</ele>
        <time>2022-07-10T23:05:34.981Z</time>
      </trkpt>
      <trkpt lat="47.33536" lon="2.86039">
        <ele>145.948719</ele>
        <time>2022-07-10T23:06:01.530Z</time>
      </trkpt>
      <trkpt lat="47.33539" lon="2.85997">
        <ele>145.965433</ele>
        <time>2022-07-10T23:06:07.160Z</time>
      </trkpt>
      <trkpt lat="47.33529" lon="2.85906">
        <ele>146.001112</ele>
        <time>2022-07-10T23:06:19.902Z</time>
      </trkpt>
      <trkpt lat="47.33538" lon="2.85886">
        <ele>146.01041</ele>
        <time>2022-07-10T23:06:23.497Z</time>
      </trkpt>
      <trkpt lat="47.33554" lon="2.85872">
        <ele>146.021258</ele>
        <time>2022-07-10T23:06:27.611Z</time>
      </trkpt>
      <trkpt lat="47.33645" lon="2.85893">
        <ele>146.799202</ele>
        <time>2022-07-10T23:06:49.145Z</time>
      </trkpt>
      <trkpt lat="47.33688" lon="2.85922">
        <ele>147.236289</ele>
        <time>2022-07-10T23:07:01.297Z</time>
      </trkpt>
      <trkpt lat="47.33806" lon="2.8593">
        <ele>147.897454</ele>
        <time>2022-07-10T23:07:29.760Z</time>
      </trkpt>
      <trkpt lat="47.33816" lon="2.85935">
        <ele>147.932085</ele>
        <time>2022-07-10T23:07:32.366Z</time>
      </trkpt>
      <trkpt lat="47.33865" lon="2.85935">
        <ele>148.094396</ele>
        <time>2022-07-10T23:07:42.089Z</time>
      </trkpt>
      <trkpt lat="47.33928" lon="2.85936">
        <ele>148.179221</ele>
        <time>2022-07-10T23:07:54.113Z</time>
      </trkpt>
      <trkpt lat="47.33939" lon="2.85938">
        <ele>148.114737</ele>
        <time>2022-07-10T23:07:57.923Z</time>
      </trkpt>
      <trkpt lat="47.33953" lon="2.85939">
        <ele>148.034584</ele>
        <time>2022-07-10T23:08:02.767Z</time>
      </trkpt>
      <trkpt lat="47.33959" lon="2.85939">
        <ele>147.996296</ele>
        <time>2022-07-10T23:08:05.240Z</time>
      </trkpt>
      <trkpt lat="47.34004" lon="2.85945">
        <ele>147.737488</ele>
        <time>2022-07-10T23:08:20.348Z</time>
      </trkpt>
      <trkpt lat="47.3407" lon="2.85917">
        <ele>147.338211</ele>
        <time>2022-07-10T23:08:44.136Z</time>
      </trkpt>
      <trkpt lat="47.34285" lon="2.85936">
        <ele>146.726901</ele>
        <time>2022-07-10T23:10:02.441Z</time>
      </trkpt>
      <trkpt lat="47.3438" lon="2.85944">
        <ele>146.550315</ele>
        <time>2022-07-10T23:10:37.216Z</time>
      </trkpt>
      <trkpt lat="47.34536" lon="2.85984">
        <ele>146.434454</ele>
        <time>2022-07-10T23:11:34.036Z</time>
      </trkpt>
      <trkpt lat="47.35092" lon="2.86295">
        <ele>146.576249</ele>
        <time>2022-07-10T23:15:16.121Z</time>
      </trkpt>
      <trkpt lat="47.35189" lon="2.86368">
        <ele>146.633911</ele>
        <time>2022-07-10T23:15:56.599Z</time>
      </trkpt>
      <trkpt lat="47.35198" lon="2.86376">
        <ele>146.639403</ele>
        <time>2022-07-10T23:16:00.280Z</time>
      </trkpt>
      <trkpt lat="47.35287" lon="2.86491">
        <ele>146.724127</ele>
        <time>2022-07-10T23:16:18.279Z</time>
      </trkpt>
      <trkpt lat="47.35413" lon="2.86699">
        <ele>147.045165</ele>
        <time>2022-07-10T23:16:47.807Z</time>
      </trkpt>
      <trkpt lat="47.35564" lon="2.86783">
        <ele>147.42967</ele>
        <time>2022-07-10T23:17:13.399Z</time>
      </trkpt>
      <trkpt lat="47.35639" lon="2.86839">
        <ele>147.417137</ele>
        <time>2022-07-10T23:17:26.410Z</time>
      </trkpt>
      <trkpt lat="47.35855" lon="2.8705">
        <ele>146.959972</ele>
        <time>2022-07-10T23:18:02.538Z</time>
      </trkpt>
      <trkpt lat="47.36187" lon="2.8723">
        <ele>145.663324</ele>
        <time>2022-07-10T23:18:50.591Z</time>
      </trkpt>
      <trkpt lat="47.36297" lon="2.87322">
        <ele>145.481599</ele>
        <time>2022-07-10T23:19:08.638Z</time>
      </trkpt>
      <trkpt lat="47.36376" lon="2.8736">
        <ele>145.40388</ele>
        <time>2022-07-10T23:19:20.742Z</time>
      </trkpt>
      <trkpt lat="47.36551" lon="2.87474">
        <ele>145.446557</ele>
        <time>2022-07-10T23:19:49.207Z</time>
      </trkpt>
      <trkpt lat="47.36688" lon="2.87601">
        <ele>145.652364</ele>
        <time>2022-07-10T23:20:13.921Z</time>
      </trkpt>
      <trkpt lat="47.36718" lon="2.8762">
        <ele>145.747276</ele>
        <time>2022-07-10T23:20:19.128Z</time>
      </trkpt>
      <trkpt lat="47.36921" lon="2.87718">
        <ele>146.199721</ele>
        <time>2022-07-10T23:20:53.659Z</time>
      </trkpt>
      <trkpt lat="47.37035" lon="2.87751">
        <ele>146.240114</ele>
        <time>2022-07-10T23:21:10.255Z</time>
      </trkpt>
      <trkpt lat="47.37128" lon="2.87759">
        <ele>146.010857</ele>
        <time>2022-07-10T23:21:23.105Z</time>
      </trkpt>
      <trkpt lat="47.3725" lon="2.87806">
        <ele>145.757024</ele>
        <time>2022-07-10T23:21:40.714Z</time>
      </trkpt>
      <trkpt lat="47.37452" lon="2.87863">
        <ele>145.456172</ele>
        <time>2022-07-10T23:22:10.553Z</time>
      </trkpt>
      <trkpt lat="47.37538" lon="2.87904">
        <ele>145.317603</ele>
        <time>2022-07-10T23:22:23.441Z</time>
      </trkpt>
      <trkpt lat="47.37569" lon="2.87928">
        <ele>145.246678</ele>
        <time>2022-07-10T23:22:28.358Z</time>
      </trkpt>
      <trkpt lat="47.37618" lon="2.87987">
        <ele>145.106468</ele>
        <time>2022-07-10T23:22:37.198Z</time>
      </trkpt>
      <trkpt lat="47.37788" lon="2.88104">
        <ele>145.044058</ele>
        <time>2022-07-10T23:23:03.345Z</time>
      </trkpt>
      <trkpt lat="47.37944" lon="2.88167">
        <ele>145.564656</ele>
        <time>2022-07-10T23:23:31.043Z</time>
      </trkpt>
      <trkpt lat="47.37948" lon="2.88157">
        <ele>145.608326</ele>
        <time>2022-07-10T23:23:32.535Z</time>
      </trkpt>
      <trkpt lat="47.37952" lon="2.8814">
        <ele>145.668099</ele>
        <time>2022-07-10T23:23:35.248Z</time>
      </trkpt>
      <trkpt lat="47.37954" lon="2.88128">
        <ele>145.712955</ele>
        <time>2022-07-10T23:23:36.859Z</time>
      </trkpt>
      <trkpt lat="47.37983" lon="2.88137">
        <ele>145.861399</ele>
        <time>2022-07-10T23:23:41.765Z</time>
      </trkpt>
      <trkpt lat="47.37994" lon="2.88134">
        <ele>145.91861</ele>
        <time>2022-07-10T23:23:43.678Z</time>
      </trkpt>
      <trkpt lat="47.3806" lon="2.88176">
        <ele>146.021593</ele>
        <time>2022-07-10T23:23:55.583Z</time>
      </trkpt>
      <trkpt lat="47.3815" lon="2.88232">
        <ele>145.857307</ele>
        <time>2022-07-10T23:24:09.191Z</time>
      </trkpt>
      <trkpt lat="47.38287" lon="2.88323">
        <ele>145.275344</ele>
        <time>2022-07-10T23:24:28.575Z</time>
      </trkpt>
      <trkpt lat="47.38297" lon="2.88331">
        <ele>145.222157</ele>
        <time>2022-07-10T23:24:30.043Z</time>
      </trkpt>
      <trkpt lat="47.38368" lon="2.88389">
        <ele>144.978265</ele>
        <time>2022-07-10T23:24:41.163Z</time>
      </trkpt>
      <trkpt lat="47.38398" lon="2.88414">
        <ele>145.066843</ele>
        <time>2022-07-10T23:24:46.256Z</time>
      </trkpt>
      <trkpt lat="47.38476" lon="2.88481">
        <ele>145.299414</ele>
        <time>2022-07-10T23:25:00.642Z</time>
      </trkpt>
      <trkpt lat="47.38546" lon="2.88538">
        <ele>145.81907</ele>
        <time>2022-07-10T23:25:15.171Z</time>
      </trkpt>
      <trkpt lat="47.38574" lon="2.88552">
        <ele>146.107756</ele>
        <time>2022-07-10T23:25:20.974Z</time>
      </trkpt>
      <trkpt lat="47.38615" lon="2.88564">
        <ele>146.514332</ele>
        <time>2022-07-10T23:25:29.063Z</time>
      </trkpt>
      <trkpt lat="47.38708" lon="2.88576">
        <ele>147.196681</ele>
        <time>2022-07-10T23:25:46.636Z</time>
      </trkpt>
      <trkpt lat="47.38758" lon="2.88586">
        <ele>147.298968</ele>
        <time>2022-07-10T23:25:55.559Z</time>
      </trkpt>
      <trkpt lat="47.38872" lon="2.88638">
        <ele>147.331121</ele>
        <time>2022-07-10T23:26:12.462Z</time>
      </trkpt>
      <trkpt lat="47.38922" lon="2.88664">
        <ele>146.85981</ele>
        <time>2022-07-10T23:26:18.968Z</time>
      </trkpt>
      <trkpt lat="47.38963" lon="2.88703">
        <ele>146.434015</ele>
        <time>2022-07-10T23:26:24.779Z</time>
      </trkpt>
      <trkpt lat="47.39055" lon="2.88782">
        <ele>145.652046</ele>
        <time>2022-07-10T23:26:37.772Z</time>
      </trkpt>
      <trkpt lat="47.39144" lon="2.88824">
        <ele>145.131846</ele>
        <time>2022-07-10T23:26:50.019Z</time>
      </trkpt>
      <trkpt lat="47.39329" lon="2.88895">
        <ele>144.764559</ele>
        <time>2022-07-10T23:27:17.807Z</time>
      </trkpt>
      <trkpt lat="47.39764" lon="2.89065">
        <ele>144.158621</ele>
        <time>2022-07-10T23:28:21.673Z</time>
      </trkpt>
      <trkpt lat="47.39775" lon="2.89069">
        <ele>144.166421</ele>
        <time>2022-07-10T23:28:23.517Z</time>
      </trkpt>
      <trkpt lat="47.39944" lon="2.89131">
        <ele>144.182283</ele>
        <time>2022-07-10T23:28:50.698Z</time>
      </trkpt>
      <trkpt lat="47.40387" lon="2.89238">
        <ele>143.702831</ele>
        <time>2022-07-10T23:29:54.780Z</time>
      </trkpt>
      <trkpt lat="47.40514" lon="2.89308">
        <ele>143.644605</ele>
        <time>2022-07-10T23:30:14.222Z</time>
      </trkpt>
      <trkpt lat="47.40586" lon="2.89348">
        <ele>143.662824</ele>
        <time>2022-07-10T23:30:25.687Z</time>
      </trkpt>
      <trkpt lat="47.40935" lon="2.89508">
        <ele>144.846513</ele>
        <time>2022-07-10T23:31:25.241Z</time>
      </trkpt>
      <trkpt lat="47.40961" lon="2.89518">
        <ele>144.907678</ele>
        <time>2022-07-10T23:31:29.225Z</time>
      </trkpt>
      <trkpt lat="47.4108" lon="2.89525">
        <ele>145.180657</ele>
        <time>2022-07-10T23:31:48.449Z</time>
      </trkpt>
      <trkpt lat="47.41085" lon="2.89539">
        <ele>145.206074</ele>
        <time>2022-07-10T23:31:49.814Z</time>
      </trkpt>
      <trkpt lat="47.41097" lon="2.89542">
        <ele>145.215808</ele>
        <time>2022-07-10T23:31:51.573Z</time>
      </trkpt>
      <trkpt lat="47.41102" lon="2.89538">
        <ele>145.209694</ele>
        <time>2022-07-10T23:31:52.542Z</time>
      </trkpt>
      <trkpt lat="47.41105" lon="2.89529">
        <ele>145.201914</ele>
        <time>2022-07-10T23:31:53.899Z</time>
      </trkpt>
      <trkpt lat="47.41139" lon="2.89518">
        <ele>145.164459</ele>
        <time>2022-07-10T23:31:59.053Z</time>
      </trkpt>
      <trkpt lat="47.41159" lon="2.89513">
        <ele>145.142206</ele>
        <time>2022-07-10T23:32:01.858Z</time>
      </trkpt>
      <trkpt lat="47.412" lon="2.8951">
        <ele>145.097179</ele>
        <time>2022-07-10T23:32:07.979Z</time>
      </trkpt>
      <trkpt lat="47.41209" lon="2.8951">
        <ele>145.087048</ele>
        <time>2022-07-10T23:32:09.587Z</time>
      </trkpt>
      <trkpt lat="47.4126" lon="2.8951">
        <ele>145.032257</ele>
        <time>2022-07-10T23:32:16.580Z</time>
      </trkpt>
      <trkpt lat="47.41309" lon="2.89521">
        <ele>144.792667</ele>
        <time>2022-07-10T23:32:22.961Z</time>
      </trkpt>
      <trkpt lat="47.41364" lon="2.89538">
        <ele>144.489302</ele>
        <time>2022-07-10T23:32:30.230Z</time>
      </trkpt>
      <trkpt lat="47.41456" lon="2.89563">
        <ele>144.033468</ele>
        <time>2022-07-10T23:32:42.514Z</time>
      </trkpt>
      <trkpt lat="47.41491" lon="2.89565">
        <ele>143.969816</ele>
        <time>2022-07-10T23:32:47.103Z</time>
      </trkpt>
      <trkpt lat="47.41658" lon="2.8953">
        <ele>144.06665</ele>
        <time>2022-07-10T23:33:11.545Z</time>
      </trkpt>
      <trkpt lat="47.41799" lon="2.89522">
        <ele>145.302608</ele>
        <time>2022-07-10T23:33:40.312Z</time>
      </trkpt>
      <trkpt lat="47.41878" lon="2.89503">
        <ele>144.989671</ele>
        <time>2022-07-10T23:33:52.612Z</time>
      </trkpt>
      <trkpt lat="47.41918" lon="2.89502">
        <ele>144.819004</ele>
        <time>2022-07-10T23:33:57.796Z</time>
      </trkpt>
      <trkpt lat="47.4194" lon="2.89508">
        <ele>144.726276</ele>
        <time>2022-07-10T23:34:00.510Z</time>
      </trkpt>
      <trkpt lat="47.41978" lon="2.89525">
        <ele>144.551707</ele>
        <time>2022-07-10T23:34:05.340Z</time>
      </trkpt>
      <trkpt lat="47.42015" lon="2.89557">
        <ele>144.066573</ele>
        <time>2022-07-10T23:34:10.207Z</time>
      </trkpt>
      <trkpt lat="47.42029" lon="2.89567">
        <ele>143.890428</ele>
        <time>2022-07-10T23:34:11.921Z</time>
      </trkpt>
      <trkpt lat="47.42051" lon="2.89583">
        <ele>143.617911</ele>
        <time>2022-07-10T23:34:14.523Z</time>
      </trkpt>
      <trkpt lat="47.4208" lon="2.89594">
        <ele>143.273912</ele>
        <time>2022-07-10T23:34:17.996Z</time>
      </trkpt>
      <trkpt lat="47.42124" lon="2.89592">
        <ele>142.781857</ele>
        <time>2022-07-10T23:34:23.403Z</time>
      </trkpt>
      <trkpt lat="47.42134" lon="2.89588">
        <ele>142.660727</ele>
        <time>2022-07-10T23:34:25.085Z</time>
      </trkpt>
      <trkpt lat="47.42138" lon="2.89587">
        <ele>142.614297</ele>
        <time>2022-07-10T23:34:25.696Z</time>
      </trkpt>
      <trkpt lat="47.42149" lon="2.89581">
        <ele>142.547057</ele>
        <time>2022-07-10T23:34:27.322Z</time>
      </trkpt>
      <trkpt lat="47.42169" lon="2.89565">
        <ele>142.638221</ele>
        <time>2022-07-10T23:34:31.086Z</time>
      </trkpt>
      <trkpt lat="47.42197" lon="2.89524">
        <ele>142.793043</ele>
        <time>2022-07-10T23:34:37.840Z</time>
      </trkpt>
      <trkpt lat="47.42267" lon="2.89412">
        <ele>143.202112</ele>
        <time>2022-07-10T23:34:56.261Z</time>
      </trkpt>
      <trkpt lat="47.42308" lon="2.89362">
        <ele>143.049977</ele>
        <time>2022-07-10T23:35:04.269Z</time>
      </trkpt>
      <trkpt lat="47.4234" lon="2.89341">
        <ele>142.891513</ele>
        <time>2022-07-10T23:35:09.055Z</time>
      </trkpt>
      <trkpt lat="47.42465" lon="2.89285">
        <ele>142.255271</ele>
        <time>2022-07-10T23:35:25.260Z</time>
      </trkpt>
      <trkpt lat="47.42547" lon="2.89249">
        <ele>141.723988</ele>
        <time>2022-07-10T23:35:35.938Z</time>
      </trkpt>
      <trkpt lat="47.42681" lon="2.89219">
        <ele>141.30886</ele>
        <time>2022-07-10T23:35:55.010Z</time>
      </trkpt>
      <trkpt lat="47.42731" lon="2.892">
        <ele>141.300922</ele>
        <time>2022-07-10T23:36:03.051Z</time>
      </trkpt>
      <trkpt lat="47.42855" lon="2.89133">
        <ele>141.121794</ele>
        <time>2022-07-10T23:36:22.695Z</time>
      </trkpt>
      <trkpt lat="47.43086" lon="2.88988">
        <ele>140.453089</ele>
        <time>2022-07-10T23:36:56.751Z</time>
      </trkpt>
      <trkpt lat="47.43129" lon="2.88949">
        <ele>140.359082</ele>
        <time>2022-07-10T23:37:04.115Z</time>
      </trkpt>
      <trkpt lat="47.43206" lon="2.88862">
        <ele>140.426262</ele>
        <time>2022-07-10T23:37:18.911Z</time>
      </trkpt>
      <trkpt lat="47.43247" lon="2.88825">
        <ele>140.459157</ele>
        <time>2022-07-10T23:37:26.360Z</time>
      </trkpt>
      <trkpt lat="47.43545" lon="2.88639">
        <ele>140.444585</ele>
        <time>2022-07-10T23:38:14.464Z</time>
      </trkpt>
      <trkpt lat="47.43762" lon="2.88577">
        <ele>140.269214</ele>
        <time>2022-07-10T23:38:46.078Z</time>
      </trkpt>
      <trkpt lat="47.43935" lon="2.88515">
        <ele>140.275095</ele>
        <time>2022-07-10T23:39:13.197Z</time>
      </trkpt>
      <trkpt lat="47.43994" lon="2.88493">
        <ele>140.076376</ele>
        <time>2022-07-10T23:39:21.754Z</time>
      </trkpt>
      <trkpt lat="47.44003" lon="2.8849">
        <ele>140.032183</ele>
        <time>2022-07-10T23:39:23.036Z</time>
      </trkpt>
      <trkpt lat="47.44052" lon="2.88464">
        <ele>139.79879</ele>
        <time>2022-07-10T23:39:29.820Z</time>
      </trkpt>
      <trkpt lat="47.44193" lon="2.88327">
        <ele>139.054754</ele>
        <time>2022-07-10T23:39:51.729Z</time>
      </trkpt>
      <trkpt lat="47.44515" lon="2.88263">
        <ele>138.182319</ele>
        <time>2022-07-10T23:40:37.167Z</time>
      </trkpt>
      <trkpt lat="47.44715" lon="2.88181">
        <ele>138.162642</ele>
        <time>2022-07-10T23:41:07.675Z</time>
      </trkpt>
      <trkpt lat="47.449" lon="2.88105">
        <ele>138.459952</ele>
        <time>2022-07-10T23:41:38.225Z</time>
      </trkpt>
      <trkpt lat="47.45191" lon="2.87935">
        <ele>138.564764</ele>
        <time>2022-07-10T23:42:24.892Z</time>
      </trkpt>
      <trkpt lat="47.45225" lon="2.87925">
        <ele>138.541232</ele>
        <time>2022-07-10T23:42:29.911Z</time>
      </trkpt>
      <trkpt lat="47.4528" lon="2.87919">
        <ele>138.50413</ele>
        <time>2022-07-10T23:42:37.823Z</time>
      </trkpt>
      <trkpt lat="47.45409" lon="2.8791">
        <ele>138.478641</ele>
        <time>2022-07-10T23:42:56.460Z</time>
      </trkpt>
      <trkpt lat="47.45484" lon="2.87917">
        <ele>138.47856</ele>
        <time>2022-07-10T23:43:07.900Z</time>
      </trkpt>
      <trkpt lat="47.45552" lon="2.87933">
        <ele>138.508183</ele>
        <time>2022-07-10T23:43:18.263Z</time>
      </trkpt>
      <trkpt lat="47.45575" lon="2.87939">
        <ele>138.521135</ele>
        <time>2022-07-10T23:43:21.905Z</time>
      </trkpt>
      <trkpt lat="47.45687" lon="2.8797">
        <ele>138.614823</ele>
        <time>2022-07-10T23:43:38.968Z</time>
      </trkpt>
      <trkpt lat="47.45754" lon="2.87978">
        <ele>138.823406</ele>
        <time>2022-07-10T23:43:48.919Z</time>
      </trkpt>
      <trkpt lat="47.45819" lon="2.87951">
        <ele>139.032998</ele>
        <time>2022-07-10T23:43:59.850Z</time>
      </trkpt>
      <trkpt lat="47.45827" lon="2.87945">
        <ele>139.060291</ele>
        <time>2022-07-10T23:44:01.437Z</time>
      </trkpt>
      <trkpt lat="47.45894" lon="2.87868">
        <ele>139.654125</ele>
        <time>2022-07-10T23:44:16.933Z</time>
      </trkpt>
      <trkpt lat="47.45903" lon="2.87858">
        <ele>139.74868</ele>
        <time>2022-07-10T23:44:19.092Z</time>
      </trkpt>
      <trkpt lat="47.45925" lon="2.87831">
        <ele>139.987697</ele>
        <time>2022-07-10T23:44:24.301Z</time>
      </trkpt>
      <trkpt lat="47.45939" lon="2.87817">
        <ele>140.132513</ele>
        <time>2022-07-10T23:44:27.575Z</time>
      </trkpt>
      <trkpt lat="47.45983" lon="2.87781">
        <ele>140.552186</ele>
        <time>2022-07-10T23:44:36.605Z</time>
      </trkpt>
      <trkpt lat="47.46036" lon="2.87751">
        <ele>140.813883</ele>
        <time>2022-07-10T23:44:47.298Z</time>
      </trkpt>
      <trkpt lat="47.46334" lon="2.87586">
        <ele>141.574197</ele>
        <time>2022-07-10T23:45:36.446Z</time>
      </trkpt>
      <trkpt lat="47.46493" lon="2.87478">
        <ele>141.632862</ele>
        <time>2022-07-10T23:46:02.563Z</time>
      </trkpt>
      <trkpt lat="47.46532" lon="2.87455">
        <ele>141.546587</ele>
        <time>2022-07-10T23:46:08.621Z</time>
      </trkpt>
      <trkpt lat="47.46895" lon="2.87376">
        <ele>140.979588</ele>
        <time>2022-07-10T23:46:59.762Z</time>
      </trkpt>
      <trkpt lat="47.46901" lon="2.87376">
        <ele>140.995297</ele>
        <time>2022-07-10T23:47:00.606Z</time>
      </trkpt>
      <trkpt lat="47.46965" lon="2.87386">
        <ele>141.176651</ele>
        <time>2022-07-10T23:47:10.971Z</time>
      </trkpt>
      <trkpt lat="47.47025" lon="2.87394">
        <ele>141.345255</ele>
        <time>2022-07-10T23:47:21.655Z</time>
      </trkpt>
      <trkpt lat="47.4707" lon="2.87391">
        <ele>141.682024</ele>
        <time>2022-07-10T23:47:29.710Z</time>
      </trkpt>
      <trkpt lat="47.47103" lon="2.87384">
        <ele>141.928788</ele>
        <time>2022-07-10T23:47:35.666Z</time>
      </trkpt>
      <trkpt lat="47.47153" lon="2.87361">
        <ele>142.322455</ele>
        <time>2022-07-10T23:47:45.399Z</time>
      </trkpt>
      <trkpt lat="47.47205" lon="2.87355">
        <ele>142.690099</ele>
        <time>2022-07-10T23:47:54.859Z</time>
      </trkpt>
      <trkpt lat="47.47264" lon="2.87329">
        <ele>142.625197</ele>
        <time>2022-07-10T23:48:04.928Z</time>
      </trkpt>
      <trkpt lat="47.47318" lon="2.87304">
        <ele>142.566442</ele>
        <time>2022-07-10T23:48:12.416Z</time>
      </trkpt>
      <trkpt lat="47.4734" lon="2.8729">
        <ele>142.541043</ele>
        <time>2022-07-10T23:48:15.557Z</time>
      </trkpt>
      <trkpt lat="47.47368" lon="2.87259">
        <ele>142.504486</ele>
        <time>2022-07-10T23:48:20.099Z</time>
      </trkpt>
      <trkpt lat="47.47377" lon="2.87249">
        <ele>142.465934</ele>
        <time>2022-07-10T23:48:21.578Z</time>
      </trkpt>
      <trkpt lat="47.47392" lon="2.87235">
        <ele>142.401895</ele>
        <time>2022-07-10T23:48:24.037Z</time>
      </trkpt>
      <trkpt lat="47.47416" lon="2.87222">
        <ele>142.312302</ele>
        <time>2022-07-10T23:48:27.521Z</time>
      </trkpt>
      <trkpt lat="47.47444" lon="2.87218">
        <ele>142.212109</ele>
        <time>2022-07-10T23:48:31.448Z</time>
      </trkpt>
      <trkpt lat="47.47486" lon="2.87214">
        <ele>142.065551</ele>
        <time>2022-07-10T23:48:37.131Z</time>
      </trkpt>
      <trkpt lat="47.47602" lon="2.87226">
        <ele>141.827076</ele>
        <time>2022-07-10T23:48:53.429Z</time>
      </trkpt>
      <trkpt lat="47.47663" lon="2.87233">
        <ele>141.783197</ele>
        <time>2022-07-10T23:49:02.571Z</time>
      </trkpt>
      <trkpt lat="47.47717" lon="2.87219">
        <ele>141.743725</ele>
        <time>2022-07-10T23:49:10.778Z</time>
      </trkpt>
      <trkpt lat="47.47781" lon="2.87188">
        <ele>141.697463</ele>
        <time>2022-07-10T23:49:20.610Z</time>
      </trkpt>
      <trkpt lat="47.47801" lon="2.87178">
        <ele>141.682701</ele>
        <time>2022-07-10T23:49:23.815Z</time>
      </trkpt>
      <trkpt lat="47.47955" lon="2.87105">
        <ele>141.284495</ele>
        <time>2022-07-10T23:49:46.916Z</time>
      </trkpt>
      <trkpt lat="47.48162" lon="2.87003">
        <ele>140.206264</ele>
        <time>2022-07-10T23:50:14.735Z</time>
      </trkpt>
      <trkpt lat="47.48265" lon="2.86918">
        <ele>139.863935</ele>
        <time>2022-07-10T23:50:31.277Z</time>
      </trkpt>
      <trkpt lat="47.48359" lon="2.86843">
        <ele>139.921849</ele>
        <time>2022-07-10T23:50:47.974Z</time>
      </trkpt>
      <trkpt lat="47.48394" lon="2.86815">
        <ele>139.954451</ele>
        <time>2022-07-10T23:50:54.089Z</time>
      </trkpt>
      <trkpt lat="47.48438" lon="2.86775">
        <ele>140.038186</ele>
        <time>2022-07-10T23:51:02.058Z</time>
      </trkpt>
      <trkpt lat="47.48451" lon="2.86757">
        <ele>140.066213</ele>
        <time>2022-07-10T23:51:04.708Z</time>
      </trkpt>
      <trkpt lat="47.48463" lon="2.86741">
        <ele>140.092263</ele>
        <time>2022-07-10T23:51:07.182Z</time>
      </trkpt>
      <trkpt lat="47.48536" lon="2.86659">
        <ele>140.253595</ele>
        <time>2022-07-10T23:51:21.414Z</time>
      </trkpt>
      <trkpt lat="47.48549" lon="2.86643">
        <ele>140.307806</ele>
        <time>2022-07-10T23:51:23.968Z</time>
      </trkpt>
      <trkpt lat="47.48558" lon="2.8663">
        <ele>140.350652</ele>
        <time>2022-07-10T23:51:26.012Z</time>
      </trkpt>
      <trkpt lat="47.48569" lon="2.86615">
        <ele>140.399708</ele>
        <time>2022-07-10T23:51:28.362Z</time>
      </trkpt>
      <trkpt lat="47.48595" lon="2.86584">
        <ele>140.510024</ele>
        <time>2022-07-10T23:51:33.832Z</time>
      </trkpt>
      <trkpt lat="47.48623" lon="2.86561">
        <ele>140.617064</ele>
        <time>2022-07-10T23:51:39.248Z</time>
      </trkpt>
      <trkpt lat="47.48753" lon="2.8649">
        <ele>140.874272</ele>
        <time>2022-07-10T23:52:01.834Z</time>
      </trkpt>
      <trkpt lat="47.49064" lon="2.86316">
        <ele>140.462991</ele>
        <time>2022-07-10T23:52:49.306Z</time>
      </trkpt>
      <trkpt lat="47.49108" lon="2.86293">
        <ele>140.264089</ele>
        <time>2022-07-10T23:52:55.648Z</time>
      </trkpt>
      <trkpt lat="47.49206" lon="2.86241">
        <ele>139.767524</ele>
        <time>2022-07-10T23:53:09.182Z</time>
      </trkpt>
      <trkpt lat="47.49279" lon="2.86191">
        <ele>139.193657</ele>
        <time>2022-07-10T23:53:19.283Z</time>
      </trkpt>
      <trkpt lat="47.49362" lon="2.86118">
        <ele>138.589517</ele>
        <time>2022-07-10T23:53:31.556Z</time>
      </trkpt>
      <trkpt lat="47.49424" lon="2.86071">
        <ele>138.393324</ele>
        <time>2022-07-10T23:53:41.172Z</time>
      </trkpt>
      <trkpt lat="47.49474" lon="2.86029">
        <ele>138.234055</ele>
        <time>2022-07-10T23:53:49.204Z</time>
      </trkpt>
      <trkpt lat="47.49513" lon="2.85999">
        <ele>138.141127</ele>
        <time>2022-07-10T23:53:55.592Z</time>
      </trkpt>
      <trkpt lat="47.49589" lon="2.85939">
        <ele>138.196008</ele>
        <time>2022-07-10T23:54:09.137Z</time>
      </trkpt>
      <trkpt lat="47.49591" lon="2.85938">
        <ele>138.197011</ele>
        <time>2022-07-10T23:54:09.399Z</time>
      </trkpt>
      <trkpt lat="47.49747" lon="2.85813">
        <ele>138.080386</ele>
        <time>2022-07-10T23:54:35.522Z</time>
      </trkpt>
      <trkpt lat="47.49967" lon="2.85634">
        <ele>137.594098</ele>
        <time>2022-07-10T23:55:10.050Z</time>
      </trkpt>
      <trkpt lat="47.50046" lon="2.85603">
        <ele>137.845981</ele>
        <time>2022-07-10T23:55:23.232Z</time>
      </trkpt>
      <trkpt lat="47.5022" lon="2.85528">
        <ele>138.489637</ele>
        <time>2022-07-10T23:55:54.320Z</time>
      </trkpt>
      <trkpt lat="47.50282" lon="2.85494">
        <ele>138.655477</ele>
        <time>2022-07-10T23:56:04.638Z</time>
      </trkpt>
      <trkpt lat="47.50324" lon="2.85483">
        <ele>138.762022</ele>
        <time>2022-07-10T23:56:10.909Z</time>
      </trkpt>
      <trkpt lat="47.50609" lon="2.8529">
        <ele>138.187635</ele>
        <time>2022-07-10T23:56:54.833Z</time>
      </trkpt>
      <trkpt lat="47.50723" lon="2.8521">
        <ele>138.144695</ele>
        <time>2022-07-10T23:57:13.574Z</time>
      </trkpt>
      <trkpt lat="47.50762" lon="2.85159">
        <ele>138.166764</ele>
        <time>2022-07-10T23:57:21.401Z</time>
      </trkpt>
      <trkpt lat="47.50783" lon="2.8513">
        <ele>138.179088</ele>
        <time>2022-07-10T23:57:25.690Z</time>
      </trkpt>
      <trkpt lat="47.50848" lon="2.85039">
        <ele>138.089775</ele>
        <time>2022-07-10T23:57:39.035Z</time>
      </trkpt>
      <trkpt lat="47.50948" lon="2.84932">
        <ele>137.887761</ele>
        <time>2022-07-10T23:57:56.362Z</time>
      </trkpt>
      <trkpt lat="47.50987" lon="2.84892">
        <ele>137.725393</ele>
        <time>2022-07-10T23:58:02.780Z</time>
      </trkpt>
      <trkpt lat="47.51225" lon="2.84706">
        <ele>136.676302</ele>
        <time>2022-07-10T23:58:39.082Z</time>
      </trkpt>
      <trkpt lat="47.51248" lon="2.84689">
        <ele>136.568802</ele>
        <time>2022-07-10T23:58:42.470Z</time>
      </trkpt>
      <trkpt lat="47.51339" lon="2.84621">
        <ele>136.360515</ele>
        <time>2022-07-10T23:58:56.452Z</time>
      </trkpt>
      <trkpt lat="47.51356" lon="2.84609">
        <ele>136.325027</ele>
        <time>2022-07-10T23:58:59.068Z</time>
      </trkpt>
      <trkpt lat="47.51613" lon="2.84425">
        <ele>136.808801</ele>
        <time>2022-07-10T23:59:42.799Z</time>
      </trkpt>
      <trkpt lat="47.51706" lon="2.84358">
        <ele>137.627883</ele>
        <time>2022-07-11T00:00:01.391Z</time>
      </trkpt>
      <trkpt lat="47.52101" lon="2.84083">
        <ele>143.77363</ele>
        <time>2022-07-11T00:01:33.079Z</time>
      </trkpt>
      <trkpt lat="47.52387" lon="2.83884">
        <ele>146.653441</ele>
        <time>2022-07-11T00:02:31.299Z</time>
      </trkpt>
      <trkpt lat="47.52604" lon="2.8373">
        <ele>145.695136</ele>
        <time>2022-07-11T00:03:05.755Z</time>
      </trkpt>
      <trkpt lat="47.52672" lon="2.83682">
        <ele>144.493984</ele>
        <time>2022-07-11T00:03:13.945Z</time>
      </trkpt>
      <trkpt lat="47.52698" lon="2.83652">
        <ele>143.967601</ele>
        <time>2022-07-11T00:03:17.432Z</time>
      </trkpt>
      <trkpt lat="47.52768" lon="2.8357">
        <ele>142.843316</ele>
        <time>2022-07-11T00:03:26.900Z</time>
      </trkpt>
      <trkpt lat="47.52781" lon="2.83554">
        <ele>142.63883</ele>
        <time>2022-07-11T00:03:28.791Z</time>
      </trkpt>
      <trkpt lat="47.52829" lon="2.83491">
        <ele>141.869752</ele>
        <time>2022-07-11T00:03:36.482Z</time>
      </trkpt>
      <trkpt lat="47.52831" lon="2.83488">
        <ele>141.82849</ele>
        <time>2022-07-11T00:03:36.936Z</time>
      </trkpt>
      <trkpt lat="47.53071" lon="2.83182">
        <ele>145.58495</ele>
        <time>2022-07-11T00:04:44.862Z</time>
      </trkpt>
      <trkpt lat="47.53265" lon="2.82933">
        <ele>147.386081</ele>
        <time>2022-07-11T00:05:27.417Z</time>
      </trkpt>
      <trkpt lat="47.53523" lon="2.82598">
        <ele>151.056325</ele>
        <time>2022-07-11T00:06:33.407Z</time>
      </trkpt>
      <trkpt lat="47.53652" lon="2.82431">
        <ele>153.42097</ele>
        <time>2022-07-11T00:07:07.967Z</time>
      </trkpt>
      <trkpt lat="47.53712" lon="2.82356">
        <ele>154.797198</ele>
        <time>2022-07-11T00:07:25.213Z</time>
      </trkpt>
      <trkpt lat="47.53826" lon="2.82208">
        <ele>157.467454</ele>
        <time>2022-07-11T00:07:59.318Z</time>
      </trkpt>
      <trkpt lat="47.54044" lon="2.81923">
        <ele>161.738456</ele>
        <time>2022-07-11T00:09:00.425Z</time>
      </trkpt>
      <trkpt lat="47.54095" lon="2.81858">
        <ele>162.067793</ele>
        <time>2022-07-11T00:09:11.820Z</time>
      </trkpt>
      <trkpt lat="47.54122" lon="2.81826">
        <ele>161.995626</ele>
        <time>2022-07-11T00:09:17.146Z</time>
      </trkpt>
      <trkpt lat="47.54129" lon="2.81815">
        <ele>161.974094</ele>
        <time>2022-07-11T00:09:18.587Z</time>
      </trkpt>
      <trkpt lat="47.54154" lon="2.81783">
        <ele>161.904932</ele>
        <time>2022-07-11T00:09:23.316Z</time>
      </trkpt>
      <trkpt lat="47.54168" lon="2.81767">
        <ele>161.868219</ele>
        <time>2022-07-11T00:09:25.715Z</time>
      </trkpt>
      <trkpt lat="47.54221" lon="2.81703">
        <ele>161.490483</ele>
        <time>2022-07-11T00:09:34.065Z</time>
      </trkpt>
      <trkpt lat="47.54274" lon="2.81637">
        <ele>160.580824</ele>
        <time>2022-07-11T00:09:41.717Z</time>
      </trkpt>
      <trkpt lat="47.54294" lon="2.81605">
        <ele>160.194864</ele>
        <time>2022-07-11T00:09:45.112Z</time>
      </trkpt>
      <trkpt lat="47.54303" lon="2.81591">
        <ele>160.023146</ele>
        <time>2022-07-11T00:09:46.611Z</time>
      </trkpt>
      <trkpt lat="47.5434" lon="2.81525">
        <ele>159.404932</ele>
        <time>2022-07-11T00:09:53.652Z</time>
      </trkpt>
      <trkpt lat="47.5435" lon="2.81509">
        <ele>159.414807</ele>
        <time>2022-07-11T00:09:55.476Z</time>
      </trkpt>
      <trkpt lat="47.54437" lon="2.81363">
        <ele>159.505158</ele>
        <time>2022-07-11T00:10:15.620Z</time>
      </trkpt>
      <trkpt lat="47.54456" lon="2.81327">
        <ele>159.505115</ele>
        <time>2022-07-11T00:10:21.484Z</time>
      </trkpt>
      <trkpt lat="47.54466" lon="2.81307">
        <ele>159.467895</ele>
        <time>2022-07-11T00:10:24.908Z</time>
      </trkpt>
      <trkpt lat="47.54482" lon="2.81267">
        <ele>159.399661</ele>
        <time>2022-07-11T00:10:30.848Z</time>
      </trkpt>
      <trkpt lat="47.5453" lon="2.81077">
        <ele>158.888984</ele>
        <time>2022-07-11T00:10:49.041Z</time>
      </trkpt>
      <trkpt lat="47.54533" lon="2.81067">
        <ele>158.751887</ele>
        <time>2022-07-11T00:10:49.845Z</time>
      </trkpt>
      <trkpt lat="47.54575" lon="2.80901">
        <ele>156.516838</ele>
        <time>2022-07-11T00:11:02.439Z</time>
      </trkpt>
      <trkpt lat="47.5461" lon="2.8083">
        <ele>156.140597</ele>
        <time>2022-07-11T00:11:09.165Z</time>
      </trkpt>
      <trkpt lat="47.54649" lon="2.80777">
        <ele>157.159628</ele>
        <time>2022-07-11T00:11:16.158Z</time>
      </trkpt>
      <trkpt lat="47.54968" lon="2.80344">
        <ele>165.596762</ele>
        <time>2022-07-11T00:13:07.272Z</time>
      </trkpt>
      <trkpt lat="47.5519" lon="2.80044">
        <ele>166.015346</ele>
        <time>2022-07-11T00:13:47.770Z</time>
      </trkpt>
      <trkpt lat="47.55418" lon="2.79735">
        <ele>167.823764</ele>
        <time>2022-07-11T00:14:45.096Z</time>
      </trkpt>
      <trkpt lat="47.5545" lon="2.7967">
        <ele>167.669301</ele>
        <time>2022-07-11T00:14:54.029Z</time>
      </trkpt>
      <trkpt lat="47.55492" lon="2.79528">
        <ele>167.109937</ele>
        <time>2022-07-11T00:15:06.788Z</time>
      </trkpt>
      <trkpt lat="47.55556" lon="2.79308">
        <ele>163.661003</ele>
        <time>2022-07-11T00:15:24.069Z</time>
      </trkpt>
      <trkpt lat="47.55582" lon="2.79261">
        <ele>163.117495</ele>
        <time>2022-07-11T00:15:28.393Z</time>
      </trkpt>
      <trkpt lat="47.55632" lon="2.79218">
        <ele>162.429317</ele>
        <time>2022-07-11T00:15:34.803Z</time>
      </trkpt>
      <trkpt lat="47.55718" lon="2.79187">
        <ele>161.4491</ele>
        <time>2022-07-11T00:15:46.414Z</time>
      </trkpt>
      <trkpt lat="47.55736" lon="2.79179">
        <ele>161.781705</ele>
        <time>2022-07-11T00:15:49.843Z</time>
      </trkpt>
      <trkpt lat="47.55769" lon="2.79152">
        <ele>162.429884</ele>
        <time>2022-07-11T00:15:56.694Z</time>
      </trkpt>
      <trkpt lat="47.55793" lon="2.79115">
        <ele>163.038379</ele>
        <time>2022-07-11T00:16:03.899Z</time>
      </trkpt>
      <trkpt lat="47.55922" lon="2.78762">
        <ele>169.837115</ele>
        <time>2022-07-11T00:17:16.019Z</time>
      </trkpt>
      <trkpt lat="47.55971" lon="2.7865">
        <ele>171.875523</ele>
        <time>2022-07-11T00:17:37.807Z</time>
      </trkpt>
      <trkpt lat="47.56164" lon="2.78289">
        <ele>177.54143</ele>
        <time>2022-07-11T00:18:48.467Z</time>
      </trkpt>
      <trkpt lat="47.56545" lon="2.77567">
        <ele>180.45172</ele>
        <time>2022-07-11T00:20:30.169Z</time>
      </trkpt>
      <trkpt lat="47.5674" lon="2.77266">
        <ele>179.939333</ele>
        <time>2022-07-11T00:21:07.844Z</time>
      </trkpt>
      <trkpt lat="47.568" lon="2.77171">
        <ele>180.247196</ele>
        <time>2022-07-11T00:21:22.935Z</time>
      </trkpt>
      <trkpt lat="47.56904" lon="2.76925">
        <ele>181.102874</ele>
        <time>2022-07-11T00:21:58.684Z</time>
      </trkpt>
      <trkpt lat="47.56948" lon="2.76876">
        <ele>180.802424</ele>
        <time>2022-07-11T00:22:05.869Z</time>
      </trkpt>
      <trkpt lat="47.57115" lon="2.76717">
        <ele>177.694071</ele>
        <time>2022-07-11T00:22:27.614Z</time>
      </trkpt>
      <trkpt lat="47.5721" lon="2.7664">
        <ele>176.143019</ele>
        <time>2022-07-11T00:22:40.104Z</time>
      </trkpt>
      <trkpt lat="47.57321" lon="2.76617">
        <ele>175.419366</ele>
        <time>2022-07-11T00:22:55.024Z</time>
      </trkpt>
      <trkpt lat="47.57343" lon="2.76611">
        <ele>175.330318</ele>
        <time>2022-07-11T00:22:58.145Z</time>
      </trkpt>
      <trkpt lat="47.57838" lon="2.76512">
        <ele>174.385224</ele>
        <time>2022-07-11T00:24:08.224Z</time>
      </trkpt>
      <trkpt lat="47.57857" lon="2.76508">
        <ele>176.6</ele>
        <extensions>
          <visugpx:TrkExtension xmlns:visugpx="https://www.visugpx.com/editgpx/">
            <visugpx:node>15</visugpx:node>
            </visugpx:TrkExtension>
        </extensions>
      </trkpt>
      <trkpt lat="47.5789" lon="2.76501">
        <ele>177</ele>
      </trkpt>
      <trkpt lat="47.58" lon="2.76479">
        <ele>179</ele>
      </trkpt>
      <trkpt lat="47.58014" lon="2.76476">
        <ele>179</ele>
        <extensions>
          <visugpx:TrkExtension xmlns:visugpx="https://www.visugpx.com/editgpx/">
            <visugpx:node>16</visugpx:node>
            </visugpx:TrkExtension>
        </extensions>
      </trkpt>
      <trkpt lat="47.58064" lon="2.76464">
        <ele>179</ele>
      </trkpt>
      <trkpt lat="47.58113" lon="2.76417">
        <ele>179.9</ele>
      </trkpt>
      <trkpt lat="47.58172" lon="2.76335">
        <ele>179</ele>
      </trkpt>
      <trkpt lat="47.58205" lon="2.76288">
        <ele>179</ele>
      </trkpt>
      <trkpt lat="47.58238" lon="2.76241">
        <ele>179</ele>
      </trkpt>
      <trkpt lat="47.58258" lon="2.76214">
        <ele>178.8</ele>
      </trkpt>
      <trkpt lat="47.58281" lon="2.76183">
        <ele>178.9</ele>
      </trkpt>
      <trkpt lat="47.58304" lon="2.76158">
        <ele>178.1</ele>
      </trkpt>
      <trkpt lat="47.5833" lon="2.76135">
        <ele>178</ele>
      </trkpt>
      <trkpt lat="47.58495" lon="2.76007">
        <ele>176</ele>
      </trkpt>
      <trkpt lat="47.5856" lon="2.75962">
        <ele>175.8</ele>
      </trkpt>
      <trkpt lat="47.58495" lon="2.76007">
        <ele>176</ele>
      </trkpt>
      <trkpt lat="47.5856" lon="2.75962">
        <ele>175.8</ele>
        <extensions>
          <visugpx:TrkExtension xmlns:visugpx="https://www.visugpx.com/editgpx/">
            <visugpx:node>17</visugpx:node>
            </visugpx:TrkExtension>
        </extensions>
      </trkpt>
      <trkpt lat="47.58596" lon="2.75936">
        <ele>175.2</ele>
      </trkpt>
      <trkpt lat="47.58607" lon="2.75928">
        <ele>175.1</ele>
      </trkpt>
      <trkpt lat="47.58626" lon="2.75914">
        <ele>175</ele>
      </trkpt>
      <trkpt lat="47.58607" lon="2.75928">
        <ele>175.1</ele>
      </trkpt>
      <trkpt lat="47.58626" lon="2.75915">
        <ele>175</ele>
        <extensions>
          <visugpx:TrkExtension xmlns:visugpx="https://www.visugpx.com/editgpx/">
            <visugpx:node>18</visugpx:node>
            </visugpx:TrkExtension>
        </extensions>
      </trkpt>
      <trkpt lat="47.58636" lon="2.75907">
        <ele>175</ele>
      </trkpt>
      <trkpt lat="47.5864" lon="2.75904">
        <ele>175</ele>
      </trkpt>
      <trkpt lat="47.58656" lon="2.75892">
        <ele>175</ele>
        <extensions>
          <visugpx:TrkExtension xmlns:visugpx="https://www.visugpx.com/editgpx/">
            <visugpx:node>19</visugpx:node>
            </visugpx:TrkExtension>
        </extensions>
      </trkpt>
      <trkpt lat="47.58675" lon="2.75878">
        <ele>174.7</ele>
      </trkpt>
      <trkpt lat="47.58826" lon="2.75768">
        <ele>170</ele>
      </trkpt>
      <trkpt lat="47.58849" lon="2.75751">
        <ele>168.5</ele>
      </trkpt>
      <trkpt lat="47.58856" lon="2.75746">
        <ele>168.1</ele>
      </trkpt>
      <trkpt lat="47.58877" lon="2.7573">
        <ele>167</ele>
      </trkpt>
      <trkpt lat="47.58965" lon="2.75667">
        <ele>161.5</ele>
      </trkpt>
      <trkpt lat="47.58977" lon="2.75658">
        <ele>161</ele>
      </trkpt>
      <trkpt lat="47.59008" lon="2.75636">
        <ele>159.3</ele>
      </trkpt>
      <trkpt lat="47.59025" lon="2.75613">
        <ele>157.5</ele>
      </trkpt>
      <trkpt lat="47.59029" lon="2.75601">
        <ele>156.7</ele>
      </trkpt>
      <trkpt lat="47.59031" lon="2.75596">
        <ele>156.6</ele>
      </trkpt>
      <trkpt lat="47.59033" lon="2.75577">
        <ele>155.9</ele>
      </trkpt>
      <trkpt lat="47.5903" lon="2.75545">
        <ele>154.6</ele>
      </trkpt>
      <trkpt lat="47.59015" lon="2.75474">
        <ele>153.4</ele>
      </trkpt>
      <trkpt lat="47.59014" lon="2.7546">
        <ele>153.3</ele>
      </trkpt>
      <trkpt lat="47.59015" lon="2.75439">
        <ele>152.4</ele>
      </trkpt>
      <trkpt lat="47.59024" lon="2.75424">
        <ele>149.3</ele>
      </trkpt>
      <trkpt lat="47.59026" lon="2.75423">
        <ele>148.8</ele>
      </trkpt>
      <trkpt lat="47.59024" lon="2.75424">
        <ele>149.3</ele>
      </trkpt>
      <trkpt lat="47.59026" lon="2.75423">
        <ele>148.8</ele>
        <extensions>
          <visugpx:TrkExtension xmlns:visugpx="https://www.visugpx.com/editgpx/">
            <visugpx:node>20</visugpx:node>
            </visugpx:TrkExtension>
        </extensions>
      </trkpt>
      <trkpt lat="47.59032" lon="2.75418">
        <ele>147.8</ele>
      </trkpt>
      <trkpt lat="47.59041" lon="2.75416">
        <ele>147</ele>
      </trkpt>
      <trkpt lat="47.59056" lon="2.75418">
        <ele>146.1</ele>
      </trkpt>
      <trkpt lat="47.59145" lon="2.75441">
        <ele>141.6</ele>
      </trkpt>
      <trkpt lat="47.59163" lon="2.75438">
        <ele>140.7</ele>
      </trkpt>
      <trkpt lat="47.59178" lon="2.75427">
        <ele>139.7</ele>
      </trkpt>
      <trkpt lat="47.59185" lon="2.75417">
        <ele>137.7</ele>
      </trkpt>
      <trkpt lat="47.59216" lon="2.75374">
        <ele>134.1</ele>
      </trkpt>
      <trkpt lat="47.59219" lon="2.75377">
        <ele>134.1</ele>
      </trkpt>
      <trkpt lat="47.59295" lon="2.75474">
        <ele>135.3</ele>
      </trkpt>
      <trkpt lat="47.59216" lon="2.75374">
        <ele>145.441575</ele>
        <time>2022-07-11T00:28:50.846Z</time>
      </trkpt>
      <trkpt lat="47.59296" lon="2.75473">
        <ele>135.1</ele>
        <extensions>
          <visugpx:TrkExtension xmlns:visugpx="https://www.visugpx.com/editgpx/">
            <visugpx:node>21</visugpx:node>
            </visugpx:TrkExtension>
        </extensions>
      </trkpt>
      <trkpt lat="47.59295" lon="2.75474">
        <ele>135.3</ele>
      </trkpt>
      <trkpt lat="47.59315" lon="2.755">
        <ele>134.3</ele>
      </trkpt>
      <trkpt lat="47.59417" lon="2.75619">
        <ele>134.3</ele>
      </trkpt>
      <trkpt lat="47.59443" lon="2.75603">
        <ele>131.5</ele>
      </trkpt>
      <trkpt lat="47.59454" lon="2.75592">
        <ele>131</ele>
      </trkpt>
      <trkpt lat="47.5948" lon="2.75523">
        <ele>133.5</ele>
      </trkpt>
      <trkpt lat="47.59483" lon="2.75527">
        <ele>133.4</ele>
      </trkpt>
      <trkpt lat="47.59534" lon="2.75572">
        <ele>132.5</ele>
      </trkpt>
      <trkpt lat="47.59557" lon="2.75573">
        <ele>133</ele>
      </trkpt>
      <trkpt lat="47.59582" lon="2.75567">
        <ele>133</ele>
      </trkpt>
      <trkpt lat="47.5961" lon="2.75555">
        <ele>133</ele>
      </trkpt>
      <trkpt lat="47.59627" lon="2.75538">
        <ele>134.7</ele>
      </trkpt>
      <trkpt lat="47.59675" lon="2.75458">
        <ele>137.9</ele>
      </trkpt>
      <trkpt lat="47.5968" lon="2.7545">
        <ele>138.8</ele>
      </trkpt>
      <trkpt lat="47.59717" lon="2.7538">
        <ele>140.9</ele>
      </trkpt>
      <trkpt lat="47.59766" lon="2.75314">
        <ele>141.7</ele>
      </trkpt>
      <trkpt lat="47.59784" lon="2.75295">
        <ele>141.5</ele>
      </trkpt>
      <trkpt lat="47.59804" lon="2.75279">
        <ele>142</ele>
      </trkpt>
      <trkpt lat="47.59816" lon="2.75277">
        <ele>140.2</ele>
      </trkpt>
      <trkpt lat="47.5985" lon="2.75276">
        <ele>139.9</ele>
      </trkpt>
      <trkpt lat="47.59859" lon="2.75274">
        <ele>141.1</ele>
      </trkpt>
      <trkpt lat="47.5987" lon="2.75268">
        <ele>139.3</ele>
      </trkpt>
      <trkpt lat="47.5988" lon="2.75254">
        <ele>139.5</ele>
      </trkpt>
      <trkpt lat="47.59958" lon="2.751">
        <ele>136.1</ele>
      </trkpt>
      <trkpt lat="47.59999" lon="2.75017">
        <ele>135.4</ele>
      </trkpt>
      <trkpt lat="47.60061" lon="2.74894">
        <ele>135.7</ele>
      </trkpt>
      <trkpt lat="47.6011" lon="2.74808">
        <ele>136.1</ele>
      </trkpt>
      <trkpt lat="47.60149" lon="2.74756">
        <ele>136.1</ele>
      </trkpt>
      <trkpt lat="47.6029" lon="2.74594">
        <ele>134.9</ele>
      </trkpt>
      <trkpt lat="47.60372" lon="2.74507">
        <ele>134.5</ele>
      </trkpt>
      <trkpt lat="47.60393" lon="2.74483">
        <ele>134.3</ele>
      </trkpt>
      <trkpt lat="47.60407" lon="2.74464">
        <ele>133.9</ele>
      </trkpt>
      <trkpt lat="47.60448" lon="2.74399">
        <ele>133.8</ele>
      </trkpt>
      <trkpt lat="47.60469" lon="2.74376">
        <ele>133.6</ele>
      </trkpt>
      <trkpt lat="47.60531" lon="2.74325">
        <ele>132.8</ele>
      </trkpt>
      <trkpt lat="47.60554" lon="2.74303">
        <ele>133</ele>
      </trkpt>
      <trkpt lat="47.6057" lon="2.74283">
        <ele>132.8</ele>
      </trkpt>
      <trkpt lat="47.60596" lon="2.74249">
        <ele>133.1</ele>
      </trkpt>
      <trkpt lat="47.60617" lon="2.74228">
        <ele>132.7</ele>
      </trkpt>
      <trkpt lat="47.60645" lon="2.74207">
        <ele>132.2</ele>
      </trkpt>
      <trkpt lat="47.60814" lon="2.74089">
        <ele>131</ele>
      </trkpt>
      <trkpt lat="47.61032" lon="2.7398">
        <ele>130.7</ele>
      </trkpt>
      <trkpt lat="47.61157" lon="2.73902">
        <ele>130.7</ele>
      </trkpt>
      <trkpt lat="47.6128" lon="2.73822">
        <ele>131</ele>
      </trkpt>
      <trkpt lat="47.61326" lon="2.73795">
        <ele>131.2</ele>
      </trkpt>
      <trkpt lat="47.61365" lon="2.73776">
        <ele>131.9</ele>
      </trkpt>
      <trkpt lat="47.61417" lon="2.73757">
        <ele>131</ele>
      </trkpt>
      <trkpt lat="47.61489" lon="2.73738">
        <ele>131.1</ele>
      </trkpt>
      <trkpt lat="47.61554" lon="2.73736">
        <ele>130.6</ele>
      </trkpt>
      <trkpt lat="47.61588" lon="2.7374">
        <ele>131.3</ele>
      </trkpt>
      <trkpt lat="47.61627" lon="2.73749">
        <ele>131.9</ele>
      </trkpt>
      <trkpt lat="47.6165" lon="2.73753">
        <ele>131.5</ele>
      </trkpt>
      <trkpt lat="47.61667" lon="2.73754">
        <ele>131.6</ele>
      </trkpt>
      <trkpt lat="47.61687" lon="2.73749">
        <ele>131.9</ele>
      </trkpt>
      <trkpt lat="47.6171" lon="2.7374">
        <ele>130.8</ele>
      </trkpt>
      <trkpt lat="47.61732" lon="2.7373">
        <ele>131.1</ele>
      </trkpt>
      <trkpt lat="47.61812" lon="2.73686">
        <ele>132.1</ele>
      </trkpt>
      <trkpt lat="47.6206" lon="2.73478">
        <ele>131.1</ele>
      </trkpt>
      <trkpt lat="47.62093" lon="2.73456">
        <ele>131.3</ele>
      </trkpt>
      <trkpt lat="47.62344" lon="2.73345">
        <ele>132.4</ele>
      </trkpt>
      <trkpt lat="47.62349" lon="2.73342">
        <ele>132.8</ele>
      </trkpt>
      <trkpt lat="47.62384" lon="2.73329">
        <ele>132.8</ele>
      </trkpt>
      <trkpt lat="47.6239" lon="2.73326">
        <ele>132.2</ele>
      </trkpt>
      <trkpt lat="47.62542" lon="2.73262">
        <ele>131</ele>
      </trkpt>
      <trkpt lat="47.62549" lon="2.73259">
        <ele>131</ele>
      </trkpt>
      <trkpt lat="47.62566" lon="2.73246">
        <ele>131</ele>
      </trkpt>
      <trkpt lat="47.62573" lon="2.73241">
        <ele>131</ele>
      </trkpt>
      <trkpt lat="47.62599" lon="2.73219">
        <ele>131</ele>
      </trkpt>
      <trkpt lat="47.62652" lon="2.73174">
        <ele>131</ele>
      </trkpt>
      <trkpt lat="47.62699" lon="2.73134">
        <ele>131</ele>
      </trkpt>
      <trkpt lat="47.62731" lon="2.73103">
        <ele>131</ele>
      </trkpt>
      <trkpt lat="47.62744" lon="2.73091">
        <ele>131</ele>
      </trkpt>
      <trkpt lat="47.62759" lon="2.73077">
        <ele>131</ele>
      </trkpt>
      <trkpt lat="47.62794" lon="2.73042">
        <ele>131</ele>
      </trkpt>
      <trkpt lat="47.62857" lon="2.72954">
        <ele>131</ele>
        <extensions>
          <visugpx:TrkExtension xmlns:visugpx="https://www.visugpx.com/editgpx/">
            <visugpx:node>22</visugpx:node>
            </visugpx:TrkExtension>
        </extensions>
      </trkpt>
      <trkpt lat="47.6289" lon="2.72909">
        <ele>130.2</ele>
      </trkpt>
      <trkpt lat="47.62895" lon="2.72902">
        <ele>131.1</ele>
      </trkpt>
      <trkpt lat="47.62906" lon="2.72886">
        <ele>132.6</ele>
      </trkpt>
      <trkpt lat="47.62935" lon="2.72848">
        <ele>131.5</ele>
      </trkpt>
      <trkpt lat="47.62937" lon="2.72853">
        <ele>131.2</ele>
      </trkpt>
      <trkpt lat="47.62942" lon="2.72859">
        <ele>131</ele>
      </trkpt>
      <trkpt lat="47.62953" lon="2.72863">
        <ele>131.4</ele>
      </trkpt>
      <trkpt lat="47.62963" lon="2.72879">
        <ele>132.9</ele>
      </trkpt>
      <trkpt lat="47.63008" lon="2.72996">
        <ele>137</ele>
      </trkpt>
      <trkpt lat="47.63008" lon="2.73015">
        <ele>136.8</ele>
      </trkpt>
      <trkpt lat="47.63004" lon="2.73034">
        <ele>136</ele>
      </trkpt>
      <trkpt lat="47.62991" lon="2.73045">
        <ele>135.3</ele>
      </trkpt>
      <trkpt lat="47.63252" lon="2.73826">
        <ele>135.6</ele>
      </trkpt>
      <trkpt lat="47.63255" lon="2.73833">
        <ele>136.8</ele>
      </trkpt>
      <trkpt lat="47.63257" lon="2.73836">
        <ele>136.5</ele>
      </trkpt>
      <trkpt lat="47.6326" lon="2.73838">
        <ele>136</ele>
      </trkpt>
      <trkpt lat="47.63263" lon="2.73846">
        <ele>136</ele>
      </trkpt>
      <trkpt lat="47.6328" lon="2.7389">
        <ele>136.8</ele>
      </trkpt>
      <trkpt lat="47.63311" lon="2.73935">
        <ele>138.4</ele>
      </trkpt>
      <trkpt lat="47.63318" lon="2.7393">
        <ele>138</ele>
      </trkpt>
      <trkpt lat="47.63328" lon="2.73924">
        <ele>137.8</ele>
      </trkpt>
      <trkpt lat="47.63345" lon="2.73922">
        <ele>137.5</ele>
      </trkpt>
      <trkpt lat="47.63353" lon="2.73921">
        <ele>137.4</ele>
      </trkpt>
      <trkpt lat="47.63359" lon="2.73928">
        <ele>137.4</ele>
      </trkpt>
      <trkpt lat="47.63399" lon="2.73968">
        <ele>137.5</ele>
      </trkpt>
      <trkpt lat="47.63423" lon="2.73991">
        <ele>137.4</ele>
      </trkpt>
      <trkpt lat="47.63488" lon="2.74053">
        <ele>137.3</ele>
      </trkpt>
      <trkpt lat="47.63516" lon="2.74079">
        <ele>137.4</ele>
      </trkpt>
      <trkpt lat="47.63547" lon="2.74108">
        <ele>137.9</ele>
      </trkpt>
      <trkpt lat="47.6356" lon="2.7411">
        <ele>138</ele>
      </trkpt>
      <trkpt lat="47.63587" lon="2.74109">
        <ele>138.1</ele>
      </trkpt>
      <trkpt lat="47.63602" lon="2.74123">
        <ele>138.8</ele>
      </trkpt>
      <trkpt lat="47.63621" lon="2.74159">
        <ele>139.7</ele>
      </trkpt>
      <trkpt lat="47.63623" lon="2.74163">
        <ele>139.9</ele>
      </trkpt>
      <trkpt lat="47.63677" lon="2.74099">
        <ele>137.8</ele>
      </trkpt>
      <trkpt lat="47.63709" lon="2.74064">
        <ele>136.6</ele>
      </trkpt>
      <trkpt lat="47.63734" lon="2.74036">
        <ele>135.7</ele>
      </trkpt>
      <trkpt lat="47.63742" lon="2.74026">
        <ele>135.3</ele>
      </trkpt>
      <trkpt lat="47.63746" lon="2.74022">
        <ele>135.1</ele>
      </trkpt>
      <trkpt lat="47.6375" lon="2.74018">
        <ele>135</ele>
      </trkpt>
      <trkpt lat="47.63787" lon="2.73977">
        <ele>134</ele>
      </trkpt>
      <trkpt lat="47.63797" lon="2.73965">
        <ele>133.9</ele>
      </trkpt>
      <trkpt lat="47.63847" lon="2.73907">
        <ele>133</ele>
      </trkpt>
      <trkpt lat="47.63862" lon="2.7389">
        <ele>133</ele>
      </trkpt>
      <trkpt lat="47.63871" lon="2.73903">
        <ele>132.6</ele>
      </trkpt>
      <trkpt lat="47.63906" lon="2.73959">
        <ele>132.2</ele>
      </trkpt>
      <trkpt lat="47.63909" lon="2.73964">
        <ele>132.2</ele>
      </trkpt>
      <trkpt lat="47.63918" lon="2.73978">
        <ele>132</ele>
      </trkpt>
      <trkpt lat="47.63921" lon="2.73985">
        <ele>131.9</ele>
      </trkpt>
      <trkpt lat="47.63922" lon="2.73999">
        <ele>132</ele>
      </trkpt>
      <trkpt lat="47.63922" lon="2.7401">
        <ele>132</ele>
      </trkpt>
      <trkpt lat="47.63918" lon="2.74042">
        <ele>132</ele>
      </trkpt>
      <trkpt lat="47.63905" lon="2.74139">
        <ele>132.4</ele>
      </trkpt>
      <trkpt lat="47.63902" lon="2.74157">
        <ele>133.2</ele>
      </trkpt>
      <trkpt lat="47.63901" lon="2.74166">
        <ele>133.5</ele>
      </trkpt>
      <trkpt lat="47.63887" lon="2.74265">
        <ele>136.6</ele>
      </trkpt>
      <trkpt lat="47.63883" lon="2.74302">
        <ele>137.3</ele>
      </trkpt>
      <trkpt lat="47.63879" lon="2.74332">
        <ele>137.4</ele>
      </trkpt>
      <trkpt lat="47.63865" lon="2.74434">
        <ele>140.1</ele>
      </trkpt>
      <trkpt lat="47.63863" lon="2.74445">
        <ele>139.9</ele>
      </trkpt>
      <trkpt lat="47.63857" lon="2.74481">
        <ele>139.7</ele>
      </trkpt>
      <trkpt lat="47.63847" lon="2.74563">
        <ele>143.8</ele>
      </trkpt>
      <trkpt lat="47.6382" lon="2.74761">
        <ele>152.2</ele>
      </trkpt>
      <trkpt lat="47.63816" lon="2.74793">
        <ele>153.2</ele>
      </trkpt>
      <trkpt lat="47.63813" lon="2.7484">
        <ele>153.7</ele>
      </trkpt>
      <trkpt lat="47.63814" lon="2.74899">
        <ele>154.1</ele>
      </trkpt>
      <trkpt lat="47.63818" lon="2.74933">
        <ele>154.6</ele>
      </trkpt>
      <trkpt lat="47.63827" lon="2.74997">
        <ele>156.1</ele>
      </trkpt>
      <trkpt lat="47.63857" lon="2.75201">
        <ele>155.7</ele>
      </trkpt>
      <trkpt lat="47.63866" lon="2.75267">
        <ele>154.3</ele>
      </trkpt>
      <trkpt lat="47.63884" lon="2.75396">
        <ele>159.2</ele>
      </trkpt>
      <trkpt lat="47.63916" lon="2.75617">
        <ele>158</ele>
      </trkpt>
      <trkpt lat="47.63928" lon="2.75698">
        <ele>157</ele>
      </trkpt>
      <trkpt lat="47.63932" lon="2.75719">
        <ele>157</ele>
      </trkpt>
      <trkpt lat="47.63938" lon="2.75741">
        <ele>157.2</ele>
      </trkpt>
      <trkpt lat="47.63959" lon="2.75786">
        <ele>157.3</ele>
      </trkpt>
      <trkpt lat="47.63985" lon="2.75841">
        <ele>158.3</ele>
      </trkpt>
      <trkpt lat="47.63959" lon="2.75786">
        <ele>157.3</ele>
      </trkpt>
      <trkpt lat="47.63985" lon="2.75841">
        <ele>158.3</ele>
        <extensions>
          <visugpx:TrkExtension xmlns:visugpx="https://www.visugpx.com/editgpx/">
            <visugpx:node>23</visugpx:node>
            </visugpx:TrkExtension>
        </extensions>
      </trkpt>
      <trkpt lat="47.64013" lon="2.759">
        <ele>159.4</ele>
      </trkpt>
      <trkpt lat="47.64084" lon="2.76048">
        <ele>162</ele>
      </trkpt>
      <trkpt lat="47.64243" lon="2.76379">
        <ele>161</ele>
      </trkpt>
      <trkpt lat="47.64269" lon="2.76434">
        <ele>158.9</ele>
      </trkpt>
      <trkpt lat="47.643" lon="2.765">
        <ele>159</ele>
      </trkpt>
      <trkpt lat="47.64352" lon="2.76607">
        <ele>160</ele>
      </trkpt>
      <trkpt lat="47.64625" lon="2.7718">
        <ele>157</ele>
      </trkpt>
      <trkpt lat="47.64977" lon="2.77915">
        <ele>157.2</ele>
      </trkpt>
      <trkpt lat="47.65337" lon="2.7867">
        <ele>168</ele>
      </trkpt>
      <trkpt lat="47.65479" lon="2.78968">
        <ele>171.8</ele>
      </trkpt>
      <trkpt lat="47.65646" lon="2.79319">
        <ele>171</ele>
      </trkpt>
      <trkpt lat="47.65726" lon="2.79482">
        <ele>171.9</ele>
      </trkpt>
      <trkpt lat="47.65728" lon="2.79487">
        <ele>171.9</ele>
      </trkpt>
      <trkpt lat="47.65897" lon="2.79733">
        <ele>172</ele>
      </trkpt>
      <trkpt lat="47.66127" lon="2.80078">
        <ele>169.4</ele>
      </trkpt>
      <trkpt lat="47.6615" lon="2.80111">
        <ele>169</ele>
      </trkpt>
      <trkpt lat="47.66261" lon="2.80278">
        <ele>164.6</ele>
      </trkpt>
      <trkpt lat="47.66475" lon="2.80598">
        <ele>159.5</ele>
      </trkpt>
      <trkpt lat="47.66489" lon="2.80615">
        <ele>158.8</ele>
      </trkpt>
      <trkpt lat="47.66502" lon="2.80627">
        <ele>158.4</ele>
      </trkpt>
      <trkpt lat="47.66522" lon="2.80637">
        <ele>158.1</ele>
      </trkpt>
      <trkpt lat="47.66535" lon="2.8064">
        <ele>157.7</ele>
      </trkpt>
      <trkpt lat="47.66766" lon="2.80676">
        <ele>146.7</ele>
      </trkpt>
      <trkpt lat="47.66785" lon="2.80684">
        <ele>146.5</ele>
      </trkpt>
      <trkpt lat="47.66802" lon="2.80695">
        <ele>146.9</ele>
      </trkpt>
      <trkpt lat="47.66807" lon="2.80701">
        <ele>146.7</ele>
      </trkpt>
      <trkpt lat="47.66814" lon="2.80711">
        <ele>146.5</ele>
      </trkpt>
      <trkpt lat="47.66823" lon="2.80723">
        <ele>146.6</ele>
      </trkpt>
      <trkpt lat="47.66831" lon="2.80737">
        <ele>147</ele>
      </trkpt>
      <trkpt lat="47.6685" lon="2.80793">
        <ele>148.8</ele>
      </trkpt>
      <trkpt lat="47.66894" lon="2.8092">
        <ele>148.8</ele>
      </trkpt>
      <trkpt lat="47.66906" lon="2.80949">
        <ele>149.9</ele>
      </trkpt>
      <trkpt lat="47.66915" lon="2.80966">
        <ele>149.2</ele>
      </trkpt>
      <trkpt lat="47.66935" lon="2.80995">
        <ele>148.4</ele>
      </trkpt>
      <trkpt lat="47.6699" lon="2.81066">
        <ele>148.2</ele>
      </trkpt>
      <trkpt lat="47.67017" lon="2.81106">
        <ele>150.4</ele>
      </trkpt>
      <trkpt lat="47.67031" lon="2.81121">
        <ele>151</ele>
      </trkpt>
      <trkpt lat="47.67039" lon="2.81113">
        <ele>148.7</ele>
      </trkpt>
      <trkpt lat="47.67057" lon="2.81077">
        <ele>146.4</ele>
      </trkpt>
      <trkpt lat="47.67063" lon="2.81066">
        <ele>147.1</ele>
      </trkpt>
      <trkpt lat="47.67069" lon="2.81056">
        <ele>147.5</ele>
      </trkpt>
      <trkpt lat="47.67077" lon="2.8104">
        <ele>147.1</ele>
      </trkpt>
      <trkpt lat="47.67099" lon="2.80998">
        <ele>147</ele>
      </trkpt>
      <trkpt lat="47.67104" lon="2.80989">
        <ele>147.3</ele>
      </trkpt>
      <trkpt lat="47.67107" lon="2.80982">
        <ele>147.6</ele>
      </trkpt>
      <trkpt lat="47.67147" lon="2.80922">
        <ele>150.7</ele>
      </trkpt>
      <trkpt lat="47.67149" lon="2.8092">
        <ele>150.8</ele>
      </trkpt>
      <trkpt lat="47.67171" lon="2.80884">
        <ele>153.8</ele>
      </trkpt>
      <trkpt lat="47.67174" lon="2.8088">
        <ele>154.3</ele>
      </trkpt>
      <trkpt lat="47.67213" lon="2.80822">
        <ele>159.1</ele>
      </trkpt>
      <trkpt lat="47.67217" lon="2.80815">
        <ele>159.5</ele>
      </trkpt>
      <trkpt lat="47.67219" lon="2.80812">
        <ele>159.7</ele>
      </trkpt>
      <trkpt lat="47.67223" lon="2.80808">
        <ele>159.9</ele>
      </trkpt>
      <trkpt lat="47.67234" lon="2.8079">
        <ele>160.4</ele>
      </trkpt>
      <trkpt lat="47.67235" lon="2.80788">
        <ele>160.5</ele>
      </trkpt>
      <trkpt lat="47.67263" lon="2.8074">
        <ele>162.7</ele>
      </trkpt>
      <trkpt lat="47.67268" lon="2.80731">
        <ele>162.9</ele>
      </trkpt>
      <trkpt lat="47.67286" lon="2.80702">
        <ele>163.7</ele>
      </trkpt>
      <trkpt lat="47.67292" lon="2.80691">
        <ele>164</ele>
      </trkpt>
      <trkpt lat="47.67296" lon="2.80697">
        <ele>163.9</ele>
      </trkpt>
      <trkpt lat="47.67304" lon="2.80708">
        <ele>163.5</ele>
      </trkpt>
      <trkpt lat="47.67316" lon="2.80717">
        <ele>163.2</ele>
      </trkpt>
      <trkpt lat="47.67333" lon="2.80721">
        <ele>163</ele>
      </trkpt>
      <trkpt lat="47.67375" lon="2.80705">
        <ele>163</ele>
      </trkpt>
      <trkpt lat="47.67421" lon="2.80686">
        <ele>163.3</ele>
      </trkpt>
      <trkpt lat="47.67467" lon="2.80665">
        <ele>164.1</ele>
      </trkpt>
      <trkpt lat="47.67496" lon="2.8065">
        <ele>164.6</ele>
      </trkpt>
      <trkpt lat="47.67517" lon="2.80647">
        <ele>164.9</ele>
      </trkpt>
      <trkpt lat="47.67568" lon="2.80641">
        <ele>166</ele>
      </trkpt>
      <trkpt lat="47.67583" lon="2.80646">
        <ele>166</ele>
      </trkpt>
      <trkpt lat="47.67608" lon="2.80706">
        <ele>166.4</ele>
      </trkpt>
      <trkpt lat="47.67642" lon="2.8079">
        <ele>168.5</ele>
      </trkpt>
      <trkpt lat="47.67664" lon="2.80932">
        <ele>169</ele>
      </trkpt>
      <trkpt lat="47.67671" lon="2.80954">
        <ele>169.2</ele>
      </trkpt>
      <trkpt lat="47.6768" lon="2.80974">
        <ele>169.4</ele>
      </trkpt>
      <trkpt lat="47.67717" lon="2.81041">
        <ele>169.8</ele>
      </trkpt>
      <trkpt lat="47.6773" lon="2.81056">
        <ele>170</ele>
      </trkpt>
      <trkpt lat="47.67765" lon="2.81091">
        <ele>170</ele>
      </trkpt>
      <trkpt lat="47.67873" lon="2.81201">
        <ele>170.3</ele>
      </trkpt>
      <trkpt lat="47.6801" lon="2.81341">
        <ele>171</ele>
      </trkpt>
      <trkpt lat="47.68032" lon="2.81363">
        <ele>170.9</ele>
      </trkpt>
      <trkpt lat="47.68045" lon="2.81373">
        <ele>170.6</ele>
      </trkpt>
      <trkpt lat="47.68061" lon="2.81385">
        <ele>170.3</ele>
      </trkpt>
      <trkpt lat="47.68195" lon="2.81478">
        <ele>170</ele>
      </trkpt>
      <trkpt lat="47.68301" lon="2.81547">
        <ele>171</ele>
      </trkpt>
      <trkpt lat="47.68549" lon="2.81632">
        <ele>169.2</ele>
      </trkpt>
      <trkpt lat="47.68562" lon="2.81636">
        <ele>169.2</ele>
      </trkpt>
      <trkpt lat="47.68831" lon="2.81721">
        <ele>170</ele>
      </trkpt>
      <trkpt lat="47.69136" lon="2.81822">
        <ele>171</ele>
      </trkpt>
      <trkpt lat="47.69265" lon="2.81865">
        <ele>171.5</ele>
      </trkpt>
      <trkpt lat="47.69709" lon="2.82114">
        <ele>173.4</ele>
      </trkpt>
      <trkpt lat="47.70194" lon="2.82378">
        <ele>168</ele>
      </trkpt>
      <trkpt lat="47.70782" lon="2.82705">
        <ele>171.2</ele>
      </trkpt>
      <trkpt lat="47.70992" lon="2.8282">
        <ele>172</ele>
      </trkpt>
      <trkpt lat="47.71584" lon="2.83149">
        <ele>170</ele>
      </trkpt>
      <trkpt lat="47.71691" lon="2.83208">
        <ele>170.4</ele>
      </trkpt>
      <trkpt lat="47.71837" lon="2.83289">
        <ele>171.1</ele>
      </trkpt>
      <trkpt lat="47.72097" lon="2.83431">
        <ele>172</ele>
      </trkpt>
      <trkpt lat="47.72118" lon="2.83446">
        <ele>172</ele>
      </trkpt>
      <trkpt lat="47.72131" lon="2.8346">
        <ele>172</ele>
      </trkpt>
      <trkpt lat="47.72146" lon="2.8348">
        <ele>172</ele>
      </trkpt>
      <trkpt lat="47.72157" lon="2.835">
        <ele>172</ele>
      </trkpt>
      <trkpt lat="47.72168" lon="2.83523">
        <ele>172</ele>
      </trkpt>
      <trkpt lat="47.72217" lon="2.83653">
        <ele>172</ele>
      </trkpt>
      <trkpt lat="47.72365" lon="2.84043">
        <ele>172.5</ele>
      </trkpt>
      <trkpt lat="47.724" lon="2.84134">
        <ele>172</ele>
      </trkpt>
      <trkpt lat="47.72408" lon="2.8417">
        <ele>171.7</ele>
      </trkpt>
      <trkpt lat="47.7241" lon="2.84198">
        <ele>171.7</ele>
      </trkpt>
      <trkpt lat="47.7241" lon="2.84213">
        <ele>171.3</ele>
      </trkpt>
      <trkpt lat="47.72385" lon="2.84468">
        <ele>169.9</ele>
      </trkpt>
      <trkpt lat="47.72343" lon="2.84901">
        <ele>168</ele>
      </trkpt>
      <trkpt lat="47.72316" lon="2.85205">
        <ele>168</ele>
      </trkpt>
      <trkpt lat="47.72334" lon="2.85317">
        <ele>168.4</ele>
      </trkpt>
      <trkpt lat="47.72325" lon="2.85367">
        <ele>167.3</ele>
      </trkpt>
      <trkpt lat="47.72317" lon="2.85395">
        <ele>166.6</ele>
      </trkpt>
      <trkpt lat="47.72312" lon="2.85417">
        <ele>168.5</ele>
      </trkpt>
      <trkpt lat="47.7231" lon="2.85437">
        <ele>167.8</ele>
      </trkpt>
      <trkpt lat="47.72311" lon="2.85465">
        <ele>167.4</ele>
      </trkpt>
      <trkpt lat="47.72316" lon="2.85525">
        <ele>164.5</ele>
      </trkpt>
      <trkpt lat="47.7232" lon="2.85544">
        <ele>165.1</ele>
      </trkpt>
      <trkpt lat="47.72324" lon="2.85561">
        <ele>165.4</ele>
      </trkpt>
      <trkpt lat="47.7233" lon="2.85575">
        <ele>165.7</ele>
      </trkpt>
      <trkpt lat="47.72347" lon="2.85603">
        <ele>166</ele>
      </trkpt>
      <trkpt lat="47.7244" lon="2.85706">
        <ele>167.5</ele>
      </trkpt>
      <trkpt lat="47.72864" lon="2.86166">
        <ele>166</ele>
      </trkpt>
      <trkpt lat="47.73024" lon="2.86339">
        <ele>167.9</ele>
      </trkpt>
      <trkpt lat="47.73362" lon="2.86707">
        <ele>163.6</ele>
      </trkpt>
      <trkpt lat="47.7353" lon="2.86898">
        <ele>165.7</ele>
      </trkpt>
      <trkpt lat="47.73634" lon="2.87013">
        <ele>166.4</ele>
      </trkpt>
      <trkpt lat="47.73649" lon="2.87029">
        <ele>166.4</ele>
      </trkpt>
      <trkpt lat="47.73699" lon="2.87085">
        <ele>167.1</ele>
      </trkpt>
      <trkpt lat="47.7381" lon="2.87203">
        <ele>167.7</ele>
      </trkpt>
      <trkpt lat="47.73962" lon="2.87367">
        <ele>166</ele>
      </trkpt>
      <trkpt lat="47.74002" lon="2.87411">
        <ele>164.9</ele>
      </trkpt>
      <trkpt lat="47.74038" lon="2.87465">
        <ele>162.8</ele>
      </trkpt>
      <trkpt lat="47.74066" lon="2.87513">
        <ele>160</ele>
      </trkpt>
      <trkpt lat="47.74096" lon="2.87572">
        <ele>157.8</ele>
      </trkpt>
      <trkpt lat="47.74114" lon="2.87609">
        <ele>156.3</ele>
      </trkpt>
      <trkpt lat="47.74126" lon="2.87644">
        <ele>154.9</ele>
      </trkpt>
      <trkpt lat="47.74131" lon="2.87661">
        <ele>154.3</ele>
      </trkpt>
      <trkpt lat="47.74143" lon="2.87745">
        <ele>152.7</ele>
      </trkpt>
      <trkpt lat="47.74146" lon="2.87759">
        <ele>152.5</ele>
      </trkpt>
      <trkpt lat="47.74157" lon="2.87794">
        <ele>151.6</ele>
      </trkpt>
      <trkpt lat="47.74164" lon="2.87811">
        <ele>150.6</ele>
      </trkpt>
      <trkpt lat="47.74173" lon="2.87822">
        <ele>149.7</ele>
      </trkpt>
      <trkpt lat="47.74184" lon="2.87831">
        <ele>148.9</ele>
      </trkpt>
      <trkpt lat="47.74193" lon="2.87831">
        <ele>147.9</ele>
      </trkpt>
      <trkpt lat="47.74212" lon="2.87823">
        <ele>148.5</ele>
      </trkpt>
      <trkpt lat="47.74223" lon="2.87817">
        <ele>149.6</ele>
      </trkpt>
      <trkpt lat="47.74227" lon="2.87832">
        <ele>149.2</ele>
      </trkpt>
      <trkpt lat="47.74229" lon="2.87843">
        <ele>148.6</ele>
      </trkpt>
      <trkpt lat="47.74239" lon="2.87885">
        <ele>146.7</ele>
      </trkpt>
      <trkpt lat="47.74248" lon="2.87924">
        <ele>146.5</ele>
      </trkpt>
      <trkpt lat="47.74249" lon="2.87932">
        <ele>146.3</ele>
      </trkpt>
      <trkpt lat="47.74255" lon="2.87946">
        <ele>146.1</ele>
      </trkpt>
      <trkpt lat="47.74269" lon="2.87973">
        <ele>145.3</ele>
      </trkpt>
      <trkpt lat="47.74293" lon="2.88004">
        <ele>144.9</ele>
      </trkpt>
      <trkpt lat="47.74327" lon="2.88039">
        <ele>144.5</ele>
      </trkpt>
      <trkpt lat="47.74354" lon="2.88072">
        <ele>144.4</ele>
      </trkpt>
      <trkpt lat="47.74374" lon="2.88088">
        <ele>144.2</ele>
      </trkpt>
      <trkpt lat="47.74378" lon="2.8809">
        <ele>143.9</ele>
      </trkpt>
      <trkpt lat="47.7438" lon="2.88083">
        <ele>144.3</ele>
      </trkpt>
      <trkpt lat="47.74401" lon="2.88049">
        <ele>142.6</ele>
      </trkpt>
      <trkpt lat="47.74413" lon="2.88032">
        <ele>142.1</ele>
      </trkpt>
      <trkpt lat="47.74418" lon="2.88022">
        <ele>142.2</ele>
      </trkpt>
      <trkpt lat="47.7447" lon="2.87928">
        <ele>143.4</ele>
      </trkpt>
      <trkpt lat="47.74479" lon="2.87913">
        <ele>143.8</ele>
      </trkpt>
      <trkpt lat="47.74489" lon="2.87903">
        <ele>143.8</ele>
      </trkpt>
      <trkpt lat="47.74627" lon="2.87763">
        <ele>143.7</ele>
      </trkpt>
      <trkpt lat="47.74664" lon="2.87736">
        <ele>143.7</ele>
      </trkpt>
      <trkpt lat="47.74743" lon="2.87706">
        <ele>142.8</ele>
      </trkpt>
      <trkpt lat="47.75027" lon="2.87604">
        <ele>141.3</ele>
      </trkpt>
      <trkpt lat="47.75191" lon="2.87544">
        <ele>141.4</ele>
      </trkpt>
      <trkpt lat="47.75333" lon="2.87491">
        <ele>143</ele>
      </trkpt>
      <trkpt lat="47.75358" lon="2.87487">
        <ele>143.4</ele>
      </trkpt>
      <trkpt lat="47.75379" lon="2.8749">
        <ele>144.9</ele>
      </trkpt>
      <trkpt lat="47.75386" lon="2.87493">
        <ele>145.3</ele>
      </trkpt>
      <trkpt lat="47.75404" lon="2.87499">
        <ele>146.2</ele>
      </trkpt>
      <trkpt lat="47.75426" lon="2.87516">
        <ele>147.8</ele>
      </trkpt>
      <trkpt lat="47.75478" lon="2.87565">
        <ele>148.6</ele>
      </trkpt>
      <trkpt lat="47.75499" lon="2.87581">
        <ele>149.3</ele>
      </trkpt>
      <trkpt lat="47.75548" lon="2.87601">
        <ele>149.7</ele>
      </trkpt>
      <trkpt lat="47.75665" lon="2.87616">
        <ele>153.9</ele>
      </trkpt>
      <trkpt lat="47.75739" lon="2.87609">
        <ele>157.4</ele>
      </trkpt>
      <trkpt lat="47.75896" lon="2.87564">
        <ele>161.3</ele>
      </trkpt>
      <trkpt lat="47.7598" lon="2.87549">
        <ele>165</ele>
      </trkpt>
      <trkpt lat="47.76061" lon="2.87522">
        <ele>166.2</ele>
      </trkpt>
      <trkpt lat="47.76427" lon="2.87391">
        <ele>160.8</ele>
      </trkpt>
      <trkpt lat="47.76481" lon="2.87371">
        <ele>160.2</ele>
      </trkpt>
      <trkpt lat="47.76499" lon="2.87364">
        <ele>160</ele>
      </trkpt>
      <trkpt lat="47.76814" lon="2.87253">
        <ele>163.9</ele>
      </trkpt>
      <trkpt lat="47.77406" lon="2.8704">
        <ele>165.6</ele>
      </trkpt>
      <trkpt lat="47.77492" lon="2.87009">
        <ele>164.8</ele>
      </trkpt>
      <trkpt lat="47.77764" lon="2.86912">
        <ele>161</ele>
      </trkpt>
      <trkpt lat="47.77807" lon="2.86897">
        <ele>160.7</ele>
        <extensions>
          <visugpx:TrkExtension xmlns:visugpx="https://www.visugpx.com/editgpx/">
            <visugpx:node>24</visugpx:node>
            </visugpx:TrkExtension>
        </extensions>
      </trkpt>
      <trkpt lat="47.7783" lon="2.86889">
        <ele>161</ele>
      </trkpt>
      <trkpt lat="47.77944" lon="2.86848">
        <ele>160.5</ele>
      </trkpt>
      <trkpt lat="47.78145" lon="2.86776">
        <ele>157.8</ele>
      </trkpt>
      <trkpt lat="47.78181" lon="2.86763">
        <ele>156.8</ele>
      </trkpt>
      <trkpt lat="47.78195" lon="2.86755">
        <ele>156.8</ele>
      </trkpt>
      <trkpt lat="47.78221" lon="2.86726">
        <ele>156.8</ele>
      </trkpt>
      <trkpt lat="47.78538" lon="2.86241">
        <ele>159</ele>
      </trkpt>
      <trkpt lat="47.78582" lon="2.86163">
        <ele>160</ele>
      </trkpt>
      <trkpt lat="47.78644" lon="2.85964">
        <ele>155.7</ele>
      </trkpt>
      <trkpt lat="47.78699" lon="2.85769">
        <ele>151.9</ele>
      </trkpt>
      <trkpt lat="47.78709" lon="2.85736">
        <ele>151.5</ele>
      </trkpt>
      <trkpt lat="47.78845" lon="2.85255">
        <ele>148.6</ele>
      </trkpt>
      <trkpt lat="47.78874" lon="2.85172">
        <ele>148.3</ele>
      </trkpt>
      <trkpt lat="47.78897" lon="2.85143">
        <ele>149.1</ele>
      </trkpt>
      <trkpt lat="47.79043" lon="2.85022">
        <ele>149.6</ele>
      </trkpt>
      <trkpt lat="47.79093" lon="2.8497">
        <ele>149.7</ele>
      </trkpt>
      <trkpt lat="47.79103" lon="2.84953">
        <ele>150</ele>
      </trkpt>
      <trkpt lat="47.79244" lon="2.84703">
        <ele>144.8</ele>
      </trkpt>
      <trkpt lat="47.79334" lon="2.84543">
        <ele>143</ele>
      </trkpt>
      <trkpt lat="47.79669" lon="2.83947">
        <ele>142</ele>
      </trkpt>
      <trkpt lat="47.79732" lon="2.83835">
        <ele>142</ele>
      </trkpt>
      <trkpt lat="47.79777" lon="2.83766">
        <ele>142.5</ele>
      </trkpt>
      <trkpt lat="47.79785" lon="2.8376">
        <ele>142.5</ele>
      </trkpt>
      <trkpt lat="47.79811" lon="2.8374">
        <ele>143</ele>
      </trkpt>
      <trkpt lat="47.79986" lon="2.83679">
        <ele>143</ele>
        <extensions>
          <visugpx:TrkExtension xmlns:visugpx="https://www.visugpx.com/editgpx/">
            <visugpx:node>25</visugpx:node>
            </visugpx:TrkExtension>
        </extensions>
      </trkpt>
      <trkpt lat="47.79985" lon="2.83679">
        <ele>143</ele>
      </trkpt>
      <trkpt lat="47.80302" lon="2.83568">
        <ele>142</ele>
      </trkpt>
      <trkpt lat="47.80321" lon="2.83565">
        <ele>142</ele>
      </trkpt>
      <trkpt lat="47.8034" lon="2.83565">
        <ele>142.1</ele>
      </trkpt>
      <trkpt lat="47.81004" lon="2.83626">
        <ele>141.1</ele>
      </trkpt>
      <trkpt lat="47.81059" lon="2.83631">
        <ele>142</ele>
      </trkpt>
      <trkpt lat="47.81067" lon="2.83632">
        <ele>142</ele>
      </trkpt>
      <trkpt lat="47.81079" lon="2.83635">
        <ele>142</ele>
      </trkpt>
      <trkpt lat="47.81087" lon="2.83638">
        <ele>142</ele>
      </trkpt>
      <trkpt lat="47.81117" lon="2.83653">
        <ele>141.9</ele>
      </trkpt>
      <trkpt lat="47.81136" lon="2.83669">
        <ele>142</ele>
      </trkpt>
      <trkpt lat="47.81161" lon="2.8369">
        <ele>142</ele>
      </trkpt>
      <trkpt lat="47.81263" lon="2.83775">
        <ele>141.1</ele>
      </trkpt>
      <trkpt lat="47.81305" lon="2.83813">
        <ele>140.7</ele>
      </trkpt>
      <trkpt lat="47.81359" lon="2.83875">
        <ele>140</ele>
      </trkpt>
      <trkpt lat="47.8139" lon="2.83906">
        <ele>139.4</ele>
      </trkpt>
      <trkpt lat="47.81406" lon="2.8392">
        <ele>139.4</ele>
      </trkpt>
      <trkpt lat="47.81424" lon="2.83934">
        <ele>138.9</ele>
      </trkpt>
      <trkpt lat="47.8146" lon="2.83958">
        <ele>138.8</ele>
      </trkpt>
      <trkpt lat="47.81606" lon="2.84026">
        <ele>141</ele>
      </trkpt>
      <trkpt lat="47.81623" lon="2.84037">
        <ele>140.7</ele>
      </trkpt>
      <trkpt lat="47.8166" lon="2.84062">
        <ele>139.2</ele>
      </trkpt>
      <trkpt lat="47.81676" lon="2.84073">
        <ele>138.7</ele>
      </trkpt>
      <trkpt lat="47.81808" lon="2.84157">
        <ele>131.6</ele>
      </trkpt>
      <trkpt lat="47.81822" lon="2.84166">
        <ele>130.4</ele>
      </trkpt>
      <trkpt lat="47.81857" lon="2.84188">
        <ele>128.5</ele>
      </trkpt>
      <trkpt lat="47.81861" lon="2.84191">
        <ele>128.2</ele>
      </trkpt>
      <trkpt lat="47.81902" lon="2.84216">
        <ele>125.8</ele>
      </trkpt>
      <trkpt lat="47.81919" lon="2.84224">
        <ele>125.8</ele>
      </trkpt>
      <trkpt lat="47.81934" lon="2.84229">
        <ele>125</ele>
      </trkpt>
      <trkpt lat="47.81962" lon="2.84225">
        <ele>124.3</ele>
      </trkpt>
      <trkpt lat="47.81963" lon="2.84244">
        <ele>124.1</ele>
      </trkpt>
      <trkpt lat="47.81967" lon="2.84264">
        <ele>124</ele>
      </trkpt>
      <trkpt lat="47.81971" lon="2.84289">
        <ele>124</ele>
      </trkpt>
      <trkpt lat="47.81971" lon="2.84293">
        <ele>124</ele>
      </trkpt>
      <trkpt lat="47.81974" lon="2.84308">
        <ele>123.7</ele>
      </trkpt>
      <trkpt lat="47.81977" lon="2.84321">
        <ele>122.8</ele>
      </trkpt>
      <trkpt lat="47.81985" lon="2.84343">
        <ele>122.6</ele>
      </trkpt>
      <trkpt lat="47.81987" lon="2.84346">
        <ele>122.7</ele>
      </trkpt>
      <trkpt lat="47.81992" lon="2.84342">
        <ele>122.8</ele>
      </trkpt>
      <trkpt lat="47.81997" lon="2.84337">
        <ele>122.9</ele>
        <extensions>
          <visugpx:TrkExtension xmlns:visugpx="https://www.visugpx.com/editgpx/">
            <visugpx:node>26</visugpx:node>
            </visugpx:TrkExtension>
        </extensions>
      </trkpt>
      <trkpt lat="47.82015" lon="2.84324">
        <ele>122.5</ele>
      </trkpt>
      <trkpt lat="47.82018" lon="2.8432">
        <ele>122.4</ele>
      </trkpt>
      <trkpt lat="47.82031" lon="2.84313">
        <ele>122.4</ele>
      </trkpt>
      <trkpt lat="47.82104" lon="2.8428">
        <ele>122.8</ele>
      </trkpt>
      <trkpt lat="47.82209" lon="2.84229">
        <ele>121.8</ele>
      </trkpt>
      <trkpt lat="47.82227" lon="2.84222">
        <ele>122.2</ele>
      </trkpt>
      <trkpt lat="47.82253" lon="2.84214">
        <ele>122.3</ele>
      </trkpt>
      <trkpt lat="47.8227" lon="2.8421">
        <ele>121.7</ele>
      </trkpt>
      <trkpt lat="47.82281" lon="2.8421">
        <ele>121.6</ele>
      </trkpt>
      <trkpt lat="47.82294" lon="2.84213">
        <ele>122.1</ele>
      </trkpt>
      <trkpt lat="47.82308" lon="2.84219">
        <ele>122.6</ele>
      </trkpt>
      <trkpt lat="47.82449" lon="2.84325">
        <ele>121.7</ele>
      </trkpt>
      <trkpt lat="47.82482" lon="2.84336">
        <ele>122</ele>
      </trkpt>
      <trkpt lat="47.82497" lon="2.84338">
        <ele>122</ele>
      </trkpt>
      <trkpt lat="47.82563" lon="2.84325">
        <ele>121.7</ele>
      </trkpt>
      <trkpt lat="47.82599" lon="2.84315">
        <ele>121.7</ele>
      </trkpt>
      <trkpt lat="47.82616" lon="2.84307">
        <ele>122</ele>
      </trkpt>
      <trkpt lat="47.82649" lon="2.84282">
        <ele>122</ele>
      </trkpt>
      <trkpt lat="47.82667" lon="2.8426">
        <ele>121.4</ele>
      </trkpt>
      <trkpt lat="47.82682" lon="2.84235">
        <ele>121.3</ele>
      </trkpt>
      <trkpt lat="47.82695" lon="2.84204">
        <ele>122</ele>
      </trkpt>
      <trkpt lat="47.82703" lon="2.84178">
        <ele>121.3</ele>
      </trkpt>
      <trkpt lat="47.82748" lon="2.83989">
        <ele>122.4</ele>
      </trkpt>
      <trkpt lat="47.82761" lon="2.83948">
        <ele>121.8</ele>
      </trkpt>
      <trkpt lat="47.82771" lon="2.83924">
        <ele>122.7</ele>
      </trkpt>
      <trkpt lat="47.82788" lon="2.83895">
        <ele>121.4</ele>
      </trkpt>
      <trkpt lat="47.82821" lon="2.83849">
        <ele>120.9</ele>
      </trkpt>
      <trkpt lat="47.82852" lon="2.83811">
        <ele>121.8</ele>
      </trkpt>
      <trkpt lat="47.8287" lon="2.83791">
        <ele>121.5</ele>
      </trkpt>
      <trkpt lat="47.82904" lon="2.83752">
        <ele>120.5</ele>
      </trkpt>
      <trkpt lat="47.82959" lon="2.83653">
        <ele>121</ele>
      </trkpt>
      <trkpt lat="47.82983" lon="2.83616">
        <ele>121</ele>
      </trkpt>
      <trkpt lat="47.82993" lon="2.83605">
        <ele>121.1</ele>
      </trkpt>
      <trkpt lat="47.83028" lon="2.83578">
        <ele>121</ele>
      </trkpt>
      <trkpt lat="47.83051" lon="2.83564">
        <ele>121.1</ele>
      </trkpt>
      <trkpt lat="47.83058" lon="2.83559">
        <ele>121.6</ele>
      </trkpt>
      <trkpt lat="47.83077" lon="2.8355">
        <ele>121.8</ele>
      </trkpt>
      <trkpt lat="47.83099" lon="2.83543">
        <ele>120.9</ele>
      </trkpt>
      <trkpt lat="47.83104" lon="2.83541">
        <ele>120.8</ele>
      </trkpt>
      <trkpt lat="47.83112" lon="2.8354">
        <ele>120.6</ele>
      </trkpt>
      <trkpt lat="47.83138" lon="2.83538">
        <ele>120.6</ele>
      </trkpt>
      <trkpt lat="47.83161" lon="2.83533">
        <ele>121.3</ele>
      </trkpt>
      <trkpt lat="47.83204" lon="2.83514">
        <ele>120.8</ele>
      </trkpt>
      <trkpt lat="47.83258" lon="2.83487">
        <ele>121.2</ele>
      </trkpt>
      <trkpt lat="47.83292" lon="2.83462">
        <ele>121</ele>
      </trkpt>
      <trkpt lat="47.83327" lon="2.83442">
        <ele>122.7</ele>
      </trkpt>
      <trkpt lat="47.83331" lon="2.8344">
        <ele>122.8</ele>
      </trkpt>
      <trkpt lat="47.83327" lon="2.83442">
        <ele>122.7</ele>
      </trkpt>
      <trkpt lat="47.83331" lon="2.8344">
        <ele>122.8</ele>
        <extensions>
          <visugpx:TrkExtension xmlns:visugpx="https://www.visugpx.com/editgpx/">
            <visugpx:node>27</visugpx:node>
            </visugpx:TrkExtension>
        </extensions>
      </trkpt>
      <trkpt lat="47.83418" lon="2.83404">
        <ele>121.4</ele>
      </trkpt>
      <trkpt lat="47.83435" lon="2.83399">
        <ele>121.2</ele>
      </trkpt>
      <trkpt lat="47.83478" lon="2.83397">
        <ele>121.4</ele>
      </trkpt>
      <trkpt lat="47.83714" lon="2.83397">
        <ele>121.3</ele>
      </trkpt>
      <trkpt lat="47.83726" lon="2.83395">
        <ele>121.6</ele>
      </trkpt>
      <trkpt lat="47.83743" lon="2.83387">
        <ele>122.7</ele>
      </trkpt>
      <trkpt lat="47.83769" lon="2.83364">
        <ele>122.2</ele>
      </trkpt>
      <trkpt lat="47.83785" lon="2.83332">
        <ele>121.5</ele>
      </trkpt>
      <trkpt lat="47.83791" lon="2.83315">
        <ele>121.3</ele>
      </trkpt>
      <trkpt lat="47.83866" lon="2.82991">
        <ele>121.5</ele>
      </trkpt>
      <trkpt lat="47.83904" lon="2.82849">
        <ele>120.9</ele>
      </trkpt>
      <trkpt lat="47.84001" lon="2.82516">
        <ele>121.5</ele>
      </trkpt>
      <trkpt lat="47.84039" lon="2.82399">
        <ele>120.5</ele>
      </trkpt>
      <trkpt lat="47.84057" lon="2.82362">
        <ele>120.6</ele>
      </trkpt>
      <trkpt lat="47.8406" lon="2.82357">
        <ele>119.6</ele>
      </trkpt>
      <trkpt lat="47.84101" lon="2.82235">
        <ele>115.9</ele>
      </trkpt>
      <trkpt lat="47.84124" lon="2.82187">
        <ele>115.9</ele>
      </trkpt>
      <trkpt lat="47.84143" lon="2.82161">
        <ele>116.8</ele>
      </trkpt>
      <trkpt lat="47.84167" lon="2.82133">
        <ele>117</ele>
      </trkpt>
      <trkpt lat="47.84241" lon="2.82063">
        <ele>116.1</ele>
      </trkpt>
      <trkpt lat="47.84338" lon="2.81954">
        <ele>115.7</ele>
      </trkpt>
      <trkpt lat="47.84426" lon="2.81861">
        <ele>115.3</ele>
      </trkpt>
      <trkpt lat="47.84498" lon="2.8182">
        <ele>115</ele>
      </trkpt>
      <trkpt lat="47.84625" lon="2.81779">
        <ele>115.9</ele>
      </trkpt>
      <trkpt lat="47.84661" lon="2.8177">
        <ele>115.7</ele>
      </trkpt>
      <trkpt lat="47.84683" lon="2.81767">
        <ele>115.8</ele>
      </trkpt>
      <trkpt lat="47.84716" lon="2.8177">
        <ele>115.6</ele>
      </trkpt>
      <trkpt lat="47.84834" lon="2.81789">
        <ele>115.8</ele>
      </trkpt>
      <trkpt lat="47.84862" lon="2.81792">
        <ele>115.5</ele>
      </trkpt>
      <trkpt lat="47.84871" lon="2.8179">
        <ele>115.7</ele>
      </trkpt>
      <trkpt lat="47.84886" lon="2.81789">
        <ele>115.8</ele>
      </trkpt>
      <trkpt lat="47.84908" lon="2.81785">
        <ele>116</ele>
      </trkpt>
      <trkpt lat="47.84954" lon="2.81788">
        <ele>114.9</ele>
      </trkpt>
      <trkpt lat="47.84983" lon="2.81795">
        <ele>114.9</ele>
      </trkpt>
      <trkpt lat="47.85097" lon="2.81841">
        <ele>115.4</ele>
      </trkpt>
      <trkpt lat="47.85204" lon="2.81877">
        <ele>115.1</ele>
      </trkpt>
      <trkpt lat="47.85314" lon="2.81911">
        <ele>114.9</ele>
      </trkpt>
      <trkpt lat="47.85386" lon="2.81931">
        <ele>115.4</ele>
      </trkpt>
      <trkpt lat="47.85414" lon="2.81934">
        <ele>115.7</ele>
      </trkpt>
      <trkpt lat="47.85439" lon="2.81932">
        <ele>115.9</ele>
      </trkpt>
      <trkpt lat="47.85469" lon="2.81922">
        <ele>115.7</ele>
      </trkpt>
      <trkpt lat="47.85527" lon="2.81876">
        <ele>116</ele>
      </trkpt>
      <trkpt lat="47.85553" lon="2.81867">
        <ele>116.4</ele>
      </trkpt>
      <trkpt lat="47.85571" lon="2.81864">
        <ele>116.7</ele>
      </trkpt>
      <trkpt lat="47.85592" lon="2.81866">
        <ele>116.5</ele>
      </trkpt>
      <trkpt lat="47.85608" lon="2.81871">
        <ele>116.2</ele>
      </trkpt>
      <trkpt lat="47.85694" lon="2.81918">
        <ele>115.9</ele>
      </trkpt>
      <trkpt lat="47.85728" lon="2.81927">
        <ele>116</ele>
      </trkpt>
      <trkpt lat="47.85805" lon="2.81942">
        <ele>116.1</ele>
      </trkpt>
      <trkpt lat="47.85823" lon="2.81949">
        <ele>116.2</ele>
      </trkpt>
      <trkpt lat="47.85906" lon="2.81997">
        <ele>115.4</ele>
      </trkpt>
      <trkpt lat="47.85949" lon="2.82027">
        <ele>115.4</ele>
      </trkpt>
      <trkpt lat="47.85994" lon="2.82049">
        <ele>112.4</ele>
      </trkpt>
      <trkpt lat="47.86006" lon="2.82059">
        <ele>112.6</ele>
      </trkpt>
      <trkpt lat="47.86064" lon="2.82096">
        <ele>111.8</ele>
      </trkpt>
      <trkpt lat="47.86088" lon="2.82106">
        <ele>112.6</ele>
      </trkpt>
      <trkpt lat="47.86103" lon="2.82118">
        <ele>112.1</ele>
      </trkpt>
      <trkpt lat="47.86152" lon="2.82153">
        <ele>111</ele>
      </trkpt>
      <trkpt lat="47.86183" lon="2.82182">
        <ele>111</ele>
      </trkpt>
      <trkpt lat="47.8623" lon="2.82222">
        <ele>111.3</ele>
      </trkpt>
      <trkpt lat="47.86275" lon="2.82267">
        <ele>110.9</ele>
      </trkpt>
      <trkpt lat="47.86408" lon="2.82389">
        <ele>110.7</ele>
      </trkpt>
      <trkpt lat="47.86432" lon="2.82414">
        <ele>110.6</ele>
      </trkpt>
      <trkpt lat="47.86523" lon="2.82553">
        <ele>110.8</ele>
      </trkpt>
      <trkpt lat="47.86597" lon="2.8266">
        <ele>110.7</ele>
      </trkpt>
      <trkpt lat="47.86661" lon="2.82757">
        <ele>110.6</ele>
      </trkpt>
      <trkpt lat="47.86688" lon="2.82778">
        <ele>110.8</ele>
      </trkpt>
      <trkpt lat="47.86715" lon="2.82793">
        <ele>110.5</ele>
      </trkpt>
      <trkpt lat="47.86736" lon="2.82798">
        <ele>110.3</ele>
      </trkpt>
      <trkpt lat="47.86791" lon="2.82798">
        <ele>110.4</ele>
      </trkpt>
      <trkpt lat="47.86815" lon="2.82793">
        <ele>110.8</ele>
      </trkpt>
      <trkpt lat="47.86837" lon="2.82785">
        <ele>110.7</ele>
      </trkpt>
      <trkpt lat="47.86838" lon="2.82783">
        <ele>110.8</ele>
        <extensions>
          <visugpx:TrkExtension xmlns:visugpx="https://www.visugpx.com/editgpx/">
            <visugpx:node>28</visugpx:node>
            </visugpx:TrkExtension>
        </extensions>
      </trkpt>
      <trkpt lat="47.86838" lon="2.82785">
        <ele>110.7</ele>
      </trkpt>
      <trkpt lat="47.86863" lon="2.82772">
        <ele>110.9</ele>
      </trkpt>
      <trkpt lat="47.86997" lon="2.82684">
        <ele>110.8</ele>
      </trkpt>
      <trkpt lat="47.8701" lon="2.82668">
        <ele>111.2</ele>
      </trkpt>
      <trkpt lat="47.87031" lon="2.82643">
        <ele>111.4</ele>
      </trkpt>
      <trkpt lat="47.87042" lon="2.82622">
        <ele>111.1</ele>
      </trkpt>
      <trkpt lat="47.8707" lon="2.82553">
        <ele>110.5</ele>
      </trkpt>
      <trkpt lat="47.8709" lon="2.82485">
        <ele>110.5</ele>
      </trkpt>
      <trkpt lat="47.87093" lon="2.82477">
        <ele>110.3</ele>
      </trkpt>
      <trkpt lat="47.8709" lon="2.82485">
        <ele>110.5</ele>
      </trkpt>
      <trkpt lat="47.87094" lon="2.82478">
        <ele>110.2</ele>
        <extensions>
          <visugpx:TrkExtension xmlns:visugpx="https://www.visugpx.com/editgpx/">
            <visugpx:node>29</visugpx:node>
            </visugpx:TrkExtension>
        </extensions>
      </trkpt>
      <trkpt lat="47.8712" lon="2.824">
        <ele>110.4</ele>
      </trkpt>
      <trkpt lat="47.87201" lon="2.82197">
        <ele>110.8</ele>
      </trkpt>
      <trkpt lat="47.87216" lon="2.82168">
        <ele>111.2</ele>
      </trkpt>
      <trkpt lat="47.87233" lon="2.82146">
        <ele>110.9</ele>
      </trkpt>
      <trkpt lat="47.87362" lon="2.8203">
        <ele>111.7</ele>
      </trkpt>
      <trkpt lat="47.87383" lon="2.82015">
        <ele>110.7</ele>
      </trkpt>
      <trkpt lat="47.87409" lon="2.81997">
        <ele>111.4</ele>
      </trkpt>
      <trkpt lat="47.87431" lon="2.8198">
        <ele>111.7</ele>
      </trkpt>
      <trkpt lat="47.87476" lon="2.81929">
        <ele>110.9</ele>
      </trkpt>
      <trkpt lat="47.87499" lon="2.81911">
        <ele>111.2</ele>
      </trkpt>
      <trkpt lat="47.87522" lon="2.81898">
        <ele>110.9</ele>
      </trkpt>
      <trkpt lat="47.87545" lon="2.81893">
        <ele>111.3</ele>
      </trkpt>
      <trkpt lat="47.87566" lon="2.81893">
        <ele>111</ele>
      </trkpt>
      <trkpt lat="47.87604" lon="2.81903">
        <ele>109.9</ele>
      </trkpt>
      <trkpt lat="47.87641" lon="2.819">
        <ele>110.2</ele>
      </trkpt>
      <trkpt lat="47.87783" lon="2.81873">
        <ele>110.1</ele>
      </trkpt>
      <trkpt lat="47.87846" lon="2.81858">
        <ele>110.1</ele>
      </trkpt>
      <trkpt lat="47.87912" lon="2.81851">
        <ele>109.7</ele>
      </trkpt>
      <trkpt lat="47.87975" lon="2.81849">
        <ele>109.9</ele>
      </trkpt>
      <trkpt lat="47.88054" lon="2.81858">
        <ele>110.2</ele>
      </trkpt>
      <trkpt lat="47.88127" lon="2.81876">
        <ele>110</ele>
      </trkpt>
      <trkpt lat="47.88169" lon="2.81892">
        <ele>114.2</ele>
      </trkpt>
      <trkpt lat="47.88212" lon="2.81905">
        <ele>109.8</ele>
      </trkpt>
      <trkpt lat="47.88226" lon="2.81903">
        <ele>110.1</ele>
      </trkpt>
      <trkpt lat="47.88299" lon="2.81943">
        <ele>109.6</ele>
      </trkpt>
      <trkpt lat="47.8837" lon="2.81985">
        <ele>109.6</ele>
      </trkpt>
      <trkpt lat="47.88406" lon="2.82">
        <ele>110.6</ele>
      </trkpt>
      <trkpt lat="47.88426" lon="2.82004">
        <ele>110.5</ele>
      </trkpt>
      <trkpt lat="47.88446" lon="2.82005">
        <ele>110.5</ele>
      </trkpt>
      <trkpt lat="47.88489" lon="2.82">
        <ele>110.4</ele>
      </trkpt>
      <trkpt lat="47.88527" lon="2.81983">
        <ele>110.3</ele>
      </trkpt>
      <trkpt lat="47.88751" lon="2.81866">
        <ele>110.6</ele>
      </trkpt>
      <trkpt lat="47.88791" lon="2.81826">
        <ele>110.3</ele>
      </trkpt>
      <trkpt lat="47.88825" lon="2.81774">
        <ele>109.8</ele>
      </trkpt>
      <trkpt lat="47.8887" lon="2.81712">
        <ele>110</ele>
      </trkpt>
      <trkpt lat="47.88913" lon="2.81632">
        <ele>109.7</ele>
      </trkpt>
      <trkpt lat="47.8887" lon="2.81712">
        <ele>110</ele>
      </trkpt>
      <trkpt lat="47.88913" lon="2.81632">
        <ele>109.7</ele>
        <extensions>
          <visugpx:TrkExtension xmlns:visugpx="https://www.visugpx.com/editgpx/">
            <visugpx:node>30</visugpx:node>
            </visugpx:TrkExtension>
        </extensions>
      </trkpt>
      <trkpt lat="47.88998" lon="2.81471">
        <ele>111.1</ele>
      </trkpt>
      <trkpt lat="47.89013" lon="2.81454">
        <ele>110</ele>
      </trkpt>
      <trkpt lat="47.89189" lon="2.81285">
        <ele>110.2</ele>
      </trkpt>
      <trkpt lat="47.89225" lon="2.81259">
        <ele>110</ele>
      </trkpt>
      <trkpt lat="47.89345" lon="2.81201">
        <ele>110.2</ele>
      </trkpt>
      <trkpt lat="47.89366" lon="2.81199">
        <ele>110.3</ele>
      </trkpt>
      <trkpt lat="47.89495" lon="2.81222">
        <ele>110.8</ele>
      </trkpt>
      <trkpt lat="47.89629" lon="2.81257">
        <ele>109.3</ele>
      </trkpt>
      <trkpt lat="47.89706" lon="2.81283">
        <ele>110</ele>
      </trkpt>
      <trkpt lat="47.89744" lon="2.81304">
        <ele>109.4</ele>
      </trkpt>
      <trkpt lat="47.89866" lon="2.81343">
        <ele>109.3</ele>
      </trkpt>
      <trkpt lat="47.89982" lon="2.81363">
        <ele>110</ele>
      </trkpt>
      <trkpt lat="47.90042" lon="2.8138">
        <ele>109.3</ele>
      </trkpt>
      <trkpt lat="47.90105" lon="2.81407">
        <ele>109.3</ele>
      </trkpt>
      <trkpt lat="47.90127" lon="2.81413">
        <ele>109.8</ele>
      </trkpt>
      <trkpt lat="47.90227" lon="2.81426">
        <ele>109.7</ele>
      </trkpt>
      <trkpt lat="47.9024" lon="2.81424">
        <ele>109.9</ele>
      </trkpt>
      <trkpt lat="47.90253" lon="2.8142">
        <ele>110.4</ele>
      </trkpt>
      <trkpt lat="47.90304" lon="2.81388">
        <ele>111</ele>
      </trkpt>
      <trkpt lat="47.90444" lon="2.81291">
        <ele>111</ele>
      </trkpt>
      <trkpt lat="47.90455" lon="2.8129">
        <ele>111</ele>
      </trkpt>
      <trkpt lat="47.90474" lon="2.813">
        <ele>111</ele>
      </trkpt>
      <trkpt lat="47.90484" lon="2.813">
        <ele>111</ele>
      </trkpt>
      <trkpt lat="47.90529" lon="2.81265">
        <ele>111</ele>
      </trkpt>
      <trkpt lat="47.90531" lon="2.81255">
        <ele>111</ele>
      </trkpt>
      <trkpt lat="47.90526" lon="2.81214">
        <ele>111.7</ele>
      </trkpt>
      <trkpt lat="47.9053" lon="2.81201">
        <ele>111.4</ele>
      </trkpt>
      <trkpt lat="47.90565" lon="2.81171">
        <ele>112.3</ele>
      </trkpt>
      <trkpt lat="47.90604" lon="2.81149">
        <ele>111.2</ele>
      </trkpt>
      <trkpt lat="47.90634" lon="2.81132">
        <ele>110.5</ele>
      </trkpt>
      <trkpt lat="47.90672" lon="2.81125">
        <ele>111</ele>
      </trkpt>
      <trkpt lat="47.90746" lon="2.8115">
        <ele>110.9</ele>
      </trkpt>
      <trkpt lat="47.90805" lon="2.81155">
        <ele>110.4</ele>
      </trkpt>
      <trkpt lat="47.90836" lon="2.81148">
        <ele>110.3</ele>
      </trkpt>
      <trkpt lat="47.90966" lon="2.81099">
        <ele>110</ele>
      </trkpt>
      <trkpt lat="47.91015" lon="2.81075">
        <ele>109.2</ele>
      </trkpt>
      <trkpt lat="47.91058" lon="2.81046">
        <ele>108.8</ele>
      </trkpt>
      <trkpt lat="47.91081" lon="2.81032">
        <ele>110</ele>
      </trkpt>
      <trkpt lat="47.9111" lon="2.81016">
        <ele>108.8</ele>
      </trkpt>
      <trkpt lat="47.91139" lon="2.81006">
        <ele>109.5</ele>
      </trkpt>
      <trkpt lat="47.91188" lon="2.80995">
        <ele>109.8</ele>
      </trkpt>
      <trkpt lat="47.91283" lon="2.80977">
        <ele>109.8</ele>
      </trkpt>
      <trkpt lat="47.91319" lon="2.80975">
        <ele>110.2</ele>
      </trkpt>
      <trkpt lat="47.91339" lon="2.80977">
        <ele>109.9</ele>
      </trkpt>
      <trkpt lat="47.91481" lon="2.81042">
        <ele>109.8</ele>
      </trkpt>
      <trkpt lat="47.91514" lon="2.81062">
        <ele>110.7</ele>
      </trkpt>
      <trkpt lat="47.91594" lon="2.81127">
        <ele>110.3</ele>
      </trkpt>
      <trkpt lat="47.91648" lon="2.81162">
        <ele>111</ele>
      </trkpt>
      <trkpt lat="47.91696" lon="2.81181">
        <ele>110.5</ele>
      </trkpt>
      <trkpt lat="47.91731" lon="2.81187">
        <ele>111</ele>
      </trkpt>
      <trkpt lat="47.91828" lon="2.81196">
        <ele>110.9</ele>
      </trkpt>
      <trkpt lat="47.91731" lon="2.81187">
        <ele>111</ele>
      </trkpt>
      <trkpt lat="47.91828" lon="2.81196">
        <ele>110.9</ele>
        <extensions>
          <visugpx:TrkExtension xmlns:visugpx="https://www.visugpx.com/editgpx/">
            <visugpx:node>31</visugpx:node>
            </visugpx:TrkExtension>
        </extensions>
      </trkpt>
      <trkpt lat="47.92258" lon="2.81238">
        <ele>110.4</ele>
      </trkpt>
      <trkpt lat="47.92284" lon="2.81238">
        <ele>110.4</ele>
      </trkpt>
      <trkpt lat="47.9231" lon="2.81234">
        <ele>110.5</ele>
      </trkpt>
      <trkpt lat="47.92329" lon="2.81229">
        <ele>110.6</ele>
      </trkpt>
      <trkpt lat="47.92361" lon="2.81215">
        <ele>111</ele>
      </trkpt>
      <trkpt lat="47.92406" lon="2.81201">
        <ele>110.6</ele>
      </trkpt>
      <trkpt lat="47.92433" lon="2.81195">
        <ele>110.9</ele>
      </trkpt>
      <trkpt lat="47.92497" lon="2.81193">
        <ele>111</ele>
      </trkpt>
      <trkpt lat="47.92636" lon="2.81196">
        <ele>110.8</ele>
      </trkpt>
      <trkpt lat="47.92783" lon="2.81196">
        <ele>110.8</ele>
      </trkpt>
      <trkpt lat="47.92891" lon="2.81203">
        <ele>107.1</ele>
      </trkpt>
      <trkpt lat="47.92938" lon="2.81196">
        <ele>107.8</ele>
      </trkpt>
      <trkpt lat="47.92982" lon="2.81184">
        <ele>107.2</ele>
      </trkpt>
      <trkpt lat="47.9306" lon="2.81153">
        <ele>106.8</ele>
      </trkpt>
      <trkpt lat="47.93122" lon="2.81119">
        <ele>106.9</ele>
      </trkpt>
      <trkpt lat="47.93158" lon="2.81095">
        <ele>106.4</ele>
      </trkpt>
      <trkpt lat="47.93191" lon="2.81077">
        <ele>105.9</ele>
      </trkpt>
      <trkpt lat="47.93196" lon="2.81075">
        <ele>105.6</ele>
      </trkpt>
      <trkpt lat="47.93207" lon="2.81073">
        <ele>104.9</ele>
      </trkpt>
      <trkpt lat="47.93236" lon="2.81061">
        <ele>103.9</ele>
      </trkpt>
      <trkpt lat="47.93287" lon="2.81036">
        <ele>103.4</ele>
      </trkpt>
      <trkpt lat="47.93311" lon="2.81017">
        <ele>103.3</ele>
      </trkpt>
      <trkpt lat="47.93361" lon="2.80974">
        <ele>103.8</ele>
      </trkpt>
      <trkpt lat="47.93388" lon="2.80942">
        <ele>103.1</ele>
      </trkpt>
      <trkpt lat="47.9343" lon="2.80882">
        <ele>102.8</ele>
      </trkpt>
      <trkpt lat="47.93447" lon="2.80852">
        <ele>103</ele>
      </trkpt>
      <trkpt lat="47.93463" lon="2.80811">
        <ele>102.4</ele>
      </trkpt>
      <trkpt lat="47.93476" lon="2.80785">
        <ele>103.4</ele>
      </trkpt>
      <trkpt lat="47.93494" lon="2.80761">
        <ele>103.2</ele>
      </trkpt>
      <trkpt lat="47.93503" lon="2.8075">
        <ele>102.9</ele>
      </trkpt>
      <trkpt lat="47.93535" lon="2.80695">
        <ele>99.8</ele>
      </trkpt>
      <trkpt lat="47.93572" lon="2.80621">
        <ele>99</ele>
      </trkpt>
      <trkpt lat="47.93621" lon="2.80502">
        <ele>98.9</ele>
      </trkpt>
      <trkpt lat="47.93661" lon="2.80396">
        <ele>98.8</ele>
      </trkpt>
      <trkpt lat="47.93674" lon="2.80348">
        <ele>99.2</ele>
      </trkpt>
      <trkpt lat="47.93825" lon="2.79952">
        <ele>96.2</ele>
      </trkpt>
      <trkpt lat="47.93848" lon="2.79882">
        <ele>96.5</ele>
      </trkpt>
      <trkpt lat="47.93924" lon="2.79612">
        <ele>96.5</ele>
      </trkpt>
      <trkpt lat="47.93958" lon="2.79508">
        <ele>96.2</ele>
      </trkpt>
      <trkpt lat="47.93965" lon="2.79494">
        <ele>95.8</ele>
        <extensions>
          <visugpx:TrkExtension xmlns:visugpx="https://www.visugpx.com/editgpx/">
            <visugpx:node>32</visugpx:node>
            </visugpx:TrkExtension>
        </extensions>
      </trkpt>
      <trkpt lat="47.94056" lon="2.79316">
        <ele>96.2</ele>
      </trkpt>
      <trkpt lat="47.94067" lon="2.79291">
        <ele>96</ele>
      </trkpt>
      <trkpt lat="47.94078" lon="2.79252">
        <ele>96.1</ele>
      </trkpt>
      <trkpt lat="47.94105" lon="2.79087">
        <ele>96.1</ele>
      </trkpt>
      <trkpt lat="47.94114" lon="2.79047">
        <ele>95.9</ele>
      </trkpt>
      <trkpt lat="47.94123" lon="2.7902">
        <ele>95.4</ele>
      </trkpt>
      <trkpt lat="47.94134" lon="2.78996">
        <ele>95.6</ele>
      </trkpt>
      <trkpt lat="47.94149" lon="2.78971">
        <ele>95.9</ele>
      </trkpt>
      <trkpt lat="47.94202" lon="2.78893">
        <ele>95.7</ele>
      </trkpt>
      <trkpt lat="47.94219" lon="2.78871">
        <ele>95.8</ele>
      </trkpt>
      <trkpt lat="47.94231" lon="2.78858">
        <ele>95.8</ele>
      </trkpt>
      <trkpt lat="47.94256" lon="2.78822">
        <ele>96.7</ele>
      </trkpt>
      <trkpt lat="47.94295" lon="2.78772">
        <ele>96</ele>
      </trkpt>
      <trkpt lat="47.9434" lon="2.78718">
        <ele>95.9</ele>
      </trkpt>
      <trkpt lat="47.94393" lon="2.78666">
        <ele>95.9</ele>
      </trkpt>
      <trkpt lat="47.94428" lon="2.78641">
        <ele>96.4</ele>
      </trkpt>
      <trkpt lat="47.94497" lon="2.78597">
        <ele>95.6</ele>
      </trkpt>
      <trkpt lat="47.94554" lon="2.78563">
        <ele>95.5</ele>
      </trkpt>
      <trkpt lat="47.94593" lon="2.78542">
        <ele>96.3</ele>
      </trkpt>
      <trkpt lat="47.94639" lon="2.78513">
        <ele>96.5</ele>
      </trkpt>
      <trkpt lat="47.94717" lon="2.7845">
        <ele>96</ele>
      </trkpt>
      <trkpt lat="47.9475" lon="2.78426">
        <ele>95.7</ele>
      </trkpt>
      <trkpt lat="47.94757" lon="2.78423">
        <ele>95.5</ele>
      </trkpt>
      <trkpt lat="47.94792" lon="2.78393">
        <ele>94.1</ele>
      </trkpt>
      <trkpt lat="47.94896" lon="2.78305">
        <ele>94</ele>
      </trkpt>
      <trkpt lat="47.94983" lon="2.78235">
        <ele>94</ele>
      </trkpt>
      <trkpt lat="47.95059" lon="2.78183">
        <ele>93.6</ele>
      </trkpt>
      <trkpt lat="47.95136" lon="2.78127">
        <ele>93.5</ele>
      </trkpt>
      <trkpt lat="47.95159" lon="2.78103">
        <ele>93.5</ele>
      </trkpt>
      <trkpt lat="47.95164" lon="2.78098">
        <ele>93.5</ele>
      </trkpt>
      <trkpt lat="47.95159" lon="2.78103">
        <ele>93.5</ele>
      </trkpt>
      <trkpt lat="47.95164" lon="2.78098">
        <ele>93.5</ele>
        <extensions>
          <visugpx:TrkExtension xmlns:visugpx="https://www.visugpx.com/editgpx/">
            <visugpx:node>33</visugpx:node>
            </visugpx:TrkExtension>
        </extensions>
      </trkpt>
      <trkpt lat="47.95165" lon="2.78097">
        <ele>93.5</ele>
      </trkpt>
      <trkpt lat="47.95179" lon="2.78082">
        <ele>93.6</ele>
      </trkpt>
      <trkpt lat="47.95214" lon="2.78049">
        <ele>93.5</ele>
      </trkpt>
      <trkpt lat="47.95252" lon="2.78024">
        <ele>93.8</ele>
      </trkpt>
      <trkpt lat="47.95313" lon="2.77989">
        <ele>93.8</ele>
      </trkpt>
      <trkpt lat="47.95431" lon="2.77933">
        <ele>92.7</ele>
      </trkpt>
      <trkpt lat="47.95455" lon="2.77915">
        <ele>93</ele>
      </trkpt>
      <trkpt lat="47.95568" lon="2.77799">
        <ele>93.4</ele>
      </trkpt>
      <trkpt lat="47.95585" lon="2.77784">
        <ele>93</ele>
      </trkpt>
      <trkpt lat="47.95605" lon="2.77771">
        <ele>93.1</ele>
      </trkpt>
      <trkpt lat="47.95698" lon="2.77718">
        <ele>92.9</ele>
      </trkpt>
      <trkpt lat="47.95709" lon="2.7771">
        <ele>92.7</ele>
      </trkpt>
      <trkpt lat="47.95724" lon="2.77693">
        <ele>92.9</ele>
      </trkpt>
      <trkpt lat="47.95744" lon="2.77664">
        <ele>93.1</ele>
      </trkpt>
      <trkpt lat="47.95807" lon="2.7758">
        <ele>93.1</ele>
      </trkpt>
      <trkpt lat="47.95836" lon="2.77545">
        <ele>92.9</ele>
      </trkpt>
      <trkpt lat="47.95896" lon="2.77487">
        <ele>92.9</ele>
      </trkpt>
      <trkpt lat="47.95937" lon="2.77451">
        <ele>93</ele>
      </trkpt>
      <trkpt lat="47.96001" lon="2.77399">
        <ele>92.6</ele>
      </trkpt>
      <trkpt lat="47.96025" lon="2.77376">
        <ele>92.6</ele>
      </trkpt>
      <trkpt lat="47.96033" lon="2.77365">
        <ele>92.7</ele>
      </trkpt>
      <trkpt lat="47.96041" lon="2.77352">
        <ele>92.7</ele>
      </trkpt>
      <trkpt lat="47.96046" lon="2.77344">
        <ele>92.7</ele>
      </trkpt>
      <trkpt lat="47.96061" lon="2.77304">
        <ele>92.8</ele>
      </trkpt>
      <trkpt lat="47.96088" lon="2.77215">
        <ele>93.4</ele>
      </trkpt>
      <trkpt lat="47.96147" lon="2.77032">
        <ele>92.4</ele>
      </trkpt>
      <trkpt lat="47.96176" lon="2.76984">
        <ele>92.5</ele>
      </trkpt>
      <trkpt lat="47.96255" lon="2.76869">
        <ele>92.4</ele>
        <extensions>
          <visugpx:TrkExtension xmlns:visugpx="https://www.visugpx.com/editgpx/">
            <visugpx:node>34</visugpx:node>
            </visugpx:TrkExtension>
        </extensions>
      </trkpt>
      <trkpt lat="47.96297" lon="2.76807">
        <ele>92.3</ele>
      </trkpt>
      <trkpt lat="47.96324" lon="2.76758">
        <ele>92.6</ele>
      </trkpt>
      <trkpt lat="47.96333" lon="2.76744">
        <ele>93</ele>
      </trkpt>
      <trkpt lat="47.96348" lon="2.76725">
        <ele>94</ele>
      </trkpt>
      <trkpt lat="47.96359" lon="2.76717">
        <ele>94.5</ele>
      </trkpt>
      <trkpt lat="47.96356" lon="2.76713">
        <ele>94.2</ele>
      </trkpt>
      <trkpt lat="47.96344" lon="2.76692">
        <ele>94.2</ele>
      </trkpt>
      <trkpt lat="47.96339" lon="2.76683">
        <ele>94.6</ele>
      </trkpt>
      <trkpt lat="47.96329" lon="2.76659">
        <ele>95.2</ele>
      </trkpt>
      <trkpt lat="47.96306" lon="2.76589">
        <ele>98.8</ele>
      </trkpt>
      <trkpt lat="47.96295" lon="2.76555">
        <ele>99</ele>
      </trkpt>
      <trkpt lat="47.9629" lon="2.7654">
        <ele>99.6</ele>
      </trkpt>
      <trkpt lat="47.96284" lon="2.76507">
        <ele>100.2</ele>
      </trkpt>
      <trkpt lat="47.96281" lon="2.76476">
        <ele>100.9</ele>
      </trkpt>
      <trkpt lat="47.96279" lon="2.76464">
        <ele>101.3</ele>
      </trkpt>
      <trkpt lat="47.96278" lon="2.76446">
        <ele>101.9</ele>
      </trkpt>
      <trkpt lat="47.9628" lon="2.7644">
        <ele>101.9</ele>
      </trkpt>
      <trkpt lat="47.9628" lon="2.76433">
        <ele>101.9</ele>
      </trkpt>
      <trkpt lat="47.96278" lon="2.76427">
        <ele>102</ele>
      </trkpt>
      <trkpt lat="47.96279" lon="2.7641">
        <ele>102</ele>
      </trkpt>
      <trkpt lat="47.96294" lon="2.76382">
        <ele>102</ele>
      </trkpt>
      <trkpt lat="47.96401" lon="2.76243">
        <ele>102</ele>
      </trkpt>
      <trkpt lat="47.96431" lon="2.76205">
        <ele>101.8</ele>
      </trkpt>
      <trkpt lat="47.96477" lon="2.76138">
        <ele>102</ele>
      </trkpt>
      <trkpt lat="47.96513" lon="2.76087">
        <ele>101.5</ele>
      </trkpt>
      <trkpt lat="47.9658" lon="2.75993">
        <ele>101</ele>
      </trkpt>
      <trkpt lat="47.96614" lon="2.7595">
        <ele>100.8</ele>
      </trkpt>
      <trkpt lat="47.96649" lon="2.75914">
        <ele>100.7</ele>
      </trkpt>
      <trkpt lat="47.96683" lon="2.75882">
        <ele>100.6</ele>
      </trkpt>
      <trkpt lat="47.96732" lon="2.75837">
        <ele>101</ele>
      </trkpt>
      <trkpt lat="47.96761" lon="2.75815">
        <ele>100.3</ele>
      </trkpt>
      <trkpt lat="47.96855" lon="2.75763">
        <ele>99.2</ele>
      </trkpt>
      <trkpt lat="47.96895" lon="2.75737">
        <ele>98.8</ele>
      </trkpt>
      <trkpt lat="47.96915" lon="2.75718">
        <ele>98</ele>
      </trkpt>
      <trkpt lat="47.96927" lon="2.75702">
        <ele>97.9</ele>
      </trkpt>
      <trkpt lat="47.96931" lon="2.75697">
        <ele>98</ele>
      </trkpt>
      <trkpt lat="47.96935" lon="2.75693">
        <ele>97.9</ele>
      </trkpt>
      <trkpt lat="47.96959" lon="2.75666">
        <ele>96.5</ele>
      </trkpt>
      <trkpt lat="47.96996" lon="2.75631">
        <ele>94.9</ele>
      </trkpt>
      <trkpt lat="47.97009" lon="2.75615">
        <ele>94.3</ele>
      </trkpt>
      <trkpt lat="47.97027" lon="2.75588">
        <ele>94.7</ele>
      </trkpt>
      <trkpt lat="47.97043" lon="2.75557">
        <ele>95.4</ele>
      </trkpt>
      <trkpt lat="47.97049" lon="2.75545">
        <ele>95.2</ele>
      </trkpt>
      <trkpt lat="47.97054" lon="2.75532">
        <ele>95.1</ele>
      </trkpt>
      <trkpt lat="47.97103" lon="2.75388">
        <ele>98.3</ele>
      </trkpt>
      <trkpt lat="47.9713" lon="2.75317">
        <ele>99.2</ele>
      </trkpt>
      <trkpt lat="47.9715" lon="2.75273">
        <ele>99.7</ele>
        <extensions>
          <visugpx:TrkExtension xmlns:visugpx="https://www.visugpx.com/editgpx/">
            <visugpx:node>35</visugpx:node>
            </visugpx:TrkExtension>
        </extensions>
      </trkpt>
      <trkpt lat="47.97227" lon="2.75098">
        <ele>99.8</ele>
      </trkpt>
      <trkpt lat="47.97242" lon="2.75062">
        <ele>100.1</ele>
      </trkpt>
      <trkpt lat="47.9726" lon="2.75011">
        <ele>100.2</ele>
      </trkpt>
      <trkpt lat="47.97272" lon="2.74981">
        <ele>100.2</ele>
      </trkpt>
      <trkpt lat="47.97281" lon="2.74955">
        <ele>100.4</ele>
      </trkpt>
      <trkpt lat="47.97314" lon="2.74864">
        <ele>101.6</ele>
      </trkpt>
      <trkpt lat="47.97324" lon="2.7484">
        <ele>101.6</ele>
      </trkpt>
      <trkpt lat="47.97347" lon="2.74784">
        <ele>102.2</ele>
      </trkpt>
      <trkpt lat="47.97375" lon="2.74729">
        <ele>102.3</ele>
      </trkpt>
      <trkpt lat="47.97378" lon="2.74722">
        <ele>102.4</ele>
      </trkpt>
      <trkpt lat="47.97383" lon="2.74713">
        <ele>102.4</ele>
      </trkpt>
      <trkpt lat="47.97391" lon="2.74697">
        <ele>101.9</ele>
      </trkpt>
      <trkpt lat="47.97458" lon="2.74533">
        <ele>107.1</ele>
      </trkpt>
      <trkpt lat="47.97469" lon="2.74499">
        <ele>107.3</ele>
      </trkpt>
      <trkpt lat="47.97497" lon="2.74397">
        <ele>109.1</ele>
      </trkpt>
      <trkpt lat="47.97503" lon="2.74373">
        <ele>109.5</ele>
      </trkpt>
      <trkpt lat="47.97508" lon="2.74357">
        <ele>109.7</ele>
      </trkpt>
      <trkpt lat="47.97513" lon="2.7434">
        <ele>109.5</ele>
      </trkpt>
      <trkpt lat="47.9754" lon="2.7426">
        <ele>109.8</ele>
      </trkpt>
      <trkpt lat="47.97554" lon="2.74222">
        <ele>110</ele>
      </trkpt>
      <trkpt lat="47.97561" lon="2.74195">
        <ele>109.8</ele>
      </trkpt>
      <trkpt lat="47.97566" lon="2.74167">
        <ele>110</ele>
      </trkpt>
      <trkpt lat="47.97569" lon="2.74132">
        <ele>109.5</ele>
      </trkpt>
      <trkpt lat="47.97573" lon="2.74118">
        <ele>109.4</ele>
      </trkpt>
      <trkpt lat="47.97575" lon="2.74114">
        <ele>109.3</ele>
      </trkpt>
      <trkpt lat="47.97577" lon="2.74113">
        <ele>109.2</ele>
      </trkpt>
      <trkpt lat="47.97581" lon="2.74108">
        <ele>109.1</ele>
      </trkpt>
      <trkpt lat="47.97583" lon="2.74101">
        <ele>109</ele>
      </trkpt>
      <trkpt lat="47.97583" lon="2.74093">
        <ele>109</ele>
      </trkpt>
      <trkpt lat="47.97589" lon="2.7408">
        <ele>109.3</ele>
      </trkpt>
      <trkpt lat="47.97602" lon="2.74056">
        <ele>108.7</ele>
      </trkpt>
      <trkpt lat="47.97607" lon="2.74044">
        <ele>108</ele>
      </trkpt>
      <trkpt lat="47.97611" lon="2.74032">
        <ele>107.2</ele>
      </trkpt>
      <trkpt lat="47.97623" lon="2.73995">
        <ele>110.3</ele>
      </trkpt>
      <trkpt lat="47.97648" lon="2.73922">
        <ele>110.3</ele>
      </trkpt>
      <trkpt lat="47.97653" lon="2.73904">
        <ele>110.5</ele>
      </trkpt>
      <trkpt lat="47.97674" lon="2.73833">
        <ele>111</ele>
      </trkpt>
      <trkpt lat="47.97685" lon="2.73795">
        <ele>110.5</ele>
      </trkpt>
      <trkpt lat="47.97708" lon="2.73727">
        <ele>109.7</ele>
      </trkpt>
      <trkpt lat="47.97685" lon="2.73795">
        <ele>108.016925</ele>
        <time>2022-07-11T02:44:00.831Z</time>
      </trkpt>
      <trkpt lat="47.97708" lon="2.73727">
        <ele>109.6</ele>
        <extensions>
          <visugpx:TrkExtension xmlns:visugpx="https://www.visugpx.com/editgpx/">
            <visugpx:node>36</visugpx:node>
            </visugpx:TrkExtension>
        </extensions>
      </trkpt>
      <trkpt lat="47.97748" lon="2.73603">
        <ele>108.7</ele>
      </trkpt>
      <trkpt lat="47.97749" lon="2.736">
        <ele>108.6</ele>
      </trkpt>
      <trkpt lat="47.97757" lon="2.73578">
        <ele>108.3</ele>
      </trkpt>
      <trkpt lat="47.97777" lon="2.73523">
        <ele>107.8</ele>
      </trkpt>
      <trkpt lat="47.97779" lon="2.73517">
        <ele>107.6</ele>
      </trkpt>
      <trkpt lat="47.978" lon="2.73448">
        <ele>105.9</ele>
      </trkpt>
      <trkpt lat="47.97804" lon="2.73433">
        <ele>105.5</ele>
      </trkpt>
      <trkpt lat="47.97812" lon="2.73408">
        <ele>105.2</ele>
      </trkpt>
      <trkpt lat="47.97821" lon="2.73379">
        <ele>104.6</ele>
      </trkpt>
      <trkpt lat="47.97827" lon="2.73372">
        <ele>104.4</ele>
      </trkpt>
      <trkpt lat="47.97833" lon="2.73364">
        <ele>104.1</ele>
      </trkpt>
      <trkpt lat="47.97837" lon="2.73351">
        <ele>104.2</ele>
      </trkpt>
      <trkpt lat="47.97837" lon="2.73337">
        <ele>104</ele>
      </trkpt>
      <trkpt lat="47.97835" lon="2.73327">
        <ele>103.8</ele>
      </trkpt>
      <trkpt lat="47.97831" lon="2.73319">
        <ele>103.5</ele>
      </trkpt>
      <trkpt lat="47.97827" lon="2.73315">
        <ele>103.3</ele>
      </trkpt>
      <trkpt lat="47.9782" lon="2.73311">
        <ele>103.2</ele>
      </trkpt>
      <trkpt lat="47.97812" lon="2.73311">
        <ele>103.2</ele>
      </trkpt>
      <trkpt lat="47.97807" lon="2.73314">
        <ele>103.3</ele>
      </trkpt>
      <trkpt lat="47.97803" lon="2.73318">
        <ele>103.3</ele>
      </trkpt>
      <trkpt lat="47.97796" lon="2.73318">
        <ele>102.9</ele>
      </trkpt>
      <trkpt lat="47.97775" lon="2.73315">
        <ele>101.6</ele>
      </trkpt>
      <trkpt lat="47.97773" lon="2.73315">
        <ele>101.6</ele>
      </trkpt>
      <trkpt lat="47.97758" lon="2.73315">
        <ele>101.4</ele>
      </trkpt>
      <trkpt lat="47.97753" lon="2.73316">
        <ele>101.4</ele>
      </trkpt>
      <trkpt lat="47.97744" lon="2.73318">
        <ele>101.1</ele>
      </trkpt>
      <trkpt lat="47.97729" lon="2.7332">
        <ele>100.4</ele>
      </trkpt>
      <trkpt lat="47.97711" lon="2.73322">
        <ele>99.8</ele>
      </trkpt>
      <trkpt lat="47.97693" lon="2.73324">
        <ele>99.6</ele>
      </trkpt>
      <trkpt lat="47.97685" lon="2.73325">
        <ele>99.5</ele>
      </trkpt>
      <trkpt lat="47.97678" lon="2.73326">
        <ele>99.3</ele>
      </trkpt>
      <trkpt lat="47.9765" lon="2.73331">
        <ele>99</ele>
      </trkpt>
      <trkpt lat="47.97639" lon="2.73332">
        <ele>99</ele>
      </trkpt>
      <trkpt lat="47.97626" lon="2.73333">
        <ele>99</ele>
      </trkpt>
      <trkpt lat="47.97611" lon="2.73334">
        <ele>99</ele>
      </trkpt>
      <trkpt lat="47.976" lon="2.73275">
        <ele>99</ele>
        <extensions>
          <visugpx:TrkExtension xmlns:visugpx="https://www.visugpx.com/editgpx/">
            <visugpx:node>37</visugpx:node>
            </visugpx:TrkExtension>
        </extensions>
      </trkpt>
    </trkseg>
  </trk>
</gpx>